<?xml version="1.0" encoding="UTF-8" standalone="no" ?>
<gpx xmlns="http://www.topografix.com/GPX/1/1" xmlns:xsi="http://www.w3.org/2001/XMLSchema-instance" xsi:schemaLocation="http://www.topografix.com/GPX/1/1 http://www.topografix.com/GPX/1/1/gpx.xsd" version="1.1" creator="VisuGPX - https://www.visugpx.com">
  <metadata>
    <name>Ballade de F. M.</name>
    <desc><![CDATA[Autour de Ste Gen]]></desc>
  </metadata>
  <trk>
    <name><![CDATA[Sainte Geneviève ]]></name>
    <cmt><![CDATA[5 juin 2013 09:02:37]]></cmt>
    <desc><![CDATA[Rando à Sainte Geneviève ]]></desc>
    <trkseg>
      <trkpt lat="48.86964" lon="6.11991">
        <ele>333.5</ele>
        <time>2013-06-05T07:02:37Z</time>
      </trkpt>
      <trkpt lat="48.86979" lon="6.12024">
        <ele>330</ele>
        <time>2013-06-05T07:02:45Z</time>
      </trkpt>
      <trkpt lat="48.86973" lon="6.12037">
        <ele>328</ele>
        <time>2013-06-05T07:02:51Z</time>
      </trkpt>
      <trkpt lat="48.8697" lon="6.12046">
        <ele>327</ele>
        <time>2013-06-05T07:02:58Z</time>
      </trkpt>
      <trkpt lat="48.86968" lon="6.12054">
        <ele>326</ele>
        <time>2013-06-05T07:03:02Z</time>
      </trkpt>
      <trkpt lat="48.86966" lon="6.12059">
        <ele>325</ele>
        <time>2013-06-05T07:03:07Z</time>
      </trkpt>
      <trkpt lat="48.86961" lon="6.12072">
        <ele>324</ele>
        <time>2013-06-05T07:03:14Z</time>
      </trkpt>
      <trkpt lat="48.86956" lon="6.12083">
        <ele>324</ele>
        <time>2013-06-05T07:03:22Z</time>
      </trkpt>
      <trkpt lat="48.86953" lon="6.12089">
        <ele>324</ele>
        <time>2013-06-05T07:03:26Z</time>
      </trkpt>
      <trkpt lat="48.86949" lon="6.12096">
        <ele>325</ele>
        <time>2013-06-05T07:03:29Z</time>
      </trkpt>
      <trkpt lat="48.86945" lon="6.12101">
        <ele>324</ele>
        <time>2013-06-05T07:03:32Z</time>
      </trkpt>
      <trkpt lat="48.86943" lon="6.12108">
        <ele>325</ele>
        <time>2013-06-05T07:03:35Z</time>
      </trkpt>
      <trkpt lat="48.86939" lon="6.12115">
        <ele>325</ele>
        <time>2013-06-05T07:03:38Z</time>
      </trkpt>
      <trkpt lat="48.86935" lon="6.1212">
        <ele>326</ele>
        <time>2013-06-05T07:03:41Z</time>
      </trkpt>
      <trkpt lat="48.8693" lon="6.12126">
        <ele>327</ele>
        <time>2013-06-05T07:03:46Z</time>
      </trkpt>
      <trkpt lat="48.86924" lon="6.12132">
        <ele>327</ele>
        <time>2013-06-05T07:03:52Z</time>
      </trkpt>
      <trkpt lat="48.8692" lon="6.12137">
        <ele>328</ele>
        <time>2013-06-05T07:03:56Z</time>
      </trkpt>
      <trkpt lat="48.86917" lon="6.12142">
        <ele>327</ele>
        <time>2013-06-05T07:04:00Z</time>
      </trkpt>
      <trkpt lat="48.86912" lon="6.12148">
        <ele>324</ele>
        <time>2013-06-05T07:04:05Z</time>
      </trkpt>
      <trkpt lat="48.86907" lon="6.12153">
        <ele>323</ele>
        <time>2013-06-05T07:04:09Z</time>
      </trkpt>
      <trkpt lat="48.86899" lon="6.1216">
        <ele>322</ele>
        <time>2013-06-05T07:04:15Z</time>
      </trkpt>
      <trkpt lat="48.86894" lon="6.12164">
        <ele>322</ele>
        <time>2013-06-05T07:04:19Z</time>
      </trkpt>
      <trkpt lat="48.8689" lon="6.12169">
        <ele>321</ele>
        <time>2013-06-05T07:04:25Z</time>
      </trkpt>
      <trkpt lat="48.86884" lon="6.12171">
        <ele>320</ele>
        <time>2013-06-05T07:04:29Z</time>
      </trkpt>
      <trkpt lat="48.8688" lon="6.12175">
        <ele>321</ele>
        <time>2013-06-05T07:04:33Z</time>
      </trkpt>
      <trkpt lat="48.86875" lon="6.12179">
        <ele>321</ele>
        <time>2013-06-05T07:04:36Z</time>
      </trkpt>
      <trkpt lat="48.86871" lon="6.12183">
        <ele>320</ele>
        <time>2013-06-05T07:04:39Z</time>
      </trkpt>
      <trkpt lat="48.86867" lon="6.12187">
        <ele>321</ele>
        <time>2013-06-05T07:04:43Z</time>
      </trkpt>
      <trkpt lat="48.86862" lon="6.12191">
        <ele>320</ele>
        <time>2013-06-05T07:04:47Z</time>
      </trkpt>
      <trkpt lat="48.86858" lon="6.12194">
        <ele>321</ele>
        <time>2013-06-05T07:04:51Z</time>
      </trkpt>
      <trkpt lat="48.86854" lon="6.12199">
        <ele>321</ele>
        <time>2013-06-05T07:04:54Z</time>
      </trkpt>
      <trkpt lat="48.86849" lon="6.12202">
        <ele>320</ele>
        <time>2013-06-05T07:04:57Z</time>
      </trkpt>
      <trkpt lat="48.86844" lon="6.12206">
        <ele>321</ele>
        <time>2013-06-05T07:05:01Z</time>
      </trkpt>
      <trkpt lat="48.8684" lon="6.12209">
        <ele>320</ele>
        <time>2013-06-05T07:05:04Z</time>
      </trkpt>
      <trkpt lat="48.86835" lon="6.12212">
        <ele>320</ele>
        <time>2013-06-05T07:05:08Z</time>
      </trkpt>
      <trkpt lat="48.8683" lon="6.12215">
        <ele>320</ele>
        <time>2013-06-05T07:05:11Z</time>
      </trkpt>
      <trkpt lat="48.86825" lon="6.12218">
        <ele>319</ele>
        <time>2013-06-05T07:05:15Z</time>
      </trkpt>
      <trkpt lat="48.8682" lon="6.12223">
        <ele>319</ele>
        <time>2013-06-05T07:05:20Z</time>
      </trkpt>
      <trkpt lat="48.86815" lon="6.12227">
        <ele>318</ele>
        <time>2013-06-05T07:05:25Z</time>
      </trkpt>
      <trkpt lat="48.8681" lon="6.1223">
        <ele>318</ele>
        <time>2013-06-05T07:05:29Z</time>
      </trkpt>
      <trkpt lat="48.86805" lon="6.12234">
        <ele>318</ele>
        <time>2013-06-05T07:05:33Z</time>
      </trkpt>
      <trkpt lat="48.86799" lon="6.12237">
        <ele>316</ele>
        <time>2013-06-05T07:05:38Z</time>
      </trkpt>
      <trkpt lat="48.86793" lon="6.1224">
        <ele>317</ele>
        <time>2013-06-05T07:05:43Z</time>
      </trkpt>
      <trkpt lat="48.86788" lon="6.12245">
        <ele>318</ele>
        <time>2013-06-05T07:05:47Z</time>
      </trkpt>
      <trkpt lat="48.86783" lon="6.12248">
        <ele>318</ele>
        <time>2013-06-05T07:05:51Z</time>
      </trkpt>
      <trkpt lat="48.86778" lon="6.12252">
        <ele>317</ele>
        <time>2013-06-05T07:05:55Z</time>
      </trkpt>
      <trkpt lat="48.86773" lon="6.12255">
        <ele>317</ele>
        <time>2013-06-05T07:05:59Z</time>
      </trkpt>
      <trkpt lat="48.86768" lon="6.12258">
        <ele>316</ele>
        <time>2013-06-05T07:06:02Z</time>
      </trkpt>
      <trkpt lat="48.86764" lon="6.12263">
        <ele>315</ele>
        <time>2013-06-05T07:06:06Z</time>
      </trkpt>
      <trkpt lat="48.8676" lon="6.12268">
        <ele>316</ele>
        <time>2013-06-05T07:06:10Z</time>
      </trkpt>
      <trkpt lat="48.86755" lon="6.12273">
        <ele>316</ele>
        <time>2013-06-05T07:06:14Z</time>
      </trkpt>
      <trkpt lat="48.86752" lon="6.12278">
        <ele>316</ele>
        <time>2013-06-05T07:06:17Z</time>
      </trkpt>
      <trkpt lat="48.86747" lon="6.12284">
        <ele>316</ele>
        <time>2013-06-05T07:06:21Z</time>
      </trkpt>
      <trkpt lat="48.86744" lon="6.1229">
        <ele>317</ele>
        <time>2013-06-05T07:06:25Z</time>
      </trkpt>
      <trkpt lat="48.86738" lon="6.12302">
        <ele>318</ele>
        <time>2013-06-05T07:06:32Z</time>
      </trkpt>
      <trkpt lat="48.86735" lon="6.12308">
        <ele>318</ele>
        <time>2013-06-05T07:06:35Z</time>
      </trkpt>
      <trkpt lat="48.86733" lon="6.12317">
        <ele>317</ele>
        <time>2013-06-05T07:06:39Z</time>
      </trkpt>
      <trkpt lat="48.8673" lon="6.12327">
        <ele>317</ele>
        <time>2013-06-05T07:06:45Z</time>
      </trkpt>
      <trkpt lat="48.86729" lon="6.12335">
        <ele>317</ele>
        <time>2013-06-05T07:06:49Z</time>
      </trkpt>
      <trkpt lat="48.86727" lon="6.12346">
        <ele>317</ele>
        <time>2013-06-05T07:06:55Z</time>
      </trkpt>
      <trkpt lat="48.86726" lon="6.12353">
        <ele>317</ele>
        <time>2013-06-05T07:06:59Z</time>
      </trkpt>
      <trkpt lat="48.86725" lon="6.1236">
        <ele>316</ele>
        <time>2013-06-05T07:07:02Z</time>
      </trkpt>
      <trkpt lat="48.86724" lon="6.12369">
        <ele>315</ele>
        <time>2013-06-05T07:07:06Z</time>
      </trkpt>
      <trkpt lat="48.86723" lon="6.12377">
        <ele>315</ele>
        <time>2013-06-05T07:07:10Z</time>
      </trkpt>
      <trkpt lat="48.86722" lon="6.12384">
        <ele>315</ele>
        <time>2013-06-05T07:07:13Z</time>
      </trkpt>
      <trkpt lat="48.86721" lon="6.12395">
        <ele>312</ele>
        <time>2013-06-05T07:07:18Z</time>
      </trkpt>
      <trkpt lat="48.86719" lon="6.12402">
        <ele>312</ele>
        <time>2013-06-05T07:07:22Z</time>
      </trkpt>
      <trkpt lat="48.86717" lon="6.12411">
        <ele>311</ele>
        <time>2013-06-05T07:07:26Z</time>
      </trkpt>
      <trkpt lat="48.86715" lon="6.12418">
        <ele>310</ele>
        <time>2013-06-05T07:07:30Z</time>
      </trkpt>
      <trkpt lat="48.86713" lon="6.12425">
        <ele>309</ele>
        <time>2013-06-05T07:07:34Z</time>
      </trkpt>
      <trkpt lat="48.86707" lon="6.12438">
        <ele>307</ele>
        <time>2013-06-05T07:07:40Z</time>
      </trkpt>
      <trkpt lat="48.86705" lon="6.12443">
        <ele>307</ele>
        <time>2013-06-05T07:07:43Z</time>
      </trkpt>
      <trkpt lat="48.86701" lon="6.12452">
        <ele>306</ele>
        <time>2013-06-05T07:07:48Z</time>
      </trkpt>
      <trkpt lat="48.86698" lon="6.12457">
        <ele>306</ele>
        <time>2013-06-05T07:07:51Z</time>
      </trkpt>
      <trkpt lat="48.86692" lon="6.1247">
        <ele>307</ele>
        <time>2013-06-05T07:08:00Z</time>
      </trkpt>
      <trkpt lat="48.86688" lon="6.12475">
        <ele>306</ele>
        <time>2013-06-05T07:08:04Z</time>
      </trkpt>
      <trkpt lat="48.86681" lon="6.12483">
        <ele>304</ele>
        <time>2013-06-05T07:08:11Z</time>
      </trkpt>
      <trkpt lat="48.86676" lon="6.12487">
        <ele>305</ele>
        <time>2013-06-05T07:08:15Z</time>
      </trkpt>
      <trkpt lat="48.86668" lon="6.12493">
        <ele>305</ele>
        <time>2013-06-05T07:08:20Z</time>
      </trkpt>
      <trkpt lat="48.86663" lon="6.12497">
        <ele>305</ele>
        <time>2013-06-05T07:08:24Z</time>
      </trkpt>
      <trkpt lat="48.86654" lon="6.12503">
        <ele>303</ele>
        <time>2013-06-05T07:08:31Z</time>
      </trkpt>
      <trkpt lat="48.86646" lon="6.1251">
        <ele>301</ele>
        <time>2013-06-05T07:08:38Z</time>
      </trkpt>
      <trkpt lat="48.86642" lon="6.12515">
        <ele>300</ele>
        <time>2013-06-05T07:08:42Z</time>
      </trkpt>
      <trkpt lat="48.86637" lon="6.12518">
        <ele>300</ele>
        <time>2013-06-05T07:08:47Z</time>
      </trkpt>
      <trkpt lat="48.86628" lon="6.12523">
        <ele>300</ele>
        <time>2013-06-05T07:08:55Z</time>
      </trkpt>
      <trkpt lat="48.86619" lon="6.12527">
        <ele>301</ele>
        <time>2013-06-05T07:09:02Z</time>
      </trkpt>
      <trkpt lat="48.86614" lon="6.12529">
        <ele>301</ele>
        <time>2013-06-05T07:09:07Z</time>
      </trkpt>
      <trkpt lat="48.8661" lon="6.12531">
        <ele>302</ele>
        <time>2013-06-05T07:09:10Z</time>
      </trkpt>
      <trkpt lat="48.86605" lon="6.12534">
        <ele>302</ele>
        <time>2013-06-05T07:09:14Z</time>
      </trkpt>
      <trkpt lat="48.866" lon="6.12536">
        <ele>302</ele>
        <time>2013-06-05T07:09:17Z</time>
      </trkpt>
      <trkpt lat="48.86595" lon="6.12538">
        <ele>304</ele>
        <time>2013-06-05T07:09:22Z</time>
      </trkpt>
      <trkpt lat="48.8659" lon="6.1254">
        <ele>304</ele>
        <time>2013-06-05T07:09:26Z</time>
      </trkpt>
      <trkpt lat="48.86585" lon="6.12543">
        <ele>304</ele>
        <time>2013-06-05T07:09:30Z</time>
      </trkpt>
      <trkpt lat="48.86581" lon="6.12545">
        <ele>304</ele>
        <time>2013-06-05T07:09:34Z</time>
      </trkpt>
      <trkpt lat="48.86575" lon="6.12548">
        <ele>305</ele>
        <time>2013-06-05T07:09:38Z</time>
      </trkpt>
      <trkpt lat="48.86569" lon="6.1255">
        <ele>305</ele>
        <time>2013-06-05T07:09:41Z</time>
      </trkpt>
      <trkpt lat="48.86564" lon="6.12552">
        <ele>306</ele>
        <time>2013-06-05T07:09:46Z</time>
      </trkpt>
      <trkpt lat="48.86558" lon="6.12554">
        <ele>307</ele>
        <time>2013-06-05T07:09:50Z</time>
      </trkpt>
      <trkpt lat="48.8655" lon="6.12561">
        <ele>307</ele>
        <time>2013-06-05T07:09:57Z</time>
      </trkpt>
      <trkpt lat="48.86545" lon="6.12563">
        <ele>307</ele>
        <time>2013-06-05T07:10:00Z</time>
      </trkpt>
      <trkpt lat="48.86541" lon="6.12566">
        <ele>307</ele>
        <time>2013-06-05T07:10:05Z</time>
      </trkpt>
      <trkpt lat="48.86535" lon="6.12568">
        <ele>306</ele>
        <time>2013-06-05T07:10:09Z</time>
      </trkpt>
      <trkpt lat="48.8653" lon="6.12569">
        <ele>306</ele>
        <time>2013-06-05T07:10:13Z</time>
      </trkpt>
      <trkpt lat="48.86525" lon="6.1257">
        <ele>306</ele>
        <time>2013-06-05T07:10:16Z</time>
      </trkpt>
      <trkpt lat="48.8652" lon="6.12571">
        <ele>307</ele>
        <time>2013-06-05T07:10:20Z</time>
      </trkpt>
      <trkpt lat="48.86515" lon="6.12572">
        <ele>308</ele>
        <time>2013-06-05T07:10:23Z</time>
      </trkpt>
      <trkpt lat="48.8651" lon="6.12573">
        <ele>310</ele>
        <time>2013-06-05T07:10:27Z</time>
      </trkpt>
      <trkpt lat="48.86506" lon="6.12575">
        <ele>311</ele>
        <time>2013-06-05T07:10:31Z</time>
      </trkpt>
      <trkpt lat="48.86501" lon="6.12576">
        <ele>310</ele>
        <time>2013-06-05T07:10:35Z</time>
      </trkpt>
      <trkpt lat="48.86496" lon="6.12577">
        <ele>310</ele>
        <time>2013-06-05T07:10:39Z</time>
      </trkpt>
      <trkpt lat="48.8649" lon="6.12579">
        <ele>310</ele>
        <time>2013-06-05T07:10:43Z</time>
      </trkpt>
      <trkpt lat="48.86484" lon="6.1258">
        <ele>310</ele>
        <time>2013-06-05T07:10:47Z</time>
      </trkpt>
      <trkpt lat="48.8648" lon="6.12582">
        <ele>310</ele>
        <time>2013-06-05T07:10:51Z</time>
      </trkpt>
      <trkpt lat="48.86473" lon="6.12584">
        <ele>310</ele>
        <time>2013-06-05T07:10:56Z</time>
      </trkpt>
      <trkpt lat="48.86467" lon="6.12585">
        <ele>311</ele>
        <time>2013-06-05T07:11:00Z</time>
      </trkpt>
      <trkpt lat="48.86463" lon="6.12587">
        <ele>311</ele>
        <time>2013-06-05T07:11:04Z</time>
      </trkpt>
      <trkpt lat="48.86456" lon="6.12589">
        <ele>311</ele>
        <time>2013-06-05T07:11:09Z</time>
      </trkpt>
      <trkpt lat="48.86447" lon="6.12592">
        <ele>309</ele>
        <time>2013-06-05T07:11:16Z</time>
      </trkpt>
      <trkpt lat="48.86437" lon="6.12596">
        <ele>308</ele>
        <time>2013-06-05T07:11:23Z</time>
      </trkpt>
      <trkpt lat="48.86432" lon="6.12598">
        <ele>309</ele>
        <time>2013-06-05T07:11:26Z</time>
      </trkpt>
      <trkpt lat="48.86427" lon="6.12597">
        <ele>309</ele>
        <time>2013-06-05T07:11:31Z</time>
      </trkpt>
      <trkpt lat="48.86422" lon="6.12598">
        <ele>309</ele>
        <time>2013-06-05T07:11:35Z</time>
      </trkpt>
      <trkpt lat="48.86417" lon="6.12599">
        <ele>309</ele>
        <time>2013-06-05T07:11:40Z</time>
      </trkpt>
      <trkpt lat="48.86412" lon="6.12602">
        <ele>309</ele>
        <time>2013-06-05T07:11:45Z</time>
      </trkpt>
      <trkpt lat="48.86406" lon="6.12604">
        <ele>309</ele>
        <time>2013-06-05T07:11:49Z</time>
      </trkpt>
      <trkpt lat="48.86402" lon="6.12607">
        <ele>309</ele>
        <time>2013-06-05T07:11:53Z</time>
      </trkpt>
      <trkpt lat="48.86397" lon="6.12609">
        <ele>309</ele>
        <time>2013-06-05T07:11:56Z</time>
      </trkpt>
      <trkpt lat="48.86391" lon="6.12612">
        <ele>310</ele>
        <time>2013-06-05T07:11:59Z</time>
      </trkpt>
      <trkpt lat="48.86387" lon="6.12615">
        <ele>311</ele>
        <time>2013-06-05T07:12:02Z</time>
      </trkpt>
      <trkpt lat="48.86383" lon="6.12618">
        <ele>311</ele>
        <time>2013-06-05T07:12:06Z</time>
      </trkpt>
      <trkpt lat="48.86377" lon="6.12621">
        <ele>310</ele>
        <time>2013-06-05T07:12:11Z</time>
      </trkpt>
      <trkpt lat="48.86372" lon="6.12623">
        <ele>309</ele>
        <time>2013-06-05T07:12:15Z</time>
      </trkpt>
      <trkpt lat="48.86367" lon="6.12626">
        <ele>308</ele>
        <time>2013-06-05T07:12:19Z</time>
      </trkpt>
      <trkpt lat="48.86362" lon="6.12628">
        <ele>308</ele>
        <time>2013-06-05T07:12:23Z</time>
      </trkpt>
      <trkpt lat="48.86358" lon="6.1263">
        <ele>308</ele>
        <time>2013-06-05T07:12:28Z</time>
      </trkpt>
      <trkpt lat="48.86353" lon="6.12633">
        <ele>308</ele>
        <time>2013-06-05T07:12:32Z</time>
      </trkpt>
      <trkpt lat="48.86345" lon="6.12637">
        <ele>309</ele>
        <time>2013-06-05T07:12:38Z</time>
      </trkpt>
      <trkpt lat="48.86339" lon="6.12639">
        <ele>310</ele>
        <time>2013-06-05T07:12:42Z</time>
      </trkpt>
      <trkpt lat="48.86334" lon="6.12641">
        <ele>311</ele>
        <time>2013-06-05T07:12:46Z</time>
      </trkpt>
      <trkpt lat="48.86329" lon="6.12642">
        <ele>311</ele>
        <time>2013-06-05T07:12:50Z</time>
      </trkpt>
      <trkpt lat="48.86323" lon="6.12646">
        <ele>312</ele>
        <time>2013-06-05T07:12:54Z</time>
      </trkpt>
      <trkpt lat="48.86318" lon="6.12649">
        <ele>312</ele>
        <time>2013-06-05T07:12:58Z</time>
      </trkpt>
      <trkpt lat="48.86312" lon="6.12652">
        <ele>311</ele>
        <time>2013-06-05T07:13:03Z</time>
      </trkpt>
      <trkpt lat="48.86306" lon="6.12654">
        <ele>309</ele>
        <time>2013-06-05T07:13:07Z</time>
      </trkpt>
      <trkpt lat="48.86301" lon="6.12656">
        <ele>308</ele>
        <time>2013-06-05T07:13:10Z</time>
      </trkpt>
      <trkpt lat="48.86295" lon="6.12658">
        <ele>307</ele>
        <time>2013-06-05T07:13:15Z</time>
      </trkpt>
      <trkpt lat="48.8629" lon="6.1266">
        <ele>307</ele>
        <time>2013-06-05T07:13:19Z</time>
      </trkpt>
      <trkpt lat="48.86286" lon="6.12662">
        <ele>307</ele>
        <time>2013-06-05T07:13:23Z</time>
      </trkpt>
      <trkpt lat="48.86281" lon="6.12664">
        <ele>307</ele>
        <time>2013-06-05T07:13:27Z</time>
      </trkpt>
      <trkpt lat="48.86276" lon="6.12666">
        <ele>306</ele>
        <time>2013-06-05T07:13:32Z</time>
      </trkpt>
      <trkpt lat="48.86271" lon="6.12667">
        <ele>306</ele>
        <time>2013-06-05T07:13:36Z</time>
      </trkpt>
      <trkpt lat="48.86266" lon="6.12669">
        <ele>305</ele>
        <time>2013-06-05T07:13:39Z</time>
      </trkpt>
      <trkpt lat="48.86261" lon="6.12671">
        <ele>305</ele>
        <time>2013-06-05T07:13:43Z</time>
      </trkpt>
      <trkpt lat="48.86256" lon="6.12673">
        <ele>305</ele>
        <time>2013-06-05T07:13:46Z</time>
      </trkpt>
      <trkpt lat="48.86251" lon="6.12675">
        <ele>304</ele>
        <time>2013-06-05T07:13:50Z</time>
      </trkpt>
      <trkpt lat="48.86246" lon="6.12677">
        <ele>305</ele>
        <time>2013-06-05T07:13:53Z</time>
      </trkpt>
      <trkpt lat="48.86241" lon="6.12679">
        <ele>306</ele>
        <time>2013-06-05T07:13:59Z</time>
      </trkpt>
      <trkpt lat="48.86236" lon="6.12681">
        <ele>307</ele>
        <time>2013-06-05T07:14:03Z</time>
      </trkpt>
      <trkpt lat="48.86231" lon="6.12684">
        <ele>307</ele>
        <time>2013-06-05T07:14:07Z</time>
      </trkpt>
      <trkpt lat="48.86226" lon="6.12685">
        <ele>308</ele>
        <time>2013-06-05T07:14:11Z</time>
      </trkpt>
      <trkpt lat="48.8622" lon="6.12688">
        <ele>309</ele>
        <time>2013-06-05T07:14:15Z</time>
      </trkpt>
      <trkpt lat="48.86216" lon="6.12688">
        <ele>309</ele>
        <time>2013-06-05T07:14:19Z</time>
      </trkpt>
      <trkpt lat="48.86212" lon="6.12691">
        <ele>308</ele>
        <time>2013-06-05T07:14:22Z</time>
      </trkpt>
      <trkpt lat="48.86207" lon="6.12693">
        <ele>308</ele>
        <time>2013-06-05T07:14:26Z</time>
      </trkpt>
      <trkpt lat="48.86201" lon="6.12696">
        <ele>308</ele>
        <time>2013-06-05T07:14:30Z</time>
      </trkpt>
      <trkpt lat="48.86196" lon="6.12698">
        <ele>308</ele>
        <time>2013-06-05T07:14:34Z</time>
      </trkpt>
      <trkpt lat="48.8619" lon="6.12701">
        <ele>308</ele>
        <time>2013-06-05T07:14:38Z</time>
      </trkpt>
      <trkpt lat="48.86185" lon="6.12702">
        <ele>307</ele>
        <time>2013-06-05T07:14:42Z</time>
      </trkpt>
      <trkpt lat="48.86181" lon="6.12697">
        <ele>307</ele>
        <time>2013-06-05T07:14:49Z</time>
      </trkpt>
      <trkpt lat="48.86177" lon="6.12692">
        <ele>307</ele>
        <time>2013-06-05T07:14:54Z</time>
      </trkpt>
      <trkpt lat="48.86175" lon="6.12682">
        <ele>308</ele>
        <time>2013-06-05T07:15:00Z</time>
      </trkpt>
      <trkpt lat="48.86174" lon="6.12675">
        <ele>309</ele>
        <time>2013-06-05T07:15:04Z</time>
      </trkpt>
      <trkpt lat="48.86172" lon="6.12667">
        <ele>310</ele>
        <time>2013-06-05T07:15:09Z</time>
      </trkpt>
      <trkpt lat="48.8617" lon="6.1266">
        <ele>311</ele>
        <time>2013-06-05T07:15:13Z</time>
      </trkpt>
      <trkpt lat="48.86168" lon="6.12653">
        <ele>312</ele>
        <time>2013-06-05T07:15:17Z</time>
      </trkpt>
      <trkpt lat="48.86168" lon="6.12646">
        <ele>314</ele>
        <time>2013-06-05T07:15:21Z</time>
      </trkpt>
      <trkpt lat="48.86167" lon="6.12638">
        <ele>314</ele>
        <time>2013-06-05T07:15:27Z</time>
      </trkpt>
      <trkpt lat="48.86165" lon="6.12631">
        <ele>314</ele>
        <time>2013-06-05T07:15:32Z</time>
      </trkpt>
      <trkpt lat="48.86164" lon="6.12624">
        <ele>314</ele>
        <time>2013-06-05T07:15:37Z</time>
      </trkpt>
      <trkpt lat="48.86162" lon="6.12617">
        <ele>314</ele>
        <time>2013-06-05T07:15:41Z</time>
      </trkpt>
      <trkpt lat="48.86161" lon="6.12609">
        <ele>315</ele>
        <time>2013-06-05T07:15:46Z</time>
      </trkpt>
      <trkpt lat="48.86159" lon="6.12602">
        <ele>315</ele>
        <time>2013-06-05T07:15:50Z</time>
      </trkpt>
      <trkpt lat="48.86158" lon="6.12594">
        <ele>317</ele>
        <time>2013-06-05T07:15:56Z</time>
      </trkpt>
      <trkpt lat="48.86157" lon="6.12586">
        <ele>317</ele>
        <time>2013-06-05T07:16:00Z</time>
      </trkpt>
      <trkpt lat="48.86155" lon="6.12578">
        <ele>317</ele>
        <time>2013-06-05T07:16:03Z</time>
      </trkpt>
      <trkpt lat="48.86154" lon="6.12572">
        <ele>316</ele>
        <time>2013-06-05T07:16:07Z</time>
      </trkpt>
      <trkpt lat="48.86153" lon="6.12565">
        <ele>316</ele>
        <time>2013-06-05T07:16:12Z</time>
      </trkpt>
      <trkpt lat="48.86151" lon="6.12557">
        <ele>317</ele>
        <time>2013-06-05T07:16:18Z</time>
      </trkpt>
      <trkpt lat="48.86149" lon="6.12549">
        <ele>317</ele>
        <time>2013-06-05T07:16:23Z</time>
      </trkpt>
      <trkpt lat="48.86147" lon="6.12542">
        <ele>317</ele>
        <time>2013-06-05T07:16:27Z</time>
      </trkpt>
      <trkpt lat="48.86146" lon="6.12534">
        <ele>316</ele>
        <time>2013-06-05T07:16:31Z</time>
      </trkpt>
      <trkpt lat="48.86145" lon="6.12526">
        <ele>316</ele>
        <time>2013-06-05T07:16:37Z</time>
      </trkpt>
      <trkpt lat="48.86144" lon="6.12518">
        <ele>316</ele>
        <time>2013-06-05T07:16:42Z</time>
      </trkpt>
      <trkpt lat="48.86143" lon="6.12511">
        <ele>317</ele>
        <time>2013-06-05T07:16:46Z</time>
      </trkpt>
      <trkpt lat="48.86141" lon="6.12503">
        <ele>319</ele>
        <time>2013-06-05T07:16:52Z</time>
      </trkpt>
      <trkpt lat="48.8614" lon="6.12496">
        <ele>319</ele>
        <time>2013-06-05T07:16:57Z</time>
      </trkpt>
      <trkpt lat="48.86137" lon="6.12485">
        <ele>321</ele>
        <time>2013-06-05T07:17:03Z</time>
      </trkpt>
      <trkpt lat="48.86135" lon="6.12477">
        <ele>322</ele>
        <time>2013-06-05T07:17:08Z</time>
      </trkpt>
      <trkpt lat="48.86134" lon="6.12471">
        <ele>322</ele>
        <time>2013-06-05T07:17:12Z</time>
      </trkpt>
      <trkpt lat="48.86132" lon="6.12463">
        <ele>322</ele>
        <time>2013-06-05T07:17:17Z</time>
      </trkpt>
      <trkpt lat="48.86131" lon="6.12455">
        <ele>321</ele>
        <time>2013-06-05T07:17:22Z</time>
      </trkpt>
      <trkpt lat="48.86129" lon="6.12449">
        <ele>322</ele>
        <time>2013-06-05T07:17:27Z</time>
      </trkpt>
      <trkpt lat="48.86127" lon="6.12442">
        <ele>322</ele>
        <time>2013-06-05T07:17:31Z</time>
      </trkpt>
      <trkpt lat="48.86126" lon="6.12434">
        <ele>323</ele>
        <time>2013-06-05T07:17:35Z</time>
      </trkpt>
      <trkpt lat="48.86122" lon="6.12411">
        <ele>331</ele>
        <time>2013-06-05T07:17:51Z</time>
      </trkpt>
      <trkpt lat="48.86121" lon="6.12404">
        <ele>331</ele>
        <time>2013-06-05T07:17:56Z</time>
      </trkpt>
      <trkpt lat="48.8612" lon="6.12396">
        <ele>332</ele>
        <time>2013-06-05T07:18:00Z</time>
      </trkpt>
      <trkpt lat="48.8612" lon="6.12389">
        <ele>334</ele>
        <time>2013-06-05T07:18:04Z</time>
      </trkpt>
      <trkpt lat="48.86116" lon="6.12375">
        <ele>335</ele>
        <time>2013-06-05T07:18:12Z</time>
      </trkpt>
      <trkpt lat="48.86115" lon="6.12367">
        <ele>336</ele>
        <time>2013-06-05T07:18:18Z</time>
      </trkpt>
      <trkpt lat="48.86114" lon="6.12361">
        <ele>337</ele>
        <time>2013-06-05T07:18:23Z</time>
      </trkpt>
      <trkpt lat="48.86113" lon="6.12353">
        <ele>338</ele>
        <time>2013-06-05T07:18:28Z</time>
      </trkpt>
      <trkpt lat="48.86111" lon="6.12346">
        <ele>340</ele>
        <time>2013-06-05T07:18:33Z</time>
      </trkpt>
      <trkpt lat="48.8611" lon="6.12339">
        <ele>341</ele>
        <time>2013-06-05T07:18:38Z</time>
      </trkpt>
      <trkpt lat="48.86108" lon="6.12326">
        <ele>342</ele>
        <time>2013-06-05T07:18:47Z</time>
      </trkpt>
      <trkpt lat="48.86107" lon="6.12315">
        <ele>340</ele>
        <time>2013-06-05T07:18:52Z</time>
      </trkpt>
      <trkpt lat="48.86106" lon="6.12306">
        <ele>340</ele>
        <time>2013-06-05T07:18:59Z</time>
      </trkpt>
      <trkpt lat="48.8611" lon="6.12301">
        <ele>341</ele>
        <time>2013-06-05T07:19:06Z</time>
      </trkpt>
      <trkpt lat="48.86114" lon="6.1229">
        <ele>343</ele>
        <time>2013-06-05T07:19:25Z</time>
      </trkpt>
      <trkpt lat="48.86102" lon="6.12285">
        <ele>343</ele>
        <time>2013-06-05T07:19:38Z</time>
      </trkpt>
      <trkpt lat="48.86094" lon="6.12276">
        <ele>344</ele>
        <time>2013-06-05T07:19:48Z</time>
      </trkpt>
      <trkpt lat="48.86086" lon="6.12269">
        <ele>344</ele>
        <time>2013-06-05T07:19:58Z</time>
      </trkpt>
      <trkpt lat="48.86074" lon="6.12263">
        <ele>348</ele>
        <time>2013-06-05T07:20:09Z</time>
      </trkpt>
      <trkpt lat="48.86065" lon="6.12265">
        <ele>350</ele>
        <time>2013-06-05T07:20:15Z</time>
      </trkpt>
      <trkpt lat="48.86055" lon="6.12265">
        <ele>353</ele>
        <time>2013-06-05T07:20:25Z</time>
      </trkpt>
      <trkpt lat="48.86044" lon="6.12268">
        <ele>356</ele>
        <time>2013-06-05T07:20:41Z</time>
      </trkpt>
      <trkpt lat="48.86034" lon="6.1227">
        <ele>359</ele>
        <time>2013-06-05T07:20:54Z</time>
      </trkpt>
      <trkpt lat="48.86025" lon="6.1227">
        <ele>359</ele>
        <time>2013-06-05T07:21:07Z</time>
      </trkpt>
      <trkpt lat="48.86015" lon="6.12272">
        <ele>354</ele>
        <time>2013-06-05T07:21:19Z</time>
      </trkpt>
      <trkpt lat="48.86006" lon="6.12279">
        <ele>353</ele>
        <time>2013-06-05T07:21:35Z</time>
      </trkpt>
      <trkpt lat="48.85996" lon="6.12281">
        <ele>355</ele>
        <time>2013-06-05T07:21:46Z</time>
      </trkpt>
      <trkpt lat="48.85988" lon="6.12289">
        <ele>353</ele>
        <time>2013-06-05T07:21:53Z</time>
      </trkpt>
      <trkpt lat="48.85981" lon="6.12299">
        <ele>351</ele>
        <time>2013-06-05T07:22:01Z</time>
      </trkpt>
      <trkpt lat="48.85972" lon="6.12301">
        <ele>350</ele>
        <time>2013-06-05T07:22:10Z</time>
      </trkpt>
      <trkpt lat="48.85964" lon="6.12309">
        <ele>348</ele>
        <time>2013-06-05T07:22:17Z</time>
      </trkpt>
      <trkpt lat="48.85954" lon="6.12317">
        <ele>348</ele>
        <time>2013-06-05T07:22:23Z</time>
      </trkpt>
      <trkpt lat="48.85946" lon="6.12323">
        <ele>350</ele>
        <time>2013-06-05T07:22:29Z</time>
      </trkpt>
      <trkpt lat="48.85937" lon="6.12324">
        <ele>351</ele>
        <time>2013-06-05T07:22:34Z</time>
      </trkpt>
      <trkpt lat="48.85928" lon="6.12324">
        <ele>350</ele>
        <time>2013-06-05T07:22:49Z</time>
      </trkpt>
      <trkpt lat="48.85919" lon="6.12331">
        <ele>349</ele>
        <time>2013-06-05T07:22:58Z</time>
      </trkpt>
      <trkpt lat="48.85908" lon="6.12339">
        <ele>347</ele>
        <time>2013-06-05T07:23:13Z</time>
      </trkpt>
      <trkpt lat="48.85899" lon="6.12344">
        <ele>347</ele>
        <time>2013-06-05T07:23:20Z</time>
      </trkpt>
      <trkpt lat="48.8589" lon="6.12346">
        <ele>346</ele>
        <time>2013-06-05T07:23:27Z</time>
      </trkpt>
      <trkpt lat="48.85881" lon="6.12352">
        <ele>344</ele>
        <time>2013-06-05T07:23:33Z</time>
      </trkpt>
      <trkpt lat="48.8587" lon="6.12364">
        <ele>341</ele>
        <time>2013-06-05T07:23:43Z</time>
      </trkpt>
      <trkpt lat="48.8586" lon="6.12375">
        <ele>342</ele>
        <time>2013-06-05T07:23:49Z</time>
      </trkpt>
      <trkpt lat="48.85851" lon="6.12382">
        <ele>342</ele>
        <time>2013-06-05T07:23:53Z</time>
      </trkpt>
      <trkpt lat="48.85841" lon="6.12385">
        <ele>343</ele>
        <time>2013-06-05T07:23:58Z</time>
      </trkpt>
      <trkpt lat="48.85833" lon="6.12393">
        <ele>343</ele>
        <time>2013-06-05T07:24:08Z</time>
      </trkpt>
      <trkpt lat="48.85823" lon="6.12408">
        <ele>342</ele>
        <time>2013-06-05T07:24:22Z</time>
      </trkpt>
      <trkpt lat="48.85814" lon="6.12411">
        <ele>342</ele>
        <time>2013-06-05T07:24:27Z</time>
      </trkpt>
      <trkpt lat="48.85806" lon="6.1242">
        <ele>342</ele>
        <time>2013-06-05T07:24:35Z</time>
      </trkpt>
      <trkpt lat="48.85798" lon="6.12426">
        <ele>343</ele>
        <time>2013-06-05T07:24:45Z</time>
      </trkpt>
      <trkpt lat="48.8579" lon="6.12434">
        <ele>344</ele>
        <time>2013-06-05T07:24:53Z</time>
      </trkpt>
      <trkpt lat="48.85782" lon="6.12444">
        <ele>347</ele>
        <time>2013-06-05T07:25:01Z</time>
      </trkpt>
      <trkpt lat="48.85774" lon="6.12453">
        <ele>346</ele>
        <time>2013-06-05T07:25:11Z</time>
      </trkpt>
      <trkpt lat="48.85767" lon="6.12463">
        <ele>345</ele>
        <time>2013-06-05T07:25:17Z</time>
      </trkpt>
      <trkpt lat="48.8576" lon="6.12479">
        <ele>347</ele>
        <time>2013-06-05T07:25:29Z</time>
      </trkpt>
      <trkpt lat="48.85753" lon="6.12488">
        <ele>347</ele>
        <time>2013-06-05T07:25:40Z</time>
      </trkpt>
      <trkpt lat="48.85744" lon="6.12494">
        <ele>347</ele>
        <time>2013-06-05T07:25:46Z</time>
      </trkpt>
      <trkpt lat="48.85736" lon="6.12502">
        <ele>345</ele>
        <time>2013-06-05T07:25:53Z</time>
      </trkpt>
      <trkpt lat="48.85726" lon="6.12513">
        <ele>343</ele>
        <time>2013-06-05T07:26:02Z</time>
      </trkpt>
      <trkpt lat="48.85716" lon="6.12523">
        <ele>344</ele>
        <time>2013-06-05T07:26:14Z</time>
      </trkpt>
      <trkpt lat="48.85709" lon="6.12533">
        <ele>343</ele>
        <time>2013-06-05T07:26:20Z</time>
      </trkpt>
      <trkpt lat="48.857" lon="6.1254">
        <ele>342</ele>
        <time>2013-06-05T07:26:26Z</time>
      </trkpt>
      <trkpt lat="48.85695" lon="6.12553">
        <ele>341</ele>
        <time>2013-06-05T07:26:35Z</time>
      </trkpt>
      <trkpt lat="48.85689" lon="6.12565">
        <ele>338</ele>
        <time>2013-06-05T07:26:45Z</time>
      </trkpt>
      <trkpt lat="48.85676" lon="6.12574">
        <ele>340</ele>
        <time>2013-06-05T07:26:59Z</time>
      </trkpt>
      <trkpt lat="48.8567" lon="6.12585">
        <ele>342</ele>
        <time>2013-06-05T07:27:05Z</time>
      </trkpt>
      <trkpt lat="48.85663" lon="6.12595">
        <ele>344</ele>
        <time>2013-06-05T07:27:10Z</time>
      </trkpt>
      <trkpt lat="48.85658" lon="6.12607">
        <ele>345</ele>
        <time>2013-06-05T07:27:19Z</time>
      </trkpt>
      <trkpt lat="48.85648" lon="6.12615">
        <ele>345</ele>
        <time>2013-06-05T07:27:29Z</time>
      </trkpt>
      <trkpt lat="48.85646" lon="6.12624">
        <ele>348</ele>
        <time>2013-06-05T07:27:44Z</time>
      </trkpt>
      <trkpt lat="48.85641" lon="6.12639">
        <ele>346</ele>
        <time>2013-06-05T07:27:55Z</time>
      </trkpt>
      <trkpt lat="48.85637" lon="6.12653">
        <ele>346</ele>
        <time>2013-06-05T07:28:00Z</time>
      </trkpt>
      <trkpt lat="48.8563" lon="6.12665">
        <ele>347</ele>
        <time>2013-06-05T07:28:10Z</time>
      </trkpt>
      <trkpt lat="48.85619" lon="6.12678">
        <ele>349</ele>
        <time>2013-06-05T07:28:19Z</time>
      </trkpt>
      <trkpt lat="48.85609" lon="6.12679">
        <ele>350</ele>
        <time>2013-06-05T07:28:27Z</time>
      </trkpt>
      <trkpt lat="48.85604" lon="6.12678">
        <ele>350</ele>
        <time>2013-06-05T07:28:39Z</time>
      </trkpt>
      <trkpt lat="48.85594" lon="6.12678">
        <ele>352</ele>
        <time>2013-06-05T07:28:49Z</time>
      </trkpt>
      <trkpt lat="48.85589" lon="6.12676">
        <ele>353</ele>
        <time>2013-06-05T07:29:05Z</time>
      </trkpt>
      <trkpt lat="48.85579" lon="6.12688">
        <ele>354</ele>
        <time>2013-06-05T07:29:23Z</time>
      </trkpt>
      <trkpt lat="48.85572" lon="6.12688">
        <ele>355</ele>
        <time>2013-06-05T07:29:28Z</time>
      </trkpt>
      <trkpt lat="48.85568" lon="6.12691">
        <ele>355</ele>
        <time>2013-06-05T07:29:34Z</time>
      </trkpt>
      <trkpt lat="48.85565" lon="6.12688">
        <ele>360</ele>
        <time>2013-06-05T07:32:31Z</time>
      </trkpt>
      <trkpt lat="48.8556" lon="6.12688">
        <ele>360</ele>
        <time>2013-06-05T07:32:49Z</time>
      </trkpt>
      <trkpt lat="48.85562" lon="6.12679">
        <ele>361</ele>
        <time>2013-06-05T07:33:02Z</time>
      </trkpt>
      <trkpt lat="48.85563" lon="6.12672">
        <ele>361</ele>
        <time>2013-06-05T07:33:06Z</time>
      </trkpt>
      <trkpt lat="48.8556" lon="6.12666">
        <ele>363</ele>
        <time>2013-06-05T07:33:13Z</time>
      </trkpt>
      <trkpt lat="48.85555" lon="6.12664">
        <ele>364</ele>
        <time>2013-06-05T07:33:18Z</time>
      </trkpt>
      <trkpt lat="48.85549" lon="6.12665">
        <ele>363</ele>
        <time>2013-06-05T07:33:22Z</time>
      </trkpt>
      <trkpt lat="48.85543" lon="6.12669">
        <ele>362</ele>
        <time>2013-06-05T07:33:26Z</time>
      </trkpt>
      <trkpt lat="48.85539" lon="6.12673">
        <ele>362</ele>
        <time>2013-06-05T07:33:29Z</time>
      </trkpt>
      <trkpt lat="48.85535" lon="6.12677">
        <ele>362</ele>
        <time>2013-06-05T07:33:32Z</time>
      </trkpt>
      <trkpt lat="48.85531" lon="6.12681">
        <ele>361</ele>
        <time>2013-06-05T07:33:36Z</time>
      </trkpt>
      <trkpt lat="48.85526" lon="6.12684">
        <ele>361</ele>
        <time>2013-06-05T07:33:40Z</time>
      </trkpt>
      <trkpt lat="48.85521" lon="6.12688">
        <ele>361</ele>
        <time>2013-06-05T07:33:43Z</time>
      </trkpt>
      <trkpt lat="48.85516" lon="6.12693">
        <ele>362</ele>
        <time>2013-06-05T07:33:47Z</time>
      </trkpt>
      <trkpt lat="48.85511" lon="6.12698">
        <ele>361</ele>
        <time>2013-06-05T07:33:51Z</time>
      </trkpt>
      <trkpt lat="48.85506" lon="6.12702">
        <ele>361</ele>
        <time>2013-06-05T07:33:54Z</time>
      </trkpt>
      <trkpt lat="48.85504" lon="6.12706">
        <ele>359</ele>
        <time>2013-06-05T07:34:02Z</time>
      </trkpt>
      <trkpt lat="48.85499" lon="6.1271">
        <ele>358</ele>
        <time>2013-06-05T07:34:08Z</time>
      </trkpt>
      <trkpt lat="48.85495" lon="6.12714">
        <ele>355</ele>
        <time>2013-06-05T07:34:17Z</time>
      </trkpt>
      <trkpt lat="48.85486" lon="6.12723">
        <ele>352</ele>
        <time>2013-06-05T07:34:38Z</time>
      </trkpt>
      <trkpt lat="48.85482" lon="6.12729">
        <ele>351</ele>
        <time>2013-06-05T07:34:43Z</time>
      </trkpt>
      <trkpt lat="48.85478" lon="6.12733">
        <ele>351</ele>
        <time>2013-06-05T07:34:47Z</time>
      </trkpt>
      <trkpt lat="48.85474" lon="6.12739">
        <ele>352</ele>
        <time>2013-06-05T07:34:52Z</time>
      </trkpt>
      <trkpt lat="48.8547" lon="6.12743">
        <ele>352</ele>
        <time>2013-06-05T07:34:56Z</time>
      </trkpt>
      <trkpt lat="48.85467" lon="6.12748">
        <ele>351</ele>
        <time>2013-06-05T07:35:00Z</time>
      </trkpt>
      <trkpt lat="48.85464" lon="6.12753">
        <ele>349</ele>
        <time>2013-06-05T07:35:04Z</time>
      </trkpt>
      <trkpt lat="48.8546" lon="6.12758">
        <ele>348</ele>
        <time>2013-06-05T07:35:09Z</time>
      </trkpt>
      <trkpt lat="48.85457" lon="6.12764">
        <ele>347</ele>
        <time>2013-06-05T07:35:14Z</time>
      </trkpt>
      <trkpt lat="48.85452" lon="6.12767">
        <ele>346</ele>
        <time>2013-06-05T07:35:19Z</time>
      </trkpt>
      <trkpt lat="48.85448" lon="6.12769">
        <ele>346</ele>
        <time>2013-06-05T07:35:24Z</time>
      </trkpt>
      <trkpt lat="48.85442" lon="6.1277">
        <ele>345</ele>
        <time>2013-06-05T07:35:29Z</time>
      </trkpt>
      <trkpt lat="48.85437" lon="6.12773">
        <ele>344</ele>
        <time>2013-06-05T07:35:34Z</time>
      </trkpt>
      <trkpt lat="48.85432" lon="6.12774">
        <ele>344</ele>
        <time>2013-06-05T07:35:37Z</time>
      </trkpt>
      <trkpt lat="48.85428" lon="6.12776">
        <ele>343</ele>
        <time>2013-06-05T07:35:42Z</time>
      </trkpt>
      <trkpt lat="48.85423" lon="6.12777">
        <ele>343</ele>
        <time>2013-06-05T07:35:46Z</time>
      </trkpt>
      <trkpt lat="48.85417" lon="6.12778">
        <ele>342</ele>
        <time>2013-06-05T07:35:51Z</time>
      </trkpt>
      <trkpt lat="48.85414" lon="6.12779">
        <ele>341</ele>
        <time>2013-06-05T07:36:00Z</time>
      </trkpt>
      <trkpt lat="48.85409" lon="6.12776">
        <ele>340</ele>
        <time>2013-06-05T07:36:08Z</time>
      </trkpt>
      <trkpt lat="48.85404" lon="6.12773">
        <ele>338</ele>
        <time>2013-06-05T07:36:13Z</time>
      </trkpt>
      <trkpt lat="48.85398" lon="6.12772">
        <ele>337</ele>
        <time>2013-06-05T07:36:20Z</time>
      </trkpt>
      <trkpt lat="48.85394" lon="6.12772">
        <ele>337</ele>
        <time>2013-06-05T07:36:24Z</time>
      </trkpt>
      <trkpt lat="48.85389" lon="6.12771">
        <ele>337</ele>
        <time>2013-06-05T07:36:29Z</time>
      </trkpt>
      <trkpt lat="48.85384" lon="6.12768">
        <ele>336</ele>
        <time>2013-06-05T07:36:34Z</time>
      </trkpt>
      <trkpt lat="48.8538" lon="6.12765">
        <ele>335</ele>
        <time>2013-06-05T07:36:39Z</time>
      </trkpt>
      <trkpt lat="48.85374" lon="6.12762">
        <ele>335</ele>
        <time>2013-06-05T07:36:45Z</time>
      </trkpt>
      <trkpt lat="48.85368" lon="6.12761">
        <ele>334</ele>
        <time>2013-06-05T07:36:48Z</time>
      </trkpt>
      <trkpt lat="48.85363" lon="6.1276">
        <ele>333</ele>
        <time>2013-06-05T07:36:51Z</time>
      </trkpt>
      <trkpt lat="48.85357" lon="6.12757">
        <ele>334</ele>
        <time>2013-06-05T07:36:54Z</time>
      </trkpt>
      <trkpt lat="48.85351" lon="6.12755">
        <ele>333</ele>
        <time>2013-06-05T07:37:04Z</time>
      </trkpt>
      <trkpt lat="48.85345" lon="6.12752">
        <ele>333</ele>
        <time>2013-06-05T07:37:07Z</time>
      </trkpt>
      <trkpt lat="48.8534" lon="6.12749">
        <ele>332</ele>
        <time>2013-06-05T07:37:11Z</time>
      </trkpt>
      <trkpt lat="48.85337" lon="6.12743">
        <ele>331</ele>
        <time>2013-06-05T07:37:14Z</time>
      </trkpt>
      <trkpt lat="48.85332" lon="6.12741">
        <ele>330</ele>
        <time>2013-06-05T07:37:17Z</time>
      </trkpt>
      <trkpt lat="48.85328" lon="6.12738">
        <ele>330</ele>
        <time>2013-06-05T07:37:21Z</time>
      </trkpt>
      <trkpt lat="48.85322" lon="6.12735">
        <ele>329</ele>
        <time>2013-06-05T07:37:25Z</time>
      </trkpt>
      <trkpt lat="48.85317" lon="6.12733">
        <ele>328</ele>
        <time>2013-06-05T07:37:28Z</time>
      </trkpt>
      <trkpt lat="48.85312" lon="6.1273">
        <ele>327</ele>
        <time>2013-06-05T07:37:31Z</time>
      </trkpt>
      <trkpt lat="48.85307" lon="6.12728">
        <ele>324</ele>
        <time>2013-06-05T07:37:35Z</time>
      </trkpt>
      <trkpt lat="48.85303" lon="6.12726">
        <ele>324</ele>
        <time>2013-06-05T07:37:39Z</time>
      </trkpt>
      <trkpt lat="48.85299" lon="6.12722">
        <ele>323</ele>
        <time>2013-06-05T07:37:43Z</time>
      </trkpt>
      <trkpt lat="48.85294" lon="6.12717">
        <ele>323</ele>
        <time>2013-06-05T07:37:47Z</time>
      </trkpt>
      <trkpt lat="48.8529" lon="6.12713">
        <ele>322</ele>
        <time>2013-06-05T07:37:51Z</time>
      </trkpt>
      <trkpt lat="48.85285" lon="6.1271">
        <ele>321</ele>
        <time>2013-06-05T07:37:56Z</time>
      </trkpt>
      <trkpt lat="48.8528" lon="6.12707">
        <ele>321</ele>
        <time>2013-06-05T07:38:00Z</time>
      </trkpt>
      <trkpt lat="48.85275" lon="6.12705">
        <ele>321</ele>
        <time>2013-06-05T07:38:03Z</time>
      </trkpt>
      <trkpt lat="48.8527" lon="6.12702">
        <ele>321</ele>
        <time>2013-06-05T07:38:07Z</time>
      </trkpt>
      <trkpt lat="48.85266" lon="6.12699">
        <ele>321</ele>
        <time>2013-06-05T07:38:11Z</time>
      </trkpt>
      <trkpt lat="48.85262" lon="6.12695">
        <ele>320</ele>
        <time>2013-06-05T07:38:14Z</time>
      </trkpt>
      <trkpt lat="48.85258" lon="6.12692">
        <ele>319</ele>
        <time>2013-06-05T07:38:18Z</time>
      </trkpt>
      <trkpt lat="48.85252" lon="6.12688">
        <ele>317</ele>
        <time>2013-06-05T07:38:22Z</time>
      </trkpt>
      <trkpt lat="48.85247" lon="6.12684">
        <ele>316</ele>
        <time>2013-06-05T07:38:26Z</time>
      </trkpt>
      <trkpt lat="48.85242" lon="6.12679">
        <ele>316</ele>
        <time>2013-06-05T07:38:30Z</time>
      </trkpt>
      <trkpt lat="48.85238" lon="6.12675">
        <ele>315</ele>
        <time>2013-06-05T07:38:34Z</time>
      </trkpt>
      <trkpt lat="48.85233" lon="6.12673">
        <ele>314</ele>
        <time>2013-06-05T07:38:38Z</time>
      </trkpt>
      <trkpt lat="48.85229" lon="6.12668">
        <ele>311</ele>
        <time>2013-06-05T07:38:55Z</time>
      </trkpt>
      <trkpt lat="48.85224" lon="6.12663">
        <ele>310</ele>
        <time>2013-06-05T07:39:01Z</time>
      </trkpt>
      <trkpt lat="48.85219" lon="6.12658">
        <ele>308</ele>
        <time>2013-06-05T07:39:05Z</time>
      </trkpt>
      <trkpt lat="48.85215" lon="6.12654">
        <ele>307</ele>
        <time>2013-06-05T07:39:10Z</time>
      </trkpt>
      <trkpt lat="48.8521" lon="6.12651">
        <ele>307</ele>
        <time>2013-06-05T07:39:14Z</time>
      </trkpt>
      <trkpt lat="48.85205" lon="6.12647">
        <ele>306</ele>
        <time>2013-06-05T07:39:18Z</time>
      </trkpt>
      <trkpt lat="48.85201" lon="6.12644">
        <ele>306</ele>
        <time>2013-06-05T07:39:22Z</time>
      </trkpt>
      <trkpt lat="48.85196" lon="6.12641">
        <ele>306</ele>
        <time>2013-06-05T07:39:25Z</time>
      </trkpt>
      <trkpt lat="48.85192" lon="6.12638">
        <ele>305</ele>
        <time>2013-06-05T07:39:29Z</time>
      </trkpt>
      <trkpt lat="48.85187" lon="6.12633">
        <ele>305</ele>
        <time>2013-06-05T07:39:33Z</time>
      </trkpt>
      <trkpt lat="48.85184" lon="6.12629">
        <ele>303</ele>
        <time>2013-06-05T07:39:37Z</time>
      </trkpt>
      <trkpt lat="48.85179" lon="6.12625">
        <ele>302</ele>
        <time>2013-06-05T07:39:41Z</time>
      </trkpt>
      <trkpt lat="48.85175" lon="6.12621">
        <ele>302</ele>
        <time>2013-06-05T07:39:45Z</time>
      </trkpt>
      <trkpt lat="48.85171" lon="6.12616">
        <ele>301</ele>
        <time>2013-06-05T07:39:51Z</time>
      </trkpt>
      <trkpt lat="48.85168" lon="6.1261">
        <ele>300</ele>
        <time>2013-06-05T07:39:59Z</time>
      </trkpt>
      <trkpt lat="48.85164" lon="6.12606">
        <ele>299</ele>
        <time>2013-06-05T07:40:07Z</time>
      </trkpt>
      <trkpt lat="48.85161" lon="6.12599">
        <ele>299</ele>
        <time>2013-06-05T07:40:13Z</time>
      </trkpt>
      <trkpt lat="48.85157" lon="6.12595">
        <ele>298</ele>
        <time>2013-06-05T07:40:17Z</time>
      </trkpt>
      <trkpt lat="48.85154" lon="6.12589">
        <ele>298</ele>
        <time>2013-06-05T07:40:23Z</time>
      </trkpt>
      <trkpt lat="48.8515" lon="6.12585">
        <ele>296</ele>
        <time>2013-06-05T07:40:30Z</time>
      </trkpt>
      <trkpt lat="48.85146" lon="6.12581">
        <ele>295</ele>
        <time>2013-06-05T07:40:40Z</time>
      </trkpt>
      <trkpt lat="48.85141" lon="6.12576">
        <ele>295</ele>
        <time>2013-06-05T07:40:49Z</time>
      </trkpt>
      <trkpt lat="48.85137" lon="6.12568">
        <ele>293</ele>
        <time>2013-06-05T07:41:00Z</time>
      </trkpt>
      <trkpt lat="48.85133" lon="6.12564">
        <ele>293</ele>
        <time>2013-06-05T07:41:03Z</time>
      </trkpt>
      <trkpt lat="48.85129" lon="6.12558">
        <ele>293</ele>
        <time>2013-06-05T07:41:07Z</time>
      </trkpt>
      <trkpt lat="48.85124" lon="6.12554">
        <ele>291</ele>
        <time>2013-06-05T07:41:11Z</time>
      </trkpt>
      <trkpt lat="48.85121" lon="6.12549">
        <ele>289</ele>
        <time>2013-06-05T07:41:15Z</time>
      </trkpt>
      <trkpt lat="48.85118" lon="6.12543">
        <ele>289</ele>
        <time>2013-06-05T07:41:18Z</time>
      </trkpt>
      <trkpt lat="48.85115" lon="6.12535">
        <ele>288</ele>
        <time>2013-06-05T07:41:21Z</time>
      </trkpt>
      <trkpt lat="48.85112" lon="6.1253">
        <ele>288</ele>
        <time>2013-06-05T07:41:24Z</time>
      </trkpt>
      <trkpt lat="48.85108" lon="6.12524">
        <ele>287</ele>
        <time>2013-06-05T07:41:29Z</time>
      </trkpt>
      <trkpt lat="48.85103" lon="6.12521">
        <ele>287</ele>
        <time>2013-06-05T07:41:31Z</time>
      </trkpt>
      <trkpt lat="48.85097" lon="6.12518">
        <ele>287</ele>
        <time>2013-06-05T07:41:34Z</time>
      </trkpt>
      <trkpt lat="48.85092" lon="6.12516">
        <ele>288</ele>
        <time>2013-06-05T07:41:38Z</time>
      </trkpt>
      <trkpt lat="48.85088" lon="6.12511">
        <ele>287</ele>
        <time>2013-06-05T07:41:43Z</time>
      </trkpt>
      <trkpt lat="48.85084" lon="6.12506">
        <ele>287</ele>
        <time>2013-06-05T07:41:46Z</time>
      </trkpt>
      <trkpt lat="48.85079" lon="6.12502">
        <ele>287</ele>
        <time>2013-06-05T07:41:50Z</time>
      </trkpt>
      <trkpt lat="48.85075" lon="6.12498">
        <ele>287</ele>
        <time>2013-06-05T07:41:53Z</time>
      </trkpt>
      <trkpt lat="48.8507" lon="6.12496">
        <ele>286</ele>
        <time>2013-06-05T07:41:56Z</time>
      </trkpt>
      <trkpt lat="48.8506" lon="6.12494">
        <ele>284</ele>
        <time>2013-06-05T07:42:03Z</time>
      </trkpt>
      <trkpt lat="48.85054" lon="6.1249">
        <ele>282</ele>
        <time>2013-06-05T07:42:06Z</time>
      </trkpt>
      <trkpt lat="48.85048" lon="6.12485">
        <ele>280</ele>
        <time>2013-06-05T07:42:09Z</time>
      </trkpt>
      <trkpt lat="48.85044" lon="6.1248">
        <ele>279</ele>
        <time>2013-06-05T07:42:12Z</time>
      </trkpt>
      <trkpt lat="48.85039" lon="6.12476">
        <ele>279</ele>
        <time>2013-06-05T07:42:15Z</time>
      </trkpt>
      <trkpt lat="48.85035" lon="6.12474">
        <ele>278</ele>
        <time>2013-06-05T07:42:18Z</time>
      </trkpt>
      <trkpt lat="48.85029" lon="6.12469">
        <ele>278</ele>
        <time>2013-06-05T07:42:21Z</time>
      </trkpt>
      <trkpt lat="48.85025" lon="6.12465">
        <ele>278</ele>
        <time>2013-06-05T07:42:23Z</time>
      </trkpt>
      <trkpt lat="48.8502" lon="6.12462">
        <ele>278</ele>
        <time>2013-06-05T07:42:25Z</time>
      </trkpt>
      <trkpt lat="48.85016" lon="6.12458">
        <ele>276</ele>
        <time>2013-06-05T07:42:28Z</time>
      </trkpt>
      <trkpt lat="48.85008" lon="6.12452">
        <ele>276</ele>
        <time>2013-06-05T07:42:32Z</time>
      </trkpt>
      <trkpt lat="48.85003" lon="6.12449">
        <ele>276</ele>
        <time>2013-06-05T07:42:34Z</time>
      </trkpt>
      <trkpt lat="48.84998" lon="6.12446">
        <ele>276</ele>
        <time>2013-06-05T07:42:37Z</time>
      </trkpt>
      <trkpt lat="48.84992" lon="6.12446">
        <ele>275</ele>
        <time>2013-06-05T07:42:40Z</time>
      </trkpt>
      <trkpt lat="48.84985" lon="6.12451">
        <ele>272</ele>
        <time>2013-06-05T07:42:46Z</time>
      </trkpt>
      <trkpt lat="48.84976" lon="6.12448">
        <ele>271</ele>
        <time>2013-06-05T07:42:51Z</time>
      </trkpt>
      <trkpt lat="48.84967" lon="6.12444">
        <ele>270</ele>
        <time>2013-06-05T07:42:57Z</time>
      </trkpt>
      <trkpt lat="48.84963" lon="6.12441">
        <ele>268</ele>
        <time>2013-06-05T07:42:59Z</time>
      </trkpt>
      <trkpt lat="48.84954" lon="6.12433">
        <ele>265</ele>
        <time>2013-06-05T07:43:06Z</time>
      </trkpt>
      <trkpt lat="48.84945" lon="6.12426">
        <ele>264</ele>
        <time>2013-06-05T07:43:13Z</time>
      </trkpt>
      <trkpt lat="48.8494" lon="6.12422">
        <ele>263</ele>
        <time>2013-06-05T07:43:16Z</time>
      </trkpt>
      <trkpt lat="48.84934" lon="6.12421">
        <ele>263</ele>
        <time>2013-06-05T07:43:19Z</time>
      </trkpt>
      <trkpt lat="48.84929" lon="6.12418">
        <ele>263</ele>
        <time>2013-06-05T07:43:22Z</time>
      </trkpt>
      <trkpt lat="48.8492" lon="6.12411">
        <ele>259</ele>
        <time>2013-06-05T07:43:28Z</time>
      </trkpt>
      <trkpt lat="48.84912" lon="6.124">
        <ele>257</ele>
        <time>2013-06-05T07:43:33Z</time>
      </trkpt>
      <trkpt lat="48.84904" lon="6.12386">
        <ele>254</ele>
        <time>2013-06-05T07:43:38Z</time>
      </trkpt>
      <trkpt lat="48.84898" lon="6.12378">
        <ele>253</ele>
        <time>2013-06-05T07:43:40Z</time>
      </trkpt>
      <trkpt lat="48.84894" lon="6.12374">
        <ele>253</ele>
        <time>2013-06-05T07:43:42Z</time>
      </trkpt>
      <trkpt lat="48.8489" lon="6.12368">
        <ele>252</ele>
        <time>2013-06-05T07:43:45Z</time>
      </trkpt>
      <trkpt lat="48.84887" lon="6.12363">
        <ele>251</ele>
        <time>2013-06-05T07:43:48Z</time>
      </trkpt>
      <trkpt lat="48.84883" lon="6.12358">
        <ele>250</ele>
        <time>2013-06-05T07:43:52Z</time>
      </trkpt>
      <trkpt lat="48.84879" lon="6.12351">
        <ele>250</ele>
        <time>2013-06-05T07:43:55Z</time>
      </trkpt>
      <trkpt lat="48.84877" lon="6.12346">
        <ele>246</ele>
        <time>2013-06-05T07:44:06Z</time>
      </trkpt>
      <trkpt lat="48.84876" lon="6.12336">
        <ele>241</ele>
        <time>2013-06-05T07:47:16Z</time>
      </trkpt>
      <trkpt lat="48.84873" lon="6.12329">
        <ele>242</ele>
        <time>2013-06-05T07:47:22Z</time>
      </trkpt>
      <trkpt lat="48.8487" lon="6.12322">
        <ele>244</ele>
        <time>2013-06-05T07:47:28Z</time>
      </trkpt>
      <trkpt lat="48.84866" lon="6.12317">
        <ele>244</ele>
        <time>2013-06-05T07:47:33Z</time>
      </trkpt>
      <trkpt lat="48.84862" lon="6.12312">
        <ele>244</ele>
        <time>2013-06-05T07:47:37Z</time>
      </trkpt>
      <trkpt lat="48.84859" lon="6.12306">
        <ele>243</ele>
        <time>2013-06-05T07:47:41Z</time>
      </trkpt>
      <trkpt lat="48.84857" lon="6.12299">
        <ele>242</ele>
        <time>2013-06-05T07:47:47Z</time>
      </trkpt>
      <trkpt lat="48.84853" lon="6.12294">
        <ele>242</ele>
        <time>2013-06-05T07:47:52Z</time>
      </trkpt>
      <trkpt lat="48.8485" lon="6.12287">
        <ele>240</ele>
        <time>2013-06-05T07:47:56Z</time>
      </trkpt>
      <trkpt lat="48.84848" lon="6.12279">
        <ele>240</ele>
        <time>2013-06-05T07:48:00Z</time>
      </trkpt>
      <trkpt lat="48.84844" lon="6.12273">
        <ele>240</ele>
        <time>2013-06-05T07:48:04Z</time>
      </trkpt>
      <trkpt lat="48.84841" lon="6.12266">
        <ele>239</ele>
        <time>2013-06-05T07:48:09Z</time>
      </trkpt>
      <trkpt lat="48.84838" lon="6.12261">
        <ele>239</ele>
        <time>2013-06-05T07:48:13Z</time>
      </trkpt>
      <trkpt lat="48.84836" lon="6.12254">
        <ele>238</ele>
        <time>2013-06-05T07:48:17Z</time>
      </trkpt>
      <trkpt lat="48.84833" lon="6.12248">
        <ele>238</ele>
        <time>2013-06-05T07:48:20Z</time>
      </trkpt>
      <trkpt lat="48.84831" lon="6.12242">
        <ele>237</ele>
        <time>2013-06-05T07:48:24Z</time>
      </trkpt>
      <trkpt lat="48.84828" lon="6.12236">
        <ele>237</ele>
        <time>2013-06-05T07:48:27Z</time>
      </trkpt>
      <trkpt lat="48.84826" lon="6.1223">
        <ele>237</ele>
        <time>2013-06-05T07:48:30Z</time>
      </trkpt>
      <trkpt lat="48.84822" lon="6.1222">
        <ele>236</ele>
        <time>2013-06-05T07:48:38Z</time>
      </trkpt>
      <trkpt lat="48.84819" lon="6.12213">
        <ele>236</ele>
        <time>2013-06-05T07:48:43Z</time>
      </trkpt>
      <trkpt lat="48.8481" lon="6.12208">
        <ele>234</ele>
        <time>2013-06-05T07:48:56Z</time>
      </trkpt>
      <trkpt lat="48.84807" lon="6.122">
        <ele>232</ele>
        <time>2013-06-05T07:49:03Z</time>
      </trkpt>
      <trkpt lat="48.84809" lon="6.12186">
        <ele>232</ele>
        <time>2013-06-05T07:49:10Z</time>
      </trkpt>
      <trkpt lat="48.84807" lon="6.1218">
        <ele>233</ele>
        <time>2013-06-05T07:49:17Z</time>
      </trkpt>
      <trkpt lat="48.84798" lon="6.12177">
        <ele>232</ele>
        <time>2013-06-05T07:49:20Z</time>
      </trkpt>
      <trkpt lat="48.84793" lon="6.12181">
        <ele>233</ele>
        <time>2013-06-05T07:49:25Z</time>
      </trkpt>
      <trkpt lat="48.8479" lon="6.12186">
        <ele>233</ele>
        <time>2013-06-05T07:49:28Z</time>
      </trkpt>
      <trkpt lat="48.84785" lon="6.1219">
        <ele>233</ele>
        <time>2013-06-05T07:49:35Z</time>
      </trkpt>
      <trkpt lat="48.84781" lon="6.12193">
        <ele>234</ele>
        <time>2013-06-05T07:49:37Z</time>
      </trkpt>
      <trkpt lat="48.84771" lon="6.12186">
        <ele>234</ele>
        <time>2013-06-05T07:49:45Z</time>
      </trkpt>
      <trkpt lat="48.84767" lon="6.12182">
        <ele>233</ele>
        <time>2013-06-05T07:49:48Z</time>
      </trkpt>
      <trkpt lat="48.84763" lon="6.12179">
        <ele>232</ele>
        <time>2013-06-05T07:49:52Z</time>
      </trkpt>
      <trkpt lat="48.84757" lon="6.12175">
        <ele>230</ele>
        <time>2013-06-05T07:49:58Z</time>
      </trkpt>
      <trkpt lat="48.84753" lon="6.12172">
        <ele>228</ele>
        <time>2013-06-05T07:50:02Z</time>
      </trkpt>
      <trkpt lat="48.84748" lon="6.12171">
        <ele>228</ele>
        <time>2013-06-05T07:50:06Z</time>
      </trkpt>
      <trkpt lat="48.84744" lon="6.12165">
        <ele>227</ele>
        <time>2013-06-05T07:50:12Z</time>
      </trkpt>
      <trkpt lat="48.84739" lon="6.12162">
        <ele>226</ele>
        <time>2013-06-05T07:50:16Z</time>
      </trkpt>
      <trkpt lat="48.84734" lon="6.12161">
        <ele>224</ele>
        <time>2013-06-05T07:50:20Z</time>
      </trkpt>
      <trkpt lat="48.84729" lon="6.12159">
        <ele>225</ele>
        <time>2013-06-05T07:50:25Z</time>
      </trkpt>
      <trkpt lat="48.84725" lon="6.12158">
        <ele>226</ele>
        <time>2013-06-05T07:50:29Z</time>
      </trkpt>
      <trkpt lat="48.84716" lon="6.1215">
        <ele>222</ele>
        <time>2013-06-05T07:50:47Z</time>
      </trkpt>
      <trkpt lat="48.84707" lon="6.12147">
        <ele>222</ele>
        <time>2013-06-05T07:50:56Z</time>
      </trkpt>
      <trkpt lat="48.84698" lon="6.12143">
        <ele>224</ele>
        <time>2013-06-05T07:51:05Z</time>
      </trkpt>
      <trkpt lat="48.84694" lon="6.12139">
        <ele>224</ele>
        <time>2013-06-05T07:51:10Z</time>
      </trkpt>
      <trkpt lat="48.84684" lon="6.12136">
        <ele>225</ele>
        <time>2013-06-05T07:51:18Z</time>
      </trkpt>
      <trkpt lat="48.84677" lon="6.12133">
        <ele>224</ele>
        <time>2013-06-05T07:51:27Z</time>
      </trkpt>
      <trkpt lat="48.84672" lon="6.12132">
        <ele>222</ele>
        <time>2013-06-05T07:51:31Z</time>
      </trkpt>
      <trkpt lat="48.84669" lon="6.12131">
        <ele>220</ele>
        <time>2013-06-05T07:51:38Z</time>
      </trkpt>
      <trkpt lat="48.84663" lon="6.12123">
        <ele>221</ele>
        <time>2013-06-05T07:51:43Z</time>
      </trkpt>
      <trkpt lat="48.84658" lon="6.1212">
        <ele>221</ele>
        <time>2013-06-05T07:51:50Z</time>
      </trkpt>
      <trkpt lat="48.84653" lon="6.12118">
        <ele>221</ele>
        <time>2013-06-05T07:51:54Z</time>
      </trkpt>
      <trkpt lat="48.84647" lon="6.12115">
        <ele>220</ele>
        <time>2013-06-05T07:51:56Z</time>
      </trkpt>
      <trkpt lat="48.84641" lon="6.12114">
        <ele>218</ele>
        <time>2013-06-05T07:52:05Z</time>
      </trkpt>
      <trkpt lat="48.84634" lon="6.12111">
        <ele>216</ele>
        <time>2013-06-05T07:52:09Z</time>
      </trkpt>
      <trkpt lat="48.84629" lon="6.12109">
        <ele>215</ele>
        <time>2013-06-05T07:52:12Z</time>
      </trkpt>
      <trkpt lat="48.84621" lon="6.12107">
        <ele>215</ele>
        <time>2013-06-05T07:52:17Z</time>
      </trkpt>
      <trkpt lat="48.84614" lon="6.12105">
        <ele>213</ele>
        <time>2013-06-05T07:52:28Z</time>
      </trkpt>
      <trkpt lat="48.84605" lon="6.12111">
        <ele>205</ele>
        <time>2013-06-05T07:52:49Z</time>
      </trkpt>
      <trkpt lat="48.84601" lon="6.12118">
        <ele>205</ele>
        <time>2013-06-05T07:52:55Z</time>
      </trkpt>
      <trkpt lat="48.84597" lon="6.12122">
        <ele>205</ele>
        <time>2013-06-05T07:53:00Z</time>
      </trkpt>
      <trkpt lat="48.84593" lon="6.12127">
        <ele>205</ele>
        <time>2013-06-05T07:53:03Z</time>
      </trkpt>
      <trkpt lat="48.8459" lon="6.12132">
        <ele>205</ele>
        <time>2013-06-05T07:53:07Z</time>
      </trkpt>
      <trkpt lat="48.84585" lon="6.12141">
        <ele>206</ele>
        <time>2013-06-05T07:53:17Z</time>
      </trkpt>
      <trkpt lat="48.84582" lon="6.12147">
        <ele>208</ele>
        <time>2013-06-05T07:53:21Z</time>
      </trkpt>
      <trkpt lat="48.84576" lon="6.12154">
        <ele>208</ele>
        <time>2013-06-05T07:53:31Z</time>
      </trkpt>
      <trkpt lat="48.84571" lon="6.12154">
        <ele>210</ele>
        <time>2013-06-05T07:53:38Z</time>
      </trkpt>
      <trkpt lat="48.84566" lon="6.12154">
        <ele>210</ele>
        <time>2013-06-05T07:53:41Z</time>
      </trkpt>
      <trkpt lat="48.84563" lon="6.12154">
        <ele>211</ele>
        <time>2013-06-05T07:53:53Z</time>
      </trkpt>
      <trkpt lat="48.84561" lon="6.12152">
        <ele>210</ele>
        <time>2013-06-05T07:53:59Z</time>
      </trkpt>
      <trkpt lat="48.84554" lon="6.12149">
        <ele>208</ele>
        <time>2013-06-05T07:54:22Z</time>
      </trkpt>
      <trkpt lat="48.8455" lon="6.12144">
        <ele>207</ele>
        <time>2013-06-05T07:54:28Z</time>
      </trkpt>
      <trkpt lat="48.84545" lon="6.12142">
        <ele>207</ele>
        <time>2013-06-05T07:54:31Z</time>
      </trkpt>
      <trkpt lat="48.8454" lon="6.12139">
        <ele>206</ele>
        <time>2013-06-05T07:54:36Z</time>
      </trkpt>
      <trkpt lat="48.8453" lon="6.12132">
        <ele>206</ele>
        <time>2013-06-05T07:54:52Z</time>
      </trkpt>
      <trkpt lat="48.8452" lon="6.12124">
        <ele>214</ele>
        <time>2013-06-05T07:55:04Z</time>
      </trkpt>
      <trkpt lat="48.84511" lon="6.12121">
        <ele>213</ele>
        <time>2013-06-05T07:55:09Z</time>
      </trkpt>
      <trkpt lat="48.84505" lon="6.12119">
        <ele>212</ele>
        <time>2013-06-05T07:55:14Z</time>
      </trkpt>
      <trkpt lat="48.84501" lon="6.12116">
        <ele>210</ele>
        <time>2013-06-05T07:55:18Z</time>
      </trkpt>
      <trkpt lat="48.84495" lon="6.12113">
        <ele>208</ele>
        <time>2013-06-05T07:55:22Z</time>
      </trkpt>
      <trkpt lat="48.8449" lon="6.12111">
        <ele>206</ele>
        <time>2013-06-05T07:55:27Z</time>
      </trkpt>
      <trkpt lat="48.84485" lon="6.1211">
        <ele>205</ele>
        <time>2013-06-05T07:55:31Z</time>
      </trkpt>
      <trkpt lat="48.84481" lon="6.12108">
        <ele>205</ele>
        <time>2013-06-05T07:55:34Z</time>
      </trkpt>
      <trkpt lat="48.84476" lon="6.12105">
        <ele>204</ele>
        <time>2013-06-05T07:55:38Z</time>
      </trkpt>
      <trkpt lat="48.8447" lon="6.12102">
        <ele>203</ele>
        <time>2013-06-05T07:55:42Z</time>
      </trkpt>
      <trkpt lat="48.8446" lon="6.12098">
        <ele>201</ele>
        <time>2013-06-05T07:55:50Z</time>
      </trkpt>
      <trkpt lat="48.84455" lon="6.12096">
        <ele>201</ele>
        <time>2013-06-05T07:55:53Z</time>
      </trkpt>
      <trkpt lat="48.84449" lon="6.12093">
        <ele>202</ele>
        <time>2013-06-05T07:55:58Z</time>
      </trkpt>
      <trkpt lat="48.84443" lon="6.1209">
        <ele>204</ele>
        <time>2013-06-05T07:56:03Z</time>
      </trkpt>
      <trkpt lat="48.84438" lon="6.12088">
        <ele>205</ele>
        <time>2013-06-05T07:56:07Z</time>
      </trkpt>
      <trkpt lat="48.84434" lon="6.12087">
        <ele>205</ele>
        <time>2013-06-05T07:56:10Z</time>
      </trkpt>
      <trkpt lat="48.84428" lon="6.12085">
        <ele>205</ele>
        <time>2013-06-05T07:56:15Z</time>
      </trkpt>
      <trkpt lat="48.84421" lon="6.12086">
        <ele>204</ele>
        <time>2013-06-05T07:56:20Z</time>
      </trkpt>
      <trkpt lat="48.84415" lon="6.12086">
        <ele>203</ele>
        <time>2013-06-05T07:56:24Z</time>
      </trkpt>
      <trkpt lat="48.84411" lon="6.12089">
        <ele>203</ele>
        <time>2013-06-05T07:56:32Z</time>
      </trkpt>
      <trkpt lat="48.84409" lon="6.12093">
        <ele>200</ele>
        <time>2013-06-05T07:56:42Z</time>
      </trkpt>
      <trkpt lat="48.84402" lon="6.12092">
        <ele>200</ele>
        <time>2013-06-05T07:56:52Z</time>
      </trkpt>
      <trkpt lat="48.84398" lon="6.12092">
        <ele>199</ele>
        <time>2013-06-05T07:56:59Z</time>
      </trkpt>
      <trkpt lat="48.84393" lon="6.12093">
        <ele>199</ele>
        <time>2013-06-05T07:57:03Z</time>
      </trkpt>
      <trkpt lat="48.84386" lon="6.12094">
        <ele>199</ele>
        <time>2013-06-05T07:57:08Z</time>
      </trkpt>
      <trkpt lat="48.84382" lon="6.12095">
        <ele>200</ele>
        <time>2013-06-05T07:57:12Z</time>
      </trkpt>
      <trkpt lat="48.84377" lon="6.12097">
        <ele>199</ele>
        <time>2013-06-05T07:57:15Z</time>
      </trkpt>
      <trkpt lat="48.84372" lon="6.12098">
        <ele>200</ele>
        <time>2013-06-05T07:57:19Z</time>
      </trkpt>
      <trkpt lat="48.84367" lon="6.12098">
        <ele>200</ele>
        <time>2013-06-05T07:57:23Z</time>
      </trkpt>
      <trkpt lat="48.84362" lon="6.12101">
        <ele>200</ele>
        <time>2013-06-05T07:57:26Z</time>
      </trkpt>
      <trkpt lat="48.84358" lon="6.12103">
        <ele>201</ele>
        <time>2013-06-05T07:57:30Z</time>
      </trkpt>
      <trkpt lat="48.84352" lon="6.12105">
        <ele>201</ele>
        <time>2013-06-05T07:57:34Z</time>
      </trkpt>
      <trkpt lat="48.84347" lon="6.12107">
        <ele>201</ele>
        <time>2013-06-05T07:57:38Z</time>
      </trkpt>
      <trkpt lat="48.84342" lon="6.12109">
        <ele>202</ele>
        <time>2013-06-05T07:57:43Z</time>
      </trkpt>
      <trkpt lat="48.84337" lon="6.12111">
        <ele>202</ele>
        <time>2013-06-05T07:57:47Z</time>
      </trkpt>
      <trkpt lat="48.84328" lon="6.12111">
        <ele>202</ele>
        <time>2013-06-05T07:57:54Z</time>
      </trkpt>
      <trkpt lat="48.84322" lon="6.12109">
        <ele>201</ele>
        <time>2013-06-05T07:57:57Z</time>
      </trkpt>
      <trkpt lat="48.84314" lon="6.12105">
        <ele>200</ele>
        <time>2013-06-05T07:58:04Z</time>
      </trkpt>
      <trkpt lat="48.84309" lon="6.12102">
        <ele>201</ele>
        <time>2013-06-05T07:58:08Z</time>
      </trkpt>
      <trkpt lat="48.84304" lon="6.12098">
        <ele>202</ele>
        <time>2013-06-05T07:58:12Z</time>
      </trkpt>
      <trkpt lat="48.84301" lon="6.12092">
        <ele>202</ele>
        <time>2013-06-05T07:58:16Z</time>
      </trkpt>
      <trkpt lat="48.84298" lon="6.12086">
        <ele>203</ele>
        <time>2013-06-05T07:58:20Z</time>
      </trkpt>
      <trkpt lat="48.84296" lon="6.12079">
        <ele>204</ele>
        <time>2013-06-05T07:58:25Z</time>
      </trkpt>
      <trkpt lat="48.84296" lon="6.1207">
        <ele>205</ele>
        <time>2013-06-05T07:58:30Z</time>
      </trkpt>
      <trkpt lat="48.84296" lon="6.12062">
        <ele>206</ele>
        <time>2013-06-05T07:58:34Z</time>
      </trkpt>
      <trkpt lat="48.84297" lon="6.12054">
        <ele>206</ele>
        <time>2013-06-05T07:58:38Z</time>
      </trkpt>
      <trkpt lat="48.84298" lon="6.12045">
        <ele>207</ele>
        <time>2013-06-05T07:58:42Z</time>
      </trkpt>
      <trkpt lat="48.84298" lon="6.12039">
        <ele>207</ele>
        <time>2013-06-05T07:58:46Z</time>
      </trkpt>
      <trkpt lat="48.843" lon="6.12031">
        <ele>208</ele>
        <time>2013-06-05T07:58:51Z</time>
      </trkpt>
      <trkpt lat="48.84301" lon="6.12021">
        <ele>208</ele>
        <time>2013-06-05T07:58:56Z</time>
      </trkpt>
      <trkpt lat="48.84302" lon="6.12014">
        <ele>208</ele>
        <time>2013-06-05T07:58:59Z</time>
      </trkpt>
      <trkpt lat="48.84302" lon="6.12006">
        <ele>209</ele>
        <time>2013-06-05T07:59:03Z</time>
      </trkpt>
      <trkpt lat="48.843" lon="6.11998">
        <ele>209</ele>
        <time>2013-06-05T07:59:07Z</time>
      </trkpt>
      <trkpt lat="48.84297" lon="6.11992">
        <ele>209</ele>
        <time>2013-06-05T07:59:11Z</time>
      </trkpt>
      <trkpt lat="48.84292" lon="6.11987">
        <ele>208</ele>
        <time>2013-06-05T07:59:15Z</time>
      </trkpt>
      <trkpt lat="48.84287" lon="6.11984">
        <ele>207</ele>
        <time>2013-06-05T07:59:19Z</time>
      </trkpt>
      <trkpt lat="48.84282" lon="6.1198">
        <ele>207</ele>
        <time>2013-06-05T07:59:24Z</time>
      </trkpt>
      <trkpt lat="48.84277" lon="6.11976">
        <ele>207</ele>
        <time>2013-06-05T07:59:29Z</time>
      </trkpt>
      <trkpt lat="48.84272" lon="6.11973">
        <ele>207</ele>
        <time>2013-06-05T07:59:33Z</time>
      </trkpt>
      <trkpt lat="48.84267" lon="6.1197">
        <ele>207</ele>
        <time>2013-06-05T07:59:38Z</time>
      </trkpt>
      <trkpt lat="48.84263" lon="6.11967">
        <ele>208</ele>
        <time>2013-06-05T07:59:42Z</time>
      </trkpt>
      <trkpt lat="48.84259" lon="6.11963">
        <ele>208</ele>
        <time>2013-06-05T07:59:46Z</time>
      </trkpt>
      <trkpt lat="48.84255" lon="6.1196">
        <ele>209</ele>
        <time>2013-06-05T07:59:50Z</time>
      </trkpt>
      <trkpt lat="48.8425" lon="6.11957">
        <ele>210</ele>
        <time>2013-06-05T07:59:54Z</time>
      </trkpt>
      <trkpt lat="48.84245" lon="6.11954">
        <ele>211</ele>
        <time>2013-06-05T07:59:59Z</time>
      </trkpt>
      <trkpt lat="48.8424" lon="6.11951">
        <ele>211</ele>
        <time>2013-06-05T08:00:03Z</time>
      </trkpt>
      <trkpt lat="48.84235" lon="6.11948">
        <ele>212</ele>
        <time>2013-06-05T08:00:07Z</time>
      </trkpt>
      <trkpt lat="48.84231" lon="6.11943">
        <ele>213</ele>
        <time>2013-06-05T08:00:12Z</time>
      </trkpt>
      <trkpt lat="48.84227" lon="6.1194">
        <ele>213</ele>
        <time>2013-06-05T08:00:16Z</time>
      </trkpt>
      <trkpt lat="48.84222" lon="6.11938">
        <ele>214</ele>
        <time>2013-06-05T08:00:20Z</time>
      </trkpt>
      <trkpt lat="48.84216" lon="6.11936">
        <ele>215</ele>
        <time>2013-06-05T08:00:25Z</time>
      </trkpt>
      <trkpt lat="48.84212" lon="6.11931">
        <ele>215</ele>
        <time>2013-06-05T08:00:30Z</time>
      </trkpt>
      <trkpt lat="48.84208" lon="6.11925">
        <ele>215</ele>
        <time>2013-06-05T08:00:35Z</time>
      </trkpt>
      <trkpt lat="48.84203" lon="6.11921">
        <ele>215</ele>
        <time>2013-06-05T08:00:39Z</time>
      </trkpt>
      <trkpt lat="48.84199" lon="6.11917">
        <ele>215</ele>
        <time>2013-06-05T08:00:43Z</time>
      </trkpt>
      <trkpt lat="48.84195" lon="6.11913">
        <ele>216</ele>
        <time>2013-06-05T08:00:47Z</time>
      </trkpt>
      <trkpt lat="48.84191" lon="6.11909">
        <ele>216</ele>
        <time>2013-06-05T08:00:51Z</time>
      </trkpt>
      <trkpt lat="48.84187" lon="6.11903">
        <ele>217</ele>
        <time>2013-06-05T08:00:55Z</time>
      </trkpt>
      <trkpt lat="48.84182" lon="6.11898">
        <ele>219</ele>
        <time>2013-06-05T08:00:59Z</time>
      </trkpt>
      <trkpt lat="48.84178" lon="6.11894">
        <ele>219</ele>
        <time>2013-06-05T08:01:03Z</time>
      </trkpt>
      <trkpt lat="48.84174" lon="6.11891">
        <ele>219</ele>
        <time>2013-06-05T08:01:07Z</time>
      </trkpt>
      <trkpt lat="48.8417" lon="6.11888">
        <ele>220</ele>
        <time>2013-06-05T08:01:11Z</time>
      </trkpt>
      <trkpt lat="48.84166" lon="6.11883">
        <ele>222</ele>
        <time>2013-06-05T08:01:15Z</time>
      </trkpt>
      <trkpt lat="48.84161" lon="6.11878">
        <ele>223</ele>
        <time>2013-06-05T08:01:19Z</time>
      </trkpt>
      <trkpt lat="48.84158" lon="6.11873">
        <ele>224</ele>
        <time>2013-06-05T08:01:23Z</time>
      </trkpt>
      <trkpt lat="48.84154" lon="6.11869">
        <ele>224</ele>
        <time>2013-06-05T08:01:27Z</time>
      </trkpt>
      <trkpt lat="48.8415" lon="6.11864">
        <ele>225</ele>
        <time>2013-06-05T08:01:32Z</time>
      </trkpt>
      <trkpt lat="48.84146" lon="6.11858">
        <ele>225</ele>
        <time>2013-06-05T08:01:37Z</time>
      </trkpt>
      <trkpt lat="48.84143" lon="6.11853">
        <ele>225</ele>
        <time>2013-06-05T08:01:41Z</time>
      </trkpt>
      <trkpt lat="48.84139" lon="6.11849">
        <ele>225</ele>
        <time>2013-06-05T08:01:45Z</time>
      </trkpt>
      <trkpt lat="48.84135" lon="6.11845">
        <ele>225</ele>
        <time>2013-06-05T08:01:49Z</time>
      </trkpt>
      <trkpt lat="48.84132" lon="6.11841">
        <ele>225</ele>
        <time>2013-06-05T08:01:53Z</time>
      </trkpt>
      <trkpt lat="48.84128" lon="6.11836">
        <ele>225</ele>
        <time>2013-06-05T08:01:57Z</time>
      </trkpt>
      <trkpt lat="48.84123" lon="6.11831">
        <ele>224</ele>
        <time>2013-06-05T08:02:01Z</time>
      </trkpt>
      <trkpt lat="48.8412" lon="6.11827">
        <ele>224</ele>
        <time>2013-06-05T08:02:05Z</time>
      </trkpt>
      <trkpt lat="48.84115" lon="6.11823">
        <ele>225</ele>
        <time>2013-06-05T08:02:09Z</time>
      </trkpt>
      <trkpt lat="48.84111" lon="6.1182">
        <ele>227</ele>
        <time>2013-06-05T08:02:13Z</time>
      </trkpt>
      <trkpt lat="48.84107" lon="6.11818">
        <ele>228</ele>
        <time>2013-06-05T08:02:17Z</time>
      </trkpt>
      <trkpt lat="48.84101" lon="6.11816">
        <ele>230</ele>
        <time>2013-06-05T08:02:22Z</time>
      </trkpt>
      <trkpt lat="48.84097" lon="6.11813">
        <ele>230</ele>
        <time>2013-06-05T08:02:26Z</time>
      </trkpt>
      <trkpt lat="48.84092" lon="6.11811">
        <ele>231</ele>
        <time>2013-06-05T08:02:30Z</time>
      </trkpt>
      <trkpt lat="48.84088" lon="6.11809">
        <ele>232</ele>
        <time>2013-06-05T08:02:35Z</time>
      </trkpt>
      <trkpt lat="48.84083" lon="6.11807">
        <ele>233</ele>
        <time>2013-06-05T08:02:39Z</time>
      </trkpt>
      <trkpt lat="48.84079" lon="6.11804">
        <ele>233</ele>
        <time>2013-06-05T08:02:43Z</time>
      </trkpt>
      <trkpt lat="48.84074" lon="6.11802">
        <ele>234</ele>
        <time>2013-06-05T08:02:47Z</time>
      </trkpt>
      <trkpt lat="48.8407" lon="6.11799">
        <ele>235</ele>
        <time>2013-06-05T08:02:52Z</time>
      </trkpt>
      <trkpt lat="48.84065" lon="6.11797">
        <ele>235</ele>
        <time>2013-06-05T08:02:56Z</time>
      </trkpt>
      <trkpt lat="48.8406" lon="6.11795">
        <ele>235</ele>
        <time>2013-06-05T08:03:00Z</time>
      </trkpt>
      <trkpt lat="48.84055" lon="6.11793">
        <ele>236</ele>
        <time>2013-06-05T08:03:04Z</time>
      </trkpt>
      <trkpt lat="48.8405" lon="6.11791">
        <ele>237</ele>
        <time>2013-06-05T08:03:10Z</time>
      </trkpt>
      <trkpt lat="48.84045" lon="6.1179">
        <ele>238</ele>
        <time>2013-06-05T08:03:14Z</time>
      </trkpt>
      <trkpt lat="48.8404" lon="6.11788">
        <ele>239</ele>
        <time>2013-06-05T08:03:19Z</time>
      </trkpt>
      <trkpt lat="48.84035" lon="6.11787">
        <ele>240</ele>
        <time>2013-06-05T08:03:23Z</time>
      </trkpt>
      <trkpt lat="48.84031" lon="6.11785">
        <ele>241</ele>
        <time>2013-06-05T08:03:27Z</time>
      </trkpt>
      <trkpt lat="48.84026" lon="6.11783">
        <ele>241</ele>
        <time>2013-06-05T08:03:32Z</time>
      </trkpt>
      <trkpt lat="48.84021" lon="6.11781">
        <ele>241</ele>
        <time>2013-06-05T08:03:36Z</time>
      </trkpt>
      <trkpt lat="48.84016" lon="6.11779">
        <ele>242</ele>
        <time>2013-06-05T08:03:42Z</time>
      </trkpt>
      <trkpt lat="48.84011" lon="6.11777">
        <ele>243</ele>
        <time>2013-06-05T08:03:46Z</time>
      </trkpt>
      <trkpt lat="48.84006" lon="6.11775">
        <ele>243</ele>
        <time>2013-06-05T08:03:51Z</time>
      </trkpt>
      <trkpt lat="48.84001" lon="6.11772">
        <ele>244</ele>
        <time>2013-06-05T08:03:57Z</time>
      </trkpt>
      <trkpt lat="48.83996" lon="6.11772">
        <ele>244</ele>
        <time>2013-06-05T08:04:02Z</time>
      </trkpt>
      <trkpt lat="48.83991" lon="6.11771">
        <ele>245</ele>
        <time>2013-06-05T08:04:06Z</time>
      </trkpt>
      <trkpt lat="48.83986" lon="6.11768">
        <ele>246</ele>
        <time>2013-06-05T08:04:11Z</time>
      </trkpt>
      <trkpt lat="48.83981" lon="6.11766">
        <ele>248</ele>
        <time>2013-06-05T08:04:16Z</time>
      </trkpt>
      <trkpt lat="48.83976" lon="6.11763">
        <ele>249</ele>
        <time>2013-06-05T08:04:22Z</time>
      </trkpt>
      <trkpt lat="48.8397" lon="6.11761">
        <ele>250</ele>
        <time>2013-06-05T08:04:27Z</time>
      </trkpt>
      <trkpt lat="48.83965" lon="6.11758">
        <ele>251</ele>
        <time>2013-06-05T08:04:32Z</time>
      </trkpt>
      <trkpt lat="48.8396" lon="6.11756">
        <ele>252</ele>
        <time>2013-06-05T08:04:37Z</time>
      </trkpt>
      <trkpt lat="48.83955" lon="6.11753">
        <ele>252</ele>
        <time>2013-06-05T08:04:41Z</time>
      </trkpt>
      <trkpt lat="48.83951" lon="6.1175">
        <ele>251</ele>
        <time>2013-06-05T08:04:45Z</time>
      </trkpt>
      <trkpt lat="48.83946" lon="6.11747">
        <ele>250</ele>
        <time>2013-06-05T08:04:50Z</time>
      </trkpt>
      <trkpt lat="48.83941" lon="6.11744">
        <ele>249</ele>
        <time>2013-06-05T08:04:56Z</time>
      </trkpt>
      <trkpt lat="48.83936" lon="6.11742">
        <ele>249</ele>
        <time>2013-06-05T08:05:00Z</time>
      </trkpt>
      <trkpt lat="48.83931" lon="6.11739">
        <ele>247</ele>
        <time>2013-06-05T08:05:06Z</time>
      </trkpt>
      <trkpt lat="48.83926" lon="6.11736">
        <ele>247</ele>
        <time>2013-06-05T08:05:12Z</time>
      </trkpt>
      <trkpt lat="48.83922" lon="6.11732">
        <ele>248</ele>
        <time>2013-06-05T08:05:21Z</time>
      </trkpt>
      <trkpt lat="48.83917" lon="6.11725">
        <ele>247</ele>
        <time>2013-06-05T08:05:29Z</time>
      </trkpt>
      <trkpt lat="48.83912" lon="6.11724">
        <ele>249</ele>
        <time>2013-06-05T08:05:34Z</time>
      </trkpt>
      <trkpt lat="48.83874" lon="6.11711">
        <ele>264</ele>
        <time>2013-06-05T08:06:07Z</time>
      </trkpt>
      <trkpt lat="48.83871" lon="6.11705">
        <ele>265</ele>
        <time>2013-06-05T08:06:11Z</time>
      </trkpt>
      <trkpt lat="48.83867" lon="6.117">
        <ele>266</ele>
        <time>2013-06-05T08:06:16Z</time>
      </trkpt>
      <trkpt lat="48.83863" lon="6.11696">
        <ele>267</ele>
        <time>2013-06-05T08:06:20Z</time>
      </trkpt>
      <trkpt lat="48.8386" lon="6.11691">
        <ele>269</ele>
        <time>2013-06-05T08:06:24Z</time>
      </trkpt>
      <trkpt lat="48.83857" lon="6.11685">
        <ele>269</ele>
        <time>2013-06-05T08:06:28Z</time>
      </trkpt>
      <trkpt lat="48.83854" lon="6.1168">
        <ele>269</ele>
        <time>2013-06-05T08:06:32Z</time>
      </trkpt>
      <trkpt lat="48.8385" lon="6.11675">
        <ele>269</ele>
        <time>2013-06-05T08:06:37Z</time>
      </trkpt>
      <trkpt lat="48.83846" lon="6.1167">
        <ele>270</ele>
        <time>2013-06-05T08:06:42Z</time>
      </trkpt>
      <trkpt lat="48.83842" lon="6.11664">
        <ele>272</ele>
        <time>2013-06-05T08:06:47Z</time>
      </trkpt>
      <trkpt lat="48.83838" lon="6.11659">
        <ele>273</ele>
        <time>2013-06-05T08:06:51Z</time>
      </trkpt>
      <trkpt lat="48.83835" lon="6.11653">
        <ele>274</ele>
        <time>2013-06-05T08:06:55Z</time>
      </trkpt>
      <trkpt lat="48.83829" lon="6.11644">
        <ele>274</ele>
        <time>2013-06-05T08:07:04Z</time>
      </trkpt>
      <trkpt lat="48.83824" lon="6.11639">
        <ele>275</ele>
        <time>2013-06-05T08:07:09Z</time>
      </trkpt>
      <trkpt lat="48.8382" lon="6.11636">
        <ele>276</ele>
        <time>2013-06-05T08:07:13Z</time>
      </trkpt>
      <trkpt lat="48.83815" lon="6.11633">
        <ele>278</ele>
        <time>2013-06-05T08:07:17Z</time>
      </trkpt>
      <trkpt lat="48.83812" lon="6.1163">
        <ele>279</ele>
        <time>2013-06-05T08:07:21Z</time>
      </trkpt>
      <trkpt lat="48.83807" lon="6.11626">
        <ele>280</ele>
        <time>2013-06-05T08:07:25Z</time>
      </trkpt>
      <trkpt lat="48.83803" lon="6.11623">
        <ele>281</ele>
        <time>2013-06-05T08:07:29Z</time>
      </trkpt>
      <trkpt lat="48.83798" lon="6.11619">
        <ele>282</ele>
        <time>2013-06-05T08:07:33Z</time>
      </trkpt>
      <trkpt lat="48.83793" lon="6.11614">
        <ele>282</ele>
        <time>2013-06-05T08:07:38Z</time>
      </trkpt>
      <trkpt lat="48.83789" lon="6.11609">
        <ele>282</ele>
        <time>2013-06-05T08:07:42Z</time>
      </trkpt>
      <trkpt lat="48.83785" lon="6.11606">
        <ele>282</ele>
        <time>2013-06-05T08:07:46Z</time>
      </trkpt>
      <trkpt lat="48.8378" lon="6.11602">
        <ele>283</ele>
        <time>2013-06-05T08:07:50Z</time>
      </trkpt>
      <trkpt lat="48.83776" lon="6.11599">
        <ele>282</ele>
        <time>2013-06-05T08:07:54Z</time>
      </trkpt>
      <trkpt lat="48.83771" lon="6.11596">
        <ele>282</ele>
        <time>2013-06-05T08:07:58Z</time>
      </trkpt>
      <trkpt lat="48.83766" lon="6.11595">
        <ele>283</ele>
        <time>2013-06-05T08:08:02Z</time>
      </trkpt>
      <trkpt lat="48.83762" lon="6.11592">
        <ele>284</ele>
        <time>2013-06-05T08:08:06Z</time>
      </trkpt>
      <trkpt lat="48.83758" lon="6.11589">
        <ele>284</ele>
        <time>2013-06-05T08:08:10Z</time>
      </trkpt>
      <trkpt lat="48.83752" lon="6.11586">
        <ele>285</ele>
        <time>2013-06-05T08:08:14Z</time>
      </trkpt>
      <trkpt lat="48.83747" lon="6.11585">
        <ele>286</ele>
        <time>2013-06-05T08:08:18Z</time>
      </trkpt>
      <trkpt lat="48.83742" lon="6.11583">
        <ele>287</ele>
        <time>2013-06-05T08:08:22Z</time>
      </trkpt>
      <trkpt lat="48.83737" lon="6.11581">
        <ele>288</ele>
        <time>2013-06-05T08:08:25Z</time>
      </trkpt>
      <trkpt lat="48.83731" lon="6.1158">
        <ele>289</ele>
        <time>2013-06-05T08:08:30Z</time>
      </trkpt>
      <trkpt lat="48.83727" lon="6.1158">
        <ele>290</ele>
        <time>2013-06-05T08:08:34Z</time>
      </trkpt>
      <trkpt lat="48.83722" lon="6.11578">
        <ele>290</ele>
        <time>2013-06-05T08:08:38Z</time>
      </trkpt>
      <trkpt lat="48.83717" lon="6.11575">
        <ele>291</ele>
        <time>2013-06-05T08:08:42Z</time>
      </trkpt>
      <trkpt lat="48.83712" lon="6.11574">
        <ele>291</ele>
        <time>2013-06-05T08:08:46Z</time>
      </trkpt>
      <trkpt lat="48.83705" lon="6.11572">
        <ele>291</ele>
        <time>2013-06-05T08:08:50Z</time>
      </trkpt>
      <trkpt lat="48.837" lon="6.1157">
        <ele>292</ele>
        <time>2013-06-05T08:08:54Z</time>
      </trkpt>
      <trkpt lat="48.83695" lon="6.11569">
        <ele>293</ele>
        <time>2013-06-05T08:08:58Z</time>
      </trkpt>
      <trkpt lat="48.8369" lon="6.11567">
        <ele>294</ele>
        <time>2013-06-05T08:09:02Z</time>
      </trkpt>
      <trkpt lat="48.83685" lon="6.11563">
        <ele>295</ele>
        <time>2013-06-05T08:09:06Z</time>
      </trkpt>
      <trkpt lat="48.83679" lon="6.11562">
        <ele>295</ele>
        <time>2013-06-05T08:09:10Z</time>
      </trkpt>
      <trkpt lat="48.83674" lon="6.11562">
        <ele>295</ele>
        <time>2013-06-05T08:09:14Z</time>
      </trkpt>
      <trkpt lat="48.83669" lon="6.1156">
        <ele>295</ele>
        <time>2013-06-05T08:09:18Z</time>
      </trkpt>
      <trkpt lat="48.83665" lon="6.11558">
        <ele>294</ele>
        <time>2013-06-05T08:09:22Z</time>
      </trkpt>
      <trkpt lat="48.83659" lon="6.11556">
        <ele>294</ele>
        <time>2013-06-05T08:09:26Z</time>
      </trkpt>
      <trkpt lat="48.83655" lon="6.11554">
        <ele>294</ele>
        <time>2013-06-05T08:09:30Z</time>
      </trkpt>
      <trkpt lat="48.8365" lon="6.11552">
        <ele>294</ele>
        <time>2013-06-05T08:09:34Z</time>
      </trkpt>
      <trkpt lat="48.83645" lon="6.11552">
        <ele>295</ele>
        <time>2013-06-05T08:09:38Z</time>
      </trkpt>
      <trkpt lat="48.8364" lon="6.11549">
        <ele>296</ele>
        <time>2013-06-05T08:09:41Z</time>
      </trkpt>
      <trkpt lat="48.83636" lon="6.11547">
        <ele>297</ele>
        <time>2013-06-05T08:09:46Z</time>
      </trkpt>
      <trkpt lat="48.83631" lon="6.11545">
        <ele>298</ele>
        <time>2013-06-05T08:09:50Z</time>
      </trkpt>
      <trkpt lat="48.83626" lon="6.11542">
        <ele>298</ele>
        <time>2013-06-05T08:09:54Z</time>
      </trkpt>
      <trkpt lat="48.83622" lon="6.11539">
        <ele>298</ele>
        <time>2013-06-05T08:09:57Z</time>
      </trkpt>
      <trkpt lat="48.83617" lon="6.11537">
        <ele>298</ele>
        <time>2013-06-05T08:10:01Z</time>
      </trkpt>
      <trkpt lat="48.83613" lon="6.11535">
        <ele>299</ele>
        <time>2013-06-05T08:10:05Z</time>
      </trkpt>
      <trkpt lat="48.83608" lon="6.11534">
        <ele>299</ele>
        <time>2013-06-05T08:10:09Z</time>
      </trkpt>
      <trkpt lat="48.83603" lon="6.11533">
        <ele>299</ele>
        <time>2013-06-05T08:10:13Z</time>
      </trkpt>
      <trkpt lat="48.83599" lon="6.11532">
        <ele>300</ele>
        <time>2013-06-05T08:10:16Z</time>
      </trkpt>
      <trkpt lat="48.83594" lon="6.11531">
        <ele>302</ele>
        <time>2013-06-05T08:10:21Z</time>
      </trkpt>
      <trkpt lat="48.83589" lon="6.11528">
        <ele>303</ele>
        <time>2013-06-05T08:10:26Z</time>
      </trkpt>
      <trkpt lat="48.83584" lon="6.11525">
        <ele>303</ele>
        <time>2013-06-05T08:10:30Z</time>
      </trkpt>
      <trkpt lat="48.8358" lon="6.11523">
        <ele>304</ele>
        <time>2013-06-05T08:10:35Z</time>
      </trkpt>
      <trkpt lat="48.83577" lon="6.11523">
        <ele>304</ele>
        <time>2013-06-05T08:10:47Z</time>
      </trkpt>
      <trkpt lat="48.83572" lon="6.1152">
        <ele>305</ele>
        <time>2013-06-05T08:10:52Z</time>
      </trkpt>
      <trkpt lat="48.83569" lon="6.1152">
        <ele>300</ele>
        <time>2013-06-05T08:12:46Z</time>
      </trkpt>
      <trkpt lat="48.83569" lon="6.11514">
        <ele>304</ele>
        <time>2013-06-05T08:14:00Z</time>
      </trkpt>
      <trkpt lat="48.83566" lon="6.11508">
        <ele>304</ele>
        <time>2013-06-05T08:14:06Z</time>
      </trkpt>
      <trkpt lat="48.83567" lon="6.11498">
        <ele>309</ele>
        <time>2013-06-05T08:14:30Z</time>
      </trkpt>
      <trkpt lat="48.83566" lon="6.1149">
        <ele>309</ele>
        <time>2013-06-05T08:14:36Z</time>
      </trkpt>
      <trkpt lat="48.83567" lon="6.11483">
        <ele>311</ele>
        <time>2013-06-05T08:14:42Z</time>
      </trkpt>
      <trkpt lat="48.83568" lon="6.11474">
        <ele>313</ele>
        <time>2013-06-05T08:14:47Z</time>
      </trkpt>
      <trkpt lat="48.83569" lon="6.11468">
        <ele>314</ele>
        <time>2013-06-05T08:14:50Z</time>
      </trkpt>
      <trkpt lat="48.83571" lon="6.11457">
        <ele>315</ele>
        <time>2013-06-05T08:14:58Z</time>
      </trkpt>
      <trkpt lat="48.83574" lon="6.1145">
        <ele>316</ele>
        <time>2013-06-05T08:15:04Z</time>
      </trkpt>
      <trkpt lat="48.83576" lon="6.11442">
        <ele>316</ele>
        <time>2013-06-05T08:15:07Z</time>
      </trkpt>
      <trkpt lat="48.83577" lon="6.11434">
        <ele>317</ele>
        <time>2013-06-05T08:15:10Z</time>
      </trkpt>
      <trkpt lat="48.83577" lon="6.11426">
        <ele>319</ele>
        <time>2013-06-05T08:15:15Z</time>
      </trkpt>
      <trkpt lat="48.83577" lon="6.11419">
        <ele>319</ele>
        <time>2013-06-05T08:15:18Z</time>
      </trkpt>
      <trkpt lat="48.83579" lon="6.11411">
        <ele>319</ele>
        <time>2013-06-05T08:15:22Z</time>
      </trkpt>
      <trkpt lat="48.83581" lon="6.11403">
        <ele>318</ele>
        <time>2013-06-05T08:15:27Z</time>
      </trkpt>
      <trkpt lat="48.83582" lon="6.11395">
        <ele>318</ele>
        <time>2013-06-05T08:15:33Z</time>
      </trkpt>
      <trkpt lat="48.83583" lon="6.11388">
        <ele>318</ele>
        <time>2013-06-05T08:15:38Z</time>
      </trkpt>
      <trkpt lat="48.83584" lon="6.11379">
        <ele>317</ele>
        <time>2013-06-05T08:15:45Z</time>
      </trkpt>
      <trkpt lat="48.83584" lon="6.11367">
        <ele>316</ele>
        <time>2013-06-05T08:15:55Z</time>
      </trkpt>
      <trkpt lat="48.83586" lon="6.1136">
        <ele>317</ele>
        <time>2013-06-05T08:15:57Z</time>
      </trkpt>
      <trkpt lat="48.83588" lon="6.11352">
        <ele>316</ele>
        <time>2013-06-05T08:16:01Z</time>
      </trkpt>
      <trkpt lat="48.83589" lon="6.11345">
        <ele>315</ele>
        <time>2013-06-05T08:16:05Z</time>
      </trkpt>
      <trkpt lat="48.8359" lon="6.11338">
        <ele>314</ele>
        <time>2013-06-05T08:16:11Z</time>
      </trkpt>
      <trkpt lat="48.8359" lon="6.11331">
        <ele>314</ele>
        <time>2013-06-05T08:16:15Z</time>
      </trkpt>
      <trkpt lat="48.83591" lon="6.11324">
        <ele>314</ele>
        <time>2013-06-05T08:16:19Z</time>
      </trkpt>
      <trkpt lat="48.83594" lon="6.11309">
        <ele>315</ele>
        <time>2013-06-05T08:16:25Z</time>
      </trkpt>
      <trkpt lat="48.83596" lon="6.11295">
        <ele>312</ele>
        <time>2013-06-05T08:16:33Z</time>
      </trkpt>
      <trkpt lat="48.836" lon="6.11282">
        <ele>309</ele>
        <time>2013-06-05T08:16:41Z</time>
      </trkpt>
      <trkpt lat="48.83603" lon="6.11268">
        <ele>309</ele>
        <time>2013-06-05T08:16:47Z</time>
      </trkpt>
      <trkpt lat="48.83604" lon="6.1126">
        <ele>309</ele>
        <time>2013-06-05T08:16:52Z</time>
      </trkpt>
      <trkpt lat="48.83606" lon="6.11254">
        <ele>308</ele>
        <time>2013-06-05T08:16:56Z</time>
      </trkpt>
      <trkpt lat="48.83607" lon="6.11244">
        <ele>308</ele>
        <time>2013-06-05T08:16:59Z</time>
      </trkpt>
      <trkpt lat="48.83612" lon="6.11231">
        <ele>308</ele>
        <time>2013-06-05T08:17:05Z</time>
      </trkpt>
      <trkpt lat="48.83615" lon="6.11223">
        <ele>308</ele>
        <time>2013-06-05T08:17:10Z</time>
      </trkpt>
      <trkpt lat="48.83617" lon="6.11216">
        <ele>308</ele>
        <time>2013-06-05T08:17:13Z</time>
      </trkpt>
      <trkpt lat="48.83619" lon="6.11209">
        <ele>309</ele>
        <time>2013-06-05T08:17:17Z</time>
      </trkpt>
      <trkpt lat="48.8362" lon="6.11199">
        <ele>310</ele>
        <time>2013-06-05T08:17:23Z</time>
      </trkpt>
      <trkpt lat="48.83621" lon="6.11191">
        <ele>310</ele>
        <time>2013-06-05T08:17:26Z</time>
      </trkpt>
      <trkpt lat="48.83623" lon="6.11182">
        <ele>310</ele>
        <time>2013-06-05T08:17:31Z</time>
      </trkpt>
      <trkpt lat="48.83626" lon="6.11167">
        <ele>309</ele>
        <time>2013-06-05T08:17:40Z</time>
      </trkpt>
      <trkpt lat="48.83627" lon="6.1116">
        <ele>309</ele>
        <time>2013-06-05T08:17:44Z</time>
      </trkpt>
      <trkpt lat="48.83628" lon="6.1115">
        <ele>308</ele>
        <time>2013-06-05T08:17:49Z</time>
      </trkpt>
      <trkpt lat="48.83628" lon="6.11143">
        <ele>308</ele>
        <time>2013-06-05T08:17:52Z</time>
      </trkpt>
      <trkpt lat="48.83628" lon="6.11135">
        <ele>308</ele>
        <time>2013-06-05T08:17:59Z</time>
      </trkpt>
      <trkpt lat="48.83629" lon="6.11127">
        <ele>309</ele>
        <time>2013-06-05T08:18:02Z</time>
      </trkpt>
      <trkpt lat="48.8363" lon="6.1112">
        <ele>310</ele>
        <time>2013-06-05T08:18:05Z</time>
      </trkpt>
      <trkpt lat="48.8363" lon="6.1111">
        <ele>313</ele>
        <time>2013-06-05T08:18:10Z</time>
      </trkpt>
      <trkpt lat="48.83631" lon="6.11102">
        <ele>314</ele>
        <time>2013-06-05T08:18:14Z</time>
      </trkpt>
      <trkpt lat="48.8363" lon="6.11094">
        <ele>313</ele>
        <time>2013-06-05T08:18:18Z</time>
      </trkpt>
      <trkpt lat="48.8363" lon="6.11086">
        <ele>312</ele>
        <time>2013-06-05T08:18:22Z</time>
      </trkpt>
      <trkpt lat="48.83628" lon="6.11077">
        <ele>312</ele>
        <time>2013-06-05T08:18:27Z</time>
      </trkpt>
      <trkpt lat="48.83628" lon="6.11069">
        <ele>313</ele>
        <time>2013-06-05T08:18:31Z</time>
      </trkpt>
      <trkpt lat="48.83627" lon="6.11056">
        <ele>313</ele>
        <time>2013-06-05T08:18:38Z</time>
      </trkpt>
      <trkpt lat="48.83626" lon="6.11048">
        <ele>312</ele>
        <time>2013-06-05T08:18:43Z</time>
      </trkpt>
      <trkpt lat="48.83626" lon="6.1104">
        <ele>313</ele>
        <time>2013-06-05T08:18:47Z</time>
      </trkpt>
      <trkpt lat="48.83625" lon="6.11033">
        <ele>315</ele>
        <time>2013-06-05T08:18:52Z</time>
      </trkpt>
      <trkpt lat="48.83624" lon="6.11025">
        <ele>317</ele>
        <time>2013-06-05T08:18:56Z</time>
      </trkpt>
      <trkpt lat="48.83623" lon="6.11017">
        <ele>318</ele>
        <time>2013-06-05T08:19:01Z</time>
      </trkpt>
      <trkpt lat="48.83622" lon="6.11014">
        <ele>320</ele>
        <time>2013-06-05T08:19:07Z</time>
      </trkpt>
      <trkpt lat="48.8362" lon="6.11006">
        <ele>321</ele>
        <time>2013-06-05T08:19:12Z</time>
      </trkpt>
      <trkpt lat="48.83616" lon="6.10997">
        <ele>322</ele>
        <time>2013-06-05T08:19:17Z</time>
      </trkpt>
      <trkpt lat="48.83614" lon="6.10992">
        <ele>323</ele>
        <time>2013-06-05T08:19:21Z</time>
      </trkpt>
      <trkpt lat="48.8361" lon="6.10982">
        <ele>325</ele>
        <time>2013-06-05T08:19:28Z</time>
      </trkpt>
      <trkpt lat="48.83602" lon="6.10971">
        <ele>326</ele>
        <time>2013-06-05T08:19:39Z</time>
      </trkpt>
      <trkpt lat="48.83598" lon="6.10962">
        <ele>326</ele>
        <time>2013-06-05T08:19:46Z</time>
      </trkpt>
      <trkpt lat="48.83593" lon="6.10958">
        <ele>327</ele>
        <time>2013-06-05T08:19:51Z</time>
      </trkpt>
      <trkpt lat="48.83589" lon="6.10952">
        <ele>327</ele>
        <time>2013-06-05T08:19:57Z</time>
      </trkpt>
      <trkpt lat="48.83586" lon="6.10946">
        <ele>327</ele>
        <time>2013-06-05T08:20:04Z</time>
      </trkpt>
      <trkpt lat="48.83583" lon="6.1094">
        <ele>329</ele>
        <time>2013-06-05T08:20:08Z</time>
      </trkpt>
      <trkpt lat="48.83579" lon="6.10935">
        <ele>332</ele>
        <time>2013-06-05T08:20:14Z</time>
      </trkpt>
      <trkpt lat="48.83574" lon="6.1093">
        <ele>334</ele>
        <time>2013-06-05T08:20:20Z</time>
      </trkpt>
      <trkpt lat="48.83565" lon="6.10921">
        <ele>340</ele>
        <time>2013-06-05T08:20:29Z</time>
      </trkpt>
      <trkpt lat="48.83562" lon="6.10917">
        <ele>340</ele>
        <time>2013-06-05T08:20:33Z</time>
      </trkpt>
      <trkpt lat="48.83558" lon="6.10912">
        <ele>341</ele>
        <time>2013-06-05T08:20:37Z</time>
      </trkpt>
      <trkpt lat="48.83552" lon="6.10908">
        <ele>342</ele>
        <time>2013-06-05T08:20:48Z</time>
      </trkpt>
      <trkpt lat="48.83545" lon="6.10906">
        <ele>341</ele>
        <time>2013-06-05T08:20:54Z</time>
      </trkpt>
      <trkpt lat="48.83541" lon="6.10909">
        <ele>341</ele>
        <time>2013-06-05T08:20:58Z</time>
      </trkpt>
      <trkpt lat="48.8354" lon="6.10916">
        <ele>341</ele>
        <time>2013-06-05T08:21:02Z</time>
      </trkpt>
      <trkpt lat="48.83538" lon="6.10923">
        <ele>340</ele>
        <time>2013-06-05T08:21:05Z</time>
      </trkpt>
      <trkpt lat="48.83537" lon="6.1093">
        <ele>340</ele>
        <time>2013-06-05T08:21:10Z</time>
      </trkpt>
      <trkpt lat="48.83536" lon="6.10938">
        <ele>339</ele>
        <time>2013-06-05T08:21:15Z</time>
      </trkpt>
      <trkpt lat="48.83535" lon="6.10945">
        <ele>340</ele>
        <time>2013-06-05T08:21:20Z</time>
      </trkpt>
      <trkpt lat="48.83534" lon="6.10952">
        <ele>340</ele>
        <time>2013-06-05T08:21:24Z</time>
      </trkpt>
      <trkpt lat="48.83534" lon="6.1096">
        <ele>341</ele>
        <time>2013-06-05T08:21:28Z</time>
      </trkpt>
      <trkpt lat="48.83535" lon="6.10967">
        <ele>340</ele>
        <time>2013-06-05T08:21:33Z</time>
      </trkpt>
      <trkpt lat="48.83534" lon="6.10975">
        <ele>339</ele>
        <time>2013-06-05T08:21:37Z</time>
      </trkpt>
      <trkpt lat="48.83533" lon="6.10983">
        <ele>339</ele>
        <time>2013-06-05T08:21:41Z</time>
      </trkpt>
      <trkpt lat="48.83532" lon="6.10993">
        <ele>340</ele>
        <time>2013-06-05T08:21:46Z</time>
      </trkpt>
      <trkpt lat="48.83532" lon="6.11002">
        <ele>341</ele>
        <time>2013-06-05T08:21:50Z</time>
      </trkpt>
      <trkpt lat="48.83533" lon="6.11009">
        <ele>343</ele>
        <time>2013-06-05T08:21:57Z</time>
      </trkpt>
      <trkpt lat="48.83532" lon="6.11017">
        <ele>344</ele>
        <time>2013-06-05T08:22:01Z</time>
      </trkpt>
      <trkpt lat="48.83533" lon="6.11024">
        <ele>344</ele>
        <time>2013-06-05T08:22:05Z</time>
      </trkpt>
      <trkpt lat="48.83531" lon="6.11031">
        <ele>343</ele>
        <time>2013-06-05T08:22:10Z</time>
      </trkpt>
      <trkpt lat="48.8353" lon="6.11038">
        <ele>343</ele>
        <time>2013-06-05T08:22:15Z</time>
      </trkpt>
      <trkpt lat="48.83531" lon="6.11045">
        <ele>342</ele>
        <time>2013-06-05T08:22:18Z</time>
      </trkpt>
      <trkpt lat="48.83531" lon="6.11053">
        <ele>342</ele>
        <time>2013-06-05T08:22:22Z</time>
      </trkpt>
      <trkpt lat="48.83531" lon="6.11061">
        <ele>343</ele>
        <time>2013-06-05T08:22:27Z</time>
      </trkpt>
      <trkpt lat="48.83531" lon="6.11069">
        <ele>344</ele>
        <time>2013-06-05T08:22:32Z</time>
      </trkpt>
      <trkpt lat="48.8353" lon="6.11077">
        <ele>344</ele>
        <time>2013-06-05T08:22:37Z</time>
      </trkpt>
      <trkpt lat="48.83529" lon="6.11084">
        <ele>344</ele>
        <time>2013-06-05T08:22:41Z</time>
      </trkpt>
      <trkpt lat="48.83527" lon="6.11091">
        <ele>343</ele>
        <time>2013-06-05T08:22:46Z</time>
      </trkpt>
      <trkpt lat="48.83526" lon="6.11094">
        <ele>342</ele>
        <time>2013-06-05T08:22:52Z</time>
      </trkpt>
      <trkpt lat="48.83516" lon="6.11087">
        <ele>342</ele>
        <time>2013-06-05T08:23:54Z</time>
      </trkpt>
      <trkpt lat="48.83513" lon="6.11086">
        <ele>342</ele>
        <time>2013-06-05T08:24:01Z</time>
      </trkpt>
      <trkpt lat="48.83507" lon="6.11084">
        <ele>342</ele>
        <time>2013-06-05T08:24:06Z</time>
      </trkpt>
      <trkpt lat="48.83503" lon="6.11087">
        <ele>341</ele>
        <time>2013-06-05T08:24:09Z</time>
      </trkpt>
      <trkpt lat="48.83498" lon="6.11088">
        <ele>339</ele>
        <time>2013-06-05T08:24:14Z</time>
      </trkpt>
      <trkpt lat="48.83489" lon="6.11086">
        <ele>337</ele>
        <time>2013-06-05T08:24:21Z</time>
      </trkpt>
      <trkpt lat="48.83485" lon="6.11084">
        <ele>335</ele>
        <time>2013-06-05T08:24:29Z</time>
      </trkpt>
      <trkpt lat="48.8348" lon="6.11082">
        <ele>333</ele>
        <time>2013-06-05T08:24:36Z</time>
      </trkpt>
      <trkpt lat="48.83475" lon="6.1108">
        <ele>332</ele>
        <time>2013-06-05T08:24:40Z</time>
      </trkpt>
      <trkpt lat="48.83471" lon="6.11078">
        <ele>330</ele>
        <time>2013-06-05T08:24:45Z</time>
      </trkpt>
      <trkpt lat="48.83466" lon="6.11077">
        <ele>328</ele>
        <time>2013-06-05T08:24:50Z</time>
      </trkpt>
      <trkpt lat="48.83457" lon="6.11072">
        <ele>326</ele>
        <time>2013-06-05T08:24:58Z</time>
      </trkpt>
      <trkpt lat="48.83452" lon="6.11071">
        <ele>323</ele>
        <time>2013-06-05T08:25:03Z</time>
      </trkpt>
      <trkpt lat="48.83448" lon="6.11069">
        <ele>321</ele>
        <time>2013-06-05T08:25:10Z</time>
      </trkpt>
      <trkpt lat="48.83444" lon="6.11066">
        <ele>320</ele>
        <time>2013-06-05T08:25:17Z</time>
      </trkpt>
      <trkpt lat="48.83439" lon="6.11064">
        <ele>319</ele>
        <time>2013-06-05T08:25:22Z</time>
      </trkpt>
      <trkpt lat="48.83435" lon="6.1106">
        <ele>319</ele>
        <time>2013-06-05T08:25:28Z</time>
      </trkpt>
      <trkpt lat="48.8343" lon="6.1106">
        <ele>318</ele>
        <time>2013-06-05T08:25:33Z</time>
      </trkpt>
      <trkpt lat="48.83425" lon="6.11062">
        <ele>317</ele>
        <time>2013-06-05T08:25:38Z</time>
      </trkpt>
      <trkpt lat="48.8342" lon="6.1106">
        <ele>316</ele>
        <time>2013-06-05T08:25:50Z</time>
      </trkpt>
      <trkpt lat="48.83415" lon="6.11058">
        <ele>315</ele>
        <time>2013-06-05T08:25:55Z</time>
      </trkpt>
      <trkpt lat="48.83411" lon="6.11056">
        <ele>314</ele>
        <time>2013-06-05T08:26:00Z</time>
      </trkpt>
      <trkpt lat="48.83404" lon="6.11053">
        <ele>312</ele>
        <time>2013-06-05T08:26:07Z</time>
      </trkpt>
      <trkpt lat="48.83401" lon="6.11047">
        <ele>311</ele>
        <time>2013-06-05T08:26:14Z</time>
      </trkpt>
      <trkpt lat="48.83397" lon="6.11044">
        <ele>310</ele>
        <time>2013-06-05T08:26:19Z</time>
      </trkpt>
      <trkpt lat="48.83391" lon="6.11043">
        <ele>309</ele>
        <time>2013-06-05T08:26:24Z</time>
      </trkpt>
      <trkpt lat="48.83382" lon="6.11039">
        <ele>306</ele>
        <time>2013-06-05T08:26:35Z</time>
      </trkpt>
      <trkpt lat="48.83372" lon="6.11037">
        <ele>304</ele>
        <time>2013-06-05T08:26:46Z</time>
      </trkpt>
      <trkpt lat="48.83365" lon="6.11039">
        <ele>300</ele>
        <time>2013-06-05T08:27:02Z</time>
      </trkpt>
      <trkpt lat="48.8336" lon="6.1104">
        <ele>300</ele>
        <time>2013-06-05T08:27:04Z</time>
      </trkpt>
      <trkpt lat="48.83351" lon="6.1104">
        <ele>299</ele>
        <time>2013-06-05T08:27:23Z</time>
      </trkpt>
      <trkpt lat="48.83346" lon="6.11042">
        <ele>298</ele>
        <time>2013-06-05T08:27:28Z</time>
      </trkpt>
      <trkpt lat="48.83341" lon="6.11042">
        <ele>298</ele>
        <time>2013-06-05T08:27:32Z</time>
      </trkpt>
      <trkpt lat="48.83335" lon="6.1104">
        <ele>296</ele>
        <time>2013-06-05T08:27:37Z</time>
      </trkpt>
      <trkpt lat="48.8333" lon="6.11037">
        <ele>296</ele>
        <time>2013-06-05T08:27:42Z</time>
      </trkpt>
      <trkpt lat="48.83325" lon="6.11034">
        <ele>293</ele>
        <time>2013-06-05T08:27:49Z</time>
      </trkpt>
      <trkpt lat="48.8332" lon="6.1103">
        <ele>291</ele>
        <time>2013-06-05T08:27:54Z</time>
      </trkpt>
      <trkpt lat="48.83315" lon="6.11029">
        <ele>289</ele>
        <time>2013-06-05T08:27:58Z</time>
      </trkpt>
      <trkpt lat="48.83309" lon="6.11029">
        <ele>288</ele>
        <time>2013-06-05T08:28:02Z</time>
      </trkpt>
      <trkpt lat="48.83304" lon="6.11028">
        <ele>287</ele>
        <time>2013-06-05T08:28:07Z</time>
      </trkpt>
      <trkpt lat="48.83299" lon="6.11025">
        <ele>287</ele>
        <time>2013-06-05T08:28:11Z</time>
      </trkpt>
      <trkpt lat="48.8329" lon="6.11022">
        <ele>286</ele>
        <time>2013-06-05T08:28:17Z</time>
      </trkpt>
      <trkpt lat="48.83283" lon="6.11018">
        <ele>285</ele>
        <time>2013-06-05T08:28:23Z</time>
      </trkpt>
      <trkpt lat="48.83274" lon="6.11012">
        <ele>284</ele>
        <time>2013-06-05T08:28:31Z</time>
      </trkpt>
      <trkpt lat="48.83265" lon="6.11006">
        <ele>280</ele>
        <time>2013-06-05T08:28:39Z</time>
      </trkpt>
      <trkpt lat="48.8326" lon="6.11004">
        <ele>279</ele>
        <time>2013-06-05T08:28:43Z</time>
      </trkpt>
      <trkpt lat="48.83256" lon="6.11002">
        <ele>278</ele>
        <time>2013-06-05T08:28:47Z</time>
      </trkpt>
      <trkpt lat="48.8325" lon="6.11">
        <ele>278</ele>
        <time>2013-06-05T08:28:51Z</time>
      </trkpt>
      <trkpt lat="48.83245" lon="6.10998">
        <ele>278</ele>
        <time>2013-06-05T08:28:55Z</time>
      </trkpt>
      <trkpt lat="48.8324" lon="6.10996">
        <ele>278</ele>
        <time>2013-06-05T08:28:59Z</time>
      </trkpt>
      <trkpt lat="48.83235" lon="6.10993">
        <ele>277</ele>
        <time>2013-06-05T08:29:03Z</time>
      </trkpt>
      <trkpt lat="48.8323" lon="6.10991">
        <ele>277</ele>
        <time>2013-06-05T08:29:08Z</time>
      </trkpt>
      <trkpt lat="48.83225" lon="6.10989">
        <ele>277</ele>
        <time>2013-06-05T08:29:12Z</time>
      </trkpt>
      <trkpt lat="48.83219" lon="6.10987">
        <ele>277</ele>
        <time>2013-06-05T08:29:16Z</time>
      </trkpt>
      <trkpt lat="48.83215" lon="6.10985">
        <ele>277</ele>
        <time>2013-06-05T08:29:19Z</time>
      </trkpt>
      <trkpt lat="48.8321" lon="6.10984">
        <ele>277</ele>
        <time>2013-06-05T08:29:23Z</time>
      </trkpt>
      <trkpt lat="48.83206" lon="6.10983">
        <ele>277</ele>
        <time>2013-06-05T08:29:27Z</time>
      </trkpt>
      <trkpt lat="48.83201" lon="6.10979">
        <ele>277</ele>
        <time>2013-06-05T08:29:31Z</time>
      </trkpt>
      <trkpt lat="48.83196" lon="6.10977">
        <ele>275</ele>
        <time>2013-06-05T08:29:34Z</time>
      </trkpt>
      <trkpt lat="48.83191" lon="6.10974">
        <ele>274</ele>
        <time>2013-06-05T08:29:41Z</time>
      </trkpt>
      <trkpt lat="48.83186" lon="6.10972">
        <ele>272</ele>
        <time>2013-06-05T08:29:46Z</time>
      </trkpt>
      <trkpt lat="48.83181" lon="6.10971">
        <ele>271</ele>
        <time>2013-06-05T08:29:50Z</time>
      </trkpt>
      <trkpt lat="48.83177" lon="6.10969">
        <ele>270</ele>
        <time>2013-06-05T08:29:53Z</time>
      </trkpt>
      <trkpt lat="48.83171" lon="6.10967">
        <ele>269</ele>
        <time>2013-06-05T08:29:57Z</time>
      </trkpt>
      <trkpt lat="48.83166" lon="6.10964">
        <ele>268</ele>
        <time>2013-06-05T08:30:02Z</time>
      </trkpt>
      <trkpt lat="48.8316" lon="6.10961">
        <ele>268</ele>
        <time>2013-06-05T08:30:07Z</time>
      </trkpt>
      <trkpt lat="48.83155" lon="6.10958">
        <ele>267</ele>
        <time>2013-06-05T08:30:11Z</time>
      </trkpt>
      <trkpt lat="48.83151" lon="6.10954">
        <ele>266</ele>
        <time>2013-06-05T08:30:15Z</time>
      </trkpt>
      <trkpt lat="48.83146" lon="6.10955">
        <ele>265</ele>
        <time>2013-06-05T08:30:20Z</time>
      </trkpt>
      <trkpt lat="48.8314" lon="6.1096">
        <ele>266</ele>
        <time>2013-06-05T08:30:29Z</time>
      </trkpt>
      <trkpt lat="48.83138" lon="6.10969">
        <ele>265</ele>
        <time>2013-06-05T08:30:35Z</time>
      </trkpt>
      <trkpt lat="48.83137" lon="6.10976">
        <ele>266</ele>
        <time>2013-06-05T08:30:39Z</time>
      </trkpt>
      <trkpt lat="48.83135" lon="6.10983">
        <ele>266</ele>
        <time>2013-06-05T08:30:43Z</time>
      </trkpt>
      <trkpt lat="48.83133" lon="6.1099">
        <ele>267</ele>
        <time>2013-06-05T08:30:48Z</time>
      </trkpt>
      <trkpt lat="48.83131" lon="6.10996">
        <ele>268</ele>
        <time>2013-06-05T08:30:52Z</time>
      </trkpt>
      <trkpt lat="48.83128" lon="6.11003">
        <ele>268</ele>
        <time>2013-06-05T08:30:56Z</time>
      </trkpt>
      <trkpt lat="48.83126" lon="6.1101">
        <ele>267</ele>
        <time>2013-06-05T08:31:00Z</time>
      </trkpt>
      <trkpt lat="48.83124" lon="6.11017">
        <ele>267</ele>
        <time>2013-06-05T08:31:04Z</time>
      </trkpt>
      <trkpt lat="48.83122" lon="6.11024">
        <ele>267</ele>
        <time>2013-06-05T08:31:08Z</time>
      </trkpt>
      <trkpt lat="48.83122" lon="6.11032">
        <ele>267</ele>
        <time>2013-06-05T08:31:13Z</time>
      </trkpt>
      <trkpt lat="48.83122" lon="6.11039">
        <ele>267</ele>
        <time>2013-06-05T08:31:17Z</time>
      </trkpt>
      <trkpt lat="48.8312" lon="6.11045">
        <ele>268</ele>
        <time>2013-06-05T08:31:21Z</time>
      </trkpt>
      <trkpt lat="48.83117" lon="6.11053">
        <ele>268</ele>
        <time>2013-06-05T08:31:25Z</time>
      </trkpt>
      <trkpt lat="48.83115" lon="6.11061">
        <ele>269</ele>
        <time>2013-06-05T08:31:29Z</time>
      </trkpt>
      <trkpt lat="48.83113" lon="6.11067">
        <ele>270</ele>
        <time>2013-06-05T08:31:32Z</time>
      </trkpt>
      <trkpt lat="48.83111" lon="6.11075">
        <ele>270</ele>
        <time>2013-06-05T08:31:36Z</time>
      </trkpt>
      <trkpt lat="48.83109" lon="6.11083">
        <ele>271</ele>
        <time>2013-06-05T08:31:40Z</time>
      </trkpt>
      <trkpt lat="48.83109" lon="6.1109">
        <ele>270</ele>
        <time>2013-06-05T08:31:43Z</time>
      </trkpt>
      <trkpt lat="48.83107" lon="6.11097">
        <ele>269</ele>
        <time>2013-06-05T08:31:47Z</time>
      </trkpt>
      <trkpt lat="48.83106" lon="6.11104">
        <ele>269</ele>
        <time>2013-06-05T08:31:51Z</time>
      </trkpt>
      <trkpt lat="48.83105" lon="6.11113">
        <ele>269</ele>
        <time>2013-06-05T08:31:56Z</time>
      </trkpt>
      <trkpt lat="48.83104" lon="6.1112">
        <ele>270</ele>
        <time>2013-06-05T08:32:00Z</time>
      </trkpt>
      <trkpt lat="48.83102" lon="6.11127">
        <ele>271</ele>
        <time>2013-06-05T08:32:04Z</time>
      </trkpt>
      <trkpt lat="48.83101" lon="6.11134">
        <ele>270</ele>
        <time>2013-06-05T08:32:08Z</time>
      </trkpt>
      <trkpt lat="48.83101" lon="6.11142">
        <ele>270</ele>
        <time>2013-06-05T08:32:14Z</time>
      </trkpt>
      <trkpt lat="48.83098" lon="6.11146">
        <ele>267</ele>
        <time>2013-06-05T08:32:48Z</time>
      </trkpt>
      <trkpt lat="48.83097" lon="6.11151">
        <ele>270</ele>
        <time>2013-06-05T08:34:19Z</time>
      </trkpt>
      <trkpt lat="48.83097" lon="6.11159">
        <ele>270</ele>
        <time>2013-06-05T08:34:27Z</time>
      </trkpt>
      <trkpt lat="48.83097" lon="6.11168">
        <ele>270</ele>
        <time>2013-06-05T08:34:34Z</time>
      </trkpt>
      <trkpt lat="48.83096" lon="6.11176">
        <ele>271</ele>
        <time>2013-06-05T08:34:41Z</time>
      </trkpt>
      <trkpt lat="48.83096" lon="6.11184">
        <ele>271</ele>
        <time>2013-06-05T08:34:45Z</time>
      </trkpt>
      <trkpt lat="48.83096" lon="6.11191">
        <ele>271</ele>
        <time>2013-06-05T08:34:50Z</time>
      </trkpt>
      <trkpt lat="48.83096" lon="6.11199">
        <ele>271</ele>
        <time>2013-06-05T08:34:54Z</time>
      </trkpt>
      <trkpt lat="48.83096" lon="6.11206">
        <ele>271</ele>
        <time>2013-06-05T08:34:58Z</time>
      </trkpt>
      <trkpt lat="48.83096" lon="6.11214">
        <ele>271</ele>
        <time>2013-06-05T08:35:02Z</time>
      </trkpt>
      <trkpt lat="48.83096" lon="6.11222">
        <ele>271</ele>
        <time>2013-06-05T08:35:06Z</time>
      </trkpt>
      <trkpt lat="48.83096" lon="6.1123">
        <ele>271</ele>
        <time>2013-06-05T08:35:09Z</time>
      </trkpt>
      <trkpt lat="48.83095" lon="6.11236">
        <ele>272</ele>
        <time>2013-06-05T08:35:13Z</time>
      </trkpt>
      <trkpt lat="48.83094" lon="6.11244">
        <ele>272</ele>
        <time>2013-06-05T08:35:17Z</time>
      </trkpt>
      <trkpt lat="48.83092" lon="6.11252">
        <ele>271</ele>
        <time>2013-06-05T08:35:21Z</time>
      </trkpt>
      <trkpt lat="48.83091" lon="6.11259">
        <ele>270</ele>
        <time>2013-06-05T08:35:24Z</time>
      </trkpt>
      <trkpt lat="48.8309" lon="6.11267">
        <ele>269</ele>
        <time>2013-06-05T08:35:27Z</time>
      </trkpt>
      <trkpt lat="48.8309" lon="6.11274">
        <ele>269</ele>
        <time>2013-06-05T08:35:31Z</time>
      </trkpt>
      <trkpt lat="48.83089" lon="6.11282">
        <ele>268</ele>
        <time>2013-06-05T08:35:36Z</time>
      </trkpt>
      <trkpt lat="48.83089" lon="6.11289">
        <ele>268</ele>
        <time>2013-06-05T08:35:40Z</time>
      </trkpt>
      <trkpt lat="48.83086" lon="6.11297">
        <ele>267</ele>
        <time>2013-06-05T08:35:45Z</time>
      </trkpt>
      <trkpt lat="48.83084" lon="6.11304">
        <ele>266</ele>
        <time>2013-06-05T08:35:49Z</time>
      </trkpt>
      <trkpt lat="48.8308" lon="6.11311">
        <ele>264</ele>
        <time>2013-06-05T08:35:53Z</time>
      </trkpt>
      <trkpt lat="48.83078" lon="6.11319">
        <ele>263</ele>
        <time>2013-06-05T08:35:57Z</time>
      </trkpt>
      <trkpt lat="48.83077" lon="6.11327">
        <ele>262</ele>
        <time>2013-06-05T08:36:00Z</time>
      </trkpt>
      <trkpt lat="48.83074" lon="6.11334">
        <ele>260</ele>
        <time>2013-06-05T08:36:05Z</time>
      </trkpt>
      <trkpt lat="48.83071" lon="6.11341">
        <ele>259</ele>
        <time>2013-06-05T08:36:09Z</time>
      </trkpt>
      <trkpt lat="48.8307" lon="6.11349">
        <ele>259</ele>
        <time>2013-06-05T08:36:12Z</time>
      </trkpt>
      <trkpt lat="48.83068" lon="6.11355">
        <ele>258</ele>
        <time>2013-06-05T08:36:15Z</time>
      </trkpt>
      <trkpt lat="48.83066" lon="6.11363">
        <ele>258</ele>
        <time>2013-06-05T08:36:20Z</time>
      </trkpt>
      <trkpt lat="48.83064" lon="6.1137">
        <ele>258</ele>
        <time>2013-06-05T08:36:24Z</time>
      </trkpt>
      <trkpt lat="48.83062" lon="6.11379">
        <ele>258</ele>
        <time>2013-06-05T08:36:28Z</time>
      </trkpt>
      <trkpt lat="48.8306" lon="6.11386">
        <ele>257</ele>
        <time>2013-06-05T08:36:32Z</time>
      </trkpt>
      <trkpt lat="48.83059" lon="6.11393">
        <ele>257</ele>
        <time>2013-06-05T08:36:35Z</time>
      </trkpt>
      <trkpt lat="48.83057" lon="6.11401">
        <ele>257</ele>
        <time>2013-06-05T08:36:39Z</time>
      </trkpt>
      <trkpt lat="48.83055" lon="6.11413">
        <ele>257</ele>
        <time>2013-06-05T08:36:46Z</time>
      </trkpt>
      <trkpt lat="48.83053" lon="6.11421">
        <ele>257</ele>
        <time>2013-06-05T08:36:50Z</time>
      </trkpt>
      <trkpt lat="48.8305" lon="6.11433">
        <ele>257</ele>
        <time>2013-06-05T08:36:56Z</time>
      </trkpt>
      <trkpt lat="48.83049" lon="6.11441">
        <ele>257</ele>
        <time>2013-06-05T08:37:00Z</time>
      </trkpt>
      <trkpt lat="48.83048" lon="6.11447">
        <ele>258</ele>
        <time>2013-06-05T08:37:04Z</time>
      </trkpt>
      <trkpt lat="48.83046" lon="6.11456">
        <ele>258</ele>
        <time>2013-06-05T08:37:08Z</time>
      </trkpt>
      <trkpt lat="48.83045" lon="6.11463">
        <ele>258</ele>
        <time>2013-06-05T08:37:12Z</time>
      </trkpt>
      <trkpt lat="48.83043" lon="6.11469">
        <ele>258</ele>
        <time>2013-06-05T08:37:16Z</time>
      </trkpt>
      <trkpt lat="48.83041" lon="6.11477">
        <ele>257</ele>
        <time>2013-06-05T08:37:20Z</time>
      </trkpt>
      <trkpt lat="48.83039" lon="6.11484">
        <ele>255</ele>
        <time>2013-06-05T08:37:24Z</time>
      </trkpt>
      <trkpt lat="48.83036" lon="6.11493">
        <ele>255</ele>
        <time>2013-06-05T08:37:28Z</time>
      </trkpt>
      <trkpt lat="48.83034" lon="6.115">
        <ele>256</ele>
        <time>2013-06-05T08:37:32Z</time>
      </trkpt>
      <trkpt lat="48.83033" lon="6.11507">
        <ele>256</ele>
        <time>2013-06-05T08:37:37Z</time>
      </trkpt>
      <trkpt lat="48.8303" lon="6.11515">
        <ele>258</ele>
        <time>2013-06-05T08:37:43Z</time>
      </trkpt>
      <trkpt lat="48.83027" lon="6.11523">
        <ele>257</ele>
        <time>2013-06-05T08:37:47Z</time>
      </trkpt>
      <trkpt lat="48.83025" lon="6.11529">
        <ele>257</ele>
        <time>2013-06-05T08:37:50Z</time>
      </trkpt>
      <trkpt lat="48.83023" lon="6.11537">
        <ele>257</ele>
        <time>2013-06-05T08:37:54Z</time>
      </trkpt>
      <trkpt lat="48.8302" lon="6.11544">
        <ele>256</ele>
        <time>2013-06-05T08:37:58Z</time>
      </trkpt>
      <trkpt lat="48.83017" lon="6.11552">
        <ele>256</ele>
        <time>2013-06-05T08:38:02Z</time>
      </trkpt>
      <trkpt lat="48.83015" lon="6.1156">
        <ele>256</ele>
        <time>2013-06-05T08:38:06Z</time>
      </trkpt>
      <trkpt lat="48.83013" lon="6.11568">
        <ele>256</ele>
        <time>2013-06-05T08:38:11Z</time>
      </trkpt>
      <trkpt lat="48.83011" lon="6.11575">
        <ele>255</ele>
        <time>2013-06-05T08:38:15Z</time>
      </trkpt>
      <trkpt lat="48.83009" lon="6.11584">
        <ele>256</ele>
        <time>2013-06-05T08:38:19Z</time>
      </trkpt>
      <trkpt lat="48.83006" lon="6.11591">
        <ele>256</ele>
        <time>2013-06-05T08:38:23Z</time>
      </trkpt>
      <trkpt lat="48.83003" lon="6.11598">
        <ele>256</ele>
        <time>2013-06-05T08:38:27Z</time>
      </trkpt>
      <trkpt lat="48.83" lon="6.11605">
        <ele>256</ele>
        <time>2013-06-05T08:38:31Z</time>
      </trkpt>
      <trkpt lat="48.82997" lon="6.11612">
        <ele>255</ele>
        <time>2013-06-05T08:38:35Z</time>
      </trkpt>
      <trkpt lat="48.82994" lon="6.1162">
        <ele>255</ele>
        <time>2013-06-05T08:38:39Z</time>
      </trkpt>
      <trkpt lat="48.82992" lon="6.11627">
        <ele>255</ele>
        <time>2013-06-05T08:38:42Z</time>
      </trkpt>
      <trkpt lat="48.8299" lon="6.11632">
        <ele>256</ele>
        <time>2013-06-05T08:38:46Z</time>
      </trkpt>
      <trkpt lat="48.82987" lon="6.11638">
        <ele>257</ele>
        <time>2013-06-05T08:38:50Z</time>
      </trkpt>
      <trkpt lat="48.82984" lon="6.11644">
        <ele>258</ele>
        <time>2013-06-05T08:38:54Z</time>
      </trkpt>
      <trkpt lat="48.82982" lon="6.1165">
        <ele>257</ele>
        <time>2013-06-05T08:38:58Z</time>
      </trkpt>
      <trkpt lat="48.82979" lon="6.11657">
        <ele>254</ele>
        <time>2013-06-05T08:39:03Z</time>
      </trkpt>
      <trkpt lat="48.82976" lon="6.11661">
        <ele>252</ele>
        <time>2013-06-05T08:39:07Z</time>
      </trkpt>
      <trkpt lat="48.8297" lon="6.11672">
        <ele>249</ele>
        <time>2013-06-05T08:39:16Z</time>
      </trkpt>
      <trkpt lat="48.82962" lon="6.1168">
        <ele>248</ele>
        <time>2013-06-05T08:39:24Z</time>
      </trkpt>
      <trkpt lat="48.82957" lon="6.11685">
        <ele>250</ele>
        <time>2013-06-05T08:39:28Z</time>
      </trkpt>
      <trkpt lat="48.82952" lon="6.11688">
        <ele>254</ele>
        <time>2013-06-05T08:39:33Z</time>
      </trkpt>
      <trkpt lat="48.82947" lon="6.11684">
        <ele>256</ele>
        <time>2013-06-05T08:39:38Z</time>
      </trkpt>
      <trkpt lat="48.82944" lon="6.11679">
        <ele>258</ele>
        <time>2013-06-05T08:39:42Z</time>
      </trkpt>
      <trkpt lat="48.8294" lon="6.11673">
        <ele>259</ele>
        <time>2013-06-05T08:39:46Z</time>
      </trkpt>
      <trkpt lat="48.82937" lon="6.11667">
        <ele>260</ele>
        <time>2013-06-05T08:39:51Z</time>
      </trkpt>
      <trkpt lat="48.82933" lon="6.11663">
        <ele>261</ele>
        <time>2013-06-05T08:39:55Z</time>
      </trkpt>
      <trkpt lat="48.82929" lon="6.11657">
        <ele>260</ele>
        <time>2013-06-05T08:39:59Z</time>
      </trkpt>
      <trkpt lat="48.82925" lon="6.11652">
        <ele>260</ele>
        <time>2013-06-05T08:40:03Z</time>
      </trkpt>
      <trkpt lat="48.82922" lon="6.11647">
        <ele>260</ele>
        <time>2013-06-05T08:40:07Z</time>
      </trkpt>
      <trkpt lat="48.82917" lon="6.11641">
        <ele>259</ele>
        <time>2013-06-05T08:40:12Z</time>
      </trkpt>
      <trkpt lat="48.82914" lon="6.11636">
        <ele>258</ele>
        <time>2013-06-05T08:40:16Z</time>
      </trkpt>
      <trkpt lat="48.8291" lon="6.11629">
        <ele>257</ele>
        <time>2013-06-05T08:40:20Z</time>
      </trkpt>
      <trkpt lat="48.82907" lon="6.11624">
        <ele>257</ele>
        <time>2013-06-05T08:40:24Z</time>
      </trkpt>
      <trkpt lat="48.82902" lon="6.11619">
        <ele>257</ele>
        <time>2013-06-05T08:40:28Z</time>
      </trkpt>
      <trkpt lat="48.82898" lon="6.11614">
        <ele>256</ele>
        <time>2013-06-05T08:40:33Z</time>
      </trkpt>
      <trkpt lat="48.82895" lon="6.1161">
        <ele>255</ele>
        <time>2013-06-05T08:40:37Z</time>
      </trkpt>
      <trkpt lat="48.82891" lon="6.11604">
        <ele>255</ele>
        <time>2013-06-05T08:40:41Z</time>
      </trkpt>
      <trkpt lat="48.82887" lon="6.116">
        <ele>255</ele>
        <time>2013-06-05T08:40:45Z</time>
      </trkpt>
      <trkpt lat="48.82884" lon="6.11594">
        <ele>254</ele>
        <time>2013-06-05T08:40:50Z</time>
      </trkpt>
      <trkpt lat="48.8288" lon="6.11589">
        <ele>253</ele>
        <time>2013-06-05T08:40:54Z</time>
      </trkpt>
      <trkpt lat="48.82876" lon="6.11583">
        <ele>252</ele>
        <time>2013-06-05T08:40:58Z</time>
      </trkpt>
      <trkpt lat="48.82873" lon="6.11577">
        <ele>251</ele>
        <time>2013-06-05T08:41:03Z</time>
      </trkpt>
      <trkpt lat="48.8287" lon="6.11572">
        <ele>251</ele>
        <time>2013-06-05T08:41:07Z</time>
      </trkpt>
      <trkpt lat="48.82866" lon="6.11567">
        <ele>250</ele>
        <time>2013-06-05T08:41:11Z</time>
      </trkpt>
      <trkpt lat="48.82863" lon="6.11562">
        <ele>249</ele>
        <time>2013-06-05T08:41:15Z</time>
      </trkpt>
      <trkpt lat="48.8286" lon="6.11557">
        <ele>249</ele>
        <time>2013-06-05T08:41:19Z</time>
      </trkpt>
      <trkpt lat="48.82855" lon="6.11551">
        <ele>249</ele>
        <time>2013-06-05T08:41:23Z</time>
      </trkpt>
      <trkpt lat="48.82852" lon="6.11546">
        <ele>249</ele>
        <time>2013-06-05T08:41:27Z</time>
      </trkpt>
      <trkpt lat="48.82848" lon="6.1154">
        <ele>248</ele>
        <time>2013-06-05T08:41:31Z</time>
      </trkpt>
      <trkpt lat="48.82844" lon="6.11536">
        <ele>247</ele>
        <time>2013-06-05T08:41:35Z</time>
      </trkpt>
      <trkpt lat="48.82839" lon="6.11531">
        <ele>247</ele>
        <time>2013-06-05T08:41:39Z</time>
      </trkpt>
      <trkpt lat="48.82836" lon="6.11527">
        <ele>247</ele>
        <time>2013-06-05T08:41:47Z</time>
      </trkpt>
      <trkpt lat="48.82832" lon="6.11523">
        <ele>248</ele>
        <time>2013-06-05T08:41:51Z</time>
      </trkpt>
      <trkpt lat="48.82827" lon="6.11521">
        <ele>248</ele>
        <time>2013-06-05T08:41:54Z</time>
      </trkpt>
      <trkpt lat="48.82821" lon="6.11521">
        <ele>248</ele>
        <time>2013-06-05T08:41:57Z</time>
      </trkpt>
      <trkpt lat="48.82817" lon="6.1152">
        <ele>248</ele>
        <time>2013-06-05T08:42:00Z</time>
      </trkpt>
      <trkpt lat="48.82813" lon="6.11515">
        <ele>250</ele>
        <time>2013-06-05T08:42:05Z</time>
      </trkpt>
      <trkpt lat="48.82808" lon="6.11513">
        <ele>250</ele>
        <time>2013-06-05T08:42:09Z</time>
      </trkpt>
      <trkpt lat="48.82803" lon="6.11511">
        <ele>250</ele>
        <time>2013-06-05T08:42:12Z</time>
      </trkpt>
      <trkpt lat="48.82798" lon="6.1151">
        <ele>251</ele>
        <time>2013-06-05T08:42:16Z</time>
      </trkpt>
      <trkpt lat="48.82793" lon="6.1151">
        <ele>251</ele>
        <time>2013-06-05T08:42:21Z</time>
      </trkpt>
      <trkpt lat="48.82787" lon="6.11511">
        <ele>250</ele>
        <time>2013-06-05T08:42:25Z</time>
      </trkpt>
      <trkpt lat="48.82782" lon="6.11513">
        <ele>249</ele>
        <time>2013-06-05T08:42:28Z</time>
      </trkpt>
      <trkpt lat="48.82773" lon="6.11518">
        <ele>248</ele>
        <time>2013-06-05T08:42:34Z</time>
      </trkpt>
      <trkpt lat="48.82769" lon="6.11521">
        <ele>247</ele>
        <time>2013-06-05T08:42:38Z</time>
      </trkpt>
      <trkpt lat="48.8276" lon="6.11526">
        <ele>247</ele>
        <time>2013-06-05T08:42:46Z</time>
      </trkpt>
      <trkpt lat="48.82752" lon="6.11534">
        <ele>245</ele>
        <time>2013-06-05T08:42:53Z</time>
      </trkpt>
      <trkpt lat="48.82744" lon="6.11543">
        <ele>242</ele>
        <time>2013-06-05T08:43:01Z</time>
      </trkpt>
      <trkpt lat="48.8274" lon="6.11547">
        <ele>240</ele>
        <time>2013-06-05T08:43:05Z</time>
      </trkpt>
      <trkpt lat="48.82733" lon="6.11557">
        <ele>238</ele>
        <time>2013-06-05T08:43:13Z</time>
      </trkpt>
      <trkpt lat="48.82727" lon="6.11569">
        <ele>236</ele>
        <time>2013-06-05T08:43:22Z</time>
      </trkpt>
      <trkpt lat="48.82721" lon="6.11581">
        <ele>238</ele>
        <time>2013-06-05T08:43:29Z</time>
      </trkpt>
      <trkpt lat="48.82714" lon="6.11593">
        <ele>241</ele>
        <time>2013-06-05T08:43:35Z</time>
      </trkpt>
      <trkpt lat="48.82698" lon="6.11624">
        <ele>253</ele>
        <time>2013-06-05T08:43:55Z</time>
      </trkpt>
      <trkpt lat="48.82694" lon="6.1163">
        <ele>253</ele>
        <time>2013-06-05T08:43:59Z</time>
      </trkpt>
      <trkpt lat="48.8269" lon="6.11637">
        <ele>254</ele>
        <time>2013-06-05T08:44:03Z</time>
      </trkpt>
      <trkpt lat="48.82686" lon="6.11643">
        <ele>254</ele>
        <time>2013-06-05T08:44:08Z</time>
      </trkpt>
      <trkpt lat="48.82683" lon="6.11648">
        <ele>255</ele>
        <time>2013-06-05T08:44:11Z</time>
      </trkpt>
      <trkpt lat="48.82679" lon="6.11654">
        <ele>257</ele>
        <time>2013-06-05T08:44:15Z</time>
      </trkpt>
      <trkpt lat="48.82676" lon="6.11659">
        <ele>257</ele>
        <time>2013-06-05T08:44:19Z</time>
      </trkpt>
      <trkpt lat="48.82672" lon="6.11665">
        <ele>258</ele>
        <time>2013-06-05T08:44:24Z</time>
      </trkpt>
      <trkpt lat="48.8267" lon="6.11672">
        <ele>258</ele>
        <time>2013-06-05T08:44:28Z</time>
      </trkpt>
      <trkpt lat="48.82667" lon="6.1168">
        <ele>258</ele>
        <time>2013-06-05T08:44:32Z</time>
      </trkpt>
      <trkpt lat="48.82665" lon="6.11686">
        <ele>258</ele>
        <time>2013-06-05T08:44:36Z</time>
      </trkpt>
      <trkpt lat="48.82661" lon="6.11692">
        <ele>258</ele>
        <time>2013-06-05T08:44:40Z</time>
      </trkpt>
      <trkpt lat="48.82657" lon="6.11698">
        <ele>257</ele>
        <time>2013-06-05T08:44:44Z</time>
      </trkpt>
      <trkpt lat="48.82653" lon="6.11703">
        <ele>257</ele>
        <time>2013-06-05T08:44:48Z</time>
      </trkpt>
      <trkpt lat="48.82649" lon="6.11707">
        <ele>257</ele>
        <time>2013-06-05T08:44:52Z</time>
      </trkpt>
      <trkpt lat="48.82645" lon="6.11712">
        <ele>256</ele>
        <time>2013-06-05T08:44:56Z</time>
      </trkpt>
      <trkpt lat="48.82642" lon="6.11718">
        <ele>256</ele>
        <time>2013-06-05T08:44:59Z</time>
      </trkpt>
      <trkpt lat="48.82641" lon="6.11725">
        <ele>257</ele>
        <time>2013-06-05T08:45:04Z</time>
      </trkpt>
      <trkpt lat="48.82643" lon="6.11732">
        <ele>258</ele>
        <time>2013-06-05T08:45:08Z</time>
      </trkpt>
      <trkpt lat="48.82644" lon="6.11739">
        <ele>258</ele>
        <time>2013-06-05T08:45:12Z</time>
      </trkpt>
      <trkpt lat="48.82646" lon="6.11748">
        <ele>258</ele>
        <time>2013-06-05T08:45:16Z</time>
      </trkpt>
      <trkpt lat="48.82648" lon="6.11755">
        <ele>259</ele>
        <time>2013-06-05T08:45:21Z</time>
      </trkpt>
      <trkpt lat="48.8265" lon="6.11761">
        <ele>259</ele>
        <time>2013-06-05T08:45:24Z</time>
      </trkpt>
      <trkpt lat="48.82651" lon="6.11768">
        <ele>259</ele>
        <time>2013-06-05T08:45:29Z</time>
      </trkpt>
      <trkpt lat="48.82652" lon="6.11775">
        <ele>260</ele>
        <time>2013-06-05T08:45:34Z</time>
      </trkpt>
      <trkpt lat="48.82654" lon="6.11783">
        <ele>261</ele>
        <time>2013-06-05T08:45:38Z</time>
      </trkpt>
      <trkpt lat="48.82656" lon="6.11789">
        <ele>261</ele>
        <time>2013-06-05T08:45:42Z</time>
      </trkpt>
      <trkpt lat="48.82659" lon="6.11796">
        <ele>262</ele>
        <time>2013-06-05T08:45:46Z</time>
      </trkpt>
      <trkpt lat="48.82661" lon="6.11803">
        <ele>263</ele>
        <time>2013-06-05T08:45:53Z</time>
      </trkpt>
      <trkpt lat="48.82663" lon="6.11809">
        <ele>263</ele>
        <time>2013-06-05T08:45:57Z</time>
      </trkpt>
      <trkpt lat="48.82666" lon="6.11816">
        <ele>263</ele>
        <time>2013-06-05T08:46:02Z</time>
      </trkpt>
      <trkpt lat="48.82669" lon="6.11822">
        <ele>264</ele>
        <time>2013-06-05T08:46:07Z</time>
      </trkpt>
      <trkpt lat="48.82672" lon="6.11828">
        <ele>265</ele>
        <time>2013-06-05T08:46:11Z</time>
      </trkpt>
      <trkpt lat="48.82676" lon="6.11834">
        <ele>267</ele>
        <time>2013-06-05T08:46:16Z</time>
      </trkpt>
      <trkpt lat="48.82679" lon="6.1184">
        <ele>268</ele>
        <time>2013-06-05T08:46:20Z</time>
      </trkpt>
      <trkpt lat="48.82682" lon="6.11845">
        <ele>268</ele>
        <time>2013-06-05T08:46:25Z</time>
      </trkpt>
      <trkpt lat="48.82685" lon="6.11851">
        <ele>269</ele>
        <time>2013-06-05T08:46:29Z</time>
      </trkpt>
      <trkpt lat="48.82689" lon="6.11856">
        <ele>270</ele>
        <time>2013-06-05T08:46:34Z</time>
      </trkpt>
      <trkpt lat="48.82692" lon="6.11862">
        <ele>270</ele>
        <time>2013-06-05T08:46:39Z</time>
      </trkpt>
      <trkpt lat="48.82695" lon="6.11867">
        <ele>271</ele>
        <time>2013-06-05T08:46:43Z</time>
      </trkpt>
      <trkpt lat="48.82699" lon="6.11871">
        <ele>271</ele>
        <time>2013-06-05T08:46:48Z</time>
      </trkpt>
      <trkpt lat="48.82704" lon="6.11875">
        <ele>272</ele>
        <time>2013-06-05T08:46:52Z</time>
      </trkpt>
      <trkpt lat="48.82708" lon="6.11879">
        <ele>272</ele>
        <time>2013-06-05T08:46:56Z</time>
      </trkpt>
      <trkpt lat="48.82712" lon="6.11882">
        <ele>273</ele>
        <time>2013-06-05T08:47:00Z</time>
      </trkpt>
      <trkpt lat="48.82717" lon="6.11886">
        <ele>273</ele>
        <time>2013-06-05T08:47:04Z</time>
      </trkpt>
      <trkpt lat="48.82721" lon="6.11892">
        <ele>274</ele>
        <time>2013-06-05T08:47:08Z</time>
      </trkpt>
      <trkpt lat="48.82725" lon="6.11897">
        <ele>275</ele>
        <time>2013-06-05T08:47:13Z</time>
      </trkpt>
      <trkpt lat="48.82728" lon="6.11903">
        <ele>275</ele>
        <time>2013-06-05T08:47:17Z</time>
      </trkpt>
      <trkpt lat="48.82733" lon="6.11908">
        <ele>276</ele>
        <time>2013-06-05T08:47:21Z</time>
      </trkpt>
      <trkpt lat="48.82736" lon="6.11912">
        <ele>277</ele>
        <time>2013-06-05T08:47:25Z</time>
      </trkpt>
      <trkpt lat="48.8274" lon="6.11916">
        <ele>277</ele>
        <time>2013-06-05T08:47:29Z</time>
      </trkpt>
      <trkpt lat="48.82745" lon="6.1192">
        <ele>278</ele>
        <time>2013-06-05T08:47:33Z</time>
      </trkpt>
      <trkpt lat="48.82749" lon="6.11925">
        <ele>278</ele>
        <time>2013-06-05T08:47:38Z</time>
      </trkpt>
      <trkpt lat="48.82753" lon="6.11929">
        <ele>279</ele>
        <time>2013-06-05T08:47:42Z</time>
      </trkpt>
      <trkpt lat="48.82756" lon="6.11935">
        <ele>281</ele>
        <time>2013-06-05T08:47:47Z</time>
      </trkpt>
      <trkpt lat="48.8276" lon="6.11938">
        <ele>281</ele>
        <time>2013-06-05T08:47:54Z</time>
      </trkpt>
      <trkpt lat="48.82762" lon="6.11936">
        <ele>280</ele>
        <time>2013-06-05T08:51:21Z</time>
      </trkpt>
      <trkpt lat="48.82765" lon="6.11939">
        <ele>281</ele>
        <time>2013-06-05T08:52:17Z</time>
      </trkpt>
      <trkpt lat="48.8277" lon="6.11943">
        <ele>281</ele>
        <time>2013-06-05T08:52:29Z</time>
      </trkpt>
      <trkpt lat="48.82774" lon="6.11948">
        <ele>282</ele>
        <time>2013-06-05T08:52:34Z</time>
      </trkpt>
      <trkpt lat="48.82778" lon="6.11951">
        <ele>282</ele>
        <time>2013-06-05T08:52:39Z</time>
      </trkpt>
      <trkpt lat="48.82783" lon="6.11955">
        <ele>282</ele>
        <time>2013-06-05T08:52:45Z</time>
      </trkpt>
      <trkpt lat="48.82788" lon="6.11958">
        <ele>283</ele>
        <time>2013-06-05T08:52:50Z</time>
      </trkpt>
      <trkpt lat="48.82795" lon="6.11961">
        <ele>284</ele>
        <time>2013-06-05T08:52:59Z</time>
      </trkpt>
      <trkpt lat="48.828" lon="6.11965">
        <ele>286</ele>
        <time>2013-06-05T08:53:05Z</time>
      </trkpt>
      <trkpt lat="48.82804" lon="6.11967">
        <ele>287</ele>
        <time>2013-06-05T08:53:09Z</time>
      </trkpt>
      <trkpt lat="48.82811" lon="6.11971">
        <ele>287</ele>
        <time>2013-06-05T08:53:15Z</time>
      </trkpt>
      <trkpt lat="48.82816" lon="6.11972">
        <ele>288</ele>
        <time>2013-06-05T08:53:19Z</time>
      </trkpt>
      <trkpt lat="48.82821" lon="6.11971">
        <ele>289</ele>
        <time>2013-06-05T08:53:24Z</time>
      </trkpt>
      <trkpt lat="48.8283" lon="6.11973">
        <ele>290</ele>
        <time>2013-06-05T08:53:34Z</time>
      </trkpt>
      <trkpt lat="48.82837" lon="6.11978">
        <ele>291</ele>
        <time>2013-06-05T08:53:44Z</time>
      </trkpt>
      <trkpt lat="48.82841" lon="6.1198">
        <ele>291</ele>
        <time>2013-06-05T08:53:50Z</time>
      </trkpt>
      <trkpt lat="48.82851" lon="6.11981">
        <ele>294</ele>
        <time>2013-06-05T08:54:00Z</time>
      </trkpt>
      <trkpt lat="48.8286" lon="6.11984">
        <ele>294</ele>
        <time>2013-06-05T08:54:12Z</time>
      </trkpt>
      <trkpt lat="48.82865" lon="6.11985">
        <ele>296</ele>
        <time>2013-06-05T08:54:20Z</time>
      </trkpt>
      <trkpt lat="48.8287" lon="6.11985">
        <ele>296</ele>
        <time>2013-06-05T08:54:25Z</time>
      </trkpt>
      <trkpt lat="48.82884" lon="6.11986">
        <ele>305</ele>
        <time>2013-06-05T08:54:44Z</time>
      </trkpt>
      <trkpt lat="48.82887" lon="6.11992">
        <ele>305</ele>
        <time>2013-06-05T08:54:51Z</time>
      </trkpt>
      <trkpt lat="48.82886" lon="6.12">
        <ele>306</ele>
        <time>2013-06-05T08:54:58Z</time>
      </trkpt>
      <trkpt lat="48.82884" lon="6.12006">
        <ele>308</ele>
        <time>2013-06-05T08:55:04Z</time>
      </trkpt>
      <trkpt lat="48.82885" lon="6.12013">
        <ele>310</ele>
        <time>2013-06-05T08:55:13Z</time>
      </trkpt>
      <trkpt lat="48.82884" lon="6.12024">
        <ele>311</ele>
        <time>2013-06-05T08:55:20Z</time>
      </trkpt>
      <trkpt lat="48.82883" lon="6.12031">
        <ele>312</ele>
        <time>2013-06-05T08:55:27Z</time>
      </trkpt>
      <trkpt lat="48.82886" lon="6.12037">
        <ele>312</ele>
        <time>2013-06-05T08:55:31Z</time>
      </trkpt>
      <trkpt lat="48.82893" lon="6.12046">
        <ele>315</ele>
        <time>2013-06-05T08:55:41Z</time>
      </trkpt>
      <trkpt lat="48.82903" lon="6.12046">
        <ele>323</ele>
        <time>2013-06-05T08:55:56Z</time>
      </trkpt>
      <trkpt lat="48.82913" lon="6.12046">
        <ele>328</ele>
        <time>2013-06-05T08:56:05Z</time>
      </trkpt>
      <trkpt lat="48.82924" lon="6.12049">
        <ele>328</ele>
        <time>2013-06-05T08:56:22Z</time>
      </trkpt>
      <trkpt lat="48.82928" lon="6.12053">
        <ele>328</ele>
        <time>2013-06-05T08:56:27Z</time>
      </trkpt>
      <trkpt lat="48.82933" lon="6.12058">
        <ele>330</ele>
        <time>2013-06-05T08:56:35Z</time>
      </trkpt>
      <trkpt lat="48.82936" lon="6.12065">
        <ele>333</ele>
        <time>2013-06-05T08:56:42Z</time>
      </trkpt>
      <trkpt lat="48.8294" lon="6.12094">
        <ele>343</ele>
        <time>2013-06-05T08:57:06Z</time>
      </trkpt>
      <trkpt lat="48.8294" lon="6.12102">
        <ele>344</ele>
        <time>2013-06-05T08:57:14Z</time>
      </trkpt>
      <trkpt lat="48.82937" lon="6.12108">
        <ele>344</ele>
        <time>2013-06-05T08:57:20Z</time>
      </trkpt>
      <trkpt lat="48.82933" lon="6.12114">
        <ele>347</ele>
        <time>2013-06-05T08:57:27Z</time>
      </trkpt>
      <trkpt lat="48.8293" lon="6.12119">
        <ele>348</ele>
        <time>2013-06-05T08:57:34Z</time>
      </trkpt>
      <trkpt lat="48.82927" lon="6.12125">
        <ele>349</ele>
        <time>2013-06-05T08:57:37Z</time>
      </trkpt>
      <trkpt lat="48.82925" lon="6.12132">
        <ele>349</ele>
        <time>2013-06-05T08:57:41Z</time>
      </trkpt>
      <trkpt lat="48.82923" lon="6.1214">
        <ele>350</ele>
        <time>2013-06-05T08:57:46Z</time>
      </trkpt>
      <trkpt lat="48.82923" lon="6.12151">
        <ele>347</ele>
        <time>2013-06-05T08:57:58Z</time>
      </trkpt>
      <trkpt lat="48.82923" lon="6.12159">
        <ele>347</ele>
        <time>2013-06-05T08:58:06Z</time>
      </trkpt>
      <trkpt lat="48.82922" lon="6.12167">
        <ele>345</ele>
        <time>2013-06-05T08:58:40Z</time>
      </trkpt>
      <trkpt lat="48.8292" lon="6.12178">
        <ele>341</ele>
        <time>2013-06-05T08:59:22Z</time>
      </trkpt>
      <trkpt lat="48.8292" lon="6.12187">
        <ele>343</ele>
        <time>2013-06-05T08:59:32Z</time>
      </trkpt>
      <trkpt lat="48.82918" lon="6.12196">
        <ele>346</ele>
        <time>2013-06-05T08:59:38Z</time>
      </trkpt>
      <trkpt lat="48.82916" lon="6.12203">
        <ele>348</ele>
        <time>2013-06-05T08:59:43Z</time>
      </trkpt>
      <trkpt lat="48.8291" lon="6.12214">
        <ele>353</ele>
        <time>2013-06-05T08:59:54Z</time>
      </trkpt>
      <trkpt lat="48.82908" lon="6.12221">
        <ele>354</ele>
        <time>2013-06-05T08:59:57Z</time>
      </trkpt>
      <trkpt lat="48.82906" lon="6.12227">
        <ele>354</ele>
        <time>2013-06-05T09:00:02Z</time>
      </trkpt>
      <trkpt lat="48.82903" lon="6.12233">
        <ele>354</ele>
        <time>2013-06-05T09:00:07Z</time>
      </trkpt>
      <trkpt lat="48.82901" lon="6.12241">
        <ele>353</ele>
        <time>2013-06-05T09:00:10Z</time>
      </trkpt>
      <trkpt lat="48.82902" lon="6.12251">
        <ele>352</ele>
        <time>2013-06-05T09:00:14Z</time>
      </trkpt>
      <trkpt lat="48.82903" lon="6.12259">
        <ele>352</ele>
        <time>2013-06-05T09:00:18Z</time>
      </trkpt>
      <trkpt lat="48.82904" lon="6.12266">
        <ele>352</ele>
        <time>2013-06-05T09:00:22Z</time>
      </trkpt>
      <trkpt lat="48.82902" lon="6.12273">
        <ele>352</ele>
        <time>2013-06-05T09:00:28Z</time>
      </trkpt>
      <trkpt lat="48.82901" lon="6.12281">
        <ele>353</ele>
        <time>2013-06-05T09:00:33Z</time>
      </trkpt>
      <trkpt lat="48.829" lon="6.12288">
        <ele>353</ele>
        <time>2013-06-05T09:00:37Z</time>
      </trkpt>
      <trkpt lat="48.829" lon="6.12296">
        <ele>354</ele>
        <time>2013-06-05T09:00:41Z</time>
      </trkpt>
      <trkpt lat="48.82899" lon="6.12303">
        <ele>354</ele>
        <time>2013-06-05T09:00:45Z</time>
      </trkpt>
      <trkpt lat="48.829" lon="6.12311">
        <ele>355</ele>
        <time>2013-06-05T09:00:50Z</time>
      </trkpt>
      <trkpt lat="48.829" lon="6.12319">
        <ele>356</ele>
        <time>2013-06-05T09:00:55Z</time>
      </trkpt>
      <trkpt lat="48.82901" lon="6.12333">
        <ele>357</ele>
        <time>2013-06-05T09:01:02Z</time>
      </trkpt>
      <trkpt lat="48.82902" lon="6.1234">
        <ele>357</ele>
        <time>2013-06-05T09:01:05Z</time>
      </trkpt>
      <trkpt lat="48.82904" lon="6.12347">
        <ele>357</ele>
        <time>2013-06-05T09:01:13Z</time>
      </trkpt>
      <trkpt lat="48.82907" lon="6.12355">
        <ele>357</ele>
        <time>2013-06-05T09:01:18Z</time>
      </trkpt>
      <trkpt lat="48.82908" lon="6.12363">
        <ele>356</ele>
        <time>2013-06-05T09:01:22Z</time>
      </trkpt>
      <trkpt lat="48.82909" lon="6.12371">
        <ele>356</ele>
        <time>2013-06-05T09:01:25Z</time>
      </trkpt>
      <trkpt lat="48.82909" lon="6.12379">
        <ele>356</ele>
        <time>2013-06-05T09:01:29Z</time>
      </trkpt>
      <trkpt lat="48.8291" lon="6.12387">
        <ele>357</ele>
        <time>2013-06-05T09:01:34Z</time>
      </trkpt>
      <trkpt lat="48.82911" lon="6.12394">
        <ele>358</ele>
        <time>2013-06-05T09:01:40Z</time>
      </trkpt>
      <trkpt lat="48.82911" lon="6.12402">
        <ele>359</ele>
        <time>2013-06-05T09:01:44Z</time>
      </trkpt>
      <trkpt lat="48.82912" lon="6.12412">
        <ele>359</ele>
        <time>2013-06-05T09:01:48Z</time>
      </trkpt>
      <trkpt lat="48.82913" lon="6.1242">
        <ele>359</ele>
        <time>2013-06-05T09:01:51Z</time>
      </trkpt>
      <trkpt lat="48.82912" lon="6.12428">
        <ele>360</ele>
        <time>2013-06-05T09:01:57Z</time>
      </trkpt>
      <trkpt lat="48.82912" lon="6.12435">
        <ele>361</ele>
        <time>2013-06-05T09:02:02Z</time>
      </trkpt>
      <trkpt lat="48.82911" lon="6.12445">
        <ele>361</ele>
        <time>2013-06-05T09:02:07Z</time>
      </trkpt>
      <trkpt lat="48.82909" lon="6.12451">
        <ele>361</ele>
        <time>2013-06-05T09:02:10Z</time>
      </trkpt>
      <trkpt lat="48.82907" lon="6.12457">
        <ele>360</ele>
        <time>2013-06-05T09:02:13Z</time>
      </trkpt>
      <trkpt lat="48.82905" lon="6.12465">
        <ele>360</ele>
        <time>2013-06-05T09:02:17Z</time>
      </trkpt>
      <trkpt lat="48.82903" lon="6.12472">
        <ele>359</ele>
        <time>2013-06-05T09:02:21Z</time>
      </trkpt>
      <trkpt lat="48.82902" lon="6.12479">
        <ele>359</ele>
        <time>2013-06-05T09:02:24Z</time>
      </trkpt>
      <trkpt lat="48.82901" lon="6.12486">
        <ele>360</ele>
        <time>2013-06-05T09:02:28Z</time>
      </trkpt>
      <trkpt lat="48.82899" lon="6.12494">
        <ele>360</ele>
        <time>2013-06-05T09:02:32Z</time>
      </trkpt>
      <trkpt lat="48.82899" lon="6.12501">
        <ele>360</ele>
        <time>2013-06-05T09:02:36Z</time>
      </trkpt>
      <trkpt lat="48.82899" lon="6.12508">
        <ele>360</ele>
        <time>2013-06-05T09:02:41Z</time>
      </trkpt>
      <trkpt lat="48.82897" lon="6.12515">
        <ele>361</ele>
        <time>2013-06-05T09:02:46Z</time>
      </trkpt>
      <trkpt lat="48.82896" lon="6.12522">
        <ele>360</ele>
        <time>2013-06-05T09:02:50Z</time>
      </trkpt>
      <trkpt lat="48.82896" lon="6.1253">
        <ele>360</ele>
        <time>2013-06-05T09:02:55Z</time>
      </trkpt>
      <trkpt lat="48.82896" lon="6.12539">
        <ele>361</ele>
        <time>2013-06-05T09:02:59Z</time>
      </trkpt>
      <trkpt lat="48.82896" lon="6.12547">
        <ele>362</ele>
        <time>2013-06-05T09:03:04Z</time>
      </trkpt>
      <trkpt lat="48.82895" lon="6.12555">
        <ele>363</ele>
        <time>2013-06-05T09:03:08Z</time>
      </trkpt>
      <trkpt lat="48.82894" lon="6.12562">
        <ele>363</ele>
        <time>2013-06-05T09:03:12Z</time>
      </trkpt>
      <trkpt lat="48.82891" lon="6.12569">
        <ele>364</ele>
        <time>2013-06-05T09:03:17Z</time>
      </trkpt>
      <trkpt lat="48.82886" lon="6.1258">
        <ele>364</ele>
        <time>2013-06-05T09:03:23Z</time>
      </trkpt>
      <trkpt lat="48.82884" lon="6.12586">
        <ele>365</ele>
        <time>2013-06-05T09:03:26Z</time>
      </trkpt>
      <trkpt lat="48.82883" lon="6.12593">
        <ele>365</ele>
        <time>2013-06-05T09:03:30Z</time>
      </trkpt>
      <trkpt lat="48.82881" lon="6.126">
        <ele>365</ele>
        <time>2013-06-05T09:03:33Z</time>
      </trkpt>
      <trkpt lat="48.82881" lon="6.12609">
        <ele>365</ele>
        <time>2013-06-05T09:03:36Z</time>
      </trkpt>
      <trkpt lat="48.82879" lon="6.12617">
        <ele>365</ele>
        <time>2013-06-05T09:03:40Z</time>
      </trkpt>
      <trkpt lat="48.82877" lon="6.12624">
        <ele>365</ele>
        <time>2013-06-05T09:03:45Z</time>
      </trkpt>
      <trkpt lat="48.82875" lon="6.12631">
        <ele>365</ele>
        <time>2013-06-05T09:03:48Z</time>
      </trkpt>
      <trkpt lat="48.82874" lon="6.12638">
        <ele>366</ele>
        <time>2013-06-05T09:03:53Z</time>
      </trkpt>
      <trkpt lat="48.82874" lon="6.12648">
        <ele>366</ele>
        <time>2013-06-05T09:03:57Z</time>
      </trkpt>
      <trkpt lat="48.82874" lon="6.12655">
        <ele>365</ele>
        <time>2013-06-05T09:04:02Z</time>
      </trkpt>
      <trkpt lat="48.82873" lon="6.12664">
        <ele>364</ele>
        <time>2013-06-05T09:04:06Z</time>
      </trkpt>
      <trkpt lat="48.82874" lon="6.12673">
        <ele>364</ele>
        <time>2013-06-05T09:04:10Z</time>
      </trkpt>
      <trkpt lat="48.82875" lon="6.1268">
        <ele>363</ele>
        <time>2013-06-05T09:04:13Z</time>
      </trkpt>
      <trkpt lat="48.82876" lon="6.12686">
        <ele>363</ele>
        <time>2013-06-05T09:04:17Z</time>
      </trkpt>
      <trkpt lat="48.82874" lon="6.12694">
        <ele>363</ele>
        <time>2013-06-05T09:04:22Z</time>
      </trkpt>
      <trkpt lat="48.82872" lon="6.12702">
        <ele>363</ele>
        <time>2013-06-05T09:04:26Z</time>
      </trkpt>
      <trkpt lat="48.82872" lon="6.12709">
        <ele>363</ele>
        <time>2013-06-05T09:04:29Z</time>
      </trkpt>
      <trkpt lat="48.82872" lon="6.12718">
        <ele>362</ele>
        <time>2013-06-05T09:04:33Z</time>
      </trkpt>
      <trkpt lat="48.82873" lon="6.12725">
        <ele>361</ele>
        <time>2013-06-05T09:04:36Z</time>
      </trkpt>
      <trkpt lat="48.82872" lon="6.12733">
        <ele>361</ele>
        <time>2013-06-05T09:04:40Z</time>
      </trkpt>
      <trkpt lat="48.82873" lon="6.12741">
        <ele>360</ele>
        <time>2013-06-05T09:04:44Z</time>
      </trkpt>
      <trkpt lat="48.82875" lon="6.12749">
        <ele>361</ele>
        <time>2013-06-05T09:04:49Z</time>
      </trkpt>
      <trkpt lat="48.82877" lon="6.12756">
        <ele>361</ele>
        <time>2013-06-05T09:04:53Z</time>
      </trkpt>
      <trkpt lat="48.82879" lon="6.12763">
        <ele>362</ele>
        <time>2013-06-05T09:04:57Z</time>
      </trkpt>
      <trkpt lat="48.8288" lon="6.12771">
        <ele>361</ele>
        <time>2013-06-05T09:05:01Z</time>
      </trkpt>
      <trkpt lat="48.82881" lon="6.12778">
        <ele>361</ele>
        <time>2013-06-05T09:05:05Z</time>
      </trkpt>
      <trkpt lat="48.8288" lon="6.12786">
        <ele>362</ele>
        <time>2013-06-05T09:05:10Z</time>
      </trkpt>
      <trkpt lat="48.82882" lon="6.12794">
        <ele>362</ele>
        <time>2013-06-05T09:05:15Z</time>
      </trkpt>
      <trkpt lat="48.82883" lon="6.12802">
        <ele>362</ele>
        <time>2013-06-05T09:05:19Z</time>
      </trkpt>
      <trkpt lat="48.82885" lon="6.12809">
        <ele>362</ele>
        <time>2013-06-05T09:05:23Z</time>
      </trkpt>
      <trkpt lat="48.82886" lon="6.12816">
        <ele>362</ele>
        <time>2013-06-05T09:05:26Z</time>
      </trkpt>
      <trkpt lat="48.82886" lon="6.12824">
        <ele>362</ele>
        <time>2013-06-05T09:05:31Z</time>
      </trkpt>
      <trkpt lat="48.82887" lon="6.12832">
        <ele>362</ele>
        <time>2013-06-05T09:05:35Z</time>
      </trkpt>
      <trkpt lat="48.82889" lon="6.12839">
        <ele>363</ele>
        <time>2013-06-05T09:05:39Z</time>
      </trkpt>
      <trkpt lat="48.82889" lon="6.12847">
        <ele>364</ele>
        <time>2013-06-05T09:05:43Z</time>
      </trkpt>
      <trkpt lat="48.82891" lon="6.12856">
        <ele>364</ele>
        <time>2013-06-05T09:05:46Z</time>
      </trkpt>
      <trkpt lat="48.82893" lon="6.12862">
        <ele>364</ele>
        <time>2013-06-05T09:05:49Z</time>
      </trkpt>
      <trkpt lat="48.82896" lon="6.12868">
        <ele>363</ele>
        <time>2013-06-05T09:05:53Z</time>
      </trkpt>
      <trkpt lat="48.82898" lon="6.12875">
        <ele>362</ele>
        <time>2013-06-05T09:05:57Z</time>
      </trkpt>
      <trkpt lat="48.82899" lon="6.12884">
        <ele>363</ele>
        <time>2013-06-05T09:06:02Z</time>
      </trkpt>
      <trkpt lat="48.82901" lon="6.1289">
        <ele>363</ele>
        <time>2013-06-05T09:06:06Z</time>
      </trkpt>
      <trkpt lat="48.82906" lon="6.12896">
        <ele>364</ele>
        <time>2013-06-05T09:06:11Z</time>
      </trkpt>
      <trkpt lat="48.8291" lon="6.12903">
        <ele>365</ele>
        <time>2013-06-05T09:06:15Z</time>
      </trkpt>
      <trkpt lat="48.82912" lon="6.12906">
        <ele>366</ele>
        <time>2013-06-05T09:06:31Z</time>
      </trkpt>
      <trkpt lat="48.82918" lon="6.12908">
        <ele>365</ele>
        <time>2013-06-05T09:06:55Z</time>
      </trkpt>
      <trkpt lat="48.82922" lon="6.12911">
        <ele>366</ele>
        <time>2013-06-05T09:07:05Z</time>
      </trkpt>
      <trkpt lat="48.8293" lon="6.12911">
        <ele>369</ele>
        <time>2013-06-05T09:07:57Z</time>
      </trkpt>
      <trkpt lat="48.82937" lon="6.12914">
        <ele>369</ele>
        <time>2013-06-05T09:08:03Z</time>
      </trkpt>
      <trkpt lat="48.82945" lon="6.12916">
        <ele>369</ele>
        <time>2013-06-05T09:08:12Z</time>
      </trkpt>
      <trkpt lat="48.8295" lon="6.12917">
        <ele>371</ele>
        <time>2013-06-05T09:08:17Z</time>
      </trkpt>
      <trkpt lat="48.82955" lon="6.12917">
        <ele>372</ele>
        <time>2013-06-05T09:08:20Z</time>
      </trkpt>
      <trkpt lat="48.82961" lon="6.12918">
        <ele>373</ele>
        <time>2013-06-05T09:08:24Z</time>
      </trkpt>
      <trkpt lat="48.82966" lon="6.12919">
        <ele>374</ele>
        <time>2013-06-05T09:08:28Z</time>
      </trkpt>
      <trkpt lat="48.82972" lon="6.12919">
        <ele>374</ele>
        <time>2013-06-05T09:08:33Z</time>
      </trkpt>
      <trkpt lat="48.82981" lon="6.12918">
        <ele>377</ele>
        <time>2013-06-05T09:08:40Z</time>
      </trkpt>
      <trkpt lat="48.82987" lon="6.1292">
        <ele>379</ele>
        <time>2013-06-05T09:08:45Z</time>
      </trkpt>
      <trkpt lat="48.82992" lon="6.12919">
        <ele>380</ele>
        <time>2013-06-05T09:08:48Z</time>
      </trkpt>
      <trkpt lat="48.82998" lon="6.12919">
        <ele>380</ele>
        <time>2013-06-05T09:08:53Z</time>
      </trkpt>
      <trkpt lat="48.83002" lon="6.1292">
        <ele>381</ele>
        <time>2013-06-05T09:08:57Z</time>
      </trkpt>
      <trkpt lat="48.83011" lon="6.12924">
        <ele>382</ele>
        <time>2013-06-05T09:09:04Z</time>
      </trkpt>
      <trkpt lat="48.83015" lon="6.12924">
        <ele>382</ele>
        <time>2013-06-05T09:09:07Z</time>
      </trkpt>
      <trkpt lat="48.83021" lon="6.12923">
        <ele>382</ele>
        <time>2013-06-05T09:09:11Z</time>
      </trkpt>
      <trkpt lat="48.83026" lon="6.12924">
        <ele>382</ele>
        <time>2013-06-05T09:09:16Z</time>
      </trkpt>
      <trkpt lat="48.83032" lon="6.12923">
        <ele>383</ele>
        <time>2013-06-05T09:09:22Z</time>
      </trkpt>
      <trkpt lat="48.83037" lon="6.12923">
        <ele>383</ele>
        <time>2013-06-05T09:09:25Z</time>
      </trkpt>
      <trkpt lat="48.83045" lon="6.12925">
        <ele>383</ele>
        <time>2013-06-05T09:09:29Z</time>
      </trkpt>
      <trkpt lat="48.8305" lon="6.12926">
        <ele>382</ele>
        <time>2013-06-05T09:09:33Z</time>
      </trkpt>
      <trkpt lat="48.83056" lon="6.12929">
        <ele>380</ele>
        <time>2013-06-05T09:09:38Z</time>
      </trkpt>
      <trkpt lat="48.8306" lon="6.12931">
        <ele>379</ele>
        <time>2013-06-05T09:09:41Z</time>
      </trkpt>
      <trkpt lat="48.83065" lon="6.12932">
        <ele>378</ele>
        <time>2013-06-05T09:09:45Z</time>
      </trkpt>
      <trkpt lat="48.83071" lon="6.12933">
        <ele>377</ele>
        <time>2013-06-05T09:09:51Z</time>
      </trkpt>
      <trkpt lat="48.83076" lon="6.12933">
        <ele>378</ele>
        <time>2013-06-05T09:09:57Z</time>
      </trkpt>
      <trkpt lat="48.83082" lon="6.12933">
        <ele>379</ele>
        <time>2013-06-05T09:10:02Z</time>
      </trkpt>
      <trkpt lat="48.83091" lon="6.12934">
        <ele>379</ele>
        <time>2013-06-05T09:10:07Z</time>
      </trkpt>
      <trkpt lat="48.83099" lon="6.1294">
        <ele>378</ele>
        <time>2013-06-05T09:10:14Z</time>
      </trkpt>
      <trkpt lat="48.83102" lon="6.12946">
        <ele>379</ele>
        <time>2013-06-05T09:10:23Z</time>
      </trkpt>
      <trkpt lat="48.83101" lon="6.12954">
        <ele>379</ele>
        <time>2013-06-05T09:10:26Z</time>
      </trkpt>
      <trkpt lat="48.831" lon="6.12961">
        <ele>378</ele>
        <time>2013-06-05T09:10:32Z</time>
      </trkpt>
      <trkpt lat="48.831" lon="6.12969">
        <ele>379</ele>
        <time>2013-06-05T09:10:36Z</time>
      </trkpt>
      <trkpt lat="48.83102" lon="6.12976">
        <ele>377</ele>
        <time>2013-06-05T09:10:39Z</time>
      </trkpt>
      <trkpt lat="48.83104" lon="6.12983">
        <ele>376</ele>
        <time>2013-06-05T09:10:44Z</time>
      </trkpt>
      <trkpt lat="48.83107" lon="6.12989">
        <ele>373</ele>
        <time>2013-06-05T09:10:50Z</time>
      </trkpt>
      <trkpt lat="48.8311" lon="6.12998">
        <ele>373</ele>
        <time>2013-06-05T09:10:56Z</time>
      </trkpt>
      <trkpt lat="48.83114" lon="6.13009">
        <ele>372</ele>
        <time>2013-06-05T09:11:03Z</time>
      </trkpt>
      <trkpt lat="48.83116" lon="6.13017">
        <ele>370</ele>
        <time>2013-06-05T09:11:08Z</time>
      </trkpt>
      <trkpt lat="48.83118" lon="6.13025">
        <ele>369</ele>
        <time>2013-06-05T09:11:12Z</time>
      </trkpt>
      <trkpt lat="48.83119" lon="6.13032">
        <ele>367</ele>
        <time>2013-06-05T09:11:16Z</time>
      </trkpt>
      <trkpt lat="48.8312" lon="6.1304">
        <ele>366</ele>
        <time>2013-06-05T09:11:21Z</time>
      </trkpt>
      <trkpt lat="48.83122" lon="6.13047">
        <ele>364</ele>
        <time>2013-06-05T09:11:26Z</time>
      </trkpt>
      <trkpt lat="48.83125" lon="6.13056">
        <ele>363</ele>
        <time>2013-06-05T09:11:32Z</time>
      </trkpt>
      <trkpt lat="48.83128" lon="6.13064">
        <ele>362</ele>
        <time>2013-06-05T09:11:37Z</time>
      </trkpt>
      <trkpt lat="48.83129" lon="6.13072">
        <ele>362</ele>
        <time>2013-06-05T09:11:41Z</time>
      </trkpt>
      <trkpt lat="48.83131" lon="6.13079">
        <ele>362</ele>
        <time>2013-06-05T09:11:46Z</time>
      </trkpt>
      <trkpt lat="48.83135" lon="6.13085">
        <ele>362</ele>
        <time>2013-06-05T09:11:50Z</time>
      </trkpt>
      <trkpt lat="48.83137" lon="6.13091">
        <ele>362</ele>
        <time>2013-06-05T09:11:55Z</time>
      </trkpt>
      <trkpt lat="48.83139" lon="6.13099">
        <ele>360</ele>
        <time>2013-06-05T09:12:04Z</time>
      </trkpt>
      <trkpt lat="48.83141" lon="6.13106">
        <ele>359</ele>
        <time>2013-06-05T09:12:08Z</time>
      </trkpt>
      <trkpt lat="48.83142" lon="6.13116">
        <ele>358</ele>
        <time>2013-06-05T09:12:13Z</time>
      </trkpt>
      <trkpt lat="48.83144" lon="6.13122">
        <ele>358</ele>
        <time>2013-06-05T09:12:17Z</time>
      </trkpt>
      <trkpt lat="48.83146" lon="6.1313">
        <ele>358</ele>
        <time>2013-06-05T09:12:23Z</time>
      </trkpt>
      <trkpt lat="48.8315" lon="6.13141">
        <ele>356</ele>
        <time>2013-06-05T09:12:31Z</time>
      </trkpt>
      <trkpt lat="48.83152" lon="6.13149">
        <ele>355</ele>
        <time>2013-06-05T09:12:34Z</time>
      </trkpt>
      <trkpt lat="48.83153" lon="6.13157">
        <ele>355</ele>
        <time>2013-06-05T09:12:39Z</time>
      </trkpt>
      <trkpt lat="48.83155" lon="6.13164">
        <ele>354</ele>
        <time>2013-06-05T09:12:44Z</time>
      </trkpt>
      <trkpt lat="48.83157" lon="6.13171">
        <ele>354</ele>
        <time>2013-06-05T09:12:49Z</time>
      </trkpt>
      <trkpt lat="48.83158" lon="6.1318">
        <ele>353</ele>
        <time>2013-06-05T09:12:54Z</time>
      </trkpt>
      <trkpt lat="48.83161" lon="6.13189">
        <ele>353</ele>
        <time>2013-06-05T09:12:57Z</time>
      </trkpt>
      <trkpt lat="48.83162" lon="6.13197">
        <ele>353</ele>
        <time>2013-06-05T09:13:01Z</time>
      </trkpt>
      <trkpt lat="48.83164" lon="6.13203">
        <ele>352</ele>
        <time>2013-06-05T09:13:06Z</time>
      </trkpt>
      <trkpt lat="48.83164" lon="6.1321">
        <ele>352</ele>
        <time>2013-06-05T09:13:11Z</time>
      </trkpt>
      <trkpt lat="48.83165" lon="6.13224">
        <ele>354</ele>
        <time>2013-06-05T09:13:19Z</time>
      </trkpt>
      <trkpt lat="48.83168" lon="6.13238">
        <ele>352</ele>
        <time>2013-06-05T09:13:26Z</time>
      </trkpt>
      <trkpt lat="48.8317" lon="6.13246">
        <ele>351</ele>
        <time>2013-06-05T09:13:30Z</time>
      </trkpt>
      <trkpt lat="48.8317" lon="6.13253">
        <ele>351</ele>
        <time>2013-06-05T09:13:34Z</time>
      </trkpt>
      <trkpt lat="48.8317" lon="6.1326">
        <ele>351</ele>
        <time>2013-06-05T09:13:36Z</time>
      </trkpt>
      <trkpt lat="48.83168" lon="6.13272">
        <ele>351</ele>
        <time>2013-06-05T09:13:43Z</time>
      </trkpt>
      <trkpt lat="48.83167" lon="6.13279">
        <ele>352</ele>
        <time>2013-06-05T09:13:48Z</time>
      </trkpt>
      <trkpt lat="48.83168" lon="6.13287">
        <ele>351</ele>
        <time>2013-06-05T09:13:52Z</time>
      </trkpt>
      <trkpt lat="48.83168" lon="6.13296">
        <ele>349</ele>
        <time>2013-06-05T09:13:56Z</time>
      </trkpt>
      <trkpt lat="48.83169" lon="6.13307">
        <ele>348</ele>
        <time>2013-06-05T09:14:02Z</time>
      </trkpt>
      <trkpt lat="48.83171" lon="6.13315">
        <ele>348</ele>
        <time>2013-06-05T09:14:06Z</time>
      </trkpt>
      <trkpt lat="48.83171" lon="6.13322">
        <ele>348</ele>
        <time>2013-06-05T09:14:09Z</time>
      </trkpt>
      <trkpt lat="48.83173" lon="6.13329">
        <ele>348</ele>
        <time>2013-06-05T09:14:13Z</time>
      </trkpt>
      <trkpt lat="48.83175" lon="6.13336">
        <ele>347</ele>
        <time>2013-06-05T09:14:18Z</time>
      </trkpt>
      <trkpt lat="48.83179" lon="6.13348">
        <ele>345</ele>
        <time>2013-06-05T09:14:25Z</time>
      </trkpt>
      <trkpt lat="48.832" lon="6.13372">
        <ele>331</ele>
        <time>2013-06-05T09:14:45Z</time>
      </trkpt>
      <trkpt lat="48.83204" lon="6.13375">
        <ele>331</ele>
        <time>2013-06-05T09:14:48Z</time>
      </trkpt>
      <trkpt lat="48.83208" lon="6.13378">
        <ele>330</ele>
        <time>2013-06-05T09:14:51Z</time>
      </trkpt>
      <trkpt lat="48.83213" lon="6.13381">
        <ele>329</ele>
        <time>2013-06-05T09:14:55Z</time>
      </trkpt>
      <trkpt lat="48.83217" lon="6.13384">
        <ele>327</ele>
        <time>2013-06-05T09:14:59Z</time>
      </trkpt>
      <trkpt lat="48.83222" lon="6.13388">
        <ele>326</ele>
        <time>2013-06-05T09:15:05Z</time>
      </trkpt>
      <trkpt lat="48.83227" lon="6.13392">
        <ele>326</ele>
        <time>2013-06-05T09:15:11Z</time>
      </trkpt>
      <trkpt lat="48.83231" lon="6.13397">
        <ele>325</ele>
        <time>2013-06-05T09:15:15Z</time>
      </trkpt>
      <trkpt lat="48.83235" lon="6.134">
        <ele>324</ele>
        <time>2013-06-05T09:15:19Z</time>
      </trkpt>
      <trkpt lat="48.8324" lon="6.13403">
        <ele>323</ele>
        <time>2013-06-05T09:15:23Z</time>
      </trkpt>
      <trkpt lat="48.83244" lon="6.13406">
        <ele>321</ele>
        <time>2013-06-05T09:15:26Z</time>
      </trkpt>
      <trkpt lat="48.8326" lon="6.13418">
        <ele>313</ele>
        <time>2013-06-05T09:15:41Z</time>
      </trkpt>
      <trkpt lat="48.83264" lon="6.13422">
        <ele>313</ele>
        <time>2013-06-05T09:15:45Z</time>
      </trkpt>
      <trkpt lat="48.83268" lon="6.13427">
        <ele>313</ele>
        <time>2013-06-05T09:15:50Z</time>
      </trkpt>
      <trkpt lat="48.83272" lon="6.13431">
        <ele>312</ele>
        <time>2013-06-05T09:15:54Z</time>
      </trkpt>
      <trkpt lat="48.83277" lon="6.13436">
        <ele>312</ele>
        <time>2013-06-05T09:15:58Z</time>
      </trkpt>
      <trkpt lat="48.83281" lon="6.13439">
        <ele>312</ele>
        <time>2013-06-05T09:16:02Z</time>
      </trkpt>
      <trkpt lat="48.83286" lon="6.13444">
        <ele>312</ele>
        <time>2013-06-05T09:16:07Z</time>
      </trkpt>
      <trkpt lat="48.8329" lon="6.13447">
        <ele>311</ele>
        <time>2013-06-05T09:16:12Z</time>
      </trkpt>
      <trkpt lat="48.83295" lon="6.13453">
        <ele>311</ele>
        <time>2013-06-05T09:16:16Z</time>
      </trkpt>
      <trkpt lat="48.83299" lon="6.13459">
        <ele>310</ele>
        <time>2013-06-05T09:16:21Z</time>
      </trkpt>
      <trkpt lat="48.83304" lon="6.13463">
        <ele>309</ele>
        <time>2013-06-05T09:16:25Z</time>
      </trkpt>
      <trkpt lat="48.83308" lon="6.13467">
        <ele>308</ele>
        <time>2013-06-05T09:16:28Z</time>
      </trkpt>
      <trkpt lat="48.83312" lon="6.1347">
        <ele>307</ele>
        <time>2013-06-05T09:16:32Z</time>
      </trkpt>
      <trkpt lat="48.83316" lon="6.13476">
        <ele>306</ele>
        <time>2013-06-05T09:16:36Z</time>
      </trkpt>
      <trkpt lat="48.8332" lon="6.13482">
        <ele>305</ele>
        <time>2013-06-05T09:16:41Z</time>
      </trkpt>
      <trkpt lat="48.83324" lon="6.13486">
        <ele>303</ele>
        <time>2013-06-05T09:16:45Z</time>
      </trkpt>
      <trkpt lat="48.83329" lon="6.13491">
        <ele>301</ele>
        <time>2013-06-05T09:16:50Z</time>
      </trkpt>
      <trkpt lat="48.83333" lon="6.13496">
        <ele>301</ele>
        <time>2013-06-05T09:16:54Z</time>
      </trkpt>
      <trkpt lat="48.83336" lon="6.13501">
        <ele>301</ele>
        <time>2013-06-05T09:16:58Z</time>
      </trkpt>
      <trkpt lat="48.83341" lon="6.13505">
        <ele>300</ele>
        <time>2013-06-05T09:17:02Z</time>
      </trkpt>
      <trkpt lat="48.83345" lon="6.13509">
        <ele>300</ele>
        <time>2013-06-05T09:17:06Z</time>
      </trkpt>
      <trkpt lat="48.83348" lon="6.13514">
        <ele>299</ele>
        <time>2013-06-05T09:17:10Z</time>
      </trkpt>
      <trkpt lat="48.83351" lon="6.13521">
        <ele>299</ele>
        <time>2013-06-05T09:17:14Z</time>
      </trkpt>
      <trkpt lat="48.83354" lon="6.13526">
        <ele>298</ele>
        <time>2013-06-05T09:17:18Z</time>
      </trkpt>
      <trkpt lat="48.83358" lon="6.13531">
        <ele>298</ele>
        <time>2013-06-05T09:17:21Z</time>
      </trkpt>
      <trkpt lat="48.83362" lon="6.13536">
        <ele>298</ele>
        <time>2013-06-05T09:17:26Z</time>
      </trkpt>
      <trkpt lat="48.83366" lon="6.13541">
        <ele>297</ele>
        <time>2013-06-05T09:17:30Z</time>
      </trkpt>
      <trkpt lat="48.83369" lon="6.13546">
        <ele>297</ele>
        <time>2013-06-05T09:17:33Z</time>
      </trkpt>
      <trkpt lat="48.83374" lon="6.13551">
        <ele>296</ele>
        <time>2013-06-05T09:17:39Z</time>
      </trkpt>
      <trkpt lat="48.83377" lon="6.13556">
        <ele>295</ele>
        <time>2013-06-05T09:17:43Z</time>
      </trkpt>
      <trkpt lat="48.83381" lon="6.13562">
        <ele>294</ele>
        <time>2013-06-05T09:17:47Z</time>
      </trkpt>
      <trkpt lat="48.83385" lon="6.13567">
        <ele>293</ele>
        <time>2013-06-05T09:17:52Z</time>
      </trkpt>
      <trkpt lat="48.83388" lon="6.13573">
        <ele>294</ele>
        <time>2013-06-05T09:17:55Z</time>
      </trkpt>
      <trkpt lat="48.83391" lon="6.13579">
        <ele>292</ele>
        <time>2013-06-05T09:18:00Z</time>
      </trkpt>
      <trkpt lat="48.83395" lon="6.13583">
        <ele>292</ele>
        <time>2013-06-05T09:18:04Z</time>
      </trkpt>
      <trkpt lat="48.83398" lon="6.13589">
        <ele>291</ele>
        <time>2013-06-05T09:18:08Z</time>
      </trkpt>
      <trkpt lat="48.83402" lon="6.13595">
        <ele>290</ele>
        <time>2013-06-05T09:18:13Z</time>
      </trkpt>
      <trkpt lat="48.83406" lon="6.13601">
        <ele>289</ele>
        <time>2013-06-05T09:18:17Z</time>
      </trkpt>
      <trkpt lat="48.83409" lon="6.13606">
        <ele>289</ele>
        <time>2013-06-05T09:18:21Z</time>
      </trkpt>
      <trkpt lat="48.83414" lon="6.1361">
        <ele>287</ele>
        <time>2013-06-05T09:18:26Z</time>
      </trkpt>
      <trkpt lat="48.83418" lon="6.13615">
        <ele>286</ele>
        <time>2013-06-05T09:18:31Z</time>
      </trkpt>
      <trkpt lat="48.83421" lon="6.13621">
        <ele>285</ele>
        <time>2013-06-05T09:18:35Z</time>
      </trkpt>
      <trkpt lat="48.83425" lon="6.13627">
        <ele>285</ele>
        <time>2013-06-05T09:18:40Z</time>
      </trkpt>
      <trkpt lat="48.83429" lon="6.13632">
        <ele>284</ele>
        <time>2013-06-05T09:18:44Z</time>
      </trkpt>
      <trkpt lat="48.83433" lon="6.13638">
        <ele>284</ele>
        <time>2013-06-05T09:18:50Z</time>
      </trkpt>
      <trkpt lat="48.83437" lon="6.13644">
        <ele>283</ele>
        <time>2013-06-05T09:18:54Z</time>
      </trkpt>
      <trkpt lat="48.83441" lon="6.13649">
        <ele>282</ele>
        <time>2013-06-05T09:18:58Z</time>
      </trkpt>
      <trkpt lat="48.83445" lon="6.13654">
        <ele>281</ele>
        <time>2013-06-05T09:19:02Z</time>
      </trkpt>
      <trkpt lat="48.83448" lon="6.13658">
        <ele>280</ele>
        <time>2013-06-05T09:19:05Z</time>
      </trkpt>
      <trkpt lat="48.83451" lon="6.13663">
        <ele>280</ele>
        <time>2013-06-05T09:19:09Z</time>
      </trkpt>
      <trkpt lat="48.83455" lon="6.13669">
        <ele>279</ele>
        <time>2013-06-05T09:19:14Z</time>
      </trkpt>
      <trkpt lat="48.83458" lon="6.13673">
        <ele>277</ele>
        <time>2013-06-05T09:19:18Z</time>
      </trkpt>
      <trkpt lat="48.83462" lon="6.13679">
        <ele>276</ele>
        <time>2013-06-05T09:19:23Z</time>
      </trkpt>
      <trkpt lat="48.83466" lon="6.13685">
        <ele>275</ele>
        <time>2013-06-05T09:19:27Z</time>
      </trkpt>
      <trkpt lat="48.8347" lon="6.13691">
        <ele>273</ele>
        <time>2013-06-05T09:19:33Z</time>
      </trkpt>
      <trkpt lat="48.83474" lon="6.13696">
        <ele>272</ele>
        <time>2013-06-05T09:19:37Z</time>
      </trkpt>
      <trkpt lat="48.83477" lon="6.137">
        <ele>271</ele>
        <time>2013-06-05T09:19:40Z</time>
      </trkpt>
      <trkpt lat="48.83482" lon="6.13703">
        <ele>271</ele>
        <time>2013-06-05T09:19:46Z</time>
      </trkpt>
      <trkpt lat="48.83486" lon="6.1371">
        <ele>271</ele>
        <time>2013-06-05T09:19:50Z</time>
      </trkpt>
      <trkpt lat="48.83489" lon="6.13715">
        <ele>271</ele>
        <time>2013-06-05T09:19:54Z</time>
      </trkpt>
      <trkpt lat="48.83494" lon="6.1372">
        <ele>270</ele>
        <time>2013-06-05T09:19:59Z</time>
      </trkpt>
      <trkpt lat="48.83498" lon="6.13726">
        <ele>269</ele>
        <time>2013-06-05T09:20:03Z</time>
      </trkpt>
      <trkpt lat="48.83502" lon="6.1373">
        <ele>268</ele>
        <time>2013-06-05T09:20:07Z</time>
      </trkpt>
      <trkpt lat="48.83506" lon="6.13734">
        <ele>267</ele>
        <time>2013-06-05T09:20:11Z</time>
      </trkpt>
      <trkpt lat="48.8351" lon="6.13738">
        <ele>267</ele>
        <time>2013-06-05T09:20:15Z</time>
      </trkpt>
      <trkpt lat="48.83514" lon="6.13744">
        <ele>264</ele>
        <time>2013-06-05T09:20:20Z</time>
      </trkpt>
      <trkpt lat="48.83518" lon="6.13748">
        <ele>262</ele>
        <time>2013-06-05T09:20:24Z</time>
      </trkpt>
      <trkpt lat="48.83523" lon="6.13751">
        <ele>261</ele>
        <time>2013-06-05T09:20:29Z</time>
      </trkpt>
      <trkpt lat="48.83528" lon="6.13756">
        <ele>259</ele>
        <time>2013-06-05T09:20:33Z</time>
      </trkpt>
      <trkpt lat="48.83532" lon="6.1376">
        <ele>258</ele>
        <time>2013-06-05T09:20:37Z</time>
      </trkpt>
      <trkpt lat="48.83536" lon="6.13763">
        <ele>257</ele>
        <time>2013-06-05T09:20:41Z</time>
      </trkpt>
      <trkpt lat="48.8354" lon="6.13767">
        <ele>257</ele>
        <time>2013-06-05T09:20:45Z</time>
      </trkpt>
      <trkpt lat="48.83546" lon="6.13771">
        <ele>255</ele>
        <time>2013-06-05T09:20:50Z</time>
      </trkpt>
      <trkpt lat="48.83551" lon="6.13775">
        <ele>254</ele>
        <time>2013-06-05T09:20:55Z</time>
      </trkpt>
      <trkpt lat="48.83555" lon="6.13779">
        <ele>254</ele>
        <time>2013-06-05T09:20:59Z</time>
      </trkpt>
      <trkpt lat="48.83559" lon="6.13783">
        <ele>253</ele>
        <time>2013-06-05T09:21:03Z</time>
      </trkpt>
      <trkpt lat="48.83563" lon="6.13786">
        <ele>252</ele>
        <time>2013-06-05T09:21:07Z</time>
      </trkpt>
      <trkpt lat="48.83568" lon="6.13788">
        <ele>253</ele>
        <time>2013-06-05T09:21:12Z</time>
      </trkpt>
      <trkpt lat="48.83572" lon="6.13793">
        <ele>253</ele>
        <time>2013-06-05T09:21:16Z</time>
      </trkpt>
      <trkpt lat="48.83577" lon="6.13795">
        <ele>255</ele>
        <time>2013-06-05T09:21:21Z</time>
      </trkpt>
      <trkpt lat="48.83581" lon="6.13799">
        <ele>256</ele>
        <time>2013-06-05T09:21:26Z</time>
      </trkpt>
      <trkpt lat="48.83586" lon="6.13804">
        <ele>256</ele>
        <time>2013-06-05T09:21:30Z</time>
      </trkpt>
      <trkpt lat="48.8359" lon="6.13807">
        <ele>256</ele>
        <time>2013-06-05T09:21:35Z</time>
      </trkpt>
      <trkpt lat="48.83595" lon="6.1381">
        <ele>257</ele>
        <time>2013-06-05T09:21:40Z</time>
      </trkpt>
      <trkpt lat="48.83599" lon="6.13816">
        <ele>257</ele>
        <time>2013-06-05T09:21:44Z</time>
      </trkpt>
      <trkpt lat="48.83603" lon="6.13822">
        <ele>256</ele>
        <time>2013-06-05T09:21:48Z</time>
      </trkpt>
      <trkpt lat="48.83607" lon="6.13827">
        <ele>256</ele>
        <time>2013-06-05T09:21:51Z</time>
      </trkpt>
      <trkpt lat="48.8361" lon="6.13832">
        <ele>254</ele>
        <time>2013-06-05T09:21:55Z</time>
      </trkpt>
      <trkpt lat="48.83614" lon="6.13837">
        <ele>254</ele>
        <time>2013-06-05T09:21:59Z</time>
      </trkpt>
      <trkpt lat="48.83618" lon="6.13842">
        <ele>253</ele>
        <time>2013-06-05T09:22:04Z</time>
      </trkpt>
      <trkpt lat="48.83621" lon="6.13846">
        <ele>253</ele>
        <time>2013-06-05T09:22:09Z</time>
      </trkpt>
      <trkpt lat="48.83625" lon="6.1385">
        <ele>253</ele>
        <time>2013-06-05T09:22:14Z</time>
      </trkpt>
      <trkpt lat="48.8363" lon="6.13853">
        <ele>253</ele>
        <time>2013-06-05T09:22:18Z</time>
      </trkpt>
      <trkpt lat="48.83634" lon="6.13858">
        <ele>253</ele>
        <time>2013-06-05T09:22:22Z</time>
      </trkpt>
      <trkpt lat="48.8364" lon="6.1386">
        <ele>253</ele>
        <time>2013-06-05T09:22:28Z</time>
      </trkpt>
      <trkpt lat="48.83645" lon="6.13863">
        <ele>253</ele>
        <time>2013-06-05T09:22:33Z</time>
      </trkpt>
      <trkpt lat="48.8365" lon="6.13866">
        <ele>251</ele>
        <time>2013-06-05T09:22:38Z</time>
      </trkpt>
      <trkpt lat="48.83655" lon="6.13869">
        <ele>249</ele>
        <time>2013-06-05T09:22:41Z</time>
      </trkpt>
      <trkpt lat="48.83659" lon="6.13873">
        <ele>249</ele>
        <time>2013-06-05T09:22:45Z</time>
      </trkpt>
      <trkpt lat="48.83664" lon="6.13878">
        <ele>248</ele>
        <time>2013-06-05T09:22:48Z</time>
      </trkpt>
      <trkpt lat="48.83668" lon="6.13882">
        <ele>246</ele>
        <time>2013-06-05T09:22:52Z</time>
      </trkpt>
      <trkpt lat="48.83672" lon="6.13887">
        <ele>246</ele>
        <time>2013-06-05T09:22:56Z</time>
      </trkpt>
      <trkpt lat="48.83678" lon="6.13893">
        <ele>244</ele>
        <time>2013-06-05T09:23:00Z</time>
      </trkpt>
      <trkpt lat="48.83681" lon="6.13897">
        <ele>241</ele>
        <time>2013-06-05T09:23:04Z</time>
      </trkpt>
      <trkpt lat="48.83686" lon="6.139">
        <ele>240</ele>
        <time>2013-06-05T09:23:09Z</time>
      </trkpt>
      <trkpt lat="48.8369" lon="6.13903">
        <ele>240</ele>
        <time>2013-06-05T09:23:13Z</time>
      </trkpt>
      <trkpt lat="48.83694" lon="6.13906">
        <ele>240</ele>
        <time>2013-06-05T09:23:17Z</time>
      </trkpt>
      <trkpt lat="48.83699" lon="6.13911">
        <ele>239</ele>
        <time>2013-06-05T09:23:21Z</time>
      </trkpt>
      <trkpt lat="48.83703" lon="6.13915">
        <ele>238</ele>
        <time>2013-06-05T09:23:25Z</time>
      </trkpt>
      <trkpt lat="48.83708" lon="6.13918">
        <ele>237</ele>
        <time>2013-06-05T09:23:29Z</time>
      </trkpt>
      <trkpt lat="48.83712" lon="6.13922">
        <ele>235</ele>
        <time>2013-06-05T09:23:32Z</time>
      </trkpt>
      <trkpt lat="48.83716" lon="6.13925">
        <ele>235</ele>
        <time>2013-06-05T09:23:36Z</time>
      </trkpt>
      <trkpt lat="48.8372" lon="6.13929">
        <ele>234</ele>
        <time>2013-06-05T09:23:39Z</time>
      </trkpt>
      <trkpt lat="48.83724" lon="6.13934">
        <ele>232</ele>
        <time>2013-06-05T09:23:43Z</time>
      </trkpt>
      <trkpt lat="48.83727" lon="6.1394">
        <ele>231</ele>
        <time>2013-06-05T09:23:48Z</time>
      </trkpt>
      <trkpt lat="48.83728" lon="6.13947">
        <ele>231</ele>
        <time>2013-06-05T09:23:53Z</time>
      </trkpt>
      <trkpt lat="48.83727" lon="6.13955">
        <ele>232</ele>
        <time>2013-06-05T09:23:57Z</time>
      </trkpt>
      <trkpt lat="48.83726" lon="6.13964">
        <ele>232</ele>
        <time>2013-06-05T09:24:02Z</time>
      </trkpt>
      <trkpt lat="48.83728" lon="6.13969">
        <ele>229</ele>
        <time>2013-06-05T09:24:11Z</time>
      </trkpt>
      <trkpt lat="48.83726" lon="6.13976">
        <ele>227</ele>
        <time>2013-06-05T09:25:06Z</time>
      </trkpt>
      <trkpt lat="48.83722" lon="6.13981">
        <ele>228</ele>
        <time>2013-06-05T09:25:10Z</time>
      </trkpt>
      <trkpt lat="48.83719" lon="6.13987">
        <ele>228</ele>
        <time>2013-06-05T09:25:15Z</time>
      </trkpt>
      <trkpt lat="48.83716" lon="6.13993">
        <ele>228</ele>
        <time>2013-06-05T09:25:20Z</time>
      </trkpt>
      <trkpt lat="48.83715" lon="6.14">
        <ele>229</ele>
        <time>2013-06-05T09:25:25Z</time>
      </trkpt>
      <trkpt lat="48.83712" lon="6.14006">
        <ele>231</ele>
        <time>2013-06-05T09:25:33Z</time>
      </trkpt>
      <trkpt lat="48.83714" lon="6.14014">
        <ele>233</ele>
        <time>2013-06-05T09:25:42Z</time>
      </trkpt>
      <trkpt lat="48.83718" lon="6.14019">
        <ele>234</ele>
        <time>2013-06-05T09:25:49Z</time>
      </trkpt>
      <trkpt lat="48.83723" lon="6.14026">
        <ele>232</ele>
        <time>2013-06-05T09:26:19Z</time>
      </trkpt>
      <trkpt lat="48.83744" lon="6.14049">
        <ele>220</ele>
        <time>2013-06-05T09:26:39Z</time>
      </trkpt>
      <trkpt lat="48.83749" lon="6.14051">
        <ele>220</ele>
        <time>2013-06-05T09:26:42Z</time>
      </trkpt>
      <trkpt lat="48.83754" lon="6.14054">
        <ele>220</ele>
        <time>2013-06-05T09:26:47Z</time>
      </trkpt>
      <trkpt lat="48.83759" lon="6.14057">
        <ele>221</ele>
        <time>2013-06-05T09:26:50Z</time>
      </trkpt>
      <trkpt lat="48.83764" lon="6.1406">
        <ele>222</ele>
        <time>2013-06-05T09:26:55Z</time>
      </trkpt>
      <trkpt lat="48.8377" lon="6.14063">
        <ele>224</ele>
        <time>2013-06-05T09:27:02Z</time>
      </trkpt>
      <trkpt lat="48.83773" lon="6.14068">
        <ele>227</ele>
        <time>2013-06-05T09:27:06Z</time>
      </trkpt>
      <trkpt lat="48.83775" lon="6.14074">
        <ele>228</ele>
        <time>2013-06-05T09:27:10Z</time>
      </trkpt>
      <trkpt lat="48.83778" lon="6.1408">
        <ele>229</ele>
        <time>2013-06-05T09:27:13Z</time>
      </trkpt>
      <trkpt lat="48.83781" lon="6.14089">
        <ele>228</ele>
        <time>2013-06-05T09:27:16Z</time>
      </trkpt>
      <trkpt lat="48.83784" lon="6.14095">
        <ele>227</ele>
        <time>2013-06-05T09:27:18Z</time>
      </trkpt>
      <trkpt lat="48.83787" lon="6.14101">
        <ele>226</ele>
        <time>2013-06-05T09:27:22Z</time>
      </trkpt>
      <trkpt lat="48.8379" lon="6.14107">
        <ele>225</ele>
        <time>2013-06-05T09:27:26Z</time>
      </trkpt>
      <trkpt lat="48.83793" lon="6.14114">
        <ele>224</ele>
        <time>2013-06-05T09:27:29Z</time>
      </trkpt>
      <trkpt lat="48.83795" lon="6.14122">
        <ele>223</ele>
        <time>2013-06-05T09:27:33Z</time>
      </trkpt>
      <trkpt lat="48.83796" lon="6.1413">
        <ele>222</ele>
        <time>2013-06-05T09:27:38Z</time>
      </trkpt>
      <trkpt lat="48.83798" lon="6.14136">
        <ele>223</ele>
        <time>2013-06-05T09:27:42Z</time>
      </trkpt>
      <trkpt lat="48.838" lon="6.14144">
        <ele>222</ele>
        <time>2013-06-05T09:27:46Z</time>
      </trkpt>
      <trkpt lat="48.83803" lon="6.14151">
        <ele>221</ele>
        <time>2013-06-05T09:27:50Z</time>
      </trkpt>
      <trkpt lat="48.83805" lon="6.14158">
        <ele>220</ele>
        <time>2013-06-05T09:27:53Z</time>
      </trkpt>
      <trkpt lat="48.83808" lon="6.14165">
        <ele>220</ele>
        <time>2013-06-05T09:27:57Z</time>
      </trkpt>
      <trkpt lat="48.83811" lon="6.14178">
        <ele>220</ele>
        <time>2013-06-05T09:28:03Z</time>
      </trkpt>
      <trkpt lat="48.83814" lon="6.14185">
        <ele>221</ele>
        <time>2013-06-05T09:28:09Z</time>
      </trkpt>
      <trkpt lat="48.83816" lon="6.14191">
        <ele>220</ele>
        <time>2013-06-05T09:28:13Z</time>
      </trkpt>
      <trkpt lat="48.83818" lon="6.14198">
        <ele>220</ele>
        <time>2013-06-05T09:28:17Z</time>
      </trkpt>
      <trkpt lat="48.8382" lon="6.14205">
        <ele>220</ele>
        <time>2013-06-05T09:28:21Z</time>
      </trkpt>
      <trkpt lat="48.83822" lon="6.14212">
        <ele>221</ele>
        <time>2013-06-05T09:28:25Z</time>
      </trkpt>
      <trkpt lat="48.83824" lon="6.14219">
        <ele>222</ele>
        <time>2013-06-05T09:28:30Z</time>
      </trkpt>
      <trkpt lat="48.83826" lon="6.14227">
        <ele>225</ele>
        <time>2013-06-05T09:28:35Z</time>
      </trkpt>
      <trkpt lat="48.83827" lon="6.14235">
        <ele>225</ele>
        <time>2013-06-05T09:28:39Z</time>
      </trkpt>
      <trkpt lat="48.83827" lon="6.14243">
        <ele>226</ele>
        <time>2013-06-05T09:28:43Z</time>
      </trkpt>
      <trkpt lat="48.83826" lon="6.14251">
        <ele>227</ele>
        <time>2013-06-05T09:28:48Z</time>
      </trkpt>
      <trkpt lat="48.83826" lon="6.1426">
        <ele>229</ele>
        <time>2013-06-05T09:28:52Z</time>
      </trkpt>
      <trkpt lat="48.83826" lon="6.14268">
        <ele>230</ele>
        <time>2013-06-05T09:28:56Z</time>
      </trkpt>
      <trkpt lat="48.83825" lon="6.14276">
        <ele>231</ele>
        <time>2013-06-05T09:29:00Z</time>
      </trkpt>
      <trkpt lat="48.83825" lon="6.14283">
        <ele>232</ele>
        <time>2013-06-05T09:29:04Z</time>
      </trkpt>
      <trkpt lat="48.83824" lon="6.1429">
        <ele>232</ele>
        <time>2013-06-05T09:29:07Z</time>
      </trkpt>
      <trkpt lat="48.83824" lon="6.14301">
        <ele>232</ele>
        <time>2013-06-05T09:29:11Z</time>
      </trkpt>
      <trkpt lat="48.83826" lon="6.14308">
        <ele>231</ele>
        <time>2013-06-05T09:29:14Z</time>
      </trkpt>
      <trkpt lat="48.8383" lon="6.14314">
        <ele>229</ele>
        <time>2013-06-05T09:29:17Z</time>
      </trkpt>
      <trkpt lat="48.83834" lon="6.14318">
        <ele>228</ele>
        <time>2013-06-05T09:29:20Z</time>
      </trkpt>
      <trkpt lat="48.83838" lon="6.14323">
        <ele>227</ele>
        <time>2013-06-05T09:29:23Z</time>
      </trkpt>
      <trkpt lat="48.83842" lon="6.14326">
        <ele>226</ele>
        <time>2013-06-05T09:29:27Z</time>
      </trkpt>
      <trkpt lat="48.83847" lon="6.1433">
        <ele>225</ele>
        <time>2013-06-05T09:29:32Z</time>
      </trkpt>
      <trkpt lat="48.83851" lon="6.14332">
        <ele>225</ele>
        <time>2013-06-05T09:29:36Z</time>
      </trkpt>
      <trkpt lat="48.83856" lon="6.14336">
        <ele>225</ele>
        <time>2013-06-05T09:29:40Z</time>
      </trkpt>
      <trkpt lat="48.8386" lon="6.1434">
        <ele>225</ele>
        <time>2013-06-05T09:29:44Z</time>
      </trkpt>
      <trkpt lat="48.83864" lon="6.14344">
        <ele>224</ele>
        <time>2013-06-05T09:29:47Z</time>
      </trkpt>
      <trkpt lat="48.83868" lon="6.14347">
        <ele>224</ele>
        <time>2013-06-05T09:29:50Z</time>
      </trkpt>
      <trkpt lat="48.83874" lon="6.14351">
        <ele>224</ele>
        <time>2013-06-05T09:29:54Z</time>
      </trkpt>
      <trkpt lat="48.83879" lon="6.14354">
        <ele>223</ele>
        <time>2013-06-05T09:29:58Z</time>
      </trkpt>
      <trkpt lat="48.83883" lon="6.14358">
        <ele>223</ele>
        <time>2013-06-05T09:30:02Z</time>
      </trkpt>
      <trkpt lat="48.83887" lon="6.14363">
        <ele>223</ele>
        <time>2013-06-05T09:30:06Z</time>
      </trkpt>
      <trkpt lat="48.83892" lon="6.14367">
        <ele>223</ele>
        <time>2013-06-05T09:30:10Z</time>
      </trkpt>
      <trkpt lat="48.83897" lon="6.1437">
        <ele>222</ele>
        <time>2013-06-05T09:30:13Z</time>
      </trkpt>
      <trkpt lat="48.83901" lon="6.14373">
        <ele>222</ele>
        <time>2013-06-05T09:30:17Z</time>
      </trkpt>
      <trkpt lat="48.83905" lon="6.14377">
        <ele>222</ele>
        <time>2013-06-05T09:30:21Z</time>
      </trkpt>
      <trkpt lat="48.8391" lon="6.14381">
        <ele>221</ele>
        <time>2013-06-05T09:30:25Z</time>
      </trkpt>
      <trkpt lat="48.83914" lon="6.14384">
        <ele>221</ele>
        <time>2013-06-05T09:30:28Z</time>
      </trkpt>
      <trkpt lat="48.83919" lon="6.14387">
        <ele>221</ele>
        <time>2013-06-05T09:30:32Z</time>
      </trkpt>
      <trkpt lat="48.83925" lon="6.14392">
        <ele>221</ele>
        <time>2013-06-05T09:30:36Z</time>
      </trkpt>
      <trkpt lat="48.83929" lon="6.14395">
        <ele>221</ele>
        <time>2013-06-05T09:30:39Z</time>
      </trkpt>
      <trkpt lat="48.83933" lon="6.14399">
        <ele>221</ele>
        <time>2013-06-05T09:30:43Z</time>
      </trkpt>
      <trkpt lat="48.83937" lon="6.14403">
        <ele>221</ele>
        <time>2013-06-05T09:30:47Z</time>
      </trkpt>
      <trkpt lat="48.83942" lon="6.14407">
        <ele>221</ele>
        <time>2013-06-05T09:30:51Z</time>
      </trkpt>
      <trkpt lat="48.83947" lon="6.14411">
        <ele>221</ele>
        <time>2013-06-05T09:30:55Z</time>
      </trkpt>
      <trkpt lat="48.83951" lon="6.14415">
        <ele>221</ele>
        <time>2013-06-05T09:30:59Z</time>
      </trkpt>
      <trkpt lat="48.83956" lon="6.14418">
        <ele>220</ele>
        <time>2013-06-05T09:31:03Z</time>
      </trkpt>
      <trkpt lat="48.83961" lon="6.14422">
        <ele>221</ele>
        <time>2013-06-05T09:31:07Z</time>
      </trkpt>
      <trkpt lat="48.83965" lon="6.14424">
        <ele>221</ele>
        <time>2013-06-05T09:31:10Z</time>
      </trkpt>
      <trkpt lat="48.8397" lon="6.14426">
        <ele>221</ele>
        <time>2013-06-05T09:31:13Z</time>
      </trkpt>
      <trkpt lat="48.83975" lon="6.14427">
        <ele>222</ele>
        <time>2013-06-05T09:31:17Z</time>
      </trkpt>
      <trkpt lat="48.8398" lon="6.14429">
        <ele>223</ele>
        <time>2013-06-05T09:31:21Z</time>
      </trkpt>
      <trkpt lat="48.83985" lon="6.14432">
        <ele>223</ele>
        <time>2013-06-05T09:31:25Z</time>
      </trkpt>
      <trkpt lat="48.8399" lon="6.14434">
        <ele>223</ele>
        <time>2013-06-05T09:31:29Z</time>
      </trkpt>
      <trkpt lat="48.83995" lon="6.14435">
        <ele>223</ele>
        <time>2013-06-05T09:31:33Z</time>
      </trkpt>
      <trkpt lat="48.84" lon="6.14436">
        <ele>223</ele>
        <time>2013-06-05T09:31:36Z</time>
      </trkpt>
      <trkpt lat="48.84006" lon="6.14437">
        <ele>222</ele>
        <time>2013-06-05T09:31:40Z</time>
      </trkpt>
      <trkpt lat="48.8401" lon="6.14437">
        <ele>222</ele>
        <time>2013-06-05T09:31:43Z</time>
      </trkpt>
      <trkpt lat="48.84015" lon="6.14438">
        <ele>222</ele>
        <time>2013-06-05T09:31:47Z</time>
      </trkpt>
      <trkpt lat="48.8402" lon="6.14439">
        <ele>222</ele>
        <time>2013-06-05T09:31:51Z</time>
      </trkpt>
      <trkpt lat="48.84025" lon="6.1444">
        <ele>222</ele>
        <time>2013-06-05T09:31:55Z</time>
      </trkpt>
      <trkpt lat="48.8403" lon="6.14441">
        <ele>221</ele>
        <time>2013-06-05T09:31:59Z</time>
      </trkpt>
      <trkpt lat="48.84035" lon="6.14442">
        <ele>220</ele>
        <time>2013-06-05T09:32:02Z</time>
      </trkpt>
      <trkpt lat="48.8404" lon="6.14441">
        <ele>220</ele>
        <time>2013-06-05T09:32:06Z</time>
      </trkpt>
      <trkpt lat="48.84045" lon="6.1444">
        <ele>219</ele>
        <time>2013-06-05T09:32:09Z</time>
      </trkpt>
      <trkpt lat="48.84051" lon="6.14439">
        <ele>219</ele>
        <time>2013-06-05T09:32:13Z</time>
      </trkpt>
      <trkpt lat="48.84057" lon="6.1444">
        <ele>218</ele>
        <time>2013-06-05T09:32:17Z</time>
      </trkpt>
      <trkpt lat="48.84062" lon="6.14442">
        <ele>217</ele>
        <time>2013-06-05T09:32:21Z</time>
      </trkpt>
      <trkpt lat="48.84067" lon="6.14444">
        <ele>216</ele>
        <time>2013-06-05T09:32:26Z</time>
      </trkpt>
      <trkpt lat="48.84072" lon="6.14445">
        <ele>216</ele>
        <time>2013-06-05T09:32:30Z</time>
      </trkpt>
      <trkpt lat="48.84077" lon="6.14447">
        <ele>215</ele>
        <time>2013-06-05T09:32:35Z</time>
      </trkpt>
      <trkpt lat="48.84083" lon="6.14447">
        <ele>215</ele>
        <time>2013-06-05T09:32:39Z</time>
      </trkpt>
      <trkpt lat="48.84089" lon="6.14448">
        <ele>214</ele>
        <time>2013-06-05T09:32:43Z</time>
      </trkpt>
      <trkpt lat="48.84094" lon="6.14449">
        <ele>214</ele>
        <time>2013-06-05T09:32:47Z</time>
      </trkpt>
      <trkpt lat="48.84099" lon="6.1445">
        <ele>214</ele>
        <time>2013-06-05T09:32:51Z</time>
      </trkpt>
      <trkpt lat="48.84104" lon="6.1445">
        <ele>213</ele>
        <time>2013-06-05T09:32:54Z</time>
      </trkpt>
      <trkpt lat="48.8411" lon="6.14452">
        <ele>213</ele>
        <time>2013-06-05T09:32:58Z</time>
      </trkpt>
      <trkpt lat="48.84115" lon="6.14453">
        <ele>213</ele>
        <time>2013-06-05T09:33:02Z</time>
      </trkpt>
      <trkpt lat="48.84121" lon="6.14453">
        <ele>213</ele>
        <time>2013-06-05T09:33:06Z</time>
      </trkpt>
      <trkpt lat="48.84126" lon="6.14453">
        <ele>213</ele>
        <time>2013-06-05T09:33:11Z</time>
      </trkpt>
      <trkpt lat="48.84132" lon="6.14454">
        <ele>212</ele>
        <time>2013-06-05T09:33:15Z</time>
      </trkpt>
      <trkpt lat="48.84136" lon="6.14454">
        <ele>212</ele>
        <time>2013-06-05T09:33:18Z</time>
      </trkpt>
      <trkpt lat="48.84141" lon="6.14454">
        <ele>212</ele>
        <time>2013-06-05T09:33:21Z</time>
      </trkpt>
      <trkpt lat="48.84146" lon="6.14454">
        <ele>211</ele>
        <time>2013-06-05T09:33:25Z</time>
      </trkpt>
      <trkpt lat="48.84151" lon="6.14454">
        <ele>211</ele>
        <time>2013-06-05T09:33:28Z</time>
      </trkpt>
      <trkpt lat="48.84156" lon="6.14455">
        <ele>210</ele>
        <time>2013-06-05T09:33:32Z</time>
      </trkpt>
      <trkpt lat="48.84162" lon="6.14456">
        <ele>210</ele>
        <time>2013-06-05T09:33:36Z</time>
      </trkpt>
      <trkpt lat="48.84168" lon="6.14458">
        <ele>210</ele>
        <time>2013-06-05T09:33:40Z</time>
      </trkpt>
      <trkpt lat="48.84173" lon="6.14458">
        <ele>210</ele>
        <time>2013-06-05T09:33:45Z</time>
      </trkpt>
      <trkpt lat="48.84179" lon="6.14459">
        <ele>210</ele>
        <time>2013-06-05T09:33:49Z</time>
      </trkpt>
      <trkpt lat="48.84184" lon="6.1446">
        <ele>209</ele>
        <time>2013-06-05T09:33:52Z</time>
      </trkpt>
      <trkpt lat="48.84189" lon="6.1446">
        <ele>209</ele>
        <time>2013-06-05T09:33:56Z</time>
      </trkpt>
      <trkpt lat="48.84194" lon="6.14463">
        <ele>209</ele>
        <time>2013-06-05T09:34:00Z</time>
      </trkpt>
      <trkpt lat="48.842" lon="6.14465">
        <ele>209</ele>
        <time>2013-06-05T09:34:05Z</time>
      </trkpt>
      <trkpt lat="48.84205" lon="6.14469">
        <ele>208</ele>
        <time>2013-06-05T09:34:08Z</time>
      </trkpt>
      <trkpt lat="48.8421" lon="6.14472">
        <ele>208</ele>
        <time>2013-06-05T09:34:12Z</time>
      </trkpt>
      <trkpt lat="48.84214" lon="6.14476">
        <ele>207</ele>
        <time>2013-06-05T09:34:16Z</time>
      </trkpt>
      <trkpt lat="48.8422" lon="6.14479">
        <ele>207</ele>
        <time>2013-06-05T09:34:20Z</time>
      </trkpt>
      <trkpt lat="48.84225" lon="6.14483">
        <ele>207</ele>
        <time>2013-06-05T09:34:24Z</time>
      </trkpt>
      <trkpt lat="48.8423" lon="6.14486">
        <ele>207</ele>
        <time>2013-06-05T09:34:27Z</time>
      </trkpt>
      <trkpt lat="48.84234" lon="6.1449">
        <ele>207</ele>
        <time>2013-06-05T09:34:31Z</time>
      </trkpt>
      <trkpt lat="48.84238" lon="6.14494">
        <ele>207</ele>
        <time>2013-06-05T09:34:35Z</time>
      </trkpt>
      <trkpt lat="48.84243" lon="6.14496">
        <ele>207</ele>
        <time>2013-06-05T09:34:38Z</time>
      </trkpt>
      <trkpt lat="48.84248" lon="6.14499">
        <ele>207</ele>
        <time>2013-06-05T09:34:41Z</time>
      </trkpt>
      <trkpt lat="48.84253" lon="6.14501">
        <ele>207</ele>
        <time>2013-06-05T09:34:45Z</time>
      </trkpt>
      <trkpt lat="48.84258" lon="6.14505">
        <ele>207</ele>
        <time>2013-06-05T09:34:49Z</time>
      </trkpt>
      <trkpt lat="48.84263" lon="6.14508">
        <ele>208</ele>
        <time>2013-06-05T09:34:53Z</time>
      </trkpt>
      <trkpt lat="48.84267" lon="6.1451">
        <ele>208</ele>
        <time>2013-06-05T09:34:57Z</time>
      </trkpt>
      <trkpt lat="48.84273" lon="6.14512">
        <ele>209</ele>
        <time>2013-06-05T09:35:01Z</time>
      </trkpt>
      <trkpt lat="48.84277" lon="6.14514">
        <ele>210</ele>
        <time>2013-06-05T09:35:04Z</time>
      </trkpt>
      <trkpt lat="48.84283" lon="6.14516">
        <ele>211</ele>
        <time>2013-06-05T09:35:08Z</time>
      </trkpt>
      <trkpt lat="48.84289" lon="6.14517">
        <ele>211</ele>
        <time>2013-06-05T09:35:12Z</time>
      </trkpt>
      <trkpt lat="48.84294" lon="6.14518">
        <ele>212</ele>
        <time>2013-06-05T09:35:16Z</time>
      </trkpt>
      <trkpt lat="48.84298" lon="6.14519">
        <ele>212</ele>
        <time>2013-06-05T09:35:19Z</time>
      </trkpt>
      <trkpt lat="48.84306" lon="6.14521">
        <ele>212</ele>
        <time>2013-06-05T09:35:25Z</time>
      </trkpt>
      <trkpt lat="48.8431" lon="6.14523">
        <ele>210</ele>
        <time>2013-06-05T09:35:28Z</time>
      </trkpt>
      <trkpt lat="48.84315" lon="6.14524">
        <ele>209</ele>
        <time>2013-06-05T09:35:32Z</time>
      </trkpt>
      <trkpt lat="48.84319" lon="6.14528">
        <ele>209</ele>
        <time>2013-06-05T09:35:36Z</time>
      </trkpt>
      <trkpt lat="48.84325" lon="6.14531">
        <ele>208</ele>
        <time>2013-06-05T09:35:41Z</time>
      </trkpt>
      <trkpt lat="48.8433" lon="6.14533">
        <ele>208</ele>
        <time>2013-06-05T09:35:45Z</time>
      </trkpt>
      <trkpt lat="48.84335" lon="6.14533">
        <ele>208</ele>
        <time>2013-06-05T09:35:48Z</time>
      </trkpt>
      <trkpt lat="48.8434" lon="6.14534">
        <ele>208</ele>
        <time>2013-06-05T09:35:52Z</time>
      </trkpt>
      <trkpt lat="48.84346" lon="6.14533">
        <ele>209</ele>
        <time>2013-06-05T09:35:56Z</time>
      </trkpt>
      <trkpt lat="48.84351" lon="6.14532">
        <ele>209</ele>
        <time>2013-06-05T09:36:00Z</time>
      </trkpt>
      <trkpt lat="48.84356" lon="6.14534">
        <ele>209</ele>
        <time>2013-06-05T09:36:03Z</time>
      </trkpt>
      <trkpt lat="48.84361" lon="6.14534">
        <ele>208</ele>
        <time>2013-06-05T09:36:06Z</time>
      </trkpt>
      <trkpt lat="48.84366" lon="6.14533">
        <ele>208</ele>
        <time>2013-06-05T09:36:10Z</time>
      </trkpt>
      <trkpt lat="48.84371" lon="6.14533">
        <ele>208</ele>
        <time>2013-06-05T09:36:14Z</time>
      </trkpt>
      <trkpt lat="48.84377" lon="6.14532">
        <ele>209</ele>
        <time>2013-06-05T09:36:18Z</time>
      </trkpt>
      <trkpt lat="48.84381" lon="6.1453">
        <ele>209</ele>
        <time>2013-06-05T09:36:21Z</time>
      </trkpt>
      <trkpt lat="48.84387" lon="6.14527">
        <ele>210</ele>
        <time>2013-06-05T09:36:28Z</time>
      </trkpt>
      <trkpt lat="48.84392" lon="6.14525">
        <ele>211</ele>
        <time>2013-06-05T09:36:36Z</time>
      </trkpt>
      <trkpt lat="48.84396" lon="6.14526">
        <ele>211</ele>
        <time>2013-06-05T09:36:40Z</time>
      </trkpt>
      <trkpt lat="48.84402" lon="6.14526">
        <ele>211</ele>
        <time>2013-06-05T09:36:44Z</time>
      </trkpt>
      <trkpt lat="48.84407" lon="6.14528">
        <ele>211</ele>
        <time>2013-06-05T09:36:48Z</time>
      </trkpt>
      <trkpt lat="48.84411" lon="6.14532">
        <ele>211</ele>
        <time>2013-06-05T09:36:51Z</time>
      </trkpt>
      <trkpt lat="48.84415" lon="6.14537">
        <ele>211</ele>
        <time>2013-06-05T09:36:54Z</time>
      </trkpt>
      <trkpt lat="48.84418" lon="6.14542">
        <ele>212</ele>
        <time>2013-06-05T09:36:58Z</time>
      </trkpt>
      <trkpt lat="48.84421" lon="6.14548">
        <ele>213</ele>
        <time>2013-06-05T09:37:01Z</time>
      </trkpt>
      <trkpt lat="48.84422" lon="6.14556">
        <ele>214</ele>
        <time>2013-06-05T09:37:06Z</time>
      </trkpt>
      <trkpt lat="48.84422" lon="6.14564">
        <ele>215</ele>
        <time>2013-06-05T09:37:10Z</time>
      </trkpt>
      <trkpt lat="48.84423" lon="6.14572">
        <ele>216</ele>
        <time>2013-06-05T09:37:13Z</time>
      </trkpt>
      <trkpt lat="48.84423" lon="6.1458">
        <ele>217</ele>
        <time>2013-06-05T09:37:18Z</time>
      </trkpt>
      <trkpt lat="48.84423" lon="6.14588">
        <ele>218</ele>
        <time>2013-06-05T09:37:22Z</time>
      </trkpt>
      <trkpt lat="48.84424" lon="6.14595">
        <ele>218</ele>
        <time>2013-06-05T09:37:25Z</time>
      </trkpt>
      <trkpt lat="48.84425" lon="6.14603">
        <ele>218</ele>
        <time>2013-06-05T09:37:28Z</time>
      </trkpt>
      <trkpt lat="48.84426" lon="6.14611">
        <ele>218</ele>
        <time>2013-06-05T09:37:32Z</time>
      </trkpt>
      <trkpt lat="48.8443" lon="6.14616">
        <ele>219</ele>
        <time>2013-06-05T09:37:36Z</time>
      </trkpt>
      <trkpt lat="48.84435" lon="6.14616">
        <ele>219</ele>
        <time>2013-06-05T09:37:40Z</time>
      </trkpt>
      <trkpt lat="48.84441" lon="6.14614">
        <ele>219</ele>
        <time>2013-06-05T09:37:44Z</time>
      </trkpt>
      <trkpt lat="48.84446" lon="6.14613">
        <ele>219</ele>
        <time>2013-06-05T09:37:48Z</time>
      </trkpt>
      <trkpt lat="48.84451" lon="6.14612">
        <ele>219</ele>
        <time>2013-06-05T09:37:52Z</time>
      </trkpt>
      <trkpt lat="48.84456" lon="6.14612">
        <ele>219</ele>
        <time>2013-06-05T09:37:56Z</time>
      </trkpt>
      <trkpt lat="48.8446" lon="6.14609">
        <ele>219</ele>
        <time>2013-06-05T09:37:59Z</time>
      </trkpt>
      <trkpt lat="48.84465" lon="6.14607">
        <ele>220</ele>
        <time>2013-06-05T09:38:03Z</time>
      </trkpt>
      <trkpt lat="48.84471" lon="6.14605">
        <ele>221</ele>
        <time>2013-06-05T09:38:07Z</time>
      </trkpt>
      <trkpt lat="48.84476" lon="6.14604">
        <ele>221</ele>
        <time>2013-06-05T09:38:11Z</time>
      </trkpt>
      <trkpt lat="48.84481" lon="6.14604">
        <ele>222</ele>
        <time>2013-06-05T09:38:15Z</time>
      </trkpt>
      <trkpt lat="48.84485" lon="6.14603">
        <ele>222</ele>
        <time>2013-06-05T09:38:19Z</time>
      </trkpt>
      <trkpt lat="48.8449" lon="6.14602">
        <ele>221</ele>
        <time>2013-06-05T09:38:23Z</time>
      </trkpt>
      <trkpt lat="48.84495" lon="6.14599">
        <ele>221</ele>
        <time>2013-06-05T09:38:26Z</time>
      </trkpt>
      <trkpt lat="48.845" lon="6.14596">
        <ele>220</ele>
        <time>2013-06-05T09:38:30Z</time>
      </trkpt>
      <trkpt lat="48.84505" lon="6.14594">
        <ele>221</ele>
        <time>2013-06-05T09:38:36Z</time>
      </trkpt>
      <trkpt lat="48.8451" lon="6.14592">
        <ele>222</ele>
        <time>2013-06-05T09:38:40Z</time>
      </trkpt>
      <trkpt lat="48.84516" lon="6.1459">
        <ele>222</ele>
        <time>2013-06-05T09:38:45Z</time>
      </trkpt>
      <trkpt lat="48.84521" lon="6.14587">
        <ele>223</ele>
        <time>2013-06-05T09:38:49Z</time>
      </trkpt>
      <trkpt lat="48.84525" lon="6.14584">
        <ele>223</ele>
        <time>2013-06-05T09:38:52Z</time>
      </trkpt>
      <trkpt lat="48.84529" lon="6.14582">
        <ele>223</ele>
        <time>2013-06-05T09:38:56Z</time>
      </trkpt>
      <trkpt lat="48.84534" lon="6.1458">
        <ele>224</ele>
        <time>2013-06-05T09:39:00Z</time>
      </trkpt>
      <trkpt lat="48.84539" lon="6.14578">
        <ele>224</ele>
        <time>2013-06-05T09:39:04Z</time>
      </trkpt>
      <trkpt lat="48.84543" lon="6.14576">
        <ele>225</ele>
        <time>2013-06-05T09:39:08Z</time>
      </trkpt>
      <trkpt lat="48.84548" lon="6.14574">
        <ele>225</ele>
        <time>2013-06-05T09:39:12Z</time>
      </trkpt>
      <trkpt lat="48.84553" lon="6.14571">
        <ele>225</ele>
        <time>2013-06-05T09:39:16Z</time>
      </trkpt>
      <trkpt lat="48.84558" lon="6.14568">
        <ele>225</ele>
        <time>2013-06-05T09:39:19Z</time>
      </trkpt>
      <trkpt lat="48.84563" lon="6.14566">
        <ele>225</ele>
        <time>2013-06-05T09:39:23Z</time>
      </trkpt>
      <trkpt lat="48.84568" lon="6.14564">
        <ele>225</ele>
        <time>2013-06-05T09:39:27Z</time>
      </trkpt>
      <trkpt lat="48.84573" lon="6.14561">
        <ele>226</ele>
        <time>2013-06-05T09:39:31Z</time>
      </trkpt>
      <trkpt lat="48.84578" lon="6.14558">
        <ele>226</ele>
        <time>2013-06-05T09:39:35Z</time>
      </trkpt>
      <trkpt lat="48.84582" lon="6.14555">
        <ele>227</ele>
        <time>2013-06-05T09:39:39Z</time>
      </trkpt>
      <trkpt lat="48.84587" lon="6.14553">
        <ele>227</ele>
        <time>2013-06-05T09:39:43Z</time>
      </trkpt>
      <trkpt lat="48.84592" lon="6.14551">
        <ele>228</ele>
        <time>2013-06-05T09:39:47Z</time>
      </trkpt>
      <trkpt lat="48.84597" lon="6.14548">
        <ele>228</ele>
        <time>2013-06-05T09:39:51Z</time>
      </trkpt>
      <trkpt lat="48.84603" lon="6.14544">
        <ele>229</ele>
        <time>2013-06-05T09:39:57Z</time>
      </trkpt>
      <trkpt lat="48.84612" lon="6.14539">
        <ele>230</ele>
        <time>2013-06-05T09:40:04Z</time>
      </trkpt>
      <trkpt lat="48.84616" lon="6.14537">
        <ele>230</ele>
        <time>2013-06-05T09:40:08Z</time>
      </trkpt>
      <trkpt lat="48.84621" lon="6.14536">
        <ele>230</ele>
        <time>2013-06-05T09:40:12Z</time>
      </trkpt>
      <trkpt lat="48.84626" lon="6.14535">
        <ele>231</ele>
        <time>2013-06-05T09:40:17Z</time>
      </trkpt>
      <trkpt lat="48.84631" lon="6.14532">
        <ele>232</ele>
        <time>2013-06-05T09:40:21Z</time>
      </trkpt>
      <trkpt lat="48.84636" lon="6.1453">
        <ele>233</ele>
        <time>2013-06-05T09:40:25Z</time>
      </trkpt>
      <trkpt lat="48.84641" lon="6.14527">
        <ele>233</ele>
        <time>2013-06-05T09:40:29Z</time>
      </trkpt>
      <trkpt lat="48.84644" lon="6.14521">
        <ele>233</ele>
        <time>2013-06-05T09:40:34Z</time>
      </trkpt>
      <trkpt lat="48.84644" lon="6.14513">
        <ele>233</ele>
        <time>2013-06-05T09:40:38Z</time>
      </trkpt>
      <trkpt lat="48.84644" lon="6.14505">
        <ele>235</ele>
        <time>2013-06-05T09:40:43Z</time>
      </trkpt>
      <trkpt lat="48.84643" lon="6.14496">
        <ele>235</ele>
        <time>2013-06-05T09:40:46Z</time>
      </trkpt>
      <trkpt lat="48.84642" lon="6.1449">
        <ele>235</ele>
        <time>2013-06-05T09:40:49Z</time>
      </trkpt>
      <trkpt lat="48.8464" lon="6.1448">
        <ele>235</ele>
        <time>2013-06-05T09:40:54Z</time>
      </trkpt>
      <trkpt lat="48.84638" lon="6.14472">
        <ele>238</ele>
        <time>2013-06-05T09:40:59Z</time>
      </trkpt>
      <trkpt lat="48.84637" lon="6.14466">
        <ele>239</ele>
        <time>2013-06-05T09:41:02Z</time>
      </trkpt>
      <trkpt lat="48.84636" lon="6.14458">
        <ele>241</ele>
        <time>2013-06-05T09:41:06Z</time>
      </trkpt>
      <trkpt lat="48.84636" lon="6.1445">
        <ele>242</ele>
        <time>2013-06-05T09:41:10Z</time>
      </trkpt>
      <trkpt lat="48.84635" lon="6.14442">
        <ele>243</ele>
        <time>2013-06-05T09:41:15Z</time>
      </trkpt>
      <trkpt lat="48.84634" lon="6.14434">
        <ele>244</ele>
        <time>2013-06-05T09:41:19Z</time>
      </trkpt>
      <trkpt lat="48.84632" lon="6.14426">
        <ele>245</ele>
        <time>2013-06-05T09:41:23Z</time>
      </trkpt>
      <trkpt lat="48.8463" lon="6.14419">
        <ele>245</ele>
        <time>2013-06-05T09:41:27Z</time>
      </trkpt>
      <trkpt lat="48.84629" lon="6.14412">
        <ele>245</ele>
        <time>2013-06-05T09:41:31Z</time>
      </trkpt>
      <trkpt lat="48.84628" lon="6.14404">
        <ele>245</ele>
        <time>2013-06-05T09:41:34Z</time>
      </trkpt>
      <trkpt lat="48.84627" lon="6.14397">
        <ele>245</ele>
        <time>2013-06-05T09:41:38Z</time>
      </trkpt>
      <trkpt lat="48.84625" lon="6.14389">
        <ele>245</ele>
        <time>2013-06-05T09:41:42Z</time>
      </trkpt>
      <trkpt lat="48.84623" lon="6.14381">
        <ele>245</ele>
        <time>2013-06-05T09:41:46Z</time>
      </trkpt>
      <trkpt lat="48.84621" lon="6.14373">
        <ele>245</ele>
        <time>2013-06-05T09:41:50Z</time>
      </trkpt>
      <trkpt lat="48.84622" lon="6.14365">
        <ele>246</ele>
        <time>2013-06-05T09:41:55Z</time>
      </trkpt>
      <trkpt lat="48.84628" lon="6.14353">
        <ele>244</ele>
        <time>2013-06-05T09:42:01Z</time>
      </trkpt>
      <trkpt lat="48.84632" lon="6.14349">
        <ele>243</ele>
        <time>2013-06-05T09:42:05Z</time>
      </trkpt>
      <trkpt lat="48.84638" lon="6.14344">
        <ele>242</ele>
        <time>2013-06-05T09:42:11Z</time>
      </trkpt>
      <trkpt lat="48.84643" lon="6.14339">
        <ele>243</ele>
        <time>2013-06-05T09:42:16Z</time>
      </trkpt>
      <trkpt lat="48.84648" lon="6.14336">
        <ele>244</ele>
        <time>2013-06-05T09:42:19Z</time>
      </trkpt>
      <trkpt lat="48.84653" lon="6.14333">
        <ele>245</ele>
        <time>2013-06-05T09:42:24Z</time>
      </trkpt>
      <trkpt lat="48.84662" lon="6.14326">
        <ele>245</ele>
        <time>2013-06-05T09:42:34Z</time>
      </trkpt>
      <trkpt lat="48.84671" lon="6.1432">
        <ele>247</ele>
        <time>2013-06-05T09:42:43Z</time>
      </trkpt>
      <trkpt lat="48.84677" lon="6.14316">
        <ele>249</ele>
        <time>2013-06-05T09:42:49Z</time>
      </trkpt>
      <trkpt lat="48.84681" lon="6.14313">
        <ele>250</ele>
        <time>2013-06-05T09:42:52Z</time>
      </trkpt>
      <trkpt lat="48.84687" lon="6.14308">
        <ele>250</ele>
        <time>2013-06-05T09:42:58Z</time>
      </trkpt>
      <trkpt lat="48.84692" lon="6.14306">
        <ele>251</ele>
        <time>2013-06-05T09:43:05Z</time>
      </trkpt>
      <trkpt lat="48.84697" lon="6.14306">
        <ele>253</ele>
        <time>2013-06-05T09:43:12Z</time>
      </trkpt>
      <trkpt lat="48.84702" lon="6.14303">
        <ele>255</ele>
        <time>2013-06-05T09:43:18Z</time>
      </trkpt>
      <trkpt lat="48.84708" lon="6.14299">
        <ele>258</ele>
        <time>2013-06-05T09:43:25Z</time>
      </trkpt>
      <trkpt lat="48.84713" lon="6.14294">
        <ele>260</ele>
        <time>2013-06-05T09:43:31Z</time>
      </trkpt>
      <trkpt lat="48.84719" lon="6.14289">
        <ele>261</ele>
        <time>2013-06-05T09:43:36Z</time>
      </trkpt>
      <trkpt lat="48.84724" lon="6.14286">
        <ele>262</ele>
        <time>2013-06-05T09:43:41Z</time>
      </trkpt>
      <trkpt lat="48.84728" lon="6.14283">
        <ele>264</ele>
        <time>2013-06-05T09:43:46Z</time>
      </trkpt>
      <trkpt lat="48.84733" lon="6.14281">
        <ele>265</ele>
        <time>2013-06-05T09:43:51Z</time>
      </trkpt>
      <trkpt lat="48.84738" lon="6.14277">
        <ele>268</ele>
        <time>2013-06-05T09:43:57Z</time>
      </trkpt>
      <trkpt lat="48.84746" lon="6.1427">
        <ele>269</ele>
        <time>2013-06-05T09:44:05Z</time>
      </trkpt>
      <trkpt lat="48.8475" lon="6.14267">
        <ele>271</ele>
        <time>2013-06-05T09:44:09Z</time>
      </trkpt>
      <trkpt lat="48.84759" lon="6.14259">
        <ele>273</ele>
        <time>2013-06-05T09:44:17Z</time>
      </trkpt>
      <trkpt lat="48.84766" lon="6.14252">
        <ele>274</ele>
        <time>2013-06-05T09:44:27Z</time>
      </trkpt>
      <trkpt lat="48.84775" lon="6.14245">
        <ele>277</ele>
        <time>2013-06-05T09:44:38Z</time>
      </trkpt>
      <trkpt lat="48.84779" lon="6.14241">
        <ele>279</ele>
        <time>2013-06-05T09:44:44Z</time>
      </trkpt>
      <trkpt lat="48.84785" lon="6.14236">
        <ele>281</ele>
        <time>2013-06-05T09:44:53Z</time>
      </trkpt>
      <trkpt lat="48.84789" lon="6.14233">
        <ele>283</ele>
        <time>2013-06-05T09:44:57Z</time>
      </trkpt>
      <trkpt lat="48.84794" lon="6.14231">
        <ele>284</ele>
        <time>2013-06-05T09:45:01Z</time>
      </trkpt>
      <trkpt lat="48.84799" lon="6.14227">
        <ele>284</ele>
        <time>2013-06-05T09:45:06Z</time>
      </trkpt>
      <trkpt lat="48.84803" lon="6.14224">
        <ele>284</ele>
        <time>2013-06-05T09:45:11Z</time>
      </trkpt>
      <trkpt lat="48.84806" lon="6.14218">
        <ele>284</ele>
        <time>2013-06-05T09:45:16Z</time>
      </trkpt>
      <trkpt lat="48.84809" lon="6.14212">
        <ele>285</ele>
        <time>2013-06-05T09:45:25Z</time>
      </trkpt>
      <trkpt lat="48.84807" lon="6.14202">
        <ele>293</ele>
        <time>2013-06-05T09:52:26Z</time>
      </trkpt>
      <trkpt lat="48.84805" lon="6.14195">
        <ele>293</ele>
        <time>2013-06-05T09:52:33Z</time>
      </trkpt>
      <trkpt lat="48.84806" lon="6.14185">
        <ele>294</ele>
        <time>2013-06-05T09:52:45Z</time>
      </trkpt>
      <trkpt lat="48.84806" lon="6.14178">
        <ele>295</ele>
        <time>2013-06-05T09:52:49Z</time>
      </trkpt>
      <trkpt lat="48.84807" lon="6.14169">
        <ele>294</ele>
        <time>2013-06-05T09:52:53Z</time>
      </trkpt>
      <trkpt lat="48.84807" lon="6.14161">
        <ele>296</ele>
        <time>2013-06-05T09:53:00Z</time>
      </trkpt>
      <trkpt lat="48.84805" lon="6.14154">
        <ele>297</ele>
        <time>2013-06-05T09:53:04Z</time>
      </trkpt>
      <trkpt lat="48.84804" lon="6.14147">
        <ele>297</ele>
        <time>2013-06-05T09:53:07Z</time>
      </trkpt>
      <trkpt lat="48.84804" lon="6.1414">
        <ele>298</ele>
        <time>2013-06-05T09:53:11Z</time>
      </trkpt>
      <trkpt lat="48.84803" lon="6.14133">
        <ele>298</ele>
        <time>2013-06-05T09:53:15Z</time>
      </trkpt>
      <trkpt lat="48.84801" lon="6.14125">
        <ele>299</ele>
        <time>2013-06-05T09:53:21Z</time>
      </trkpt>
      <trkpt lat="48.848" lon="6.14117">
        <ele>299</ele>
        <time>2013-06-05T09:53:26Z</time>
      </trkpt>
      <trkpt lat="48.84799" lon="6.14109">
        <ele>298</ele>
        <time>2013-06-05T09:53:31Z</time>
      </trkpt>
      <trkpt lat="48.848" lon="6.14101">
        <ele>297</ele>
        <time>2013-06-05T09:53:36Z</time>
      </trkpt>
      <trkpt lat="48.84802" lon="6.14093">
        <ele>297</ele>
        <time>2013-06-05T09:53:40Z</time>
      </trkpt>
      <trkpt lat="48.84802" lon="6.14086">
        <ele>297</ele>
        <time>2013-06-05T09:53:43Z</time>
      </trkpt>
      <trkpt lat="48.84803" lon="6.14077">
        <ele>297</ele>
        <time>2013-06-05T09:53:48Z</time>
      </trkpt>
      <trkpt lat="48.84805" lon="6.14067">
        <ele>298</ele>
        <time>2013-06-05T09:53:53Z</time>
      </trkpt>
      <trkpt lat="48.84807" lon="6.14058">
        <ele>299</ele>
        <time>2013-06-05T09:53:57Z</time>
      </trkpt>
      <trkpt lat="48.84807" lon="6.1405">
        <ele>300</ele>
        <time>2013-06-05T09:54:01Z</time>
      </trkpt>
      <trkpt lat="48.84808" lon="6.14042">
        <ele>301</ele>
        <time>2013-06-05T09:54:06Z</time>
      </trkpt>
      <trkpt lat="48.84808" lon="6.14035">
        <ele>299</ele>
        <time>2013-06-05T09:54:10Z</time>
      </trkpt>
      <trkpt lat="48.84808" lon="6.14028">
        <ele>298</ele>
        <time>2013-06-05T09:54:14Z</time>
      </trkpt>
      <trkpt lat="48.84809" lon="6.14016">
        <ele>297</ele>
        <time>2013-06-05T09:54:20Z</time>
      </trkpt>
      <trkpt lat="48.84809" lon="6.14008">
        <ele>297</ele>
        <time>2013-06-05T09:54:23Z</time>
      </trkpt>
      <trkpt lat="48.84809" lon="6.14001">
        <ele>297</ele>
        <time>2013-06-05T09:54:26Z</time>
      </trkpt>
      <trkpt lat="48.84808" lon="6.13994">
        <ele>297</ele>
        <time>2013-06-05T09:54:30Z</time>
      </trkpt>
      <trkpt lat="48.84805" lon="6.13987">
        <ele>297</ele>
        <time>2013-06-05T09:54:34Z</time>
      </trkpt>
      <trkpt lat="48.84804" lon="6.13978">
        <ele>297</ele>
        <time>2013-06-05T09:54:39Z</time>
      </trkpt>
      <trkpt lat="48.84804" lon="6.13971">
        <ele>297</ele>
        <time>2013-06-05T09:54:43Z</time>
      </trkpt>
      <trkpt lat="48.84801" lon="6.13957">
        <ele>297</ele>
        <time>2013-06-05T09:54:51Z</time>
      </trkpt>
      <trkpt lat="48.84801" lon="6.13949">
        <ele>297</ele>
        <time>2013-06-05T09:54:55Z</time>
      </trkpt>
      <trkpt lat="48.84802" lon="6.13942">
        <ele>297</ele>
        <time>2013-06-05T09:54:59Z</time>
      </trkpt>
      <trkpt lat="48.84802" lon="6.13933">
        <ele>297</ele>
        <time>2013-06-05T09:55:03Z</time>
      </trkpt>
      <trkpt lat="48.84803" lon="6.13925">
        <ele>297</ele>
        <time>2013-06-05T09:55:08Z</time>
      </trkpt>
      <trkpt lat="48.84804" lon="6.13918">
        <ele>296</ele>
        <time>2013-06-05T09:55:14Z</time>
      </trkpt>
      <trkpt lat="48.84809" lon="6.13917">
        <ele>297</ele>
        <time>2013-06-05T09:55:18Z</time>
      </trkpt>
      <trkpt lat="48.84816" lon="6.13918">
        <ele>296</ele>
        <time>2013-06-05T09:55:25Z</time>
      </trkpt>
      <trkpt lat="48.8482" lon="6.13916">
        <ele>297</ele>
        <time>2013-06-05T09:55:30Z</time>
      </trkpt>
      <trkpt lat="48.84824" lon="6.13908">
        <ele>297</ele>
        <time>2013-06-05T09:55:36Z</time>
      </trkpt>
      <trkpt lat="48.84825" lon="6.139">
        <ele>298</ele>
        <time>2013-06-05T09:55:39Z</time>
      </trkpt>
      <trkpt lat="48.84825" lon="6.13892">
        <ele>298</ele>
        <time>2013-06-05T09:55:43Z</time>
      </trkpt>
      <trkpt lat="48.84827" lon="6.13883">
        <ele>299</ele>
        <time>2013-06-05T09:55:47Z</time>
      </trkpt>
      <trkpt lat="48.84827" lon="6.13875">
        <ele>300</ele>
        <time>2013-06-05T09:55:51Z</time>
      </trkpt>
      <trkpt lat="48.84827" lon="6.13868">
        <ele>301</ele>
        <time>2013-06-05T09:55:55Z</time>
      </trkpt>
      <trkpt lat="48.84827" lon="6.13859">
        <ele>301</ele>
        <time>2013-06-05T09:55:59Z</time>
      </trkpt>
      <trkpt lat="48.84827" lon="6.13852">
        <ele>301</ele>
        <time>2013-06-05T09:56:02Z</time>
      </trkpt>
      <trkpt lat="48.84827" lon="6.13846">
        <ele>301</ele>
        <time>2013-06-05T09:56:06Z</time>
      </trkpt>
      <trkpt lat="48.84827" lon="6.13839">
        <ele>302</ele>
        <time>2013-06-05T09:56:10Z</time>
      </trkpt>
      <trkpt lat="48.84826" lon="6.13831">
        <ele>301</ele>
        <time>2013-06-05T09:56:14Z</time>
      </trkpt>
      <trkpt lat="48.84825" lon="6.13823">
        <ele>300</ele>
        <time>2013-06-05T09:56:18Z</time>
      </trkpt>
      <trkpt lat="48.84826" lon="6.13816">
        <ele>299</ele>
        <time>2013-06-05T09:56:22Z</time>
      </trkpt>
      <trkpt lat="48.84826" lon="6.13809">
        <ele>299</ele>
        <time>2013-06-05T09:56:26Z</time>
      </trkpt>
      <trkpt lat="48.84827" lon="6.138">
        <ele>300</ele>
        <time>2013-06-05T09:56:30Z</time>
      </trkpt>
      <trkpt lat="48.84827" lon="6.13792">
        <ele>300</ele>
        <time>2013-06-05T09:56:34Z</time>
      </trkpt>
      <trkpt lat="48.84826" lon="6.13784">
        <ele>299</ele>
        <time>2013-06-05T09:56:39Z</time>
      </trkpt>
      <trkpt lat="48.84827" lon="6.13775">
        <ele>299</ele>
        <time>2013-06-05T09:56:43Z</time>
      </trkpt>
      <trkpt lat="48.84827" lon="6.13767">
        <ele>299</ele>
        <time>2013-06-05T09:56:47Z</time>
      </trkpt>
      <trkpt lat="48.84827" lon="6.1376">
        <ele>298</ele>
        <time>2013-06-05T09:56:51Z</time>
      </trkpt>
      <trkpt lat="48.84827" lon="6.13752">
        <ele>298</ele>
        <time>2013-06-05T09:56:55Z</time>
      </trkpt>
      <trkpt lat="48.84828" lon="6.13744">
        <ele>297</ele>
        <time>2013-06-05T09:56:59Z</time>
      </trkpt>
      <trkpt lat="48.84829" lon="6.13737">
        <ele>297</ele>
        <time>2013-06-05T09:57:04Z</time>
      </trkpt>
      <trkpt lat="48.84829" lon="6.1373">
        <ele>297</ele>
        <time>2013-06-05T09:57:08Z</time>
      </trkpt>
      <trkpt lat="48.84831" lon="6.13723">
        <ele>297</ele>
        <time>2013-06-05T09:57:12Z</time>
      </trkpt>
      <trkpt lat="48.84833" lon="6.13716">
        <ele>297</ele>
        <time>2013-06-05T09:57:16Z</time>
      </trkpt>
      <trkpt lat="48.84834" lon="6.13708">
        <ele>297</ele>
        <time>2013-06-05T09:57:20Z</time>
      </trkpt>
      <trkpt lat="48.84836" lon="6.13699">
        <ele>297</ele>
        <time>2013-06-05T09:57:24Z</time>
      </trkpt>
      <trkpt lat="48.84836" lon="6.13692">
        <ele>297</ele>
        <time>2013-06-05T09:57:28Z</time>
      </trkpt>
      <trkpt lat="48.84838" lon="6.13684">
        <ele>296</ele>
        <time>2013-06-05T09:57:32Z</time>
      </trkpt>
      <trkpt lat="48.84839" lon="6.13676">
        <ele>296</ele>
        <time>2013-06-05T09:57:35Z</time>
      </trkpt>
      <trkpt lat="48.84839" lon="6.13668">
        <ele>297</ele>
        <time>2013-06-05T09:57:39Z</time>
      </trkpt>
      <trkpt lat="48.8484" lon="6.1366">
        <ele>296</ele>
        <time>2013-06-05T09:57:44Z</time>
      </trkpt>
      <trkpt lat="48.8484" lon="6.13651">
        <ele>295</ele>
        <time>2013-06-05T09:57:48Z</time>
      </trkpt>
      <trkpt lat="48.84841" lon="6.13644">
        <ele>295</ele>
        <time>2013-06-05T09:57:51Z</time>
      </trkpt>
      <trkpt lat="48.84842" lon="6.13636">
        <ele>294</ele>
        <time>2013-06-05T09:57:56Z</time>
      </trkpt>
      <trkpt lat="48.84842" lon="6.13629">
        <ele>294</ele>
        <time>2013-06-05T09:58:00Z</time>
      </trkpt>
      <trkpt lat="48.84842" lon="6.1362">
        <ele>293</ele>
        <time>2013-06-05T09:58:04Z</time>
      </trkpt>
      <trkpt lat="48.84842" lon="6.13613">
        <ele>293</ele>
        <time>2013-06-05T09:58:07Z</time>
      </trkpt>
      <trkpt lat="48.84842" lon="6.13605">
        <ele>293</ele>
        <time>2013-06-05T09:58:10Z</time>
      </trkpt>
      <trkpt lat="48.84842" lon="6.13597">
        <ele>292</ele>
        <time>2013-06-05T09:58:15Z</time>
      </trkpt>
      <trkpt lat="48.84843" lon="6.13589">
        <ele>291</ele>
        <time>2013-06-05T09:58:19Z</time>
      </trkpt>
      <trkpt lat="48.84843" lon="6.13582">
        <ele>292</ele>
        <time>2013-06-05T09:58:23Z</time>
      </trkpt>
      <trkpt lat="48.84844" lon="6.13575">
        <ele>292</ele>
        <time>2013-06-05T09:58:26Z</time>
      </trkpt>
      <trkpt lat="48.84846" lon="6.13564">
        <ele>293</ele>
        <time>2013-06-05T09:58:31Z</time>
      </trkpt>
      <trkpt lat="48.84846" lon="6.13558">
        <ele>294</ele>
        <time>2013-06-05T09:58:35Z</time>
      </trkpt>
      <trkpt lat="48.84847" lon="6.13549">
        <ele>294</ele>
        <time>2013-06-05T09:58:40Z</time>
      </trkpt>
      <trkpt lat="48.84848" lon="6.1354">
        <ele>294</ele>
        <time>2013-06-05T09:58:44Z</time>
      </trkpt>
      <trkpt lat="48.84848" lon="6.13531">
        <ele>293</ele>
        <time>2013-06-05T09:58:49Z</time>
      </trkpt>
      <trkpt lat="48.84848" lon="6.13524">
        <ele>293</ele>
        <time>2013-06-05T09:58:52Z</time>
      </trkpt>
      <trkpt lat="48.84847" lon="6.13516">
        <ele>293</ele>
        <time>2013-06-05T09:58:56Z</time>
      </trkpt>
      <trkpt lat="48.84848" lon="6.1351">
        <ele>292</ele>
        <time>2013-06-05T09:59:00Z</time>
      </trkpt>
      <trkpt lat="48.84849" lon="6.13502">
        <ele>293</ele>
        <time>2013-06-05T09:59:04Z</time>
      </trkpt>
      <trkpt lat="48.84851" lon="6.13495">
        <ele>293</ele>
        <time>2013-06-05T09:59:09Z</time>
      </trkpt>
      <trkpt lat="48.84855" lon="6.13491">
        <ele>293</ele>
        <time>2013-06-05T09:59:13Z</time>
      </trkpt>
      <trkpt lat="48.8486" lon="6.1349">
        <ele>294</ele>
        <time>2013-06-05T09:59:19Z</time>
      </trkpt>
      <trkpt lat="48.84865" lon="6.13491">
        <ele>295</ele>
        <time>2013-06-05T09:59:24Z</time>
      </trkpt>
      <trkpt lat="48.8487" lon="6.13493">
        <ele>295</ele>
        <time>2013-06-05T09:59:28Z</time>
      </trkpt>
      <trkpt lat="48.84875" lon="6.13495">
        <ele>295</ele>
        <time>2013-06-05T09:59:34Z</time>
      </trkpt>
      <trkpt lat="48.8488" lon="6.13496">
        <ele>296</ele>
        <time>2013-06-05T09:59:38Z</time>
      </trkpt>
      <trkpt lat="48.84885" lon="6.13497">
        <ele>296</ele>
        <time>2013-06-05T09:59:42Z</time>
      </trkpt>
      <trkpt lat="48.8489" lon="6.13498">
        <ele>297</ele>
        <time>2013-06-05T09:59:47Z</time>
      </trkpt>
      <trkpt lat="48.84895" lon="6.13501">
        <ele>299</ele>
        <time>2013-06-05T09:59:52Z</time>
      </trkpt>
      <trkpt lat="48.849" lon="6.13503">
        <ele>299</ele>
        <time>2013-06-05T09:59:57Z</time>
      </trkpt>
      <trkpt lat="48.84905" lon="6.13507">
        <ele>299</ele>
        <time>2013-06-05T10:00:01Z</time>
      </trkpt>
      <trkpt lat="48.8491" lon="6.1351">
        <ele>300</ele>
        <time>2013-06-05T10:00:07Z</time>
      </trkpt>
      <trkpt lat="48.84915" lon="6.13513">
        <ele>300</ele>
        <time>2013-06-05T10:00:12Z</time>
      </trkpt>
      <trkpt lat="48.84919" lon="6.13515">
        <ele>301</ele>
        <time>2013-06-05T10:00:16Z</time>
      </trkpt>
      <trkpt lat="48.84924" lon="6.13517">
        <ele>302</ele>
        <time>2013-06-05T10:00:20Z</time>
      </trkpt>
      <trkpt lat="48.84928" lon="6.13519">
        <ele>302</ele>
        <time>2013-06-05T10:00:24Z</time>
      </trkpt>
      <trkpt lat="48.84933" lon="6.13521">
        <ele>303</ele>
        <time>2013-06-05T10:00:28Z</time>
      </trkpt>
      <trkpt lat="48.84938" lon="6.13523">
        <ele>303</ele>
        <time>2013-06-05T10:00:33Z</time>
      </trkpt>
      <trkpt lat="48.84943" lon="6.13523">
        <ele>303</ele>
        <time>2013-06-05T10:00:38Z</time>
      </trkpt>
      <trkpt lat="48.84949" lon="6.1352">
        <ele>305</ele>
        <time>2013-06-05T10:00:44Z</time>
      </trkpt>
      <trkpt lat="48.84952" lon="6.13515">
        <ele>306</ele>
        <time>2013-06-05T10:00:49Z</time>
      </trkpt>
      <trkpt lat="48.84953" lon="6.13507">
        <ele>306</ele>
        <time>2013-06-05T10:00:53Z</time>
      </trkpt>
      <trkpt lat="48.84954" lon="6.13499">
        <ele>307</ele>
        <time>2013-06-05T10:00:58Z</time>
      </trkpt>
      <trkpt lat="48.84955" lon="6.13492">
        <ele>307</ele>
        <time>2013-06-05T10:01:01Z</time>
      </trkpt>
      <trkpt lat="48.84956" lon="6.13484">
        <ele>307</ele>
        <time>2013-06-05T10:01:05Z</time>
      </trkpt>
      <trkpt lat="48.84957" lon="6.13478">
        <ele>307</ele>
        <time>2013-06-05T10:01:09Z</time>
      </trkpt>
      <trkpt lat="48.84959" lon="6.1347">
        <ele>307</ele>
        <time>2013-06-05T10:01:13Z</time>
      </trkpt>
      <trkpt lat="48.8496" lon="6.13463">
        <ele>307</ele>
        <time>2013-06-05T10:01:17Z</time>
      </trkpt>
      <trkpt lat="48.84962" lon="6.13456">
        <ele>307</ele>
        <time>2013-06-05T10:01:21Z</time>
      </trkpt>
      <trkpt lat="48.84965" lon="6.13449">
        <ele>307</ele>
        <time>2013-06-05T10:01:25Z</time>
      </trkpt>
      <trkpt lat="48.84967" lon="6.13443">
        <ele>308</ele>
        <time>2013-06-05T10:01:29Z</time>
      </trkpt>
      <trkpt lat="48.8497" lon="6.13436">
        <ele>308</ele>
        <time>2013-06-05T10:01:33Z</time>
      </trkpt>
      <trkpt lat="48.84973" lon="6.13429">
        <ele>308</ele>
        <time>2013-06-05T10:01:38Z</time>
      </trkpt>
      <trkpt lat="48.84975" lon="6.13423">
        <ele>308</ele>
        <time>2013-06-05T10:01:42Z</time>
      </trkpt>
      <trkpt lat="48.84979" lon="6.13419">
        <ele>308</ele>
        <time>2013-06-05T10:01:45Z</time>
      </trkpt>
      <trkpt lat="48.84983" lon="6.13415">
        <ele>309</ele>
        <time>2013-06-05T10:01:49Z</time>
      </trkpt>
      <trkpt lat="48.84989" lon="6.13414">
        <ele>309</ele>
        <time>2013-06-05T10:02:00Z</time>
      </trkpt>
      <trkpt lat="48.84994" lon="6.13414">
        <ele>309</ele>
        <time>2013-06-05T10:02:05Z</time>
      </trkpt>
      <trkpt lat="48.84998" lon="6.13415">
        <ele>309</ele>
        <time>2013-06-05T10:02:09Z</time>
      </trkpt>
      <trkpt lat="48.85001" lon="6.13415">
        <ele>312</ele>
        <time>2013-06-05T10:02:21Z</time>
      </trkpt>
      <trkpt lat="48.85005" lon="6.13416">
        <ele>309</ele>
        <time>2013-06-05T10:04:02Z</time>
      </trkpt>
      <trkpt lat="48.8501" lon="6.1342">
        <ele>309</ele>
        <time>2013-06-05T10:04:06Z</time>
      </trkpt>
      <trkpt lat="48.85014" lon="6.13423">
        <ele>310</ele>
        <time>2013-06-05T10:04:10Z</time>
      </trkpt>
      <trkpt lat="48.85019" lon="6.13427">
        <ele>311</ele>
        <time>2013-06-05T10:04:15Z</time>
      </trkpt>
      <trkpt lat="48.85023" lon="6.1343">
        <ele>312</ele>
        <time>2013-06-05T10:04:20Z</time>
      </trkpt>
      <trkpt lat="48.85028" lon="6.13435">
        <ele>313</ele>
        <time>2013-06-05T10:04:26Z</time>
      </trkpt>
      <trkpt lat="48.8503" lon="6.13438">
        <ele>314</ele>
        <time>2013-06-05T10:04:34Z</time>
      </trkpt>
      <trkpt lat="48.85037" lon="6.13442">
        <ele>315</ele>
        <time>2013-06-05T10:06:35Z</time>
      </trkpt>
      <trkpt lat="48.85041" lon="6.13447">
        <ele>315</ele>
        <time>2013-06-05T10:06:41Z</time>
      </trkpt>
      <trkpt lat="48.85047" lon="6.1345">
        <ele>316</ele>
        <time>2013-06-05T10:06:46Z</time>
      </trkpt>
      <trkpt lat="48.85052" lon="6.1345">
        <ele>316</ele>
        <time>2013-06-05T10:06:50Z</time>
      </trkpt>
      <trkpt lat="48.85057" lon="6.13453">
        <ele>317</ele>
        <time>2013-06-05T10:06:54Z</time>
      </trkpt>
      <trkpt lat="48.85061" lon="6.13457">
        <ele>317</ele>
        <time>2013-06-05T10:06:59Z</time>
      </trkpt>
      <trkpt lat="48.85065" lon="6.13461">
        <ele>318</ele>
        <time>2013-06-05T10:07:04Z</time>
      </trkpt>
      <trkpt lat="48.8507" lon="6.13464">
        <ele>319</ele>
        <time>2013-06-05T10:07:08Z</time>
      </trkpt>
      <trkpt lat="48.85074" lon="6.13467">
        <ele>319</ele>
        <time>2013-06-05T10:07:12Z</time>
      </trkpt>
      <trkpt lat="48.85079" lon="6.13471">
        <ele>320</ele>
        <time>2013-06-05T10:07:17Z</time>
      </trkpt>
      <trkpt lat="48.85083" lon="6.13473">
        <ele>320</ele>
        <time>2013-06-05T10:07:21Z</time>
      </trkpt>
      <trkpt lat="48.85087" lon="6.13477">
        <ele>320</ele>
        <time>2013-06-05T10:07:26Z</time>
      </trkpt>
      <trkpt lat="48.85087" lon="6.13485">
        <ele>320</ele>
        <time>2013-06-05T10:07:30Z</time>
      </trkpt>
      <trkpt lat="48.85086" lon="6.13492">
        <ele>320</ele>
        <time>2013-06-05T10:07:34Z</time>
      </trkpt>
      <trkpt lat="48.85082" lon="6.13499">
        <ele>320</ele>
        <time>2013-06-05T10:07:39Z</time>
      </trkpt>
      <trkpt lat="48.85079" lon="6.13504">
        <ele>320</ele>
        <time>2013-06-05T10:07:43Z</time>
      </trkpt>
      <trkpt lat="48.85075" lon="6.13511">
        <ele>321</ele>
        <time>2013-06-05T10:07:47Z</time>
      </trkpt>
      <trkpt lat="48.85072" lon="6.13517">
        <ele>322</ele>
        <time>2013-06-05T10:07:51Z</time>
      </trkpt>
      <trkpt lat="48.85069" lon="6.13523">
        <ele>322</ele>
        <time>2013-06-05T10:07:54Z</time>
      </trkpt>
      <trkpt lat="48.85067" lon="6.13531">
        <ele>321</ele>
        <time>2013-06-05T10:07:58Z</time>
      </trkpt>
      <trkpt lat="48.85063" lon="6.13539">
        <ele>320</ele>
        <time>2013-06-05T10:08:02Z</time>
      </trkpt>
      <trkpt lat="48.8506" lon="6.13544">
        <ele>320</ele>
        <time>2013-06-05T10:08:06Z</time>
      </trkpt>
      <trkpt lat="48.85056" lon="6.1355">
        <ele>320</ele>
        <time>2013-06-05T10:08:10Z</time>
      </trkpt>
      <trkpt lat="48.85053" lon="6.13556">
        <ele>320</ele>
        <time>2013-06-05T10:08:13Z</time>
      </trkpt>
      <trkpt lat="48.85051" lon="6.13563">
        <ele>321</ele>
        <time>2013-06-05T10:08:18Z</time>
      </trkpt>
      <trkpt lat="48.85049" lon="6.1357">
        <ele>322</ele>
        <time>2013-06-05T10:08:25Z</time>
      </trkpt>
      <trkpt lat="48.85046" lon="6.13576">
        <ele>322</ele>
        <time>2013-06-05T10:08:29Z</time>
      </trkpt>
      <trkpt lat="48.85044" lon="6.13584">
        <ele>321</ele>
        <time>2013-06-05T10:08:32Z</time>
      </trkpt>
      <trkpt lat="48.85043" lon="6.1359">
        <ele>322</ele>
        <time>2013-06-05T10:08:38Z</time>
      </trkpt>
      <trkpt lat="48.85046" lon="6.13596">
        <ele>322</ele>
        <time>2013-06-05T10:08:44Z</time>
      </trkpt>
      <trkpt lat="48.85051" lon="6.13598">
        <ele>322</ele>
        <time>2013-06-05T10:08:48Z</time>
      </trkpt>
      <trkpt lat="48.85056" lon="6.13599">
        <ele>322</ele>
        <time>2013-06-05T10:08:52Z</time>
      </trkpt>
      <trkpt lat="48.85062" lon="6.136">
        <ele>322</ele>
        <time>2013-06-05T10:08:56Z</time>
      </trkpt>
      <trkpt lat="48.85066" lon="6.13602">
        <ele>323</ele>
        <time>2013-06-05T10:09:00Z</time>
      </trkpt>
      <trkpt lat="48.85071" lon="6.13603">
        <ele>324</ele>
        <time>2013-06-05T10:09:04Z</time>
      </trkpt>
      <trkpt lat="48.85076" lon="6.13604">
        <ele>325</ele>
        <time>2013-06-05T10:09:09Z</time>
      </trkpt>
      <trkpt lat="48.85081" lon="6.13606">
        <ele>326</ele>
        <time>2013-06-05T10:09:14Z</time>
      </trkpt>
      <trkpt lat="48.85086" lon="6.13606">
        <ele>326</ele>
        <time>2013-06-05T10:09:18Z</time>
      </trkpt>
      <trkpt lat="48.85091" lon="6.13608">
        <ele>327</ele>
        <time>2013-06-05T10:09:23Z</time>
      </trkpt>
      <trkpt lat="48.85097" lon="6.13607">
        <ele>328</ele>
        <time>2013-06-05T10:09:29Z</time>
      </trkpt>
      <trkpt lat="48.85102" lon="6.13609">
        <ele>329</ele>
        <time>2013-06-05T10:09:33Z</time>
      </trkpt>
      <trkpt lat="48.85106" lon="6.1361">
        <ele>329</ele>
        <time>2013-06-05T10:09:38Z</time>
      </trkpt>
      <trkpt lat="48.85111" lon="6.13611">
        <ele>330</ele>
        <time>2013-06-05T10:09:42Z</time>
      </trkpt>
      <trkpt lat="48.85117" lon="6.13612">
        <ele>331</ele>
        <time>2013-06-05T10:09:46Z</time>
      </trkpt>
      <trkpt lat="48.85122" lon="6.13613">
        <ele>331</ele>
        <time>2013-06-05T10:09:50Z</time>
      </trkpt>
      <trkpt lat="48.85127" lon="6.13616">
        <ele>331</ele>
        <time>2013-06-05T10:09:55Z</time>
      </trkpt>
      <trkpt lat="48.85132" lon="6.13616">
        <ele>331</ele>
        <time>2013-06-05T10:09:59Z</time>
      </trkpt>
      <trkpt lat="48.85136" lon="6.13616">
        <ele>332</ele>
        <time>2013-06-05T10:10:03Z</time>
      </trkpt>
      <trkpt lat="48.85142" lon="6.13617">
        <ele>333</ele>
        <time>2013-06-05T10:10:07Z</time>
      </trkpt>
      <trkpt lat="48.85146" lon="6.13621">
        <ele>334</ele>
        <time>2013-06-05T10:10:11Z</time>
      </trkpt>
      <trkpt lat="48.85151" lon="6.13622">
        <ele>334</ele>
        <time>2013-06-05T10:10:15Z</time>
      </trkpt>
      <trkpt lat="48.85156" lon="6.13623">
        <ele>334</ele>
        <time>2013-06-05T10:10:23Z</time>
      </trkpt>
      <trkpt lat="48.8516" lon="6.13624">
        <ele>335</ele>
        <time>2013-06-05T10:10:27Z</time>
      </trkpt>
      <trkpt lat="48.85165" lon="6.13627">
        <ele>335</ele>
        <time>2013-06-05T10:10:31Z</time>
      </trkpt>
      <trkpt lat="48.85171" lon="6.13629">
        <ele>335</ele>
        <time>2013-06-05T10:10:36Z</time>
      </trkpt>
      <trkpt lat="48.85175" lon="6.13629">
        <ele>335</ele>
        <time>2013-06-05T10:10:41Z</time>
      </trkpt>
      <trkpt lat="48.85181" lon="6.1363">
        <ele>335</ele>
        <time>2013-06-05T10:10:46Z</time>
      </trkpt>
      <trkpt lat="48.85185" lon="6.1363">
        <ele>336</ele>
        <time>2013-06-05T10:10:50Z</time>
      </trkpt>
      <trkpt lat="48.85192" lon="6.13631">
        <ele>337</ele>
        <time>2013-06-05T10:10:56Z</time>
      </trkpt>
      <trkpt lat="48.85196" lon="6.13631">
        <ele>338</ele>
        <time>2013-06-05T10:11:00Z</time>
      </trkpt>
      <trkpt lat="48.85201" lon="6.13632">
        <ele>339</ele>
        <time>2013-06-05T10:11:05Z</time>
      </trkpt>
      <trkpt lat="48.85206" lon="6.13633">
        <ele>340</ele>
        <time>2013-06-05T10:11:09Z</time>
      </trkpt>
      <trkpt lat="48.85211" lon="6.13633">
        <ele>341</ele>
        <time>2013-06-05T10:11:13Z</time>
      </trkpt>
      <trkpt lat="48.85217" lon="6.13634">
        <ele>342</ele>
        <time>2013-06-05T10:11:18Z</time>
      </trkpt>
      <trkpt lat="48.85222" lon="6.13634">
        <ele>342</ele>
        <time>2013-06-05T10:11:22Z</time>
      </trkpt>
      <trkpt lat="48.85227" lon="6.13636">
        <ele>343</ele>
        <time>2013-06-05T10:11:27Z</time>
      </trkpt>
      <trkpt lat="48.85232" lon="6.13635">
        <ele>344</ele>
        <time>2013-06-05T10:11:32Z</time>
      </trkpt>
      <trkpt lat="48.85237" lon="6.13636">
        <ele>345</ele>
        <time>2013-06-05T10:11:37Z</time>
      </trkpt>
      <trkpt lat="48.85242" lon="6.13636">
        <ele>346</ele>
        <time>2013-06-05T10:11:42Z</time>
      </trkpt>
      <trkpt lat="48.85247" lon="6.13637">
        <ele>346</ele>
        <time>2013-06-05T10:11:46Z</time>
      </trkpt>
      <trkpt lat="48.85251" lon="6.13639">
        <ele>347</ele>
        <time>2013-06-05T10:11:51Z</time>
      </trkpt>
      <trkpt lat="48.85258" lon="6.13641">
        <ele>348</ele>
        <time>2013-06-05T10:11:57Z</time>
      </trkpt>
      <trkpt lat="48.85262" lon="6.13643">
        <ele>349</ele>
        <time>2013-06-05T10:12:01Z</time>
      </trkpt>
      <trkpt lat="48.85267" lon="6.13645">
        <ele>349</ele>
        <time>2013-06-05T10:12:05Z</time>
      </trkpt>
      <trkpt lat="48.85271" lon="6.13649">
        <ele>351</ele>
        <time>2013-06-05T10:12:10Z</time>
      </trkpt>
      <trkpt lat="48.85277" lon="6.13658">
        <ele>352</ele>
        <time>2013-06-05T10:12:17Z</time>
      </trkpt>
      <trkpt lat="48.8528" lon="6.13662">
        <ele>353</ele>
        <time>2013-06-05T10:12:21Z</time>
      </trkpt>
      <trkpt lat="48.85284" lon="6.13668">
        <ele>355</ele>
        <time>2013-06-05T10:12:26Z</time>
      </trkpt>
      <trkpt lat="48.85287" lon="6.13657">
        <ele>357</ele>
        <time>2013-06-05T10:12:40Z</time>
      </trkpt>
      <trkpt lat="48.85287" lon="6.1365">
        <ele>358</ele>
        <time>2013-06-05T10:12:45Z</time>
      </trkpt>
      <trkpt lat="48.85288" lon="6.1364">
        <ele>360</ele>
        <time>2013-06-05T10:12:56Z</time>
      </trkpt>
      <trkpt lat="48.85293" lon="6.13628">
        <ele>360</ele>
        <time>2013-06-05T10:13:04Z</time>
      </trkpt>
      <trkpt lat="48.85298" lon="6.1362">
        <ele>361</ele>
        <time>2013-06-05T10:13:11Z</time>
      </trkpt>
      <trkpt lat="48.85302" lon="6.13615">
        <ele>363</ele>
        <time>2013-06-05T10:13:16Z</time>
      </trkpt>
      <trkpt lat="48.85305" lon="6.13609">
        <ele>364</ele>
        <time>2013-06-05T10:13:20Z</time>
      </trkpt>
      <trkpt lat="48.85309" lon="6.13603">
        <ele>365</ele>
        <time>2013-06-05T10:13:25Z</time>
      </trkpt>
      <trkpt lat="48.85311" lon="6.13597">
        <ele>365</ele>
        <time>2013-06-05T10:13:29Z</time>
      </trkpt>
      <trkpt lat="48.85315" lon="6.1359">
        <ele>365</ele>
        <time>2013-06-05T10:13:35Z</time>
      </trkpt>
      <trkpt lat="48.85319" lon="6.13584">
        <ele>366</ele>
        <time>2013-06-05T10:13:40Z</time>
      </trkpt>
      <trkpt lat="48.85324" lon="6.13577">
        <ele>365</ele>
        <time>2013-06-05T10:13:49Z</time>
      </trkpt>
      <trkpt lat="48.85325" lon="6.13568">
        <ele>367</ele>
        <time>2013-06-05T10:14:07Z</time>
      </trkpt>
      <trkpt lat="48.85324" lon="6.13564">
        <ele>372</ele>
        <time>2013-06-05T10:14:58Z</time>
      </trkpt>
      <trkpt lat="48.85325" lon="6.13557">
        <ele>372</ele>
        <time>2013-06-05T10:15:04Z</time>
      </trkpt>
      <trkpt lat="48.85328" lon="6.13549">
        <ele>372</ele>
        <time>2013-06-05T10:15:08Z</time>
      </trkpt>
      <trkpt lat="48.85329" lon="6.13543">
        <ele>372</ele>
        <time>2013-06-05T10:15:12Z</time>
      </trkpt>
      <trkpt lat="48.85331" lon="6.13535">
        <ele>372</ele>
        <time>2013-06-05T10:15:17Z</time>
      </trkpt>
      <trkpt lat="48.85332" lon="6.13528">
        <ele>372</ele>
        <time>2013-06-05T10:15:21Z</time>
      </trkpt>
      <trkpt lat="48.85334" lon="6.13522">
        <ele>372</ele>
        <time>2013-06-05T10:15:24Z</time>
      </trkpt>
      <trkpt lat="48.85335" lon="6.13515">
        <ele>372</ele>
        <time>2013-06-05T10:15:29Z</time>
      </trkpt>
      <trkpt lat="48.85336" lon="6.13508">
        <ele>373</ele>
        <time>2013-06-05T10:15:33Z</time>
      </trkpt>
      <trkpt lat="48.85337" lon="6.13499">
        <ele>373</ele>
        <time>2013-06-05T10:15:37Z</time>
      </trkpt>
      <trkpt lat="48.85338" lon="6.13491">
        <ele>374</ele>
        <time>2013-06-05T10:15:42Z</time>
      </trkpt>
      <trkpt lat="48.8534" lon="6.13484">
        <ele>374</ele>
        <time>2013-06-05T10:15:46Z</time>
      </trkpt>
      <trkpt lat="48.85341" lon="6.13477">
        <ele>374</ele>
        <time>2013-06-05T10:15:51Z</time>
      </trkpt>
      <trkpt lat="48.85343" lon="6.13469">
        <ele>374</ele>
        <time>2013-06-05T10:15:55Z</time>
      </trkpt>
      <trkpt lat="48.85345" lon="6.13461">
        <ele>375</ele>
        <time>2013-06-05T10:16:00Z</time>
      </trkpt>
      <trkpt lat="48.85345" lon="6.13453">
        <ele>376</ele>
        <time>2013-06-05T10:16:05Z</time>
      </trkpt>
      <trkpt lat="48.85347" lon="6.13445">
        <ele>376</ele>
        <time>2013-06-05T10:16:09Z</time>
      </trkpt>
      <trkpt lat="48.85347" lon="6.13438">
        <ele>375</ele>
        <time>2013-06-05T10:16:12Z</time>
      </trkpt>
      <trkpt lat="48.85348" lon="6.1343">
        <ele>375</ele>
        <time>2013-06-05T10:16:16Z</time>
      </trkpt>
      <trkpt lat="48.85349" lon="6.13421">
        <ele>376</ele>
        <time>2013-06-05T10:16:20Z</time>
      </trkpt>
      <trkpt lat="48.8535" lon="6.13413">
        <ele>375</ele>
        <time>2013-06-05T10:16:26Z</time>
      </trkpt>
      <trkpt lat="48.85351" lon="6.13405">
        <ele>374</ele>
        <time>2013-06-05T10:16:30Z</time>
      </trkpt>
      <trkpt lat="48.85351" lon="6.13397">
        <ele>375</ele>
        <time>2013-06-05T10:16:35Z</time>
      </trkpt>
      <trkpt lat="48.85352" lon="6.1339">
        <ele>375</ele>
        <time>2013-06-05T10:16:38Z</time>
      </trkpt>
      <trkpt lat="48.85352" lon="6.13383">
        <ele>376</ele>
        <time>2013-06-05T10:16:42Z</time>
      </trkpt>
      <trkpt lat="48.85351" lon="6.13377">
        <ele>376</ele>
        <time>2013-06-05T10:16:52Z</time>
      </trkpt>
      <trkpt lat="48.85354" lon="6.1337">
        <ele>374</ele>
        <time>2013-06-05T10:16:58Z</time>
      </trkpt>
      <trkpt lat="48.85354" lon="6.13361">
        <ele>374</ele>
        <time>2013-06-05T10:17:04Z</time>
      </trkpt>
      <trkpt lat="48.85352" lon="6.13354">
        <ele>374</ele>
        <time>2013-06-05T10:17:08Z</time>
      </trkpt>
      <trkpt lat="48.8535" lon="6.13347">
        <ele>373</ele>
        <time>2013-06-05T10:17:12Z</time>
      </trkpt>
      <trkpt lat="48.85348" lon="6.13341">
        <ele>372</ele>
        <time>2013-06-05T10:17:16Z</time>
      </trkpt>
      <trkpt lat="48.85348" lon="6.13333">
        <ele>372</ele>
        <time>2013-06-05T10:17:20Z</time>
      </trkpt>
      <trkpt lat="48.85348" lon="6.13325">
        <ele>371</ele>
        <time>2013-06-05T10:17:24Z</time>
      </trkpt>
      <trkpt lat="48.85348" lon="6.13318">
        <ele>371</ele>
        <time>2013-06-05T10:17:27Z</time>
      </trkpt>
      <trkpt lat="48.85347" lon="6.1331">
        <ele>370</ele>
        <time>2013-06-05T10:17:33Z</time>
      </trkpt>
      <trkpt lat="48.85346" lon="6.13301">
        <ele>369</ele>
        <time>2013-06-05T10:17:38Z</time>
      </trkpt>
      <trkpt lat="48.85345" lon="6.13297">
        <ele>368</ele>
        <time>2013-06-05T10:17:46Z</time>
      </trkpt>
      <trkpt lat="48.85344" lon="6.13289">
        <ele>368</ele>
        <time>2013-06-05T10:17:50Z</time>
      </trkpt>
      <trkpt lat="48.85343" lon="6.13281">
        <ele>368</ele>
        <time>2013-06-05T10:17:54Z</time>
      </trkpt>
      <trkpt lat="48.85343" lon="6.13274">
        <ele>368</ele>
        <time>2013-06-05T10:18:00Z</time>
      </trkpt>
      <trkpt lat="48.85342" lon="6.13263">
        <ele>366</ele>
        <time>2013-06-05T10:18:43Z</time>
      </trkpt>
      <trkpt lat="48.85343" lon="6.13254">
        <ele>365</ele>
        <time>2013-06-05T10:18:55Z</time>
      </trkpt>
      <trkpt lat="48.85346" lon="6.13247">
        <ele>365</ele>
        <time>2013-06-05T10:19:02Z</time>
      </trkpt>
      <trkpt lat="48.85346" lon="6.13241">
        <ele>366</ele>
        <time>2013-06-05T10:19:06Z</time>
      </trkpt>
      <trkpt lat="48.85345" lon="6.13232">
        <ele>366</ele>
        <time>2013-06-05T10:19:11Z</time>
      </trkpt>
      <trkpt lat="48.85346" lon="6.13225">
        <ele>366</ele>
        <time>2013-06-05T10:19:15Z</time>
      </trkpt>
      <trkpt lat="48.85345" lon="6.13216">
        <ele>365</ele>
        <time>2013-06-05T10:19:20Z</time>
      </trkpt>
      <trkpt lat="48.85343" lon="6.13209">
        <ele>365</ele>
        <time>2013-06-05T10:19:24Z</time>
      </trkpt>
      <trkpt lat="48.85343" lon="6.13202">
        <ele>364</ele>
        <time>2013-06-05T10:19:29Z</time>
      </trkpt>
      <trkpt lat="48.85345" lon="6.13194">
        <ele>363</ele>
        <time>2013-06-05T10:19:34Z</time>
      </trkpt>
      <trkpt lat="48.85347" lon="6.13187">
        <ele>364</ele>
        <time>2013-06-05T10:19:37Z</time>
      </trkpt>
      <trkpt lat="48.85348" lon="6.1318">
        <ele>364</ele>
        <time>2013-06-05T10:19:40Z</time>
      </trkpt>
      <trkpt lat="48.8535" lon="6.13172">
        <ele>365</ele>
        <time>2013-06-05T10:19:46Z</time>
      </trkpt>
      <trkpt lat="48.85352" lon="6.13164">
        <ele>361</ele>
        <time>2013-06-05T10:19:58Z</time>
      </trkpt>
      <trkpt lat="48.85355" lon="6.13153">
        <ele>360</ele>
        <time>2013-06-05T10:20:04Z</time>
      </trkpt>
      <trkpt lat="48.85357" lon="6.13147">
        <ele>360</ele>
        <time>2013-06-05T10:20:10Z</time>
      </trkpt>
      <trkpt lat="48.85359" lon="6.13139">
        <ele>361</ele>
        <time>2013-06-05T10:20:14Z</time>
      </trkpt>
      <trkpt lat="48.8536" lon="6.1313">
        <ele>363</ele>
        <time>2013-06-05T10:20:19Z</time>
      </trkpt>
      <trkpt lat="48.85363" lon="6.13123">
        <ele>365</ele>
        <time>2013-06-05T10:20:24Z</time>
      </trkpt>
      <trkpt lat="48.85365" lon="6.13116">
        <ele>366</ele>
        <time>2013-06-05T10:20:27Z</time>
      </trkpt>
      <trkpt lat="48.85367" lon="6.13109">
        <ele>367</ele>
        <time>2013-06-05T10:20:30Z</time>
      </trkpt>
      <trkpt lat="48.85371" lon="6.13101">
        <ele>367</ele>
        <time>2013-06-05T10:20:36Z</time>
      </trkpt>
      <trkpt lat="48.85374" lon="6.1309">
        <ele>367</ele>
        <time>2013-06-05T10:20:41Z</time>
      </trkpt>
      <trkpt lat="48.85376" lon="6.13083">
        <ele>367</ele>
        <time>2013-06-05T10:20:46Z</time>
      </trkpt>
      <trkpt lat="48.8538" lon="6.13077">
        <ele>367</ele>
        <time>2013-06-05T10:20:50Z</time>
      </trkpt>
      <trkpt lat="48.85384" lon="6.13072">
        <ele>365</ele>
        <time>2013-06-05T10:20:54Z</time>
      </trkpt>
      <trkpt lat="48.85387" lon="6.13066">
        <ele>365</ele>
        <time>2013-06-05T10:20:58Z</time>
      </trkpt>
      <trkpt lat="48.85388" lon="6.13059">
        <ele>365</ele>
        <time>2013-06-05T10:21:02Z</time>
      </trkpt>
      <trkpt lat="48.85391" lon="6.1305">
        <ele>364</ele>
        <time>2013-06-05T10:21:08Z</time>
      </trkpt>
      <trkpt lat="48.85392" lon="6.13042">
        <ele>364</ele>
        <time>2013-06-05T10:21:12Z</time>
      </trkpt>
      <trkpt lat="48.85395" lon="6.13036">
        <ele>365</ele>
        <time>2013-06-05T10:21:17Z</time>
      </trkpt>
      <trkpt lat="48.85398" lon="6.13031">
        <ele>366</ele>
        <time>2013-06-05T10:21:20Z</time>
      </trkpt>
      <trkpt lat="48.85399" lon="6.13024">
        <ele>366</ele>
        <time>2013-06-05T10:21:25Z</time>
      </trkpt>
      <trkpt lat="48.85401" lon="6.13018">
        <ele>363</ele>
        <time>2013-06-05T10:21:30Z</time>
      </trkpt>
      <trkpt lat="48.85404" lon="6.13011">
        <ele>363</ele>
        <time>2013-06-05T10:21:33Z</time>
      </trkpt>
      <trkpt lat="48.85408" lon="6.13005">
        <ele>363</ele>
        <time>2013-06-05T10:21:38Z</time>
      </trkpt>
      <trkpt lat="48.8541" lon="6.12997">
        <ele>364</ele>
        <time>2013-06-05T10:21:42Z</time>
      </trkpt>
      <trkpt lat="48.85412" lon="6.12987">
        <ele>364</ele>
        <time>2013-06-05T10:21:46Z</time>
      </trkpt>
      <trkpt lat="48.85415" lon="6.12982">
        <ele>363</ele>
        <time>2013-06-05T10:21:51Z</time>
      </trkpt>
      <trkpt lat="48.85419" lon="6.12978">
        <ele>361</ele>
        <time>2013-06-05T10:21:58Z</time>
      </trkpt>
      <trkpt lat="48.85422" lon="6.12971">
        <ele>359</ele>
        <time>2013-06-05T10:22:02Z</time>
      </trkpt>
      <trkpt lat="48.85425" lon="6.12964">
        <ele>359</ele>
        <time>2013-06-05T10:22:06Z</time>
      </trkpt>
      <trkpt lat="48.85427" lon="6.12958">
        <ele>359</ele>
        <time>2013-06-05T10:22:09Z</time>
      </trkpt>
      <trkpt lat="48.85429" lon="6.1295">
        <ele>359</ele>
        <time>2013-06-05T10:22:13Z</time>
      </trkpt>
      <trkpt lat="48.85431" lon="6.12943">
        <ele>358</ele>
        <time>2013-06-05T10:22:17Z</time>
      </trkpt>
      <trkpt lat="48.85434" lon="6.12936">
        <ele>359</ele>
        <time>2013-06-05T10:22:22Z</time>
      </trkpt>
      <trkpt lat="48.8544" lon="6.12924">
        <ele>360</ele>
        <time>2013-06-05T10:22:29Z</time>
      </trkpt>
      <trkpt lat="48.85442" lon="6.12915">
        <ele>359</ele>
        <time>2013-06-05T10:22:34Z</time>
      </trkpt>
      <trkpt lat="48.85443" lon="6.12908">
        <ele>359</ele>
        <time>2013-06-05T10:22:37Z</time>
      </trkpt>
      <trkpt lat="48.85443" lon="6.12899">
        <ele>358</ele>
        <time>2013-06-05T10:22:42Z</time>
      </trkpt>
      <trkpt lat="48.85445" lon="6.12892">
        <ele>359</ele>
        <time>2013-06-05T10:22:46Z</time>
      </trkpt>
      <trkpt lat="48.85449" lon="6.12886">
        <ele>359</ele>
        <time>2013-06-05T10:22:51Z</time>
      </trkpt>
      <trkpt lat="48.85451" lon="6.12879">
        <ele>359</ele>
        <time>2013-06-05T10:22:55Z</time>
      </trkpt>
      <trkpt lat="48.85454" lon="6.1287">
        <ele>360</ele>
        <time>2013-06-05T10:23:00Z</time>
      </trkpt>
      <trkpt lat="48.85457" lon="6.12862">
        <ele>360</ele>
        <time>2013-06-05T10:23:04Z</time>
      </trkpt>
      <trkpt lat="48.85459" lon="6.12854">
        <ele>359</ele>
        <time>2013-06-05T10:23:08Z</time>
      </trkpt>
      <trkpt lat="48.85461" lon="6.12847">
        <ele>357</ele>
        <time>2013-06-05T10:23:13Z</time>
      </trkpt>
      <trkpt lat="48.85464" lon="6.1284">
        <ele>357</ele>
        <time>2013-06-05T10:23:17Z</time>
      </trkpt>
      <trkpt lat="48.85466" lon="6.12833">
        <ele>356</ele>
        <time>2013-06-05T10:23:20Z</time>
      </trkpt>
      <trkpt lat="48.85467" lon="6.12826">
        <ele>356</ele>
        <time>2013-06-05T10:23:23Z</time>
      </trkpt>
      <trkpt lat="48.85468" lon="6.12817">
        <ele>356</ele>
        <time>2013-06-05T10:23:26Z</time>
      </trkpt>
      <trkpt lat="48.85469" lon="6.12809">
        <ele>356</ele>
        <time>2013-06-05T10:23:30Z</time>
      </trkpt>
      <trkpt lat="48.8547" lon="6.12802">
        <ele>355</ele>
        <time>2013-06-05T10:23:34Z</time>
      </trkpt>
      <trkpt lat="48.8547" lon="6.12795">
        <ele>353</ele>
        <time>2013-06-05T10:23:38Z</time>
      </trkpt>
      <trkpt lat="48.85472" lon="6.12796">
        <ele>352</ele>
        <time>2013-06-05T10:24:00Z</time>
      </trkpt>
      <trkpt lat="48.85475" lon="6.12799">
        <ele>353</ele>
        <time>2013-06-05T10:24:38Z</time>
      </trkpt>
      <trkpt lat="48.85479" lon="6.128">
        <ele>353</ele>
        <time>2013-06-05T10:24:43Z</time>
      </trkpt>
      <trkpt lat="48.85484" lon="6.12803">
        <ele>353</ele>
        <time>2013-06-05T10:24:47Z</time>
      </trkpt>
      <trkpt lat="48.85487" lon="6.12805">
        <ele>354</ele>
        <time>2013-06-05T10:24:56Z</time>
      </trkpt>
      <trkpt lat="48.85491" lon="6.1281">
        <ele>355</ele>
        <time>2013-06-05T10:25:04Z</time>
      </trkpt>
      <trkpt lat="48.85495" lon="6.12815">
        <ele>355</ele>
        <time>2013-06-05T10:25:10Z</time>
      </trkpt>
      <trkpt lat="48.85499" lon="6.12818">
        <ele>357</ele>
        <time>2013-06-05T10:25:17Z</time>
      </trkpt>
      <trkpt lat="48.85503" lon="6.12823">
        <ele>359</ele>
        <time>2013-06-05T10:25:24Z</time>
      </trkpt>
      <trkpt lat="48.85507" lon="6.12828">
        <ele>361</ele>
        <time>2013-06-05T10:25:31Z</time>
      </trkpt>
      <trkpt lat="48.85511" lon="6.1283">
        <ele>362</ele>
        <time>2013-06-05T10:25:39Z</time>
      </trkpt>
      <trkpt lat="48.85515" lon="6.12824">
        <ele>363</ele>
        <time>2013-06-05T10:25:46Z</time>
      </trkpt>
      <trkpt lat="48.85516" lon="6.12816">
        <ele>362</ele>
        <time>2013-06-05T10:25:52Z</time>
      </trkpt>
      <trkpt lat="48.85518" lon="6.1281">
        <ele>362</ele>
        <time>2013-06-05T10:25:58Z</time>
      </trkpt>
      <trkpt lat="48.8552" lon="6.12803">
        <ele>361</ele>
        <time>2013-06-05T10:26:04Z</time>
      </trkpt>
      <trkpt lat="48.85522" lon="6.12796">
        <ele>362</ele>
        <time>2013-06-05T10:26:09Z</time>
      </trkpt>
      <trkpt lat="48.85524" lon="6.12789">
        <ele>363</ele>
        <time>2013-06-05T10:26:15Z</time>
      </trkpt>
      <trkpt lat="48.85527" lon="6.12782">
        <ele>363</ele>
        <time>2013-06-05T10:26:20Z</time>
      </trkpt>
      <trkpt lat="48.85529" lon="6.12775">
        <ele>363</ele>
        <time>2013-06-05T10:26:25Z</time>
      </trkpt>
      <trkpt lat="48.85529" lon="6.12767">
        <ele>363</ele>
        <time>2013-06-05T10:26:32Z</time>
      </trkpt>
      <trkpt lat="48.8553" lon="6.12759">
        <ele>364</ele>
        <time>2013-06-05T10:26:37Z</time>
      </trkpt>
      <trkpt lat="48.8553" lon="6.12756">
        <ele>364</ele>
        <time>2013-06-05T10:26:42Z</time>
      </trkpt>
      <trkpt lat="48.85528" lon="6.1275">
        <ele>364</ele>
        <time>2013-06-05T10:26:53Z</time>
      </trkpt>
      <trkpt lat="48.85528" lon="6.12742">
        <ele>364</ele>
        <time>2013-06-05T10:27:00Z</time>
      </trkpt>
      <trkpt lat="48.85527" lon="6.12739">
        <ele>365</ele>
        <time>2013-06-05T10:27:07Z</time>
      </trkpt>
      <trkpt lat="48.85528" lon="6.12782">
        <ele>360</ele>
        <time>2013-06-05T11:42:02Z</time>
      </trkpt>
      <trkpt lat="48.85528" lon="6.12784">
        <ele>359</ele>
        <time>2013-06-05T11:42:08Z</time>
      </trkpt>
      <trkpt lat="48.85525" lon="6.12793">
        <ele>358</ele>
        <time>2013-06-05T11:42:16Z</time>
      </trkpt>
      <trkpt lat="48.85522" lon="6.128">
        <ele>360</ele>
        <time>2013-06-05T11:42:20Z</time>
      </trkpt>
      <trkpt lat="48.85519" lon="6.12806">
        <ele>360</ele>
        <time>2013-06-05T11:42:25Z</time>
      </trkpt>
      <trkpt lat="48.85516" lon="6.12812">
        <ele>360</ele>
        <time>2013-06-05T11:42:29Z</time>
      </trkpt>
      <trkpt lat="48.85515" lon="6.1282">
        <ele>360</ele>
        <time>2013-06-05T11:42:33Z</time>
      </trkpt>
      <trkpt lat="48.85513" lon="6.12828">
        <ele>361</ele>
        <time>2013-06-05T11:42:39Z</time>
      </trkpt>
      <trkpt lat="48.85516" lon="6.12837">
        <ele>360</ele>
        <time>2013-06-05T11:43:08Z</time>
      </trkpt>
      <trkpt lat="48.8552" lon="6.12841">
        <ele>361</ele>
        <time>2013-06-05T11:43:15Z</time>
      </trkpt>
      <trkpt lat="48.85522" lon="6.12849">
        <ele>361</ele>
        <time>2013-06-05T11:43:21Z</time>
      </trkpt>
      <trkpt lat="48.85522" lon="6.12856">
        <ele>361</ele>
        <time>2013-06-05T11:43:27Z</time>
      </trkpt>
      <trkpt lat="48.85522" lon="6.12863">
        <ele>361</ele>
        <time>2013-06-05T11:43:31Z</time>
      </trkpt>
      <trkpt lat="48.85519" lon="6.12879">
        <ele>363</ele>
        <time>2013-06-05T11:43:40Z</time>
      </trkpt>
      <trkpt lat="48.85516" lon="6.1289">
        <ele>363</ele>
        <time>2013-06-05T11:43:47Z</time>
      </trkpt>
      <trkpt lat="48.8551" lon="6.129">
        <ele>364</ele>
        <time>2013-06-05T11:43:56Z</time>
      </trkpt>
      <trkpt lat="48.85512" lon="6.12914">
        <ele>364</ele>
        <time>2013-06-05T11:44:03Z</time>
      </trkpt>
      <trkpt lat="48.85513" lon="6.12922">
        <ele>364</ele>
        <time>2013-06-05T11:44:07Z</time>
      </trkpt>
      <trkpt lat="48.85511" lon="6.12932">
        <ele>364</ele>
        <time>2013-06-05T11:44:14Z</time>
      </trkpt>
      <trkpt lat="48.85507" lon="6.12945">
        <ele>365</ele>
        <time>2013-06-05T11:44:24Z</time>
      </trkpt>
      <trkpt lat="48.85504" lon="6.12952">
        <ele>363</ele>
        <time>2013-06-05T11:44:29Z</time>
      </trkpt>
      <trkpt lat="48.85501" lon="6.12966">
        <ele>362</ele>
        <time>2013-06-05T11:44:35Z</time>
      </trkpt>
      <trkpt lat="48.85502" lon="6.12974">
        <ele>361</ele>
        <time>2013-06-05T11:44:38Z</time>
      </trkpt>
      <trkpt lat="48.85501" lon="6.12981">
        <ele>359</ele>
        <time>2013-06-05T11:44:44Z</time>
      </trkpt>
      <trkpt lat="48.855" lon="6.12989">
        <ele>358</ele>
        <time>2013-06-05T11:44:49Z</time>
      </trkpt>
      <trkpt lat="48.85499" lon="6.12996">
        <ele>358</ele>
        <time>2013-06-05T11:44:54Z</time>
      </trkpt>
      <trkpt lat="48.85497" lon="6.13003">
        <ele>360</ele>
        <time>2013-06-05T11:44:58Z</time>
      </trkpt>
      <trkpt lat="48.85494" lon="6.1301">
        <ele>360</ele>
        <time>2013-06-05T11:45:02Z</time>
      </trkpt>
      <trkpt lat="48.85492" lon="6.13021">
        <ele>360</ele>
        <time>2013-06-05T11:45:15Z</time>
      </trkpt>
      <trkpt lat="48.85489" lon="6.13029">
        <ele>359</ele>
        <time>2013-06-05T11:45:20Z</time>
      </trkpt>
      <trkpt lat="48.85487" lon="6.13035">
        <ele>362</ele>
        <time>2013-06-05T11:45:26Z</time>
      </trkpt>
      <trkpt lat="48.85484" lon="6.13042">
        <ele>363</ele>
        <time>2013-06-05T11:45:29Z</time>
      </trkpt>
      <trkpt lat="48.85482" lon="6.13049">
        <ele>366</ele>
        <time>2013-06-05T11:45:32Z</time>
      </trkpt>
      <trkpt lat="48.85479" lon="6.13056">
        <ele>368</ele>
        <time>2013-06-05T11:45:36Z</time>
      </trkpt>
      <trkpt lat="48.85476" lon="6.13063">
        <ele>370</ele>
        <time>2013-06-05T11:45:40Z</time>
      </trkpt>
      <trkpt lat="48.85474" lon="6.1307">
        <ele>371</ele>
        <time>2013-06-05T11:45:45Z</time>
      </trkpt>
      <trkpt lat="48.85474" lon="6.13078">
        <ele>371</ele>
        <time>2013-06-05T11:45:49Z</time>
      </trkpt>
      <trkpt lat="48.85473" lon="6.13086">
        <ele>372</ele>
        <time>2013-06-05T11:45:54Z</time>
      </trkpt>
      <trkpt lat="48.85473" lon="6.13093">
        <ele>372</ele>
        <time>2013-06-05T11:45:58Z</time>
      </trkpt>
      <trkpt lat="48.85472" lon="6.131">
        <ele>372</ele>
        <time>2013-06-05T11:46:02Z</time>
      </trkpt>
      <trkpt lat="48.85471" lon="6.13108">
        <ele>372</ele>
        <time>2013-06-05T11:46:06Z</time>
      </trkpt>
      <trkpt lat="48.8547" lon="6.13115">
        <ele>373</ele>
        <time>2013-06-05T11:46:11Z</time>
      </trkpt>
      <trkpt lat="48.85468" lon="6.13122">
        <ele>375</ele>
        <time>2013-06-05T11:46:16Z</time>
      </trkpt>
      <trkpt lat="48.85467" lon="6.1313">
        <ele>375</ele>
        <time>2013-06-05T11:46:21Z</time>
      </trkpt>
      <trkpt lat="48.85466" lon="6.13137">
        <ele>376</ele>
        <time>2013-06-05T11:46:26Z</time>
      </trkpt>
      <trkpt lat="48.85464" lon="6.13145">
        <ele>376</ele>
        <time>2013-06-05T11:46:32Z</time>
      </trkpt>
      <trkpt lat="48.85462" lon="6.13152">
        <ele>376</ele>
        <time>2013-06-05T11:46:37Z</time>
      </trkpt>
      <trkpt lat="48.85462" lon="6.1316">
        <ele>376</ele>
        <time>2013-06-05T11:46:41Z</time>
      </trkpt>
      <trkpt lat="48.85459" lon="6.13174">
        <ele>376</ele>
        <time>2013-06-05T11:46:49Z</time>
      </trkpt>
      <trkpt lat="48.85458" lon="6.13181">
        <ele>376</ele>
        <time>2013-06-05T11:46:53Z</time>
      </trkpt>
      <trkpt lat="48.85458" lon="6.13189">
        <ele>376</ele>
        <time>2013-06-05T11:46:57Z</time>
      </trkpt>
      <trkpt lat="48.85457" lon="6.13197">
        <ele>376</ele>
        <time>2013-06-05T11:47:02Z</time>
      </trkpt>
      <trkpt lat="48.85456" lon="6.13207">
        <ele>377</ele>
        <time>2013-06-05T11:47:11Z</time>
      </trkpt>
      <trkpt lat="48.85456" lon="6.13215">
        <ele>378</ele>
        <time>2013-06-05T11:47:15Z</time>
      </trkpt>
      <trkpt lat="48.85456" lon="6.13227">
        <ele>378</ele>
        <time>2013-06-05T11:47:21Z</time>
      </trkpt>
      <trkpt lat="48.85455" lon="6.13236">
        <ele>378</ele>
        <time>2013-06-05T11:47:24Z</time>
      </trkpt>
      <trkpt lat="48.85453" lon="6.13243">
        <ele>378</ele>
        <time>2013-06-05T11:47:29Z</time>
      </trkpt>
      <trkpt lat="48.85452" lon="6.13255">
        <ele>377</ele>
        <time>2013-06-05T11:47:37Z</time>
      </trkpt>
      <trkpt lat="48.8545" lon="6.13263">
        <ele>378</ele>
        <time>2013-06-05T11:47:42Z</time>
      </trkpt>
      <trkpt lat="48.85451" lon="6.13276">
        <ele>379</ele>
        <time>2013-06-05T11:47:51Z</time>
      </trkpt>
      <trkpt lat="48.85451" lon="6.13286">
        <ele>377</ele>
        <time>2013-06-05T11:47:56Z</time>
      </trkpt>
      <trkpt lat="48.85452" lon="6.13296">
        <ele>375</ele>
        <time>2013-06-05T11:48:01Z</time>
      </trkpt>
      <trkpt lat="48.85451" lon="6.13303">
        <ele>375</ele>
        <time>2013-06-05T11:48:05Z</time>
      </trkpt>
      <trkpt lat="48.85451" lon="6.13311">
        <ele>375</ele>
        <time>2013-06-05T11:48:10Z</time>
      </trkpt>
      <trkpt lat="48.8545" lon="6.13318">
        <ele>375</ele>
        <time>2013-06-05T11:48:14Z</time>
      </trkpt>
      <trkpt lat="48.85451" lon="6.13326">
        <ele>375</ele>
        <time>2013-06-05T11:48:18Z</time>
      </trkpt>
      <trkpt lat="48.85451" lon="6.13335">
        <ele>376</ele>
        <time>2013-06-05T11:48:25Z</time>
      </trkpt>
      <trkpt lat="48.85451" lon="6.13343">
        <ele>377</ele>
        <time>2013-06-05T11:48:29Z</time>
      </trkpt>
      <trkpt lat="48.8545" lon="6.13352">
        <ele>378</ele>
        <time>2013-06-05T11:48:34Z</time>
      </trkpt>
      <trkpt lat="48.85449" lon="6.13359">
        <ele>378</ele>
        <time>2013-06-05T11:48:37Z</time>
      </trkpt>
      <trkpt lat="48.85449" lon="6.13367">
        <ele>378</ele>
        <time>2013-06-05T11:48:41Z</time>
      </trkpt>
      <trkpt lat="48.85448" lon="6.13375">
        <ele>378</ele>
        <time>2013-06-05T11:48:45Z</time>
      </trkpt>
      <trkpt lat="48.85446" lon="6.13384">
        <ele>378</ele>
        <time>2013-06-05T11:48:50Z</time>
      </trkpt>
      <trkpt lat="48.85446" lon="6.13393">
        <ele>379</ele>
        <time>2013-06-05T11:48:55Z</time>
      </trkpt>
      <trkpt lat="48.85448" lon="6.13401">
        <ele>378</ele>
        <time>2013-06-05T11:49:00Z</time>
      </trkpt>
      <trkpt lat="48.85447" lon="6.13409">
        <ele>378</ele>
        <time>2013-06-05T11:49:06Z</time>
      </trkpt>
      <trkpt lat="48.85448" lon="6.13423">
        <ele>378</ele>
        <time>2013-06-05T11:49:13Z</time>
      </trkpt>
      <trkpt lat="48.85447" lon="6.13432">
        <ele>379</ele>
        <time>2013-06-05T11:49:17Z</time>
      </trkpt>
      <trkpt lat="48.85446" lon="6.13439">
        <ele>379</ele>
        <time>2013-06-05T11:49:21Z</time>
      </trkpt>
      <trkpt lat="48.85445" lon="6.13449">
        <ele>379</ele>
        <time>2013-06-05T11:49:25Z</time>
      </trkpt>
      <trkpt lat="48.85444" lon="6.13456">
        <ele>381</ele>
        <time>2013-06-05T11:49:33Z</time>
      </trkpt>
      <trkpt lat="48.85443" lon="6.13464">
        <ele>382</ele>
        <time>2013-06-05T11:49:37Z</time>
      </trkpt>
      <trkpt lat="48.85444" lon="6.13473">
        <ele>382</ele>
        <time>2013-06-05T11:49:41Z</time>
      </trkpt>
      <trkpt lat="48.85444" lon="6.13481">
        <ele>383</ele>
        <time>2013-06-05T11:49:45Z</time>
      </trkpt>
      <trkpt lat="48.85445" lon="6.13489">
        <ele>383</ele>
        <time>2013-06-05T11:49:50Z</time>
      </trkpt>
      <trkpt lat="48.85446" lon="6.13497">
        <ele>383</ele>
        <time>2013-06-05T11:49:55Z</time>
      </trkpt>
      <trkpt lat="48.85446" lon="6.13504">
        <ele>382</ele>
        <time>2013-06-05T11:49:59Z</time>
      </trkpt>
      <trkpt lat="48.85445" lon="6.13512">
        <ele>382</ele>
        <time>2013-06-05T11:50:04Z</time>
      </trkpt>
      <trkpt lat="48.85445" lon="6.13519">
        <ele>381</ele>
        <time>2013-06-05T11:50:08Z</time>
      </trkpt>
      <trkpt lat="48.85445" lon="6.13527">
        <ele>381</ele>
        <time>2013-06-05T11:50:13Z</time>
      </trkpt>
      <trkpt lat="48.85447" lon="6.13535">
        <ele>381</ele>
        <time>2013-06-05T11:50:18Z</time>
      </trkpt>
      <trkpt lat="48.85448" lon="6.13543">
        <ele>382</ele>
        <time>2013-06-05T11:50:23Z</time>
      </trkpt>
      <trkpt lat="48.85448" lon="6.1355">
        <ele>382</ele>
        <time>2013-06-05T11:50:27Z</time>
      </trkpt>
      <trkpt lat="48.85448" lon="6.13558">
        <ele>382</ele>
        <time>2013-06-05T11:50:31Z</time>
      </trkpt>
      <trkpt lat="48.85448" lon="6.13565">
        <ele>381</ele>
        <time>2013-06-05T11:50:35Z</time>
      </trkpt>
      <trkpt lat="48.85447" lon="6.13579">
        <ele>382</ele>
        <time>2013-06-05T11:50:46Z</time>
      </trkpt>
      <trkpt lat="48.85445" lon="6.13586">
        <ele>383</ele>
        <time>2013-06-05T11:50:48Z</time>
      </trkpt>
      <trkpt lat="48.85444" lon="6.13597">
        <ele>385</ele>
        <time>2013-06-05T11:50:55Z</time>
      </trkpt>
      <trkpt lat="48.85442" lon="6.13604">
        <ele>384</ele>
        <time>2013-06-05T11:50:59Z</time>
      </trkpt>
      <trkpt lat="48.85439" lon="6.13611">
        <ele>384</ele>
        <time>2013-06-05T11:51:04Z</time>
      </trkpt>
      <trkpt lat="48.85437" lon="6.13617">
        <ele>383</ele>
        <time>2013-06-05T11:51:08Z</time>
      </trkpt>
      <trkpt lat="48.85432" lon="6.13622">
        <ele>384</ele>
        <time>2013-06-05T11:51:14Z</time>
      </trkpt>
      <trkpt lat="48.85429" lon="6.13626">
        <ele>385</ele>
        <time>2013-06-05T11:51:18Z</time>
      </trkpt>
      <trkpt lat="48.85423" lon="6.1363">
        <ele>385</ele>
        <time>2013-06-05T11:51:24Z</time>
      </trkpt>
      <trkpt lat="48.85418" lon="6.13632">
        <ele>386</ele>
        <time>2013-06-05T11:51:27Z</time>
      </trkpt>
      <trkpt lat="48.85413" lon="6.13634">
        <ele>385</ele>
        <time>2013-06-05T11:51:31Z</time>
      </trkpt>
      <trkpt lat="48.85408" lon="6.13637">
        <ele>385</ele>
        <time>2013-06-05T11:51:37Z</time>
      </trkpt>
      <trkpt lat="48.85403" lon="6.13636">
        <ele>384</ele>
        <time>2013-06-05T11:51:42Z</time>
      </trkpt>
      <trkpt lat="48.85398" lon="6.13634">
        <ele>384</ele>
        <time>2013-06-05T11:51:45Z</time>
      </trkpt>
      <trkpt lat="48.85394" lon="6.13628">
        <ele>384</ele>
        <time>2013-06-05T11:51:49Z</time>
      </trkpt>
      <trkpt lat="48.85391" lon="6.13622">
        <ele>384</ele>
        <time>2013-06-05T11:51:53Z</time>
      </trkpt>
      <trkpt lat="48.85389" lon="6.13614">
        <ele>383</ele>
        <time>2013-06-05T11:51:58Z</time>
      </trkpt>
      <trkpt lat="48.85388" lon="6.13606">
        <ele>383</ele>
        <time>2013-06-05T11:52:04Z</time>
      </trkpt>
      <trkpt lat="48.85383" lon="6.13604">
        <ele>383</ele>
        <time>2013-06-05T11:52:35Z</time>
      </trkpt>
      <trkpt lat="48.85379" lon="6.13607">
        <ele>383</ele>
        <time>2013-06-05T11:52:45Z</time>
      </trkpt>
      <trkpt lat="48.8538" lon="6.13614">
        <ele>380</ele>
        <time>2013-06-05T11:54:06Z</time>
      </trkpt>
      <trkpt lat="48.8538" lon="6.13621">
        <ele>381</ele>
        <time>2013-06-05T11:54:25Z</time>
      </trkpt>
      <trkpt lat="48.85381" lon="6.13627">
        <ele>382</ele>
        <time>2013-06-05T11:54:32Z</time>
      </trkpt>
      <trkpt lat="48.85381" lon="6.13634">
        <ele>382</ele>
        <time>2013-06-05T11:54:37Z</time>
      </trkpt>
      <trkpt lat="48.85382" lon="6.13642">
        <ele>382</ele>
        <time>2013-06-05T11:54:41Z</time>
      </trkpt>
      <trkpt lat="48.8538" lon="6.13649">
        <ele>382</ele>
        <time>2013-06-05T11:54:45Z</time>
      </trkpt>
      <trkpt lat="48.85379" lon="6.13656">
        <ele>381</ele>
        <time>2013-06-05T11:54:51Z</time>
      </trkpt>
      <trkpt lat="48.85377" lon="6.13663">
        <ele>381</ele>
        <time>2013-06-05T11:54:56Z</time>
      </trkpt>
      <trkpt lat="48.85374" lon="6.13669">
        <ele>381</ele>
        <time>2013-06-05T11:55:00Z</time>
      </trkpt>
      <trkpt lat="48.85371" lon="6.13676">
        <ele>381</ele>
        <time>2013-06-05T11:55:04Z</time>
      </trkpt>
      <trkpt lat="48.8537" lon="6.13685">
        <ele>381</ele>
        <time>2013-06-05T11:55:08Z</time>
      </trkpt>
      <trkpt lat="48.85368" lon="6.13693">
        <ele>382</ele>
        <time>2013-06-05T11:55:13Z</time>
      </trkpt>
      <trkpt lat="48.85365" lon="6.137">
        <ele>382</ele>
        <time>2013-06-05T11:55:16Z</time>
      </trkpt>
      <trkpt lat="48.85363" lon="6.13705">
        <ele>382</ele>
        <time>2013-06-05T11:55:19Z</time>
      </trkpt>
      <trkpt lat="48.8536" lon="6.13712">
        <ele>381</ele>
        <time>2013-06-05T11:55:23Z</time>
      </trkpt>
      <trkpt lat="48.85358" lon="6.13718">
        <ele>381</ele>
        <time>2013-06-05T11:55:27Z</time>
      </trkpt>
      <trkpt lat="48.85356" lon="6.13725">
        <ele>380</ele>
        <time>2013-06-05T11:55:31Z</time>
      </trkpt>
      <trkpt lat="48.85354" lon="6.13732">
        <ele>380</ele>
        <time>2013-06-05T11:55:35Z</time>
      </trkpt>
      <trkpt lat="48.85351" lon="6.1374">
        <ele>379</ele>
        <time>2013-06-05T11:55:40Z</time>
      </trkpt>
      <trkpt lat="48.85349" lon="6.13747">
        <ele>379</ele>
        <time>2013-06-05T11:55:44Z</time>
      </trkpt>
      <trkpt lat="48.85346" lon="6.13753">
        <ele>378</ele>
        <time>2013-06-05T11:55:48Z</time>
      </trkpt>
      <trkpt lat="48.85344" lon="6.13759">
        <ele>377</ele>
        <time>2013-06-05T11:55:52Z</time>
      </trkpt>
      <trkpt lat="48.85342" lon="6.13766">
        <ele>377</ele>
        <time>2013-06-05T11:55:56Z</time>
      </trkpt>
      <trkpt lat="48.8534" lon="6.13774">
        <ele>377</ele>
        <time>2013-06-05T11:56:00Z</time>
      </trkpt>
      <trkpt lat="48.85337" lon="6.13781">
        <ele>376</ele>
        <time>2013-06-05T11:56:05Z</time>
      </trkpt>
      <trkpt lat="48.85335" lon="6.13788">
        <ele>376</ele>
        <time>2013-06-05T11:56:10Z</time>
      </trkpt>
      <trkpt lat="48.85335" lon="6.13795">
        <ele>376</ele>
        <time>2013-06-05T11:56:15Z</time>
      </trkpt>
      <trkpt lat="48.85333" lon="6.13803">
        <ele>375</ele>
        <time>2013-06-05T11:56:27Z</time>
      </trkpt>
      <trkpt lat="48.85332" lon="6.13811">
        <ele>374</ele>
        <time>2013-06-05T11:56:31Z</time>
      </trkpt>
      <trkpt lat="48.85331" lon="6.1382">
        <ele>372</ele>
        <time>2013-06-05T11:56:35Z</time>
      </trkpt>
      <trkpt lat="48.8533" lon="6.13827">
        <ele>370</ele>
        <time>2013-06-05T11:56:40Z</time>
      </trkpt>
      <trkpt lat="48.8533" lon="6.13834">
        <ele>370</ele>
        <time>2013-06-05T11:56:44Z</time>
      </trkpt>
      <trkpt lat="48.85329" lon="6.13842">
        <ele>369</ele>
        <time>2013-06-05T11:56:49Z</time>
      </trkpt>
      <trkpt lat="48.85326" lon="6.13848">
        <ele>368</ele>
        <time>2013-06-05T11:56:55Z</time>
      </trkpt>
      <trkpt lat="48.85324" lon="6.13855">
        <ele>367</ele>
        <time>2013-06-05T11:56:59Z</time>
      </trkpt>
      <trkpt lat="48.85323" lon="6.13863">
        <ele>367</ele>
        <time>2013-06-05T11:57:04Z</time>
      </trkpt>
      <trkpt lat="48.85321" lon="6.13873">
        <ele>365</ele>
        <time>2013-06-05T11:57:11Z</time>
      </trkpt>
      <trkpt lat="48.85321" lon="6.13881">
        <ele>364</ele>
        <time>2013-06-05T11:57:15Z</time>
      </trkpt>
      <trkpt lat="48.8532" lon="6.13889">
        <ele>363</ele>
        <time>2013-06-05T11:57:19Z</time>
      </trkpt>
      <trkpt lat="48.8532" lon="6.13896">
        <ele>362</ele>
        <time>2013-06-05T11:57:23Z</time>
      </trkpt>
      <trkpt lat="48.85318" lon="6.13904">
        <ele>361</ele>
        <time>2013-06-05T11:57:27Z</time>
      </trkpt>
      <trkpt lat="48.85317" lon="6.13911">
        <ele>361</ele>
        <time>2013-06-05T11:57:32Z</time>
      </trkpt>
      <trkpt lat="48.85316" lon="6.13919">
        <ele>359</ele>
        <time>2013-06-05T11:57:36Z</time>
      </trkpt>
      <trkpt lat="48.85314" lon="6.13926">
        <ele>359</ele>
        <time>2013-06-05T11:57:40Z</time>
      </trkpt>
      <trkpt lat="48.85313" lon="6.13934">
        <ele>358</ele>
        <time>2013-06-05T11:57:45Z</time>
      </trkpt>
      <trkpt lat="48.85313" lon="6.13941">
        <ele>357</ele>
        <time>2013-06-05T11:57:49Z</time>
      </trkpt>
      <trkpt lat="48.85312" lon="6.13949">
        <ele>357</ele>
        <time>2013-06-05T11:57:53Z</time>
      </trkpt>
      <trkpt lat="48.85311" lon="6.13957">
        <ele>356</ele>
        <time>2013-06-05T11:57:59Z</time>
      </trkpt>
      <trkpt lat="48.8531" lon="6.13965">
        <ele>356</ele>
        <time>2013-06-05T11:58:03Z</time>
      </trkpt>
      <trkpt lat="48.85309" lon="6.13971">
        <ele>356</ele>
        <time>2013-06-05T11:58:07Z</time>
      </trkpt>
      <trkpt lat="48.85308" lon="6.1398">
        <ele>355</ele>
        <time>2013-06-05T11:58:11Z</time>
      </trkpt>
      <trkpt lat="48.85307" lon="6.13988">
        <ele>355</ele>
        <time>2013-06-05T11:58:16Z</time>
      </trkpt>
      <trkpt lat="48.85306" lon="6.13995">
        <ele>353</ele>
        <time>2013-06-05T11:58:20Z</time>
      </trkpt>
      <trkpt lat="48.85303" lon="6.14">
        <ele>353</ele>
        <time>2013-06-05T11:58:23Z</time>
      </trkpt>
      <trkpt lat="48.85302" lon="6.14007">
        <ele>351</ele>
        <time>2013-06-05T11:58:28Z</time>
      </trkpt>
      <trkpt lat="48.85307" lon="6.14011">
        <ele>351</ele>
        <time>2013-06-05T11:58:32Z</time>
      </trkpt>
      <trkpt lat="48.85313" lon="6.14011">
        <ele>351</ele>
        <time>2013-06-05T11:58:36Z</time>
      </trkpt>
      <trkpt lat="48.85318" lon="6.14011">
        <ele>351</ele>
        <time>2013-06-05T11:58:40Z</time>
      </trkpt>
      <trkpt lat="48.85323" lon="6.14014">
        <ele>351</ele>
        <time>2013-06-05T11:58:44Z</time>
      </trkpt>
      <trkpt lat="48.85328" lon="6.14015">
        <ele>351</ele>
        <time>2013-06-05T11:58:49Z</time>
      </trkpt>
      <trkpt lat="48.85333" lon="6.14016">
        <ele>351</ele>
        <time>2013-06-05T11:58:54Z</time>
      </trkpt>
      <trkpt lat="48.85338" lon="6.14017">
        <ele>351</ele>
        <time>2013-06-05T11:58:58Z</time>
      </trkpt>
      <trkpt lat="48.85342" lon="6.14018">
        <ele>350</ele>
        <time>2013-06-05T11:59:03Z</time>
      </trkpt>
      <trkpt lat="48.85348" lon="6.14019">
        <ele>349</ele>
        <time>2013-06-05T11:59:08Z</time>
      </trkpt>
      <trkpt lat="48.85353" lon="6.14021">
        <ele>348</ele>
        <time>2013-06-05T11:59:12Z</time>
      </trkpt>
      <trkpt lat="48.85359" lon="6.14023">
        <ele>347</ele>
        <time>2013-06-05T11:59:16Z</time>
      </trkpt>
      <trkpt lat="48.85363" lon="6.14025">
        <ele>346</ele>
        <time>2013-06-05T11:59:20Z</time>
      </trkpt>
      <trkpt lat="48.85368" lon="6.14026">
        <ele>346</ele>
        <time>2013-06-05T11:59:24Z</time>
      </trkpt>
      <trkpt lat="48.85373" lon="6.14029">
        <ele>345</ele>
        <time>2013-06-05T11:59:28Z</time>
      </trkpt>
      <trkpt lat="48.85378" lon="6.14031">
        <ele>343</ele>
        <time>2013-06-05T11:59:32Z</time>
      </trkpt>
      <trkpt lat="48.85383" lon="6.14032">
        <ele>342</ele>
        <time>2013-06-05T11:59:37Z</time>
      </trkpt>
      <trkpt lat="48.85389" lon="6.14034">
        <ele>341</ele>
        <time>2013-06-05T11:59:42Z</time>
      </trkpt>
      <trkpt lat="48.85394" lon="6.14035">
        <ele>340</ele>
        <time>2013-06-05T11:59:46Z</time>
      </trkpt>
      <trkpt lat="48.854" lon="6.14037">
        <ele>339</ele>
        <time>2013-06-05T11:59:50Z</time>
      </trkpt>
      <trkpt lat="48.85404" lon="6.14039">
        <ele>338</ele>
        <time>2013-06-05T11:59:54Z</time>
      </trkpt>
      <trkpt lat="48.85409" lon="6.1404">
        <ele>337</ele>
        <time>2013-06-05T11:59:59Z</time>
      </trkpt>
      <trkpt lat="48.85415" lon="6.14041">
        <ele>337</ele>
        <time>2013-06-05T12:00:05Z</time>
      </trkpt>
      <trkpt lat="48.8542" lon="6.14042">
        <ele>336</ele>
        <time>2013-06-05T12:00:10Z</time>
      </trkpt>
      <trkpt lat="48.85425" lon="6.14044">
        <ele>335</ele>
        <time>2013-06-05T12:00:14Z</time>
      </trkpt>
      <trkpt lat="48.8543" lon="6.14047">
        <ele>335</ele>
        <time>2013-06-05T12:00:18Z</time>
      </trkpt>
      <trkpt lat="48.85435" lon="6.1405">
        <ele>333</ele>
        <time>2013-06-05T12:00:23Z</time>
      </trkpt>
      <trkpt lat="48.85439" lon="6.14054">
        <ele>332</ele>
        <time>2013-06-05T12:00:28Z</time>
      </trkpt>
      <trkpt lat="48.85444" lon="6.14058">
        <ele>330</ele>
        <time>2013-06-05T12:00:33Z</time>
      </trkpt>
      <trkpt lat="48.85448" lon="6.14063">
        <ele>329</ele>
        <time>2013-06-05T12:00:37Z</time>
      </trkpt>
      <trkpt lat="48.85452" lon="6.14068">
        <ele>329</ele>
        <time>2013-06-05T12:00:42Z</time>
      </trkpt>
      <trkpt lat="48.85457" lon="6.14072">
        <ele>327</ele>
        <time>2013-06-05T12:00:46Z</time>
      </trkpt>
      <trkpt lat="48.85462" lon="6.1408">
        <ele>326</ele>
        <time>2013-06-05T12:01:02Z</time>
      </trkpt>
      <trkpt lat="48.85466" lon="6.14084">
        <ele>325</ele>
        <time>2013-06-05T12:01:06Z</time>
      </trkpt>
      <trkpt lat="48.8547" lon="6.14088">
        <ele>324</ele>
        <time>2013-06-05T12:01:09Z</time>
      </trkpt>
      <trkpt lat="48.85473" lon="6.14092">
        <ele>324</ele>
        <time>2013-06-05T12:01:13Z</time>
      </trkpt>
      <trkpt lat="48.85477" lon="6.14097">
        <ele>323</ele>
        <time>2013-06-05T12:01:17Z</time>
      </trkpt>
      <trkpt lat="48.85481" lon="6.14101">
        <ele>324</ele>
        <time>2013-06-05T12:01:24Z</time>
      </trkpt>
      <trkpt lat="48.85484" lon="6.14106">
        <ele>323</ele>
        <time>2013-06-05T12:01:28Z</time>
      </trkpt>
      <trkpt lat="48.85488" lon="6.14111">
        <ele>322</ele>
        <time>2013-06-05T12:01:32Z</time>
      </trkpt>
      <trkpt lat="48.85492" lon="6.14116">
        <ele>321</ele>
        <time>2013-06-05T12:01:36Z</time>
      </trkpt>
      <trkpt lat="48.85496" lon="6.1412">
        <ele>320</ele>
        <time>2013-06-05T12:01:40Z</time>
      </trkpt>
      <trkpt lat="48.855" lon="6.14124">
        <ele>320</ele>
        <time>2013-06-05T12:01:44Z</time>
      </trkpt>
      <trkpt lat="48.85504" lon="6.1413">
        <ele>320</ele>
        <time>2013-06-05T12:01:48Z</time>
      </trkpt>
      <trkpt lat="48.85508" lon="6.14134">
        <ele>319</ele>
        <time>2013-06-05T12:01:53Z</time>
      </trkpt>
      <trkpt lat="48.85512" lon="6.14139">
        <ele>317</ele>
        <time>2013-06-05T12:01:58Z</time>
      </trkpt>
      <trkpt lat="48.85515" lon="6.14143">
        <ele>317</ele>
        <time>2013-06-05T12:02:01Z</time>
      </trkpt>
      <trkpt lat="48.85519" lon="6.1415">
        <ele>317</ele>
        <time>2013-06-05T12:02:05Z</time>
      </trkpt>
      <trkpt lat="48.85522" lon="6.14156">
        <ele>315</ele>
        <time>2013-06-05T12:02:09Z</time>
      </trkpt>
      <trkpt lat="48.85525" lon="6.14162">
        <ele>314</ele>
        <time>2013-06-05T12:02:13Z</time>
      </trkpt>
      <trkpt lat="48.85528" lon="6.14168">
        <ele>313</ele>
        <time>2013-06-05T12:02:18Z</time>
      </trkpt>
      <trkpt lat="48.85531" lon="6.14174">
        <ele>312</ele>
        <time>2013-06-05T12:02:23Z</time>
      </trkpt>
      <trkpt lat="48.85534" lon="6.14179">
        <ele>312</ele>
        <time>2013-06-05T12:02:28Z</time>
      </trkpt>
      <trkpt lat="48.85537" lon="6.14186">
        <ele>311</ele>
        <time>2013-06-05T12:02:33Z</time>
      </trkpt>
      <trkpt lat="48.85541" lon="6.14192">
        <ele>310</ele>
        <time>2013-06-05T12:02:38Z</time>
      </trkpt>
      <trkpt lat="48.85544" lon="6.14198">
        <ele>310</ele>
        <time>2013-06-05T12:02:42Z</time>
      </trkpt>
      <trkpt lat="48.85547" lon="6.14203">
        <ele>310</ele>
        <time>2013-06-05T12:02:46Z</time>
      </trkpt>
      <trkpt lat="48.8555" lon="6.14209">
        <ele>309</ele>
        <time>2013-06-05T12:02:51Z</time>
      </trkpt>
      <trkpt lat="48.85553" lon="6.14215">
        <ele>308</ele>
        <time>2013-06-05T12:02:55Z</time>
      </trkpt>
      <trkpt lat="48.85557" lon="6.14222">
        <ele>308</ele>
        <time>2013-06-05T12:03:00Z</time>
      </trkpt>
      <trkpt lat="48.8556" lon="6.14228">
        <ele>307</ele>
        <time>2013-06-05T12:03:04Z</time>
      </trkpt>
      <trkpt lat="48.85563" lon="6.14234">
        <ele>306</ele>
        <time>2013-06-05T12:03:08Z</time>
      </trkpt>
      <trkpt lat="48.85567" lon="6.14242">
        <ele>305</ele>
        <time>2013-06-05T12:03:14Z</time>
      </trkpt>
      <trkpt lat="48.85569" lon="6.14247">
        <ele>305</ele>
        <time>2013-06-05T12:03:18Z</time>
      </trkpt>
      <trkpt lat="48.85572" lon="6.14253">
        <ele>304</ele>
        <time>2013-06-05T12:03:22Z</time>
      </trkpt>
      <trkpt lat="48.85575" lon="6.1426">
        <ele>303</ele>
        <time>2013-06-05T12:03:26Z</time>
      </trkpt>
      <trkpt lat="48.85578" lon="6.14267">
        <ele>302</ele>
        <time>2013-06-05T12:03:30Z</time>
      </trkpt>
      <trkpt lat="48.85581" lon="6.14272">
        <ele>301</ele>
        <time>2013-06-05T12:03:34Z</time>
      </trkpt>
      <trkpt lat="48.85584" lon="6.14278">
        <ele>301</ele>
        <time>2013-06-05T12:03:37Z</time>
      </trkpt>
      <trkpt lat="48.85588" lon="6.14284">
        <ele>303</ele>
        <time>2013-06-05T12:03:45Z</time>
      </trkpt>
      <trkpt lat="48.85592" lon="6.14289">
        <ele>302</ele>
        <time>2013-06-05T12:03:49Z</time>
      </trkpt>
      <trkpt lat="48.85595" lon="6.14295">
        <ele>301</ele>
        <time>2013-06-05T12:03:53Z</time>
      </trkpt>
      <trkpt lat="48.85598" lon="6.14302">
        <ele>300</ele>
        <time>2013-06-05T12:03:57Z</time>
      </trkpt>
      <trkpt lat="48.856" lon="6.14308">
        <ele>299</ele>
        <time>2013-06-05T12:04:03Z</time>
      </trkpt>
      <trkpt lat="48.85603" lon="6.14313">
        <ele>299</ele>
        <time>2013-06-05T12:04:07Z</time>
      </trkpt>
      <trkpt lat="48.85606" lon="6.1432">
        <ele>298</ele>
        <time>2013-06-05T12:04:11Z</time>
      </trkpt>
      <trkpt lat="48.85609" lon="6.14326">
        <ele>298</ele>
        <time>2013-06-05T12:04:15Z</time>
      </trkpt>
      <trkpt lat="48.85613" lon="6.14331">
        <ele>298</ele>
        <time>2013-06-05T12:04:19Z</time>
      </trkpt>
      <trkpt lat="48.85615" lon="6.14337">
        <ele>298</ele>
        <time>2013-06-05T12:04:24Z</time>
      </trkpt>
      <trkpt lat="48.85618" lon="6.14344">
        <ele>297</ele>
        <time>2013-06-05T12:04:28Z</time>
      </trkpt>
      <trkpt lat="48.85621" lon="6.1435">
        <ele>296</ele>
        <time>2013-06-05T12:04:32Z</time>
      </trkpt>
      <trkpt lat="48.85623" lon="6.14358">
        <ele>295</ele>
        <time>2013-06-05T12:04:37Z</time>
      </trkpt>
      <trkpt lat="48.85626" lon="6.14364">
        <ele>294</ele>
        <time>2013-06-05T12:04:41Z</time>
      </trkpt>
      <trkpt lat="48.85628" lon="6.14371">
        <ele>293</ele>
        <time>2013-06-05T12:04:44Z</time>
      </trkpt>
      <trkpt lat="48.85631" lon="6.14378">
        <ele>292</ele>
        <time>2013-06-05T12:04:48Z</time>
      </trkpt>
      <trkpt lat="48.85634" lon="6.14384">
        <ele>291</ele>
        <time>2013-06-05T12:04:51Z</time>
      </trkpt>
      <trkpt lat="48.85637" lon="6.14391">
        <ele>291</ele>
        <time>2013-06-05T12:04:56Z</time>
      </trkpt>
      <trkpt lat="48.85641" lon="6.14398">
        <ele>290</ele>
        <time>2013-06-05T12:05:01Z</time>
      </trkpt>
      <trkpt lat="48.85644" lon="6.14405">
        <ele>289</ele>
        <time>2013-06-05T12:05:05Z</time>
      </trkpt>
      <trkpt lat="48.85647" lon="6.14411">
        <ele>288</ele>
        <time>2013-06-05T12:05:10Z</time>
      </trkpt>
      <trkpt lat="48.85649" lon="6.14419">
        <ele>288</ele>
        <time>2013-06-05T12:05:18Z</time>
      </trkpt>
      <trkpt lat="48.85651" lon="6.14427">
        <ele>287</ele>
        <time>2013-06-05T12:05:22Z</time>
      </trkpt>
      <trkpt lat="48.85654" lon="6.14433">
        <ele>286</ele>
        <time>2013-06-05T12:05:26Z</time>
      </trkpt>
      <trkpt lat="48.85656" lon="6.1444">
        <ele>284</ele>
        <time>2013-06-05T12:05:30Z</time>
      </trkpt>
      <trkpt lat="48.85655" lon="6.14447">
        <ele>282</ele>
        <time>2013-06-05T12:05:37Z</time>
      </trkpt>
      <trkpt lat="48.85657" lon="6.14453">
        <ele>282</ele>
        <time>2013-06-05T12:05:42Z</time>
      </trkpt>
      <trkpt lat="48.85661" lon="6.14459">
        <ele>281</ele>
        <time>2013-06-05T12:05:46Z</time>
      </trkpt>
      <trkpt lat="48.85665" lon="6.14465">
        <ele>281</ele>
        <time>2013-06-05T12:05:50Z</time>
      </trkpt>
      <trkpt lat="48.85669" lon="6.1447">
        <ele>281</ele>
        <time>2013-06-05T12:05:56Z</time>
      </trkpt>
      <trkpt lat="48.85674" lon="6.14475">
        <ele>280</ele>
        <time>2013-06-05T12:06:00Z</time>
      </trkpt>
      <trkpt lat="48.85678" lon="6.14479">
        <ele>280</ele>
        <time>2013-06-05T12:06:03Z</time>
      </trkpt>
      <trkpt lat="48.85682" lon="6.14485">
        <ele>279</ele>
        <time>2013-06-05T12:06:08Z</time>
      </trkpt>
      <trkpt lat="48.85685" lon="6.14489">
        <ele>278</ele>
        <time>2013-06-05T12:06:12Z</time>
      </trkpt>
      <trkpt lat="48.85689" lon="6.14494">
        <ele>278</ele>
        <time>2013-06-05T12:06:16Z</time>
      </trkpt>
      <trkpt lat="48.85694" lon="6.14498">
        <ele>279</ele>
        <time>2013-06-05T12:06:20Z</time>
      </trkpt>
      <trkpt lat="48.85697" lon="6.14503">
        <ele>278</ele>
        <time>2013-06-05T12:06:24Z</time>
      </trkpt>
      <trkpt lat="48.85701" lon="6.14509">
        <ele>277</ele>
        <time>2013-06-05T12:06:28Z</time>
      </trkpt>
      <trkpt lat="48.85705" lon="6.14516">
        <ele>276</ele>
        <time>2013-06-05T12:06:32Z</time>
      </trkpt>
      <trkpt lat="48.85709" lon="6.14521">
        <ele>275</ele>
        <time>2013-06-05T12:06:37Z</time>
      </trkpt>
      <trkpt lat="48.85712" lon="6.14526">
        <ele>276</ele>
        <time>2013-06-05T12:06:40Z</time>
      </trkpt>
      <trkpt lat="48.85716" lon="6.14531">
        <ele>276</ele>
        <time>2013-06-05T12:06:44Z</time>
      </trkpt>
      <trkpt lat="48.85721" lon="6.14534">
        <ele>276</ele>
        <time>2013-06-05T12:06:48Z</time>
      </trkpt>
      <trkpt lat="48.85725" lon="6.14538">
        <ele>274</ele>
        <time>2013-06-05T12:06:53Z</time>
      </trkpt>
      <trkpt lat="48.85729" lon="6.14542">
        <ele>274</ele>
        <time>2013-06-05T12:06:57Z</time>
      </trkpt>
      <trkpt lat="48.85734" lon="6.14545">
        <ele>273</ele>
        <time>2013-06-05T12:07:01Z</time>
      </trkpt>
      <trkpt lat="48.85738" lon="6.14551">
        <ele>272</ele>
        <time>2013-06-05T12:07:06Z</time>
      </trkpt>
      <trkpt lat="48.85741" lon="6.14557">
        <ele>272</ele>
        <time>2013-06-05T12:07:11Z</time>
      </trkpt>
      <trkpt lat="48.85744" lon="6.14562">
        <ele>271</ele>
        <time>2013-06-05T12:07:15Z</time>
      </trkpt>
      <trkpt lat="48.85748" lon="6.14568">
        <ele>270</ele>
        <time>2013-06-05T12:07:19Z</time>
      </trkpt>
      <trkpt lat="48.8575" lon="6.14574">
        <ele>269</ele>
        <time>2013-06-05T12:07:25Z</time>
      </trkpt>
      <trkpt lat="48.85753" lon="6.14581">
        <ele>269</ele>
        <time>2013-06-05T12:07:29Z</time>
      </trkpt>
      <trkpt lat="48.85756" lon="6.14587">
        <ele>269</ele>
        <time>2013-06-05T12:07:32Z</time>
      </trkpt>
      <trkpt lat="48.85758" lon="6.14594">
        <ele>268</ele>
        <time>2013-06-05T12:07:36Z</time>
      </trkpt>
      <trkpt lat="48.8576" lon="6.14601">
        <ele>268</ele>
        <time>2013-06-05T12:07:39Z</time>
      </trkpt>
      <trkpt lat="48.85761" lon="6.14609">
        <ele>268</ele>
        <time>2013-06-05T12:07:43Z</time>
      </trkpt>
      <trkpt lat="48.85761" lon="6.14617">
        <ele>268</ele>
        <time>2013-06-05T12:07:47Z</time>
      </trkpt>
      <trkpt lat="48.85761" lon="6.14626">
        <ele>267</ele>
        <time>2013-06-05T12:07:51Z</time>
      </trkpt>
      <trkpt lat="48.85761" lon="6.14634">
        <ele>267</ele>
        <time>2013-06-05T12:07:55Z</time>
      </trkpt>
      <trkpt lat="48.8576" lon="6.14642">
        <ele>266</ele>
        <time>2013-06-05T12:08:01Z</time>
      </trkpt>
      <trkpt lat="48.8576" lon="6.14649">
        <ele>266</ele>
        <time>2013-06-05T12:08:04Z</time>
      </trkpt>
      <trkpt lat="48.8576" lon="6.14657">
        <ele>265</ele>
        <time>2013-06-05T12:08:08Z</time>
      </trkpt>
      <trkpt lat="48.85759" lon="6.14665">
        <ele>264</ele>
        <time>2013-06-05T12:08:12Z</time>
      </trkpt>
      <trkpt lat="48.85758" lon="6.14672">
        <ele>264</ele>
        <time>2013-06-05T12:08:16Z</time>
      </trkpt>
      <trkpt lat="48.85758" lon="6.1468">
        <ele>263</ele>
        <time>2013-06-05T12:08:20Z</time>
      </trkpt>
      <trkpt lat="48.85757" lon="6.14688">
        <ele>263</ele>
        <time>2013-06-05T12:08:24Z</time>
      </trkpt>
      <trkpt lat="48.85756" lon="6.14698">
        <ele>263</ele>
        <time>2013-06-05T12:08:28Z</time>
      </trkpt>
      <trkpt lat="48.85755" lon="6.14706">
        <ele>264</ele>
        <time>2013-06-05T12:08:33Z</time>
      </trkpt>
      <trkpt lat="48.85755" lon="6.14714">
        <ele>264</ele>
        <time>2013-06-05T12:08:38Z</time>
      </trkpt>
      <trkpt lat="48.85757" lon="6.14722">
        <ele>263</ele>
        <time>2013-06-05T12:08:44Z</time>
      </trkpt>
      <trkpt lat="48.85758" lon="6.14729">
        <ele>263</ele>
        <time>2013-06-05T12:08:48Z</time>
      </trkpt>
      <trkpt lat="48.85762" lon="6.14737">
        <ele>263</ele>
        <time>2013-06-05T12:08:52Z</time>
      </trkpt>
      <trkpt lat="48.85764" lon="6.14744">
        <ele>262</ele>
        <time>2013-06-05T12:08:57Z</time>
      </trkpt>
      <trkpt lat="48.85767" lon="6.14751">
        <ele>261</ele>
        <time>2013-06-05T12:09:01Z</time>
      </trkpt>
      <trkpt lat="48.85769" lon="6.14759">
        <ele>261</ele>
        <time>2013-06-05T12:09:05Z</time>
      </trkpt>
      <trkpt lat="48.85771" lon="6.14765">
        <ele>260</ele>
        <time>2013-06-05T12:09:09Z</time>
      </trkpt>
      <trkpt lat="48.85773" lon="6.14773">
        <ele>259</ele>
        <time>2013-06-05T12:09:14Z</time>
      </trkpt>
      <trkpt lat="48.85775" lon="6.14779">
        <ele>259</ele>
        <time>2013-06-05T12:09:17Z</time>
      </trkpt>
      <trkpt lat="48.85778" lon="6.14785">
        <ele>258</ele>
        <time>2013-06-05T12:09:21Z</time>
      </trkpt>
      <trkpt lat="48.85781" lon="6.14794">
        <ele>257</ele>
        <time>2013-06-05T12:09:25Z</time>
      </trkpt>
      <trkpt lat="48.85783" lon="6.14801">
        <ele>257</ele>
        <time>2013-06-05T12:09:30Z</time>
      </trkpt>
      <trkpt lat="48.85785" lon="6.14809">
        <ele>256</ele>
        <time>2013-06-05T12:09:35Z</time>
      </trkpt>
      <trkpt lat="48.85787" lon="6.14815">
        <ele>256</ele>
        <time>2013-06-05T12:09:38Z</time>
      </trkpt>
      <trkpt lat="48.85789" lon="6.14822">
        <ele>256</ele>
        <time>2013-06-05T12:09:43Z</time>
      </trkpt>
      <trkpt lat="48.85791" lon="6.14829">
        <ele>256</ele>
        <time>2013-06-05T12:09:47Z</time>
      </trkpt>
      <trkpt lat="48.85793" lon="6.14837">
        <ele>256</ele>
        <time>2013-06-05T12:09:51Z</time>
      </trkpt>
      <trkpt lat="48.85795" lon="6.14844">
        <ele>256</ele>
        <time>2013-06-05T12:09:55Z</time>
      </trkpt>
      <trkpt lat="48.85797" lon="6.14852">
        <ele>255</ele>
        <time>2013-06-05T12:09:58Z</time>
      </trkpt>
      <trkpt lat="48.858" lon="6.14859">
        <ele>255</ele>
        <time>2013-06-05T12:10:02Z</time>
      </trkpt>
      <trkpt lat="48.85802" lon="6.14867">
        <ele>254</ele>
        <time>2013-06-05T12:10:07Z</time>
      </trkpt>
      <trkpt lat="48.85804" lon="6.14874">
        <ele>253</ele>
        <time>2013-06-05T12:10:11Z</time>
      </trkpt>
      <trkpt lat="48.85805" lon="6.14882">
        <ele>253</ele>
        <time>2013-06-05T12:10:15Z</time>
      </trkpt>
      <trkpt lat="48.85807" lon="6.14889">
        <ele>253</ele>
        <time>2013-06-05T12:10:19Z</time>
      </trkpt>
      <trkpt lat="48.85808" lon="6.14897">
        <ele>252</ele>
        <time>2013-06-05T12:10:24Z</time>
      </trkpt>
      <trkpt lat="48.8581" lon="6.14905">
        <ele>252</ele>
        <time>2013-06-05T12:10:28Z</time>
      </trkpt>
      <trkpt lat="48.85811" lon="6.14913">
        <ele>252</ele>
        <time>2013-06-05T12:10:32Z</time>
      </trkpt>
      <trkpt lat="48.85813" lon="6.14922">
        <ele>252</ele>
        <time>2013-06-05T12:10:37Z</time>
      </trkpt>
      <trkpt lat="48.85815" lon="6.1493">
        <ele>252</ele>
        <time>2013-06-05T12:10:41Z</time>
      </trkpt>
      <trkpt lat="48.85817" lon="6.14938">
        <ele>251</ele>
        <time>2013-06-05T12:10:45Z</time>
      </trkpt>
      <trkpt lat="48.85818" lon="6.14945">
        <ele>251</ele>
        <time>2013-06-05T12:10:48Z</time>
      </trkpt>
      <trkpt lat="48.8582" lon="6.14953">
        <ele>251</ele>
        <time>2013-06-05T12:10:52Z</time>
      </trkpt>
      <trkpt lat="48.85821" lon="6.14961">
        <ele>250</ele>
        <time>2013-06-05T12:10:56Z</time>
      </trkpt>
      <trkpt lat="48.85823" lon="6.1497">
        <ele>249</ele>
        <time>2013-06-05T12:11:00Z</time>
      </trkpt>
      <trkpt lat="48.85825" lon="6.14979">
        <ele>248</ele>
        <time>2013-06-05T12:11:04Z</time>
      </trkpt>
      <trkpt lat="48.85827" lon="6.14988">
        <ele>248</ele>
        <time>2013-06-05T12:11:09Z</time>
      </trkpt>
      <trkpt lat="48.85829" lon="6.14996">
        <ele>248</ele>
        <time>2013-06-05T12:11:13Z</time>
      </trkpt>
      <trkpt lat="48.85832" lon="6.15001">
        <ele>248</ele>
        <time>2013-06-05T12:11:16Z</time>
      </trkpt>
      <trkpt lat="48.85834" lon="6.15009">
        <ele>247</ele>
        <time>2013-06-05T12:11:20Z</time>
      </trkpt>
      <trkpt lat="48.85837" lon="6.15016">
        <ele>246</ele>
        <time>2013-06-05T12:11:23Z</time>
      </trkpt>
      <trkpt lat="48.85841" lon="6.15023">
        <ele>246</ele>
        <time>2013-06-05T12:11:27Z</time>
      </trkpt>
      <trkpt lat="48.85844" lon="6.15029">
        <ele>246</ele>
        <time>2013-06-05T12:11:31Z</time>
      </trkpt>
      <trkpt lat="48.85847" lon="6.15035">
        <ele>246</ele>
        <time>2013-06-05T12:11:35Z</time>
      </trkpt>
      <trkpt lat="48.8585" lon="6.1504">
        <ele>246</ele>
        <time>2013-06-05T12:11:39Z</time>
      </trkpt>
      <trkpt lat="48.85853" lon="6.15046">
        <ele>246</ele>
        <time>2013-06-05T12:11:42Z</time>
      </trkpt>
      <trkpt lat="48.85858" lon="6.15052">
        <ele>247</ele>
        <time>2013-06-05T12:11:46Z</time>
      </trkpt>
      <trkpt lat="48.85862" lon="6.15057">
        <ele>247</ele>
        <time>2013-06-05T12:11:51Z</time>
      </trkpt>
      <trkpt lat="48.85865" lon="6.15062">
        <ele>248</ele>
        <time>2013-06-05T12:11:55Z</time>
      </trkpt>
      <trkpt lat="48.85869" lon="6.15068">
        <ele>248</ele>
        <time>2013-06-05T12:11:59Z</time>
      </trkpt>
      <trkpt lat="48.85873" lon="6.15074">
        <ele>248</ele>
        <time>2013-06-05T12:12:02Z</time>
      </trkpt>
      <trkpt lat="48.85876" lon="6.1508">
        <ele>249</ele>
        <time>2013-06-05T12:12:06Z</time>
      </trkpt>
      <trkpt lat="48.8588" lon="6.15087">
        <ele>249</ele>
        <time>2013-06-05T12:12:10Z</time>
      </trkpt>
      <trkpt lat="48.85884" lon="6.15092">
        <ele>249</ele>
        <time>2013-06-05T12:12:14Z</time>
      </trkpt>
      <trkpt lat="48.85888" lon="6.15099">
        <ele>249</ele>
        <time>2013-06-05T12:12:18Z</time>
      </trkpt>
      <trkpt lat="48.85892" lon="6.15105">
        <ele>249</ele>
        <time>2013-06-05T12:12:22Z</time>
      </trkpt>
      <trkpt lat="48.85895" lon="6.1511">
        <ele>249</ele>
        <time>2013-06-05T12:12:25Z</time>
      </trkpt>
      <trkpt lat="48.85899" lon="6.15114">
        <ele>249</ele>
        <time>2013-06-05T12:12:29Z</time>
      </trkpt>
      <trkpt lat="48.85902" lon="6.15119">
        <ele>249</ele>
        <time>2013-06-05T12:12:33Z</time>
      </trkpt>
      <trkpt lat="48.85907" lon="6.15125">
        <ele>248</ele>
        <time>2013-06-05T12:12:37Z</time>
      </trkpt>
      <trkpt lat="48.85912" lon="6.15131">
        <ele>248</ele>
        <time>2013-06-05T12:12:41Z</time>
      </trkpt>
      <trkpt lat="48.85916" lon="6.15136">
        <ele>247</ele>
        <time>2013-06-05T12:12:45Z</time>
      </trkpt>
      <trkpt lat="48.8592" lon="6.1514">
        <ele>247</ele>
        <time>2013-06-05T12:12:48Z</time>
      </trkpt>
      <trkpt lat="48.85924" lon="6.15144">
        <ele>246</ele>
        <time>2013-06-05T12:12:51Z</time>
      </trkpt>
      <trkpt lat="48.85928" lon="6.15149">
        <ele>245</ele>
        <time>2013-06-05T12:12:55Z</time>
      </trkpt>
      <trkpt lat="48.85931" lon="6.15155">
        <ele>245</ele>
        <time>2013-06-05T12:12:59Z</time>
      </trkpt>
      <trkpt lat="48.85935" lon="6.1516">
        <ele>244</ele>
        <time>2013-06-05T12:13:02Z</time>
      </trkpt>
      <trkpt lat="48.85938" lon="6.15164">
        <ele>244</ele>
        <time>2013-06-05T12:13:05Z</time>
      </trkpt>
      <trkpt lat="48.85942" lon="6.15168">
        <ele>244</ele>
        <time>2013-06-05T12:13:08Z</time>
      </trkpt>
      <trkpt lat="48.85949" lon="6.15169">
        <ele>244</ele>
        <time>2013-06-05T12:13:13Z</time>
      </trkpt>
      <trkpt lat="48.85954" lon="6.15167">
        <ele>244</ele>
        <time>2013-06-05T12:13:18Z</time>
      </trkpt>
      <trkpt lat="48.85959" lon="6.15166">
        <ele>244</ele>
        <time>2013-06-05T12:13:25Z</time>
      </trkpt>
      <trkpt lat="48.85964" lon="6.15166">
        <ele>245</ele>
        <time>2013-06-05T12:13:30Z</time>
      </trkpt>
      <trkpt lat="48.85969" lon="6.15165">
        <ele>247</ele>
        <time>2013-06-05T12:13:35Z</time>
      </trkpt>
      <trkpt lat="48.85975" lon="6.15163">
        <ele>248</ele>
        <time>2013-06-05T12:13:41Z</time>
      </trkpt>
      <trkpt lat="48.85982" lon="6.15165">
        <ele>251</ele>
        <time>2013-06-05T12:14:19Z</time>
      </trkpt>
      <trkpt lat="48.85982" lon="6.15169">
        <ele>250</ele>
        <time>2013-06-05T12:15:11Z</time>
      </trkpt>
      <trkpt lat="48.85983" lon="6.15176">
        <ele>247</ele>
        <time>2013-06-05T12:15:46Z</time>
      </trkpt>
      <trkpt lat="48.85987" lon="6.15187">
        <ele>248</ele>
        <time>2013-06-05T12:15:55Z</time>
      </trkpt>
      <trkpt lat="48.85989" lon="6.15193">
        <ele>248</ele>
        <time>2013-06-05T12:16:00Z</time>
      </trkpt>
      <trkpt lat="48.8599" lon="6.15201">
        <ele>247</ele>
        <time>2013-06-05T12:16:07Z</time>
      </trkpt>
      <trkpt lat="48.85995" lon="6.15214">
        <ele>247</ele>
        <time>2013-06-05T12:16:14Z</time>
      </trkpt>
      <trkpt lat="48.85998" lon="6.15221">
        <ele>247</ele>
        <time>2013-06-05T12:16:20Z</time>
      </trkpt>
      <trkpt lat="48.86002" lon="6.15227">
        <ele>246</ele>
        <time>2013-06-05T12:16:23Z</time>
      </trkpt>
      <trkpt lat="48.86006" lon="6.15232">
        <ele>246</ele>
        <time>2013-06-05T12:16:26Z</time>
      </trkpt>
      <trkpt lat="48.8601" lon="6.15237">
        <ele>246</ele>
        <time>2013-06-05T12:16:30Z</time>
      </trkpt>
      <trkpt lat="48.86014" lon="6.15241">
        <ele>245</ele>
        <time>2013-06-05T12:16:34Z</time>
      </trkpt>
      <trkpt lat="48.86018" lon="6.15247">
        <ele>244</ele>
        <time>2013-06-05T12:16:39Z</time>
      </trkpt>
      <trkpt lat="48.86021" lon="6.15259">
        <ele>244</ele>
        <time>2013-06-05T12:16:47Z</time>
      </trkpt>
      <trkpt lat="48.86026" lon="6.15271">
        <ele>245</ele>
        <time>2013-06-05T12:16:56Z</time>
      </trkpt>
      <trkpt lat="48.86028" lon="6.15279">
        <ele>244</ele>
        <time>2013-06-05T12:16:59Z</time>
      </trkpt>
      <trkpt lat="48.86031" lon="6.15286">
        <ele>246</ele>
        <time>2013-06-05T12:17:05Z</time>
      </trkpt>
      <trkpt lat="48.86036" lon="6.15295">
        <ele>247</ele>
        <time>2013-06-05T12:17:10Z</time>
      </trkpt>
      <trkpt lat="48.86041" lon="6.15313">
        <ele>248</ele>
        <time>2013-06-05T12:17:30Z</time>
      </trkpt>
      <trkpt lat="48.86047" lon="6.15323">
        <ele>249</ele>
        <time>2013-06-05T12:17:34Z</time>
      </trkpt>
      <trkpt lat="48.8605" lon="6.1533">
        <ele>248</ele>
        <time>2013-06-05T12:17:39Z</time>
      </trkpt>
      <trkpt lat="48.86053" lon="6.15337">
        <ele>247</ele>
        <time>2013-06-05T12:17:45Z</time>
      </trkpt>
      <trkpt lat="48.86053" lon="6.15346">
        <ele>246</ele>
        <time>2013-06-05T12:17:51Z</time>
      </trkpt>
      <trkpt lat="48.86055" lon="6.15353">
        <ele>245</ele>
        <time>2013-06-05T12:17:54Z</time>
      </trkpt>
      <trkpt lat="48.86059" lon="6.15363">
        <ele>245</ele>
        <time>2013-06-05T12:18:01Z</time>
      </trkpt>
      <trkpt lat="48.8606" lon="6.1537">
        <ele>245</ele>
        <time>2013-06-05T12:18:04Z</time>
      </trkpt>
      <trkpt lat="48.86062" lon="6.15381">
        <ele>247</ele>
        <time>2013-06-05T12:18:09Z</time>
      </trkpt>
      <trkpt lat="48.86063" lon="6.15389">
        <ele>248</ele>
        <time>2013-06-05T12:18:13Z</time>
      </trkpt>
      <trkpt lat="48.86064" lon="6.15396">
        <ele>250</ele>
        <time>2013-06-05T12:18:19Z</time>
      </trkpt>
      <trkpt lat="48.86063" lon="6.15405">
        <ele>251</ele>
        <time>2013-06-05T12:18:23Z</time>
      </trkpt>
      <trkpt lat="48.86062" lon="6.1542">
        <ele>252</ele>
        <time>2013-06-05T12:18:30Z</time>
      </trkpt>
      <trkpt lat="48.8606" lon="6.1543">
        <ele>251</ele>
        <time>2013-06-05T12:18:35Z</time>
      </trkpt>
      <trkpt lat="48.86058" lon="6.15444">
        <ele>252</ele>
        <time>2013-06-05T12:18:40Z</time>
      </trkpt>
      <trkpt lat="48.86059" lon="6.15451">
        <ele>252</ele>
        <time>2013-06-05T12:18:45Z</time>
      </trkpt>
      <trkpt lat="48.86057" lon="6.15467">
        <ele>252</ele>
        <time>2013-06-05T12:18:53Z</time>
      </trkpt>
      <trkpt lat="48.86058" lon="6.15475">
        <ele>250</ele>
        <time>2013-06-05T12:18:57Z</time>
      </trkpt>
      <trkpt lat="48.86056" lon="6.15484">
        <ele>250</ele>
        <time>2013-06-05T12:19:03Z</time>
      </trkpt>
      <trkpt lat="48.86053" lon="6.15491">
        <ele>251</ele>
        <time>2013-06-05T12:19:07Z</time>
      </trkpt>
      <trkpt lat="48.86049" lon="6.15503">
        <ele>253</ele>
        <time>2013-06-05T12:19:13Z</time>
      </trkpt>
      <trkpt lat="48.86048" lon="6.15511">
        <ele>253</ele>
        <time>2013-06-05T12:19:17Z</time>
      </trkpt>
      <trkpt lat="48.8605" lon="6.15519">
        <ele>252</ele>
        <time>2013-06-05T12:19:24Z</time>
      </trkpt>
      <trkpt lat="48.86051" lon="6.15526">
        <ele>251</ele>
        <time>2013-06-05T12:19:28Z</time>
      </trkpt>
      <trkpt lat="48.86054" lon="6.15533">
        <ele>250</ele>
        <time>2013-06-05T12:19:33Z</time>
      </trkpt>
      <trkpt lat="48.86057" lon="6.1554">
        <ele>250</ele>
        <time>2013-06-05T12:19:40Z</time>
      </trkpt>
      <trkpt lat="48.86056" lon="6.15551">
        <ele>250</ele>
        <time>2013-06-05T12:19:47Z</time>
      </trkpt>
      <trkpt lat="48.86057" lon="6.15567">
        <ele>253</ele>
        <time>2013-06-05T12:19:52Z</time>
      </trkpt>
      <trkpt lat="48.86058" lon="6.15574">
        <ele>251</ele>
        <time>2013-06-05T12:19:56Z</time>
      </trkpt>
      <trkpt lat="48.86057" lon="6.15591">
        <ele>250</ele>
        <time>2013-06-05T12:20:01Z</time>
      </trkpt>
      <trkpt lat="48.86057" lon="6.15599">
        <ele>248</ele>
        <time>2013-06-05T12:20:04Z</time>
      </trkpt>
      <trkpt lat="48.86057" lon="6.15607">
        <ele>248</ele>
        <time>2013-06-05T12:20:09Z</time>
      </trkpt>
      <trkpt lat="48.86056" lon="6.15615">
        <ele>251</ele>
        <time>2013-06-05T12:20:16Z</time>
      </trkpt>
      <trkpt lat="48.86063" lon="6.15624">
        <ele>251</ele>
        <time>2013-06-05T12:20:23Z</time>
      </trkpt>
      <trkpt lat="48.86069" lon="6.15636">
        <ele>253</ele>
        <time>2013-06-05T12:20:34Z</time>
      </trkpt>
      <trkpt lat="48.86071" lon="6.15644">
        <ele>251</ele>
        <time>2013-06-05T12:20:39Z</time>
      </trkpt>
      <trkpt lat="48.86076" lon="6.15655">
        <ele>250</ele>
        <time>2013-06-05T12:20:46Z</time>
      </trkpt>
      <trkpt lat="48.86079" lon="6.15661">
        <ele>251</ele>
        <time>2013-06-05T12:20:50Z</time>
      </trkpt>
      <trkpt lat="48.86081" lon="6.15667">
        <ele>251</ele>
        <time>2013-06-05T12:20:53Z</time>
      </trkpt>
      <trkpt lat="48.86082" lon="6.15675">
        <ele>250</ele>
        <time>2013-06-05T12:20:58Z</time>
      </trkpt>
      <trkpt lat="48.86089" lon="6.15686">
        <ele>245</ele>
        <time>2013-06-05T12:21:08Z</time>
      </trkpt>
      <trkpt lat="48.86094" lon="6.15691">
        <ele>246</ele>
        <time>2013-06-05T12:21:12Z</time>
      </trkpt>
      <trkpt lat="48.86097" lon="6.15697">
        <ele>247</ele>
        <time>2013-06-05T12:21:16Z</time>
      </trkpt>
      <trkpt lat="48.86098" lon="6.15704">
        <ele>251</ele>
        <time>2013-06-05T12:21:22Z</time>
      </trkpt>
      <trkpt lat="48.86102" lon="6.15715">
        <ele>253</ele>
        <time>2013-06-05T12:21:29Z</time>
      </trkpt>
      <trkpt lat="48.86102" lon="6.1573">
        <ele>246</ele>
        <time>2013-06-05T12:21:42Z</time>
      </trkpt>
      <trkpt lat="48.86102" lon="6.15745">
        <ele>244</ele>
        <time>2013-06-05T12:21:48Z</time>
      </trkpt>
      <trkpt lat="48.86093" lon="6.15766">
        <ele>237</ele>
        <time>2013-06-05T12:21:59Z</time>
      </trkpt>
      <trkpt lat="48.86089" lon="6.15773">
        <ele>236</ele>
        <time>2013-06-05T12:22:02Z</time>
      </trkpt>
      <trkpt lat="48.86085" lon="6.1578">
        <ele>235</ele>
        <time>2013-06-05T12:22:06Z</time>
      </trkpt>
      <trkpt lat="48.86079" lon="6.15784">
        <ele>234</ele>
        <time>2013-06-05T12:22:12Z</time>
      </trkpt>
      <trkpt lat="48.86074" lon="6.15797">
        <ele>237</ele>
        <time>2013-06-05T12:22:21Z</time>
      </trkpt>
      <trkpt lat="48.86068" lon="6.1581">
        <ele>239</ele>
        <time>2013-06-05T12:22:32Z</time>
      </trkpt>
      <trkpt lat="48.86062" lon="6.15822">
        <ele>240</ele>
        <time>2013-06-05T12:22:39Z</time>
      </trkpt>
      <trkpt lat="48.86055" lon="6.15832">
        <ele>244</ele>
        <time>2013-06-05T12:22:48Z</time>
      </trkpt>
      <trkpt lat="48.86048" lon="6.15844">
        <ele>246</ele>
        <time>2013-06-05T12:22:57Z</time>
      </trkpt>
      <trkpt lat="48.86039" lon="6.15857">
        <ele>244</ele>
        <time>2013-06-05T12:23:04Z</time>
      </trkpt>
      <trkpt lat="48.8603" lon="6.15864">
        <ele>242</ele>
        <time>2013-06-05T12:23:12Z</time>
      </trkpt>
      <trkpt lat="48.86021" lon="6.15872">
        <ele>240</ele>
        <time>2013-06-05T12:23:24Z</time>
      </trkpt>
      <trkpt lat="48.8601" lon="6.15881">
        <ele>239</ele>
        <time>2013-06-05T12:23:36Z</time>
      </trkpt>
      <trkpt lat="48.86001" lon="6.15888">
        <ele>238</ele>
        <time>2013-06-05T12:23:44Z</time>
      </trkpt>
      <trkpt lat="48.85993" lon="6.15896">
        <ele>237</ele>
        <time>2013-06-05T12:23:51Z</time>
      </trkpt>
      <trkpt lat="48.85988" lon="6.15899">
        <ele>236</ele>
        <time>2013-06-05T12:24:03Z</time>
      </trkpt>
      <trkpt lat="48.85977" lon="6.15905">
        <ele>236</ele>
        <time>2013-06-05T12:24:06Z</time>
      </trkpt>
      <trkpt lat="48.85967" lon="6.15911">
        <ele>235</ele>
        <time>2013-06-05T12:24:18Z</time>
      </trkpt>
      <trkpt lat="48.85956" lon="6.15915">
        <ele>235</ele>
        <time>2013-06-05T12:24:26Z</time>
      </trkpt>
      <trkpt lat="48.85943" lon="6.15919">
        <ele>233</ele>
        <time>2013-06-05T12:24:38Z</time>
      </trkpt>
      <trkpt lat="48.85934" lon="6.15921">
        <ele>234</ele>
        <time>2013-06-05T12:24:48Z</time>
      </trkpt>
      <trkpt lat="48.8592" lon="6.1593">
        <ele>235</ele>
        <time>2013-06-05T12:24:55Z</time>
      </trkpt>
      <trkpt lat="48.85911" lon="6.15935">
        <ele>234</ele>
        <time>2013-06-05T12:25:00Z</time>
      </trkpt>
      <trkpt lat="48.85898" lon="6.15938">
        <ele>232</ele>
        <time>2013-06-05T12:25:14Z</time>
      </trkpt>
      <trkpt lat="48.85892" lon="6.15935">
        <ele>229</ele>
        <time>2013-06-05T12:25:18Z</time>
      </trkpt>
      <trkpt lat="48.85886" lon="6.15933">
        <ele>227</ele>
        <time>2013-06-05T12:25:25Z</time>
      </trkpt>
      <trkpt lat="48.85881" lon="6.15935">
        <ele>228</ele>
        <time>2013-06-05T12:25:26Z</time>
      </trkpt>
      <trkpt lat="48.85883" lon="6.15936">
        <ele>228</ele>
        <time>2013-06-05T12:25:47Z</time>
      </trkpt>
      <trkpt lat="48.85886" lon="6.15943">
        <ele>227</ele>
        <time>2013-06-05T12:25:53Z</time>
      </trkpt>
      <trkpt lat="48.8589" lon="6.15948">
        <ele>226</ele>
        <time>2013-06-05T12:25:58Z</time>
      </trkpt>
      <trkpt lat="48.85898" lon="6.15958">
        <ele>227</ele>
        <time>2013-06-05T12:26:08Z</time>
      </trkpt>
      <trkpt lat="48.85903" lon="6.15969">
        <ele>227</ele>
        <time>2013-06-05T12:26:12Z</time>
      </trkpt>
      <trkpt lat="48.85907" lon="6.15975">
        <ele>227</ele>
        <time>2013-06-05T12:26:15Z</time>
      </trkpt>
      <trkpt lat="48.8591" lon="6.15982">
        <ele>227</ele>
        <time>2013-06-05T12:26:21Z</time>
      </trkpt>
      <trkpt lat="48.85913" lon="6.15988">
        <ele>228</ele>
        <time>2013-06-05T12:26:26Z</time>
      </trkpt>
      <trkpt lat="48.85923" lon="6.16004">
        <ele>238</ele>
        <time>2013-06-05T12:26:41Z</time>
      </trkpt>
      <trkpt lat="48.85929" lon="6.16023">
        <ele>239</ele>
        <time>2013-06-05T12:26:51Z</time>
      </trkpt>
      <trkpt lat="48.85936" lon="6.16038">
        <ele>237</ele>
        <time>2013-06-05T12:26:56Z</time>
      </trkpt>
      <trkpt lat="48.85939" lon="6.16046">
        <ele>240</ele>
        <time>2013-06-05T12:27:07Z</time>
      </trkpt>
      <trkpt lat="48.85941" lon="6.16054">
        <ele>240</ele>
        <time>2013-06-05T12:27:11Z</time>
      </trkpt>
      <trkpt lat="48.85946" lon="6.16059">
        <ele>241</ele>
        <time>2013-06-05T12:27:16Z</time>
      </trkpt>
      <trkpt lat="48.85952" lon="6.16066">
        <ele>239</ele>
        <time>2013-06-05T12:27:23Z</time>
      </trkpt>
      <trkpt lat="48.85956" lon="6.16072">
        <ele>236</ele>
        <time>2013-06-05T12:27:28Z</time>
      </trkpt>
      <trkpt lat="48.85959" lon="6.16078">
        <ele>236</ele>
        <time>2013-06-05T12:27:31Z</time>
      </trkpt>
      <trkpt lat="48.85962" lon="6.16083">
        <ele>235</ele>
        <time>2013-06-05T12:27:33Z</time>
      </trkpt>
      <trkpt lat="48.85967" lon="6.16088">
        <ele>236</ele>
        <time>2013-06-05T12:27:36Z</time>
      </trkpt>
      <trkpt lat="48.8597" lon="6.16095">
        <ele>233</ele>
        <time>2013-06-05T12:27:43Z</time>
      </trkpt>
      <trkpt lat="48.85974" lon="6.16105">
        <ele>234</ele>
        <time>2013-06-05T12:27:52Z</time>
      </trkpt>
      <trkpt lat="48.85979" lon="6.16118">
        <ele>233</ele>
        <time>2013-06-05T12:28:01Z</time>
      </trkpt>
      <trkpt lat="48.85983" lon="6.16127">
        <ele>232</ele>
        <time>2013-06-05T12:28:06Z</time>
      </trkpt>
      <trkpt lat="48.85985" lon="6.16134">
        <ele>231</ele>
        <time>2013-06-05T12:28:10Z</time>
      </trkpt>
      <trkpt lat="48.85988" lon="6.1614">
        <ele>231</ele>
        <time>2013-06-05T12:28:14Z</time>
      </trkpt>
      <trkpt lat="48.85991" lon="6.16144">
        <ele>231</ele>
        <time>2013-06-05T12:28:17Z</time>
      </trkpt>
      <trkpt lat="48.85995" lon="6.16151">
        <ele>232</ele>
        <time>2013-06-05T12:28:22Z</time>
      </trkpt>
      <trkpt lat="48.86" lon="6.16163">
        <ele>234</ele>
        <time>2013-06-05T12:28:29Z</time>
      </trkpt>
      <trkpt lat="48.86002" lon="6.1617">
        <ele>233</ele>
        <time>2013-06-05T12:28:33Z</time>
      </trkpt>
      <trkpt lat="48.86008" lon="6.16173">
        <ele>231</ele>
        <time>2013-06-05T12:28:40Z</time>
      </trkpt>
      <trkpt lat="48.86012" lon="6.16177">
        <ele>228</ele>
        <time>2013-06-05T12:28:45Z</time>
      </trkpt>
      <trkpt lat="48.86015" lon="6.16184">
        <ele>228</ele>
        <time>2013-06-05T12:28:56Z</time>
      </trkpt>
      <trkpt lat="48.86023" lon="6.16199">
        <ele>227</ele>
        <time>2013-06-05T12:29:07Z</time>
      </trkpt>
      <trkpt lat="48.86027" lon="6.16203">
        <ele>227</ele>
        <time>2013-06-05T12:29:10Z</time>
      </trkpt>
      <trkpt lat="48.8603" lon="6.16209">
        <ele>229</ele>
        <time>2013-06-05T12:29:18Z</time>
      </trkpt>
      <trkpt lat="48.86033" lon="6.16216">
        <ele>232</ele>
        <time>2013-06-05T12:29:24Z</time>
      </trkpt>
      <trkpt lat="48.86039" lon="6.16225">
        <ele>232</ele>
        <time>2013-06-05T12:29:37Z</time>
      </trkpt>
      <trkpt lat="48.86043" lon="6.1623">
        <ele>233</ele>
        <time>2013-06-05T12:29:41Z</time>
      </trkpt>
      <trkpt lat="48.86046" lon="6.16234">
        <ele>234</ele>
        <time>2013-06-05T12:29:46Z</time>
      </trkpt>
      <trkpt lat="48.8605" lon="6.1624">
        <ele>234</ele>
        <time>2013-06-05T12:29:51Z</time>
      </trkpt>
      <trkpt lat="48.86057" lon="6.16252">
        <ele>234</ele>
        <time>2013-06-05T12:29:58Z</time>
      </trkpt>
      <trkpt lat="48.86062" lon="6.16263">
        <ele>230</ele>
        <time>2013-06-05T12:30:12Z</time>
      </trkpt>
      <trkpt lat="48.86065" lon="6.16268">
        <ele>228</ele>
        <time>2013-06-05T12:30:18Z</time>
      </trkpt>
      <trkpt lat="48.86069" lon="6.16272">
        <ele>228</ele>
        <time>2013-06-05T12:30:24Z</time>
      </trkpt>
      <trkpt lat="48.86073" lon="6.16276">
        <ele>230</ele>
        <time>2013-06-05T12:30:28Z</time>
      </trkpt>
      <trkpt lat="48.86077" lon="6.16282">
        <ele>228</ele>
        <time>2013-06-05T12:30:34Z</time>
      </trkpt>
      <trkpt lat="48.86079" lon="6.16289">
        <ele>228</ele>
        <time>2013-06-05T12:30:37Z</time>
      </trkpt>
      <trkpt lat="48.86081" lon="6.16297">
        <ele>229</ele>
        <time>2013-06-05T12:30:42Z</time>
      </trkpt>
      <trkpt lat="48.86083" lon="6.16305">
        <ele>229</ele>
        <time>2013-06-05T12:30:46Z</time>
      </trkpt>
      <trkpt lat="48.86084" lon="6.16311">
        <ele>230</ele>
        <time>2013-06-05T12:30:51Z</time>
      </trkpt>
      <trkpt lat="48.86085" lon="6.16321">
        <ele>232</ele>
        <time>2013-06-05T12:30:57Z</time>
      </trkpt>
      <trkpt lat="48.86087" lon="6.16327">
        <ele>233</ele>
        <time>2013-06-05T12:31:00Z</time>
      </trkpt>
      <trkpt lat="48.86088" lon="6.16342">
        <ele>234</ele>
        <time>2013-06-05T12:31:09Z</time>
      </trkpt>
      <trkpt lat="48.8609" lon="6.16349">
        <ele>234</ele>
        <time>2013-06-05T12:31:12Z</time>
      </trkpt>
      <trkpt lat="48.86093" lon="6.16355">
        <ele>232</ele>
        <time>2013-06-05T12:31:17Z</time>
      </trkpt>
      <trkpt lat="48.86099" lon="6.16366">
        <ele>230</ele>
        <time>2013-06-05T12:31:21Z</time>
      </trkpt>
      <trkpt lat="48.86103" lon="6.16373">
        <ele>226</ele>
        <time>2013-06-05T12:31:25Z</time>
      </trkpt>
      <trkpt lat="48.86107" lon="6.16381">
        <ele>225</ele>
        <time>2013-06-05T12:31:28Z</time>
      </trkpt>
      <trkpt lat="48.86109" lon="6.16388">
        <ele>221</ele>
        <time>2013-06-05T12:31:33Z</time>
      </trkpt>
      <trkpt lat="48.8611" lon="6.16398">
        <ele>220</ele>
        <time>2013-06-05T12:31:36Z</time>
      </trkpt>
      <trkpt lat="48.86118" lon="6.16429">
        <ele>231</ele>
        <time>2013-06-05T12:32:02Z</time>
      </trkpt>
      <trkpt lat="48.86121" lon="6.16434">
        <ele>231</ele>
        <time>2013-06-05T12:32:07Z</time>
      </trkpt>
      <trkpt lat="48.86125" lon="6.16438">
        <ele>230</ele>
        <time>2013-06-05T12:32:12Z</time>
      </trkpt>
      <trkpt lat="48.86132" lon="6.16446">
        <ele>230</ele>
        <time>2013-06-05T12:32:21Z</time>
      </trkpt>
      <trkpt lat="48.86135" lon="6.16458">
        <ele>229</ele>
        <time>2013-06-05T12:32:30Z</time>
      </trkpt>
      <trkpt lat="48.86141" lon="6.16469">
        <ele>227</ele>
        <time>2013-06-05T12:32:36Z</time>
      </trkpt>
      <trkpt lat="48.86145" lon="6.16473">
        <ele>227</ele>
        <time>2013-06-05T12:32:43Z</time>
      </trkpt>
      <trkpt lat="48.86147" lon="6.16482">
        <ele>227</ele>
        <time>2013-06-05T12:32:50Z</time>
      </trkpt>
      <trkpt lat="48.8615" lon="6.16489">
        <ele>226</ele>
        <time>2013-06-05T12:32:56Z</time>
      </trkpt>
      <trkpt lat="48.86154" lon="6.16494">
        <ele>225</ele>
        <time>2013-06-05T12:33:00Z</time>
      </trkpt>
      <trkpt lat="48.86157" lon="6.16502">
        <ele>225</ele>
        <time>2013-06-05T12:33:06Z</time>
      </trkpt>
      <trkpt lat="48.86161" lon="6.16513">
        <ele>226</ele>
        <time>2013-06-05T12:33:10Z</time>
      </trkpt>
      <trkpt lat="48.86165" lon="6.16517">
        <ele>227</ele>
        <time>2013-06-05T12:33:13Z</time>
      </trkpt>
      <trkpt lat="48.86169" lon="6.16521">
        <ele>227</ele>
        <time>2013-06-05T12:33:19Z</time>
      </trkpt>
      <trkpt lat="48.86174" lon="6.16523">
        <ele>228</ele>
        <time>2013-06-05T12:33:25Z</time>
      </trkpt>
      <trkpt lat="48.86178" lon="6.16529">
        <ele>229</ele>
        <time>2013-06-05T12:33:29Z</time>
      </trkpt>
      <trkpt lat="48.86182" lon="6.16533">
        <ele>231</ele>
        <time>2013-06-05T12:33:36Z</time>
      </trkpt>
      <trkpt lat="48.86184" lon="6.1654">
        <ele>233</ele>
        <time>2013-06-05T12:33:41Z</time>
      </trkpt>
      <trkpt lat="48.86188" lon="6.16549">
        <ele>232</ele>
        <time>2013-06-05T12:33:48Z</time>
      </trkpt>
      <trkpt lat="48.8619" lon="6.16557">
        <ele>231</ele>
        <time>2013-06-05T12:33:54Z</time>
      </trkpt>
      <trkpt lat="48.86194" lon="6.1656">
        <ele>231</ele>
        <time>2013-06-05T12:33:57Z</time>
      </trkpt>
      <trkpt lat="48.862" lon="6.16574">
        <ele>229</ele>
        <time>2013-06-05T12:34:05Z</time>
      </trkpt>
      <trkpt lat="48.86204" lon="6.1658">
        <ele>222</ele>
        <time>2013-06-05T12:34:17Z</time>
      </trkpt>
      <trkpt lat="48.86207" lon="6.16586">
        <ele>223</ele>
        <time>2013-06-05T12:34:51Z</time>
      </trkpt>
      <trkpt lat="48.86212" lon="6.16589">
        <ele>227</ele>
        <time>2013-06-05T12:35:05Z</time>
      </trkpt>
      <trkpt lat="48.8622" lon="6.16596">
        <ele>228</ele>
        <time>2013-06-05T12:35:16Z</time>
      </trkpt>
      <trkpt lat="48.86225" lon="6.16605">
        <ele>229</ele>
        <time>2013-06-05T12:35:23Z</time>
      </trkpt>
      <trkpt lat="48.86228" lon="6.16611">
        <ele>229</ele>
        <time>2013-06-05T12:35:28Z</time>
      </trkpt>
      <trkpt lat="48.86229" lon="6.16625">
        <ele>230</ele>
        <time>2013-06-05T12:35:35Z</time>
      </trkpt>
      <trkpt lat="48.86236" lon="6.16635">
        <ele>227</ele>
        <time>2013-06-05T12:35:43Z</time>
      </trkpt>
      <trkpt lat="48.86241" lon="6.1664">
        <ele>227</ele>
        <time>2013-06-05T12:35:47Z</time>
      </trkpt>
      <trkpt lat="48.86244" lon="6.16645">
        <ele>227</ele>
        <time>2013-06-05T12:35:54Z</time>
      </trkpt>
      <trkpt lat="48.86249" lon="6.16649">
        <ele>226</ele>
        <time>2013-06-05T12:35:57Z</time>
      </trkpt>
      <trkpt lat="48.86254" lon="6.16654">
        <ele>225</ele>
        <time>2013-06-05T12:36:05Z</time>
      </trkpt>
      <trkpt lat="48.86257" lon="6.16661">
        <ele>224</ele>
        <time>2013-06-05T12:36:09Z</time>
      </trkpt>
      <trkpt lat="48.86262" lon="6.16666">
        <ele>224</ele>
        <time>2013-06-05T12:36:12Z</time>
      </trkpt>
      <trkpt lat="48.86265" lon="6.16673">
        <ele>226</ele>
        <time>2013-06-05T12:36:18Z</time>
      </trkpt>
      <trkpt lat="48.86272" lon="6.16684">
        <ele>226</ele>
        <time>2013-06-05T12:36:26Z</time>
      </trkpt>
      <trkpt lat="48.86275" lon="6.16689">
        <ele>226</ele>
        <time>2013-06-05T12:36:29Z</time>
      </trkpt>
      <trkpt lat="48.86278" lon="6.16694">
        <ele>227</ele>
        <time>2013-06-05T12:36:32Z</time>
      </trkpt>
      <trkpt lat="48.86283" lon="6.16702">
        <ele>228</ele>
        <time>2013-06-05T12:36:37Z</time>
      </trkpt>
      <trkpt lat="48.86287" lon="6.16708">
        <ele>228</ele>
        <time>2013-06-05T12:36:42Z</time>
      </trkpt>
      <trkpt lat="48.86291" lon="6.16715">
        <ele>227</ele>
        <time>2013-06-05T12:36:45Z</time>
      </trkpt>
      <trkpt lat="48.86294" lon="6.1672">
        <ele>227</ele>
        <time>2013-06-05T12:36:47Z</time>
      </trkpt>
      <trkpt lat="48.86299" lon="6.16733">
        <ele>225</ele>
        <time>2013-06-05T12:36:54Z</time>
      </trkpt>
      <trkpt lat="48.86302" lon="6.16739">
        <ele>223</ele>
        <time>2013-06-05T12:36:59Z</time>
      </trkpt>
      <trkpt lat="48.86305" lon="6.16747">
        <ele>223</ele>
        <time>2013-06-05T12:37:03Z</time>
      </trkpt>
      <trkpt lat="48.86309" lon="6.16754">
        <ele>223</ele>
        <time>2013-06-05T12:37:07Z</time>
      </trkpt>
      <trkpt lat="48.86313" lon="6.16759">
        <ele>222</ele>
        <time>2013-06-05T12:37:11Z</time>
      </trkpt>
      <trkpt lat="48.86316" lon="6.16765">
        <ele>221</ele>
        <time>2013-06-05T12:37:14Z</time>
      </trkpt>
      <trkpt lat="48.86321" lon="6.16772">
        <ele>221</ele>
        <time>2013-06-05T12:37:20Z</time>
      </trkpt>
      <trkpt lat="48.86328" lon="6.16781">
        <ele>222</ele>
        <time>2013-06-05T12:37:27Z</time>
      </trkpt>
      <trkpt lat="48.86332" lon="6.16786">
        <ele>224</ele>
        <time>2013-06-05T12:37:32Z</time>
      </trkpt>
      <trkpt lat="48.86339" lon="6.16794">
        <ele>226</ele>
        <time>2013-06-05T12:37:38Z</time>
      </trkpt>
      <trkpt lat="48.86346" lon="6.16807">
        <ele>226</ele>
        <time>2013-06-05T12:37:43Z</time>
      </trkpt>
      <trkpt lat="48.8635" lon="6.1682">
        <ele>224</ele>
        <time>2013-06-05T12:37:50Z</time>
      </trkpt>
      <trkpt lat="48.8635" lon="6.16824">
        <ele>215</ele>
        <time>2013-06-05T12:38:02Z</time>
      </trkpt>
      <trkpt lat="48.86352" lon="6.16828">
        <ele>213</ele>
        <time>2013-06-05T12:38:11Z</time>
      </trkpt>
      <trkpt lat="48.8635" lon="6.16828">
        <ele>215</ele>
        <time>2013-06-05T12:41:58Z</time>
      </trkpt>
      <trkpt lat="48.86354" lon="6.16835">
        <ele>214</ele>
        <time>2013-06-05T12:42:15Z</time>
      </trkpt>
      <trkpt lat="48.86359" lon="6.16838">
        <ele>213</ele>
        <time>2013-06-05T12:42:19Z</time>
      </trkpt>
      <trkpt lat="48.86363" lon="6.16844">
        <ele>212</ele>
        <time>2013-06-05T12:42:23Z</time>
      </trkpt>
      <trkpt lat="48.86366" lon="6.1685">
        <ele>211</ele>
        <time>2013-06-05T12:42:26Z</time>
      </trkpt>
      <trkpt lat="48.86369" lon="6.16857">
        <ele>211</ele>
        <time>2013-06-05T12:42:29Z</time>
      </trkpt>
      <trkpt lat="48.86371" lon="6.16863">
        <ele>210</ele>
        <time>2013-06-05T12:42:32Z</time>
      </trkpt>
      <trkpt lat="48.86377" lon="6.16869">
        <ele>211</ele>
        <time>2013-06-05T12:42:36Z</time>
      </trkpt>
      <trkpt lat="48.86381" lon="6.16872">
        <ele>211</ele>
        <time>2013-06-05T12:42:41Z</time>
      </trkpt>
      <trkpt lat="48.86385" lon="6.16876">
        <ele>212</ele>
        <time>2013-06-05T12:42:44Z</time>
      </trkpt>
      <trkpt lat="48.86388" lon="6.16882">
        <ele>212</ele>
        <time>2013-06-05T12:42:48Z</time>
      </trkpt>
      <trkpt lat="48.86391" lon="6.1689">
        <ele>212</ele>
        <time>2013-06-05T12:42:54Z</time>
      </trkpt>
      <trkpt lat="48.86394" lon="6.16896">
        <ele>212</ele>
        <time>2013-06-05T12:42:58Z</time>
      </trkpt>
      <trkpt lat="48.86397" lon="6.16901">
        <ele>213</ele>
        <time>2013-06-05T12:43:03Z</time>
      </trkpt>
      <trkpt lat="48.86402" lon="6.16906">
        <ele>214</ele>
        <time>2013-06-05T12:43:07Z</time>
      </trkpt>
      <trkpt lat="48.86408" lon="6.16915">
        <ele>216</ele>
        <time>2013-06-05T12:43:14Z</time>
      </trkpt>
      <trkpt lat="48.86412" lon="6.16921">
        <ele>216</ele>
        <time>2013-06-05T12:43:18Z</time>
      </trkpt>
      <trkpt lat="48.86415" lon="6.16926">
        <ele>216</ele>
        <time>2013-06-05T12:43:21Z</time>
      </trkpt>
      <trkpt lat="48.86418" lon="6.16931">
        <ele>216</ele>
        <time>2013-06-05T12:43:24Z</time>
      </trkpt>
      <trkpt lat="48.86422" lon="6.16936">
        <ele>216</ele>
        <time>2013-06-05T12:43:27Z</time>
      </trkpt>
      <trkpt lat="48.86425" lon="6.16943">
        <ele>217</ele>
        <time>2013-06-05T12:43:31Z</time>
      </trkpt>
      <trkpt lat="48.8643" lon="6.16953">
        <ele>217</ele>
        <time>2013-06-05T12:43:40Z</time>
      </trkpt>
      <trkpt lat="48.86434" lon="6.1696">
        <ele>216</ele>
        <time>2013-06-05T12:43:44Z</time>
      </trkpt>
      <trkpt lat="48.86437" lon="6.16966">
        <ele>216</ele>
        <time>2013-06-05T12:43:49Z</time>
      </trkpt>
      <trkpt lat="48.86439" lon="6.16972">
        <ele>216</ele>
        <time>2013-06-05T12:43:53Z</time>
      </trkpt>
      <trkpt lat="48.86443" lon="6.16978">
        <ele>216</ele>
        <time>2013-06-05T12:43:57Z</time>
      </trkpt>
      <trkpt lat="48.86447" lon="6.16985">
        <ele>216</ele>
        <time>2013-06-05T12:44:00Z</time>
      </trkpt>
      <trkpt lat="48.86451" lon="6.16993">
        <ele>217</ele>
        <time>2013-06-05T12:44:05Z</time>
      </trkpt>
      <trkpt lat="48.86456" lon="6.17">
        <ele>218</ele>
        <time>2013-06-05T12:44:10Z</time>
      </trkpt>
      <trkpt lat="48.86459" lon="6.17006">
        <ele>218</ele>
        <time>2013-06-05T12:44:14Z</time>
      </trkpt>
      <trkpt lat="48.86462" lon="6.17012">
        <ele>218</ele>
        <time>2013-06-05T12:44:18Z</time>
      </trkpt>
      <trkpt lat="48.86466" lon="6.17017">
        <ele>218</ele>
        <time>2013-06-05T12:44:22Z</time>
      </trkpt>
      <trkpt lat="48.86469" lon="6.17022">
        <ele>219</ele>
        <time>2013-06-05T12:44:25Z</time>
      </trkpt>
      <trkpt lat="48.86473" lon="6.17029">
        <ele>220</ele>
        <time>2013-06-05T12:44:30Z</time>
      </trkpt>
      <trkpt lat="48.86476" lon="6.17035">
        <ele>221</ele>
        <time>2013-06-05T12:44:34Z</time>
      </trkpt>
      <trkpt lat="48.86479" lon="6.1704">
        <ele>223</ele>
        <time>2013-06-05T12:44:39Z</time>
      </trkpt>
      <trkpt lat="48.86482" lon="6.17046">
        <ele>223</ele>
        <time>2013-06-05T12:44:44Z</time>
      </trkpt>
      <trkpt lat="48.86486" lon="6.17051">
        <ele>222</ele>
        <time>2013-06-05T12:44:47Z</time>
      </trkpt>
      <trkpt lat="48.8649" lon="6.17055">
        <ele>220</ele>
        <time>2013-06-05T12:44:51Z</time>
      </trkpt>
      <trkpt lat="48.86494" lon="6.17059">
        <ele>218</ele>
        <time>2013-06-05T12:44:55Z</time>
      </trkpt>
      <trkpt lat="48.86497" lon="6.17065">
        <ele>218</ele>
        <time>2013-06-05T12:45:00Z</time>
      </trkpt>
      <trkpt lat="48.86502" lon="6.17072">
        <ele>219</ele>
        <time>2013-06-05T12:45:08Z</time>
      </trkpt>
      <trkpt lat="48.86508" lon="6.17084">
        <ele>221</ele>
        <time>2013-06-05T12:45:15Z</time>
      </trkpt>
      <trkpt lat="48.8651" lon="6.17091">
        <ele>223</ele>
        <time>2013-06-05T12:45:20Z</time>
      </trkpt>
      <trkpt lat="48.86517" lon="6.17103">
        <ele>224</ele>
        <time>2013-06-05T12:45:25Z</time>
      </trkpt>
      <trkpt lat="48.8652" lon="6.17109">
        <ele>225</ele>
        <time>2013-06-05T12:45:30Z</time>
      </trkpt>
      <trkpt lat="48.86526" lon="6.17118">
        <ele>226</ele>
        <time>2013-06-05T12:45:35Z</time>
      </trkpt>
      <trkpt lat="48.86531" lon="6.17126">
        <ele>225</ele>
        <time>2013-06-05T12:45:39Z</time>
      </trkpt>
      <trkpt lat="48.86533" lon="6.17132">
        <ele>224</ele>
        <time>2013-06-05T12:45:42Z</time>
      </trkpt>
      <trkpt lat="48.8654" lon="6.17143">
        <ele>222</ele>
        <time>2013-06-05T12:45:49Z</time>
      </trkpt>
      <trkpt lat="48.86545" lon="6.17148">
        <ele>220</ele>
        <time>2013-06-05T12:45:54Z</time>
      </trkpt>
      <trkpt lat="48.86549" lon="6.17153">
        <ele>220</ele>
        <time>2013-06-05T12:45:57Z</time>
      </trkpt>
      <trkpt lat="48.86553" lon="6.17158">
        <ele>219</ele>
        <time>2013-06-05T12:46:01Z</time>
      </trkpt>
      <trkpt lat="48.86556" lon="6.17164">
        <ele>217</ele>
        <time>2013-06-05T12:46:08Z</time>
      </trkpt>
      <trkpt lat="48.8656" lon="6.17171">
        <ele>217</ele>
        <time>2013-06-05T12:46:13Z</time>
      </trkpt>
      <trkpt lat="48.86564" lon="6.17177">
        <ele>218</ele>
        <time>2013-06-05T12:46:17Z</time>
      </trkpt>
      <trkpt lat="48.86567" lon="6.17182">
        <ele>219</ele>
        <time>2013-06-05T12:46:21Z</time>
      </trkpt>
      <trkpt lat="48.8657" lon="6.17189">
        <ele>220</ele>
        <time>2013-06-05T12:46:25Z</time>
      </trkpt>
      <trkpt lat="48.86573" lon="6.17195">
        <ele>220</ele>
        <time>2013-06-05T12:46:28Z</time>
      </trkpt>
      <trkpt lat="48.86576" lon="6.172">
        <ele>221</ele>
        <time>2013-06-05T12:46:32Z</time>
      </trkpt>
      <trkpt lat="48.86581" lon="6.17205">
        <ele>221</ele>
        <time>2013-06-05T12:46:38Z</time>
      </trkpt>
      <trkpt lat="48.86584" lon="6.17214">
        <ele>220</ele>
        <time>2013-06-05T12:46:45Z</time>
      </trkpt>
      <trkpt lat="48.86589" lon="6.1722">
        <ele>220</ele>
        <time>2013-06-05T12:46:51Z</time>
      </trkpt>
      <trkpt lat="48.86593" lon="6.17225">
        <ele>221</ele>
        <time>2013-06-05T12:46:55Z</time>
      </trkpt>
      <trkpt lat="48.86597" lon="6.17232">
        <ele>221</ele>
        <time>2013-06-05T12:46:58Z</time>
      </trkpt>
      <trkpt lat="48.866" lon="6.17237">
        <ele>222</ele>
        <time>2013-06-05T12:47:02Z</time>
      </trkpt>
      <trkpt lat="48.86605" lon="6.17247">
        <ele>224</ele>
        <time>2013-06-05T12:47:12Z</time>
      </trkpt>
      <trkpt lat="48.86612" lon="6.17256">
        <ele>222</ele>
        <time>2013-06-05T12:47:19Z</time>
      </trkpt>
      <trkpt lat="48.86615" lon="6.17262">
        <ele>221</ele>
        <time>2013-06-05T12:47:22Z</time>
      </trkpt>
      <trkpt lat="48.86619" lon="6.17268">
        <ele>220</ele>
        <time>2013-06-05T12:47:25Z</time>
      </trkpt>
      <trkpt lat="48.86623" lon="6.17275">
        <ele>219</ele>
        <time>2013-06-05T12:47:29Z</time>
      </trkpt>
      <trkpt lat="48.86628" lon="6.1728">
        <ele>218</ele>
        <time>2013-06-05T12:47:34Z</time>
      </trkpt>
      <trkpt lat="48.86634" lon="6.17285">
        <ele>216</ele>
        <time>2013-06-05T12:47:37Z</time>
      </trkpt>
      <trkpt lat="48.86637" lon="6.17291">
        <ele>216</ele>
        <time>2013-06-05T12:47:42Z</time>
      </trkpt>
      <trkpt lat="48.86644" lon="6.17296">
        <ele>215</ele>
        <time>2013-06-05T12:47:50Z</time>
      </trkpt>
      <trkpt lat="48.86649" lon="6.17299">
        <ele>215</ele>
        <time>2013-06-05T12:47:53Z</time>
      </trkpt>
      <trkpt lat="48.8666" lon="6.17303">
        <ele>209</ele>
        <time>2013-06-05T12:48:01Z</time>
      </trkpt>
      <trkpt lat="48.86669" lon="6.17308">
        <ele>209</ele>
        <time>2013-06-05T12:48:12Z</time>
      </trkpt>
      <trkpt lat="48.86675" lon="6.17308">
        <ele>212</ele>
        <time>2013-06-05T12:48:20Z</time>
      </trkpt>
      <trkpt lat="48.8668" lon="6.1731">
        <ele>213</ele>
        <time>2013-06-05T12:48:25Z</time>
      </trkpt>
      <trkpt lat="48.86685" lon="6.17315">
        <ele>214</ele>
        <time>2013-06-05T12:48:28Z</time>
      </trkpt>
      <trkpt lat="48.86691" lon="6.17319">
        <ele>215</ele>
        <time>2013-06-05T12:48:31Z</time>
      </trkpt>
      <trkpt lat="48.86696" lon="6.17323">
        <ele>214</ele>
        <time>2013-06-05T12:48:34Z</time>
      </trkpt>
      <trkpt lat="48.86701" lon="6.17324">
        <ele>213</ele>
        <time>2013-06-05T12:48:40Z</time>
      </trkpt>
      <trkpt lat="48.86706" lon="6.17326">
        <ele>212</ele>
        <time>2013-06-05T12:48:44Z</time>
      </trkpt>
      <trkpt lat="48.86711" lon="6.17325">
        <ele>212</ele>
        <time>2013-06-05T12:48:49Z</time>
      </trkpt>
      <trkpt lat="48.86716" lon="6.17326">
        <ele>212</ele>
        <time>2013-06-05T12:48:53Z</time>
      </trkpt>
      <trkpt lat="48.86721" lon="6.17325">
        <ele>213</ele>
        <time>2013-06-05T12:48:56Z</time>
      </trkpt>
      <trkpt lat="48.86726" lon="6.17325">
        <ele>215</ele>
        <time>2013-06-05T12:49:00Z</time>
      </trkpt>
      <trkpt lat="48.86731" lon="6.17325">
        <ele>215</ele>
        <time>2013-06-05T12:49:04Z</time>
      </trkpt>
      <trkpt lat="48.86736" lon="6.17326">
        <ele>215</ele>
        <time>2013-06-05T12:49:07Z</time>
      </trkpt>
      <trkpt lat="48.86745" lon="6.17328">
        <ele>213</ele>
        <time>2013-06-05T12:49:12Z</time>
      </trkpt>
      <trkpt lat="48.86749" lon="6.17329">
        <ele>212</ele>
        <time>2013-06-05T12:49:16Z</time>
      </trkpt>
      <trkpt lat="48.86755" lon="6.17327">
        <ele>212</ele>
        <time>2013-06-05T12:49:22Z</time>
      </trkpt>
      <trkpt lat="48.8676" lon="6.17328">
        <ele>211</ele>
        <time>2013-06-05T12:49:25Z</time>
      </trkpt>
      <trkpt lat="48.86765" lon="6.17327">
        <ele>210</ele>
        <time>2013-06-05T12:49:29Z</time>
      </trkpt>
      <trkpt lat="48.86771" lon="6.17327">
        <ele>212</ele>
        <time>2013-06-05T12:49:34Z</time>
      </trkpt>
      <trkpt lat="48.86776" lon="6.17327">
        <ele>211</ele>
        <time>2013-06-05T12:49:37Z</time>
      </trkpt>
      <trkpt lat="48.86786" lon="6.17326">
        <ele>210</ele>
        <time>2013-06-05T12:49:43Z</time>
      </trkpt>
      <trkpt lat="48.86791" lon="6.17325">
        <ele>209</ele>
        <time>2013-06-05T12:49:47Z</time>
      </trkpt>
      <trkpt lat="48.86799" lon="6.17325">
        <ele>209</ele>
        <time>2013-06-05T12:49:56Z</time>
      </trkpt>
      <trkpt lat="48.86803" lon="6.17326">
        <ele>209</ele>
        <time>2013-06-05T12:49:59Z</time>
      </trkpt>
      <trkpt lat="48.86808" lon="6.17327">
        <ele>209</ele>
        <time>2013-06-05T12:50:02Z</time>
      </trkpt>
      <trkpt lat="48.86815" lon="6.17327">
        <ele>209</ele>
        <time>2013-06-05T12:50:09Z</time>
      </trkpt>
      <trkpt lat="48.86819" lon="6.17328">
        <ele>211</ele>
        <time>2013-06-05T12:50:15Z</time>
      </trkpt>
      <trkpt lat="48.86824" lon="6.17332">
        <ele>213</ele>
        <time>2013-06-05T12:50:21Z</time>
      </trkpt>
      <trkpt lat="48.86832" lon="6.17339">
        <ele>215</ele>
        <time>2013-06-05T12:50:27Z</time>
      </trkpt>
      <trkpt lat="48.86836" lon="6.17344">
        <ele>215</ele>
        <time>2013-06-05T12:50:30Z</time>
      </trkpt>
      <trkpt lat="48.86842" lon="6.17348">
        <ele>216</ele>
        <time>2013-06-05T12:50:34Z</time>
      </trkpt>
      <trkpt lat="48.86846" lon="6.17353">
        <ele>216</ele>
        <time>2013-06-05T12:50:38Z</time>
      </trkpt>
      <trkpt lat="48.8685" lon="6.17357">
        <ele>216</ele>
        <time>2013-06-05T12:50:42Z</time>
      </trkpt>
      <trkpt lat="48.86858" lon="6.17365">
        <ele>214</ele>
        <time>2013-06-05T12:50:49Z</time>
      </trkpt>
      <trkpt lat="48.86863" lon="6.17368">
        <ele>213</ele>
        <time>2013-06-05T12:50:53Z</time>
      </trkpt>
      <trkpt lat="48.86868" lon="6.17373">
        <ele>213</ele>
        <time>2013-06-05T12:50:57Z</time>
      </trkpt>
      <trkpt lat="48.86873" lon="6.17378">
        <ele>213</ele>
        <time>2013-06-05T12:51:02Z</time>
      </trkpt>
      <trkpt lat="48.86877" lon="6.17381">
        <ele>213</ele>
        <time>2013-06-05T12:51:05Z</time>
      </trkpt>
      <trkpt lat="48.86881" lon="6.17385">
        <ele>211</ele>
        <time>2013-06-05T12:51:08Z</time>
      </trkpt>
      <trkpt lat="48.86886" lon="6.17388">
        <ele>210</ele>
        <time>2013-06-05T12:51:11Z</time>
      </trkpt>
      <trkpt lat="48.86891" lon="6.1739">
        <ele>210</ele>
        <time>2013-06-05T12:51:15Z</time>
      </trkpt>
      <trkpt lat="48.869" lon="6.17395">
        <ele>210</ele>
        <time>2013-06-05T12:51:21Z</time>
      </trkpt>
      <trkpt lat="48.86906" lon="6.174">
        <ele>211</ele>
        <time>2013-06-05T12:51:27Z</time>
      </trkpt>
      <trkpt lat="48.86911" lon="6.17402">
        <ele>211</ele>
        <time>2013-06-05T12:51:30Z</time>
      </trkpt>
      <trkpt lat="48.86915" lon="6.17403">
        <ele>210</ele>
        <time>2013-06-05T12:51:35Z</time>
      </trkpt>
      <trkpt lat="48.8692" lon="6.17406">
        <ele>211</ele>
        <time>2013-06-05T12:51:39Z</time>
      </trkpt>
      <trkpt lat="48.86925" lon="6.17408">
        <ele>211</ele>
        <time>2013-06-05T12:51:43Z</time>
      </trkpt>
      <trkpt lat="48.8693" lon="6.17409">
        <ele>211</ele>
        <time>2013-06-05T12:51:47Z</time>
      </trkpt>
      <trkpt lat="48.86935" lon="6.17411">
        <ele>212</ele>
        <time>2013-06-05T12:51:50Z</time>
      </trkpt>
      <trkpt lat="48.86939" lon="6.17413">
        <ele>212</ele>
        <time>2013-06-05T12:51:54Z</time>
      </trkpt>
      <trkpt lat="48.86945" lon="6.17414">
        <ele>210</ele>
        <time>2013-06-05T12:51:58Z</time>
      </trkpt>
      <trkpt lat="48.86951" lon="6.17416">
        <ele>210</ele>
        <time>2013-06-05T12:52:01Z</time>
      </trkpt>
      <trkpt lat="48.86956" lon="6.17418">
        <ele>208</ele>
        <time>2013-06-05T12:52:05Z</time>
      </trkpt>
      <trkpt lat="48.86961" lon="6.17418">
        <ele>208</ele>
        <time>2013-06-05T12:52:10Z</time>
      </trkpt>
      <trkpt lat="48.86965" lon="6.17416">
        <ele>208</ele>
        <time>2013-06-05T12:52:14Z</time>
      </trkpt>
      <trkpt lat="48.8697" lon="6.17414">
        <ele>208</ele>
        <time>2013-06-05T12:52:18Z</time>
      </trkpt>
      <trkpt lat="48.86979" lon="6.1741">
        <ele>208</ele>
        <time>2013-06-05T12:52:25Z</time>
      </trkpt>
      <trkpt lat="48.86987" lon="6.17407">
        <ele>206</ele>
        <time>2013-06-05T12:52:33Z</time>
      </trkpt>
      <trkpt lat="48.86992" lon="6.17403">
        <ele>207</ele>
        <time>2013-06-05T12:52:37Z</time>
      </trkpt>
      <trkpt lat="48.86997" lon="6.17401">
        <ele>208</ele>
        <time>2013-06-05T12:52:41Z</time>
      </trkpt>
      <trkpt lat="48.87002" lon="6.17399">
        <ele>209</ele>
        <time>2013-06-05T12:52:46Z</time>
      </trkpt>
      <trkpt lat="48.87007" lon="6.17396">
        <ele>210</ele>
        <time>2013-06-05T12:52:50Z</time>
      </trkpt>
      <trkpt lat="48.87012" lon="6.17395">
        <ele>210</ele>
        <time>2013-06-05T12:52:54Z</time>
      </trkpt>
      <trkpt lat="48.8702" lon="6.17386">
        <ele>209</ele>
        <time>2013-06-05T12:53:01Z</time>
      </trkpt>
      <trkpt lat="48.87025" lon="6.17383">
        <ele>211</ele>
        <time>2013-06-05T12:53:06Z</time>
      </trkpt>
      <trkpt lat="48.87033" lon="6.17376">
        <ele>212</ele>
        <time>2013-06-05T12:53:14Z</time>
      </trkpt>
      <trkpt lat="48.87041" lon="6.17373">
        <ele>213</ele>
        <time>2013-06-05T12:53:20Z</time>
      </trkpt>
      <trkpt lat="48.87051" lon="6.17372">
        <ele>213</ele>
        <time>2013-06-05T12:53:27Z</time>
      </trkpt>
      <trkpt lat="48.87056" lon="6.17374">
        <ele>214</ele>
        <time>2013-06-05T12:53:31Z</time>
      </trkpt>
      <trkpt lat="48.87062" lon="6.17375">
        <ele>215</ele>
        <time>2013-06-05T12:53:35Z</time>
      </trkpt>
      <trkpt lat="48.87069" lon="6.17373">
        <ele>216</ele>
        <time>2013-06-05T12:53:41Z</time>
      </trkpt>
      <trkpt lat="48.8708" lon="6.17372">
        <ele>216</ele>
        <time>2013-06-05T12:53:46Z</time>
      </trkpt>
      <trkpt lat="48.87085" lon="6.17371">
        <ele>215</ele>
        <time>2013-06-05T12:53:49Z</time>
      </trkpt>
      <trkpt lat="48.87089" lon="6.17372">
        <ele>215</ele>
        <time>2013-06-05T12:53:52Z</time>
      </trkpt>
      <trkpt lat="48.87095" lon="6.17373">
        <ele>214</ele>
        <time>2013-06-05T12:53:56Z</time>
      </trkpt>
      <trkpt lat="48.87099" lon="6.17376">
        <ele>214</ele>
        <time>2013-06-05T12:53:59Z</time>
      </trkpt>
      <trkpt lat="48.87103" lon="6.17379">
        <ele>214</ele>
        <time>2013-06-05T12:54:03Z</time>
      </trkpt>
      <trkpt lat="48.87109" lon="6.1738">
        <ele>214</ele>
        <time>2013-06-05T12:54:07Z</time>
      </trkpt>
      <trkpt lat="48.87114" lon="6.17381">
        <ele>214</ele>
        <time>2013-06-05T12:54:10Z</time>
      </trkpt>
      <trkpt lat="48.87118" lon="6.17383">
        <ele>214</ele>
        <time>2013-06-05T12:54:14Z</time>
      </trkpt>
      <trkpt lat="48.87123" lon="6.17383">
        <ele>213</ele>
        <time>2013-06-05T12:54:18Z</time>
      </trkpt>
      <trkpt lat="48.87127" lon="6.17384">
        <ele>213</ele>
        <time>2013-06-05T12:54:21Z</time>
      </trkpt>
      <trkpt lat="48.87132" lon="6.17385">
        <ele>214</ele>
        <time>2013-06-05T12:54:24Z</time>
      </trkpt>
      <trkpt lat="48.87137" lon="6.17386">
        <ele>214</ele>
        <time>2013-06-05T12:54:28Z</time>
      </trkpt>
      <trkpt lat="48.87143" lon="6.17387">
        <ele>214</ele>
        <time>2013-06-05T12:54:32Z</time>
      </trkpt>
      <trkpt lat="48.87148" lon="6.17389">
        <ele>214</ele>
        <time>2013-06-05T12:54:36Z</time>
      </trkpt>
      <trkpt lat="48.87153" lon="6.17389">
        <ele>214</ele>
        <time>2013-06-05T12:54:40Z</time>
      </trkpt>
      <trkpt lat="48.87159" lon="6.1739">
        <ele>214</ele>
        <time>2013-06-05T12:54:44Z</time>
      </trkpt>
      <trkpt lat="48.87163" lon="6.17391">
        <ele>214</ele>
        <time>2013-06-05T12:54:47Z</time>
      </trkpt>
      <trkpt lat="48.87169" lon="6.17392">
        <ele>215</ele>
        <time>2013-06-05T12:54:52Z</time>
      </trkpt>
      <trkpt lat="48.87174" lon="6.17394">
        <ele>215</ele>
        <time>2013-06-05T12:54:56Z</time>
      </trkpt>
      <trkpt lat="48.87181" lon="6.17396">
        <ele>215</ele>
        <time>2013-06-05T12:55:00Z</time>
      </trkpt>
      <trkpt lat="48.87185" lon="6.17396">
        <ele>216</ele>
        <time>2013-06-05T12:55:04Z</time>
      </trkpt>
      <trkpt lat="48.87191" lon="6.17396">
        <ele>216</ele>
        <time>2013-06-05T12:55:08Z</time>
      </trkpt>
      <trkpt lat="48.87195" lon="6.17396">
        <ele>216</ele>
        <time>2013-06-05T12:55:11Z</time>
      </trkpt>
      <trkpt lat="48.87201" lon="6.17397">
        <ele>217</ele>
        <time>2013-06-05T12:55:15Z</time>
      </trkpt>
      <trkpt lat="48.87207" lon="6.174">
        <ele>217</ele>
        <time>2013-06-05T12:55:19Z</time>
      </trkpt>
      <trkpt lat="48.87212" lon="6.17401">
        <ele>217</ele>
        <time>2013-06-05T12:55:23Z</time>
      </trkpt>
      <trkpt lat="48.87217" lon="6.17402">
        <ele>218</ele>
        <time>2013-06-05T12:55:27Z</time>
      </trkpt>
      <trkpt lat="48.87222" lon="6.17403">
        <ele>219</ele>
        <time>2013-06-05T12:55:31Z</time>
      </trkpt>
      <trkpt lat="48.87227" lon="6.17405">
        <ele>219</ele>
        <time>2013-06-05T12:55:35Z</time>
      </trkpt>
      <trkpt lat="48.87232" lon="6.17405">
        <ele>219</ele>
        <time>2013-06-05T12:55:39Z</time>
      </trkpt>
      <trkpt lat="48.87238" lon="6.17406">
        <ele>218</ele>
        <time>2013-06-05T12:55:42Z</time>
      </trkpt>
      <trkpt lat="48.87243" lon="6.17407">
        <ele>218</ele>
        <time>2013-06-05T12:55:45Z</time>
      </trkpt>
      <trkpt lat="48.87248" lon="6.17408">
        <ele>218</ele>
        <time>2013-06-05T12:55:50Z</time>
      </trkpt>
      <trkpt lat="48.87253" lon="6.1741">
        <ele>217</ele>
        <time>2013-06-05T12:55:54Z</time>
      </trkpt>
      <trkpt lat="48.87258" lon="6.17412">
        <ele>217</ele>
        <time>2013-06-05T12:55:59Z</time>
      </trkpt>
      <trkpt lat="48.87264" lon="6.17412">
        <ele>216</ele>
        <time>2013-06-05T12:56:03Z</time>
      </trkpt>
      <trkpt lat="48.87269" lon="6.17414">
        <ele>217</ele>
        <time>2013-06-05T12:56:08Z</time>
      </trkpt>
      <trkpt lat="48.87274" lon="6.17416">
        <ele>218</ele>
        <time>2013-06-05T12:56:11Z</time>
      </trkpt>
      <trkpt lat="48.87279" lon="6.17417">
        <ele>218</ele>
        <time>2013-06-05T12:56:14Z</time>
      </trkpt>
      <trkpt lat="48.87284" lon="6.17418">
        <ele>218</ele>
        <time>2013-06-05T12:56:18Z</time>
      </trkpt>
      <trkpt lat="48.87288" lon="6.17421">
        <ele>218</ele>
        <time>2013-06-05T12:56:21Z</time>
      </trkpt>
      <trkpt lat="48.87293" lon="6.17422">
        <ele>217</ele>
        <time>2013-06-05T12:56:25Z</time>
      </trkpt>
      <trkpt lat="48.87298" lon="6.17423">
        <ele>217</ele>
        <time>2013-06-05T12:56:29Z</time>
      </trkpt>
      <trkpt lat="48.87303" lon="6.17424">
        <ele>218</ele>
        <time>2013-06-05T12:56:33Z</time>
      </trkpt>
      <trkpt lat="48.87309" lon="6.17425">
        <ele>218</ele>
        <time>2013-06-05T12:56:37Z</time>
      </trkpt>
      <trkpt lat="48.87313" lon="6.17427">
        <ele>218</ele>
        <time>2013-06-05T12:56:41Z</time>
      </trkpt>
      <trkpt lat="48.87318" lon="6.17428">
        <ele>219</ele>
        <time>2013-06-05T12:56:44Z</time>
      </trkpt>
      <trkpt lat="48.87323" lon="6.17428">
        <ele>219</ele>
        <time>2013-06-05T12:56:48Z</time>
      </trkpt>
      <trkpt lat="48.87328" lon="6.17429">
        <ele>220</ele>
        <time>2013-06-05T12:56:52Z</time>
      </trkpt>
      <trkpt lat="48.87332" lon="6.17432">
        <ele>220</ele>
        <time>2013-06-05T12:56:55Z</time>
      </trkpt>
      <trkpt lat="48.87337" lon="6.17434">
        <ele>220</ele>
        <time>2013-06-05T12:56:59Z</time>
      </trkpt>
      <trkpt lat="48.87342" lon="6.17435">
        <ele>220</ele>
        <time>2013-06-05T12:57:02Z</time>
      </trkpt>
      <trkpt lat="48.87347" lon="6.17438">
        <ele>220</ele>
        <time>2013-06-05T12:57:06Z</time>
      </trkpt>
      <trkpt lat="48.87352" lon="6.1744">
        <ele>222</ele>
        <time>2013-06-05T12:57:10Z</time>
      </trkpt>
      <trkpt lat="48.87357" lon="6.17442">
        <ele>223</ele>
        <time>2013-06-05T12:57:13Z</time>
      </trkpt>
      <trkpt lat="48.87362" lon="6.17442">
        <ele>223</ele>
        <time>2013-06-05T12:57:17Z</time>
      </trkpt>
      <trkpt lat="48.87367" lon="6.17443">
        <ele>223</ele>
        <time>2013-06-05T12:57:21Z</time>
      </trkpt>
      <trkpt lat="48.87373" lon="6.17444">
        <ele>223</ele>
        <time>2013-06-05T12:57:25Z</time>
      </trkpt>
      <trkpt lat="48.87378" lon="6.17445">
        <ele>224</ele>
        <time>2013-06-05T12:57:29Z</time>
      </trkpt>
      <trkpt lat="48.87384" lon="6.17447">
        <ele>223</ele>
        <time>2013-06-05T12:57:33Z</time>
      </trkpt>
      <trkpt lat="48.87393" lon="6.1745">
        <ele>218</ele>
        <time>2013-06-05T12:57:42Z</time>
      </trkpt>
      <trkpt lat="48.87394" lon="6.17441">
        <ele>215</ele>
        <time>2013-06-05T12:57:52Z</time>
      </trkpt>
      <trkpt lat="48.87395" lon="6.17432">
        <ele>213</ele>
        <time>2013-06-05T12:57:56Z</time>
      </trkpt>
      <trkpt lat="48.87397" lon="6.17424">
        <ele>212</ele>
        <time>2013-06-05T12:57:59Z</time>
      </trkpt>
      <trkpt lat="48.87399" lon="6.17415">
        <ele>211</ele>
        <time>2013-06-05T12:58:03Z</time>
      </trkpt>
      <trkpt lat="48.87401" lon="6.17409">
        <ele>211</ele>
        <time>2013-06-05T12:58:07Z</time>
      </trkpt>
      <trkpt lat="48.87403" lon="6.17402">
        <ele>211</ele>
        <time>2013-06-05T12:58:11Z</time>
      </trkpt>
      <trkpt lat="48.87404" lon="6.17396">
        <ele>211</ele>
        <time>2013-06-05T12:58:14Z</time>
      </trkpt>
      <trkpt lat="48.87405" lon="6.17388">
        <ele>211</ele>
        <time>2013-06-05T12:58:18Z</time>
      </trkpt>
      <trkpt lat="48.87407" lon="6.17379">
        <ele>211</ele>
        <time>2013-06-05T12:58:22Z</time>
      </trkpt>
      <trkpt lat="48.87409" lon="6.17372">
        <ele>210</ele>
        <time>2013-06-05T12:58:26Z</time>
      </trkpt>
      <trkpt lat="48.87411" lon="6.17366">
        <ele>210</ele>
        <time>2013-06-05T12:58:29Z</time>
      </trkpt>
      <trkpt lat="48.87413" lon="6.17358">
        <ele>210</ele>
        <time>2013-06-05T12:58:33Z</time>
      </trkpt>
      <trkpt lat="48.87414" lon="6.17351">
        <ele>210</ele>
        <time>2013-06-05T12:58:37Z</time>
      </trkpt>
      <trkpt lat="48.87416" lon="6.17343">
        <ele>210</ele>
        <time>2013-06-05T12:58:41Z</time>
      </trkpt>
      <trkpt lat="48.87417" lon="6.17335">
        <ele>210</ele>
        <time>2013-06-05T12:58:45Z</time>
      </trkpt>
      <trkpt lat="48.8742" lon="6.17328">
        <ele>209</ele>
        <time>2013-06-05T12:58:49Z</time>
      </trkpt>
      <trkpt lat="48.87421" lon="6.1732">
        <ele>209</ele>
        <time>2013-06-05T12:58:54Z</time>
      </trkpt>
      <trkpt lat="48.87416" lon="6.17315">
        <ele>210</ele>
        <time>2013-06-05T12:58:59Z</time>
      </trkpt>
      <trkpt lat="48.87412" lon="6.17312">
        <ele>210</ele>
        <time>2013-06-05T12:59:04Z</time>
      </trkpt>
      <trkpt lat="48.87407" lon="6.17309">
        <ele>211</ele>
        <time>2013-06-05T12:59:11Z</time>
      </trkpt>
      <trkpt lat="48.87403" lon="6.17306">
        <ele>211</ele>
        <time>2013-06-05T12:59:16Z</time>
      </trkpt>
      <trkpt lat="48.87399" lon="6.17302">
        <ele>212</ele>
        <time>2013-06-05T12:59:23Z</time>
      </trkpt>
      <trkpt lat="48.87399" lon="6.17295">
        <ele>213</ele>
        <time>2013-06-05T12:59:29Z</time>
      </trkpt>
      <trkpt lat="48.87399" lon="6.17286">
        <ele>213</ele>
        <time>2013-06-05T12:59:36Z</time>
      </trkpt>
      <trkpt lat="48.87393" lon="6.17276">
        <ele>210</ele>
        <time>2013-06-05T13:00:27Z</time>
      </trkpt>
      <trkpt lat="48.87394" lon="6.17278">
        <ele>224</ele>
        <time>2013-06-05T13:06:33Z</time>
      </trkpt>
      <trkpt lat="48.87396" lon="6.1728">
        <ele>221</ele>
        <time>2013-06-05T13:08:30Z</time>
      </trkpt>
      <trkpt lat="48.87395" lon="6.17286">
        <ele>221</ele>
        <time>2013-06-05T13:08:39Z</time>
      </trkpt>
      <trkpt lat="48.874" lon="6.17296">
        <ele>220</ele>
        <time>2013-06-05T13:08:49Z</time>
      </trkpt>
      <trkpt lat="48.87405" lon="6.173">
        <ele>219</ele>
        <time>2013-06-05T13:08:53Z</time>
      </trkpt>
      <trkpt lat="48.8741" lon="6.17304">
        <ele>218</ele>
        <time>2013-06-05T13:08:57Z</time>
      </trkpt>
      <trkpt lat="48.87415" lon="6.17305">
        <ele>217</ele>
        <time>2013-06-05T13:09:00Z</time>
      </trkpt>
      <trkpt lat="48.8742" lon="6.17307">
        <ele>217</ele>
        <time>2013-06-05T13:09:04Z</time>
      </trkpt>
      <trkpt lat="48.87425" lon="6.17304">
        <ele>215</ele>
        <time>2013-06-05T13:09:08Z</time>
      </trkpt>
      <trkpt lat="48.87429" lon="6.17299">
        <ele>215</ele>
        <time>2013-06-05T13:09:12Z</time>
      </trkpt>
      <trkpt lat="48.87432" lon="6.17293">
        <ele>214</ele>
        <time>2013-06-05T13:09:18Z</time>
      </trkpt>
      <trkpt lat="48.87434" lon="6.17286">
        <ele>214</ele>
        <time>2013-06-05T13:09:24Z</time>
      </trkpt>
      <trkpt lat="48.87437" lon="6.17279">
        <ele>213</ele>
        <time>2013-06-05T13:09:29Z</time>
      </trkpt>
      <trkpt lat="48.8744" lon="6.17272">
        <ele>214</ele>
        <time>2013-06-05T13:09:34Z</time>
      </trkpt>
      <trkpt lat="48.87442" lon="6.17266">
        <ele>214</ele>
        <time>2013-06-05T13:09:37Z</time>
      </trkpt>
      <trkpt lat="48.87444" lon="6.17258">
        <ele>214</ele>
        <time>2013-06-05T13:09:41Z</time>
      </trkpt>
      <trkpt lat="48.87446" lon="6.17251">
        <ele>214</ele>
        <time>2013-06-05T13:09:45Z</time>
      </trkpt>
      <trkpt lat="48.87449" lon="6.17244">
        <ele>214</ele>
        <time>2013-06-05T13:09:49Z</time>
      </trkpt>
      <trkpt lat="48.87451" lon="6.17237">
        <ele>214</ele>
        <time>2013-06-05T13:09:53Z</time>
      </trkpt>
      <trkpt lat="48.87454" lon="6.1723">
        <ele>213</ele>
        <time>2013-06-05T13:09:58Z</time>
      </trkpt>
      <trkpt lat="48.87456" lon="6.17224">
        <ele>213</ele>
        <time>2013-06-05T13:10:01Z</time>
      </trkpt>
      <trkpt lat="48.87458" lon="6.17218">
        <ele>212</ele>
        <time>2013-06-05T13:10:04Z</time>
      </trkpt>
      <trkpt lat="48.8746" lon="6.1721">
        <ele>211</ele>
        <time>2013-06-05T13:10:08Z</time>
      </trkpt>
      <trkpt lat="48.87463" lon="6.17203">
        <ele>211</ele>
        <time>2013-06-05T13:10:12Z</time>
      </trkpt>
      <trkpt lat="48.87466" lon="6.17195">
        <ele>211</ele>
        <time>2013-06-05T13:10:17Z</time>
      </trkpt>
      <trkpt lat="48.87469" lon="6.17188">
        <ele>211</ele>
        <time>2013-06-05T13:10:21Z</time>
      </trkpt>
      <trkpt lat="48.87471" lon="6.17182">
        <ele>210</ele>
        <time>2013-06-05T13:10:24Z</time>
      </trkpt>
      <trkpt lat="48.87473" lon="6.17175">
        <ele>210</ele>
        <time>2013-06-05T13:10:27Z</time>
      </trkpt>
      <trkpt lat="48.87474" lon="6.17168">
        <ele>210</ele>
        <time>2013-06-05T13:10:31Z</time>
      </trkpt>
      <trkpt lat="48.87476" lon="6.17159">
        <ele>209</ele>
        <time>2013-06-05T13:10:36Z</time>
      </trkpt>
      <trkpt lat="48.87477" lon="6.17151">
        <ele>209</ele>
        <time>2013-06-05T13:10:41Z</time>
      </trkpt>
      <trkpt lat="48.87478" lon="6.17145">
        <ele>209</ele>
        <time>2013-06-05T13:10:45Z</time>
      </trkpt>
      <trkpt lat="48.87479" lon="6.17136">
        <ele>208</ele>
        <time>2013-06-05T13:10:49Z</time>
      </trkpt>
      <trkpt lat="48.8748" lon="6.17129">
        <ele>208</ele>
        <time>2013-06-05T13:10:52Z</time>
      </trkpt>
      <trkpt lat="48.8748" lon="6.17122">
        <ele>209</ele>
        <time>2013-06-05T13:10:56Z</time>
      </trkpt>
      <trkpt lat="48.87481" lon="6.17115">
        <ele>209</ele>
        <time>2013-06-05T13:10:59Z</time>
      </trkpt>
      <trkpt lat="48.87481" lon="6.17106">
        <ele>209</ele>
        <time>2013-06-05T13:11:04Z</time>
      </trkpt>
      <trkpt lat="48.87483" lon="6.17099">
        <ele>210</ele>
        <time>2013-06-05T13:11:08Z</time>
      </trkpt>
      <trkpt lat="48.87484" lon="6.17092">
        <ele>210</ele>
        <time>2013-06-05T13:11:12Z</time>
      </trkpt>
      <trkpt lat="48.87484" lon="6.17083">
        <ele>211</ele>
        <time>2013-06-05T13:11:16Z</time>
      </trkpt>
      <trkpt lat="48.87485" lon="6.17074">
        <ele>212</ele>
        <time>2013-06-05T13:11:20Z</time>
      </trkpt>
      <trkpt lat="48.87486" lon="6.17067">
        <ele>212</ele>
        <time>2013-06-05T13:11:24Z</time>
      </trkpt>
      <trkpt lat="48.87487" lon="6.17059">
        <ele>213</ele>
        <time>2013-06-05T13:11:28Z</time>
      </trkpt>
      <trkpt lat="48.87488" lon="6.17052">
        <ele>213</ele>
        <time>2013-06-05T13:11:31Z</time>
      </trkpt>
      <trkpt lat="48.87489" lon="6.17043">
        <ele>214</ele>
        <time>2013-06-05T13:11:35Z</time>
      </trkpt>
      <trkpt lat="48.87489" lon="6.17035">
        <ele>214</ele>
        <time>2013-06-05T13:11:38Z</time>
      </trkpt>
      <trkpt lat="48.8749" lon="6.17027">
        <ele>213</ele>
        <time>2013-06-05T13:11:42Z</time>
      </trkpt>
      <trkpt lat="48.87492" lon="6.17019">
        <ele>212</ele>
        <time>2013-06-05T13:11:47Z</time>
      </trkpt>
      <trkpt lat="48.87493" lon="6.17013">
        <ele>212</ele>
        <time>2013-06-05T13:11:51Z</time>
      </trkpt>
      <trkpt lat="48.87493" lon="6.17005">
        <ele>212</ele>
        <time>2013-06-05T13:11:55Z</time>
      </trkpt>
      <trkpt lat="48.87494" lon="6.16997">
        <ele>212</ele>
        <time>2013-06-05T13:11:59Z</time>
      </trkpt>
      <trkpt lat="48.87494" lon="6.16987">
        <ele>211</ele>
        <time>2013-06-05T13:12:04Z</time>
      </trkpt>
      <trkpt lat="48.87495" lon="6.16978">
        <ele>211</ele>
        <time>2013-06-05T13:12:08Z</time>
      </trkpt>
      <trkpt lat="48.87495" lon="6.1697">
        <ele>211</ele>
        <time>2013-06-05T13:12:12Z</time>
      </trkpt>
      <trkpt lat="48.87495" lon="6.16962">
        <ele>211</ele>
        <time>2013-06-05T13:12:16Z</time>
      </trkpt>
      <trkpt lat="48.87496" lon="6.16954">
        <ele>211</ele>
        <time>2013-06-05T13:12:20Z</time>
      </trkpt>
      <trkpt lat="48.87496" lon="6.16947">
        <ele>212</ele>
        <time>2013-06-05T13:12:24Z</time>
      </trkpt>
      <trkpt lat="48.87497" lon="6.16939">
        <ele>211</ele>
        <time>2013-06-05T13:12:28Z</time>
      </trkpt>
      <trkpt lat="48.87497" lon="6.1693">
        <ele>211</ele>
        <time>2013-06-05T13:12:32Z</time>
      </trkpt>
      <trkpt lat="48.87497" lon="6.16923">
        <ele>210</ele>
        <time>2013-06-05T13:12:36Z</time>
      </trkpt>
      <trkpt lat="48.87497" lon="6.16914">
        <ele>210</ele>
        <time>2013-06-05T13:12:40Z</time>
      </trkpt>
      <trkpt lat="48.87496" lon="6.16906">
        <ele>210</ele>
        <time>2013-06-05T13:12:44Z</time>
      </trkpt>
      <trkpt lat="48.87494" lon="6.16898">
        <ele>210</ele>
        <time>2013-06-05T13:12:48Z</time>
      </trkpt>
      <trkpt lat="48.8749" lon="6.16891">
        <ele>211</ele>
        <time>2013-06-05T13:12:52Z</time>
      </trkpt>
      <trkpt lat="48.87487" lon="6.16886">
        <ele>210</ele>
        <time>2013-06-05T13:12:56Z</time>
      </trkpt>
      <trkpt lat="48.87482" lon="6.16881">
        <ele>210</ele>
        <time>2013-06-05T13:13:00Z</time>
      </trkpt>
      <trkpt lat="48.87479" lon="6.16876">
        <ele>210</ele>
        <time>2013-06-05T13:13:04Z</time>
      </trkpt>
      <trkpt lat="48.87475" lon="6.16871">
        <ele>210</ele>
        <time>2013-06-05T13:13:08Z</time>
      </trkpt>
      <trkpt lat="48.87471" lon="6.16866">
        <ele>210</ele>
        <time>2013-06-05T13:13:11Z</time>
      </trkpt>
      <trkpt lat="48.87468" lon="6.1686">
        <ele>210</ele>
        <time>2013-06-05T13:13:15Z</time>
      </trkpt>
      <trkpt lat="48.87464" lon="6.16854">
        <ele>210</ele>
        <time>2013-06-05T13:13:19Z</time>
      </trkpt>
      <trkpt lat="48.87461" lon="6.16849">
        <ele>210</ele>
        <time>2013-06-05T13:13:24Z</time>
      </trkpt>
      <trkpt lat="48.87457" lon="6.16843">
        <ele>210</ele>
        <time>2013-06-05T13:13:27Z</time>
      </trkpt>
      <trkpt lat="48.87453" lon="6.16838">
        <ele>209</ele>
        <time>2013-06-05T13:13:31Z</time>
      </trkpt>
      <trkpt lat="48.87449" lon="6.16831">
        <ele>210</ele>
        <time>2013-06-05T13:13:36Z</time>
      </trkpt>
      <trkpt lat="48.87445" lon="6.16826">
        <ele>210</ele>
        <time>2013-06-05T13:13:39Z</time>
      </trkpt>
      <trkpt lat="48.87442" lon="6.1682">
        <ele>210</ele>
        <time>2013-06-05T13:13:43Z</time>
      </trkpt>
      <trkpt lat="48.87438" lon="6.16814">
        <ele>211</ele>
        <time>2013-06-05T13:13:47Z</time>
      </trkpt>
      <trkpt lat="48.87435" lon="6.16808">
        <ele>210</ele>
        <time>2013-06-05T13:13:51Z</time>
      </trkpt>
      <trkpt lat="48.87431" lon="6.16803">
        <ele>210</ele>
        <time>2013-06-05T13:13:55Z</time>
      </trkpt>
      <trkpt lat="48.87427" lon="6.16798">
        <ele>210</ele>
        <time>2013-06-05T13:13:59Z</time>
      </trkpt>
      <trkpt lat="48.87423" lon="6.16792">
        <ele>209</ele>
        <time>2013-06-05T13:14:03Z</time>
      </trkpt>
      <trkpt lat="48.87419" lon="6.16786">
        <ele>210</ele>
        <time>2013-06-05T13:14:07Z</time>
      </trkpt>
      <trkpt lat="48.87416" lon="6.16781">
        <ele>210</ele>
        <time>2013-06-05T13:14:11Z</time>
      </trkpt>
      <trkpt lat="48.87413" lon="6.16775">
        <ele>210</ele>
        <time>2013-06-05T13:14:14Z</time>
      </trkpt>
      <trkpt lat="48.8741" lon="6.16768">
        <ele>210</ele>
        <time>2013-06-05T13:14:18Z</time>
      </trkpt>
      <trkpt lat="48.87407" lon="6.16762">
        <ele>210</ele>
        <time>2013-06-05T13:14:22Z</time>
      </trkpt>
      <trkpt lat="48.87405" lon="6.16755">
        <ele>210</ele>
        <time>2013-06-05T13:14:26Z</time>
      </trkpt>
      <trkpt lat="48.87403" lon="6.16748">
        <ele>209</ele>
        <time>2013-06-05T13:14:31Z</time>
      </trkpt>
      <trkpt lat="48.87402" lon="6.16739">
        <ele>209</ele>
        <time>2013-06-05T13:14:36Z</time>
      </trkpt>
      <trkpt lat="48.87402" lon="6.16732">
        <ele>208</ele>
        <time>2013-06-05T13:14:39Z</time>
      </trkpt>
      <trkpt lat="48.87402" lon="6.16724">
        <ele>208</ele>
        <time>2013-06-05T13:14:42Z</time>
      </trkpt>
      <trkpt lat="48.87402" lon="6.16717">
        <ele>208</ele>
        <time>2013-06-05T13:14:46Z</time>
      </trkpt>
      <trkpt lat="48.87402" lon="6.16708">
        <ele>208</ele>
        <time>2013-06-05T13:14:50Z</time>
      </trkpt>
      <trkpt lat="48.87402" lon="6.16701">
        <ele>208</ele>
        <time>2013-06-05T13:14:53Z</time>
      </trkpt>
      <trkpt lat="48.87402" lon="6.16694">
        <ele>208</ele>
        <time>2013-06-05T13:14:56Z</time>
      </trkpt>
      <trkpt lat="48.87403" lon="6.16686">
        <ele>208</ele>
        <time>2013-06-05T13:15:00Z</time>
      </trkpt>
      <trkpt lat="48.87402" lon="6.16677">
        <ele>208</ele>
        <time>2013-06-05T13:15:04Z</time>
      </trkpt>
      <trkpt lat="48.87402" lon="6.16669">
        <ele>208</ele>
        <time>2013-06-05T13:15:07Z</time>
      </trkpt>
      <trkpt lat="48.87402" lon="6.16662">
        <ele>208</ele>
        <time>2013-06-05T13:15:11Z</time>
      </trkpt>
      <trkpt lat="48.87401" lon="6.16654">
        <ele>207</ele>
        <time>2013-06-05T13:15:15Z</time>
      </trkpt>
      <trkpt lat="48.874" lon="6.16647">
        <ele>207</ele>
        <time>2013-06-05T13:15:18Z</time>
      </trkpt>
      <trkpt lat="48.87397" lon="6.16641">
        <ele>207</ele>
        <time>2013-06-05T13:15:22Z</time>
      </trkpt>
      <trkpt lat="48.87395" lon="6.16633">
        <ele>206</ele>
        <time>2013-06-05T13:15:26Z</time>
      </trkpt>
      <trkpt lat="48.87393" lon="6.16626">
        <ele>206</ele>
        <time>2013-06-05T13:15:30Z</time>
      </trkpt>
      <trkpt lat="48.87391" lon="6.16619">
        <ele>206</ele>
        <time>2013-06-05T13:15:34Z</time>
      </trkpt>
      <trkpt lat="48.87389" lon="6.16612">
        <ele>207</ele>
        <time>2013-06-05T13:15:38Z</time>
      </trkpt>
      <trkpt lat="48.87387" lon="6.16605">
        <ele>207</ele>
        <time>2013-06-05T13:15:42Z</time>
      </trkpt>
      <trkpt lat="48.87385" lon="6.16598">
        <ele>207</ele>
        <time>2013-06-05T13:15:46Z</time>
      </trkpt>
      <trkpt lat="48.87383" lon="6.1659">
        <ele>207</ele>
        <time>2013-06-05T13:15:50Z</time>
      </trkpt>
      <trkpt lat="48.87381" lon="6.16583">
        <ele>207</ele>
        <time>2013-06-05T13:15:54Z</time>
      </trkpt>
      <trkpt lat="48.8738" lon="6.16575">
        <ele>207</ele>
        <time>2013-06-05T13:15:58Z</time>
      </trkpt>
      <trkpt lat="48.87379" lon="6.16568">
        <ele>207</ele>
        <time>2013-06-05T13:16:02Z</time>
      </trkpt>
      <trkpt lat="48.87378" lon="6.1656">
        <ele>207</ele>
        <time>2013-06-05T13:16:06Z</time>
      </trkpt>
      <trkpt lat="48.87377" lon="6.16551">
        <ele>207</ele>
        <time>2013-06-05T13:16:10Z</time>
      </trkpt>
      <trkpt lat="48.87377" lon="6.16543">
        <ele>207</ele>
        <time>2013-06-05T13:16:14Z</time>
      </trkpt>
      <trkpt lat="48.87377" lon="6.16536">
        <ele>207</ele>
        <time>2013-06-05T13:16:18Z</time>
      </trkpt>
      <trkpt lat="48.87377" lon="6.16529">
        <ele>207</ele>
        <time>2013-06-05T13:16:21Z</time>
      </trkpt>
      <trkpt lat="48.87376" lon="6.16522">
        <ele>206</ele>
        <time>2013-06-05T13:16:25Z</time>
      </trkpt>
      <trkpt lat="48.87376" lon="6.16514">
        <ele>206</ele>
        <time>2013-06-05T13:16:29Z</time>
      </trkpt>
      <trkpt lat="48.87375" lon="6.16506">
        <ele>206</ele>
        <time>2013-06-05T13:16:32Z</time>
      </trkpt>
      <trkpt lat="48.87374" lon="6.16498">
        <ele>205</ele>
        <time>2013-06-05T13:16:36Z</time>
      </trkpt>
      <trkpt lat="48.87374" lon="6.1649">
        <ele>205</ele>
        <time>2013-06-05T13:16:40Z</time>
      </trkpt>
      <trkpt lat="48.87373" lon="6.16483">
        <ele>205</ele>
        <time>2013-06-05T13:16:43Z</time>
      </trkpt>
      <trkpt lat="48.87373" lon="6.16476">
        <ele>204</ele>
        <time>2013-06-05T13:16:46Z</time>
      </trkpt>
      <trkpt lat="48.87372" lon="6.16468">
        <ele>203</ele>
        <time>2013-06-05T13:16:50Z</time>
      </trkpt>
      <trkpt lat="48.87372" lon="6.16459">
        <ele>203</ele>
        <time>2013-06-05T13:16:54Z</time>
      </trkpt>
      <trkpt lat="48.87371" lon="6.16451">
        <ele>203</ele>
        <time>2013-06-05T13:16:57Z</time>
      </trkpt>
      <trkpt lat="48.8737" lon="6.16443">
        <ele>203</ele>
        <time>2013-06-05T13:17:01Z</time>
      </trkpt>
      <trkpt lat="48.8737" lon="6.16435">
        <ele>203</ele>
        <time>2013-06-05T13:17:05Z</time>
      </trkpt>
      <trkpt lat="48.87369" lon="6.16428">
        <ele>203</ele>
        <time>2013-06-05T13:17:09Z</time>
      </trkpt>
      <trkpt lat="48.87369" lon="6.1642">
        <ele>203</ele>
        <time>2013-06-05T13:17:12Z</time>
      </trkpt>
      <trkpt lat="48.87369" lon="6.16412">
        <ele>202</ele>
        <time>2013-06-05T13:17:16Z</time>
      </trkpt>
      <trkpt lat="48.87369" lon="6.16404">
        <ele>201</ele>
        <time>2013-06-05T13:17:20Z</time>
      </trkpt>
      <trkpt lat="48.87369" lon="6.16396">
        <ele>202</ele>
        <time>2013-06-05T13:17:24Z</time>
      </trkpt>
      <trkpt lat="48.87369" lon="6.16389">
        <ele>202</ele>
        <time>2013-06-05T13:17:28Z</time>
      </trkpt>
      <trkpt lat="48.87369" lon="6.16382">
        <ele>202</ele>
        <time>2013-06-05T13:17:32Z</time>
      </trkpt>
      <trkpt lat="48.87369" lon="6.16373">
        <ele>202</ele>
        <time>2013-06-05T13:17:36Z</time>
      </trkpt>
      <trkpt lat="48.87367" lon="6.16365">
        <ele>201</ele>
        <time>2013-06-05T13:17:40Z</time>
      </trkpt>
      <trkpt lat="48.87366" lon="6.16358">
        <ele>201</ele>
        <time>2013-06-05T13:17:47Z</time>
      </trkpt>
      <trkpt lat="48.87363" lon="6.16352">
        <ele>201</ele>
        <time>2013-06-05T13:17:52Z</time>
      </trkpt>
      <trkpt lat="48.87361" lon="6.16345">
        <ele>201</ele>
        <time>2013-06-05T13:17:56Z</time>
      </trkpt>
      <trkpt lat="48.8736" lon="6.16337">
        <ele>201</ele>
        <time>2013-06-05T13:18:00Z</time>
      </trkpt>
      <trkpt lat="48.87357" lon="6.16331">
        <ele>200</ele>
        <time>2013-06-05T13:18:05Z</time>
      </trkpt>
      <trkpt lat="48.87354" lon="6.16325">
        <ele>201</ele>
        <time>2013-06-05T13:18:09Z</time>
      </trkpt>
      <trkpt lat="48.87351" lon="6.16319">
        <ele>202</ele>
        <time>2013-06-05T13:18:13Z</time>
      </trkpt>
      <trkpt lat="48.87343" lon="6.16311">
        <ele>202</ele>
        <time>2013-06-05T13:18:20Z</time>
      </trkpt>
      <trkpt lat="48.87339" lon="6.16307">
        <ele>202</ele>
        <time>2013-06-05T13:18:25Z</time>
      </trkpt>
      <trkpt lat="48.87335" lon="6.16302">
        <ele>202</ele>
        <time>2013-06-05T13:18:31Z</time>
      </trkpt>
      <trkpt lat="48.87329" lon="6.16295">
        <ele>202</ele>
        <time>2013-06-05T13:18:37Z</time>
      </trkpt>
      <trkpt lat="48.87325" lon="6.16291">
        <ele>203</ele>
        <time>2013-06-05T13:18:41Z</time>
      </trkpt>
      <trkpt lat="48.8732" lon="6.16286">
        <ele>204</ele>
        <time>2013-06-05T13:18:46Z</time>
      </trkpt>
      <trkpt lat="48.87315" lon="6.16282">
        <ele>207</ele>
        <time>2013-06-05T13:18:51Z</time>
      </trkpt>
      <trkpt lat="48.87312" lon="6.16277">
        <ele>207</ele>
        <time>2013-06-05T13:18:55Z</time>
      </trkpt>
      <trkpt lat="48.87305" lon="6.16268">
        <ele>208</ele>
        <time>2013-06-05T13:19:02Z</time>
      </trkpt>
      <trkpt lat="48.87301" lon="6.16264">
        <ele>209</ele>
        <time>2013-06-05T13:19:07Z</time>
      </trkpt>
      <trkpt lat="48.87294" lon="6.16256">
        <ele>208</ele>
        <time>2013-06-05T13:19:16Z</time>
      </trkpt>
      <trkpt lat="48.8729" lon="6.1625">
        <ele>208</ele>
        <time>2013-06-05T13:19:20Z</time>
      </trkpt>
      <trkpt lat="48.87286" lon="6.16246">
        <ele>209</ele>
        <time>2013-06-05T13:19:24Z</time>
      </trkpt>
      <trkpt lat="48.87277" lon="6.16237">
        <ele>207</ele>
        <time>2013-06-05T13:19:32Z</time>
      </trkpt>
      <trkpt lat="48.87271" lon="6.16233">
        <ele>207</ele>
        <time>2013-06-05T13:19:35Z</time>
      </trkpt>
      <trkpt lat="48.87267" lon="6.1623">
        <ele>207</ele>
        <time>2013-06-05T13:19:38Z</time>
      </trkpt>
      <trkpt lat="48.8726" lon="6.16224">
        <ele>208</ele>
        <time>2013-06-05T13:19:44Z</time>
      </trkpt>
      <trkpt lat="48.87255" lon="6.16221">
        <ele>210</ele>
        <time>2013-06-05T13:19:50Z</time>
      </trkpt>
      <trkpt lat="48.87249" lon="6.16217">
        <ele>210</ele>
        <time>2013-06-05T13:19:55Z</time>
      </trkpt>
      <trkpt lat="48.87245" lon="6.16213">
        <ele>210</ele>
        <time>2013-06-05T13:19:58Z</time>
      </trkpt>
      <trkpt lat="48.87242" lon="6.16208">
        <ele>211</ele>
        <time>2013-06-05T13:20:04Z</time>
      </trkpt>
      <trkpt lat="48.87236" lon="6.16202">
        <ele>212</ele>
        <time>2013-06-05T13:20:10Z</time>
      </trkpt>
      <trkpt lat="48.8723" lon="6.16196">
        <ele>213</ele>
        <time>2013-06-05T13:20:16Z</time>
      </trkpt>
      <trkpt lat="48.87226" lon="6.16192">
        <ele>212</ele>
        <time>2013-06-05T13:20:22Z</time>
      </trkpt>
      <trkpt lat="48.87222" lon="6.16186">
        <ele>211</ele>
        <time>2013-06-05T13:20:27Z</time>
      </trkpt>
      <trkpt lat="48.87218" lon="6.1618">
        <ele>211</ele>
        <time>2013-06-05T13:20:32Z</time>
      </trkpt>
      <trkpt lat="48.87215" lon="6.16174">
        <ele>211</ele>
        <time>2013-06-05T13:20:39Z</time>
      </trkpt>
      <trkpt lat="48.87213" lon="6.16165">
        <ele>214</ele>
        <time>2013-06-05T13:20:49Z</time>
      </trkpt>
      <trkpt lat="48.87208" lon="6.16154">
        <ele>218</ele>
        <time>2013-06-05T13:20:57Z</time>
      </trkpt>
      <trkpt lat="48.87206" lon="6.16144">
        <ele>218</ele>
        <time>2013-06-05T13:21:02Z</time>
      </trkpt>
      <trkpt lat="48.87202" lon="6.16135">
        <ele>218</ele>
        <time>2013-06-05T13:21:08Z</time>
      </trkpt>
      <trkpt lat="48.872" lon="6.16128">
        <ele>217</ele>
        <time>2013-06-05T13:21:16Z</time>
      </trkpt>
      <trkpt lat="48.87196" lon="6.16114">
        <ele>216</ele>
        <time>2013-06-05T13:21:25Z</time>
      </trkpt>
      <trkpt lat="48.87192" lon="6.16106">
        <ele>216</ele>
        <time>2013-06-05T13:21:31Z</time>
      </trkpt>
      <trkpt lat="48.8719" lon="6.16092">
        <ele>215</ele>
        <time>2013-06-05T13:21:41Z</time>
      </trkpt>
      <trkpt lat="48.87188" lon="6.16079">
        <ele>213</ele>
        <time>2013-06-05T13:21:51Z</time>
      </trkpt>
      <trkpt lat="48.87186" lon="6.16073">
        <ele>212</ele>
        <time>2013-06-05T13:21:55Z</time>
      </trkpt>
      <trkpt lat="48.87178" lon="6.16062">
        <ele>211</ele>
        <time>2013-06-05T13:22:00Z</time>
      </trkpt>
      <trkpt lat="48.87169" lon="6.16051">
        <ele>210</ele>
        <time>2013-06-05T13:22:10Z</time>
      </trkpt>
      <trkpt lat="48.87161" lon="6.16043">
        <ele>211</ele>
        <time>2013-06-05T13:22:14Z</time>
      </trkpt>
      <trkpt lat="48.87152" lon="6.16028">
        <ele>215</ele>
        <time>2013-06-05T13:22:20Z</time>
      </trkpt>
      <trkpt lat="48.87146" lon="6.16017">
        <ele>221</ele>
        <time>2013-06-05T13:22:30Z</time>
      </trkpt>
      <trkpt lat="48.8714" lon="6.16009">
        <ele>223</ele>
        <time>2013-06-05T13:22:35Z</time>
      </trkpt>
      <trkpt lat="48.87134" lon="6.15998">
        <ele>219</ele>
        <time>2013-06-05T13:22:48Z</time>
      </trkpt>
      <trkpt lat="48.87129" lon="6.15987">
        <ele>217</ele>
        <time>2013-06-05T13:22:56Z</time>
      </trkpt>
      <trkpt lat="48.87122" lon="6.15977">
        <ele>213</ele>
        <time>2013-06-05T13:23:09Z</time>
      </trkpt>
      <trkpt lat="48.87115" lon="6.15967">
        <ele>213</ele>
        <time>2013-06-05T13:23:15Z</time>
      </trkpt>
      <trkpt lat="48.87108" lon="6.15959">
        <ele>213</ele>
        <time>2013-06-05T13:23:24Z</time>
      </trkpt>
      <trkpt lat="48.871" lon="6.15961">
        <ele>210</ele>
        <time>2013-06-05T13:24:23Z</time>
      </trkpt>
      <trkpt lat="48.87099" lon="6.15956">
        <ele>210</ele>
        <time>2013-06-05T13:25:01Z</time>
      </trkpt>
      <trkpt lat="48.87097" lon="6.15951">
        <ele>214</ele>
        <time>2013-06-05T13:25:19Z</time>
      </trkpt>
      <trkpt lat="48.87088" lon="6.15943">
        <ele>216</ele>
        <time>2013-06-05T13:25:43Z</time>
      </trkpt>
      <trkpt lat="48.87081" lon="6.15936">
        <ele>217</ele>
        <time>2013-06-05T13:25:49Z</time>
      </trkpt>
      <trkpt lat="48.87076" lon="6.15936">
        <ele>219</ele>
        <time>2013-06-05T13:26:06Z</time>
      </trkpt>
      <trkpt lat="48.87068" lon="6.15929">
        <ele>219</ele>
        <time>2013-06-05T13:26:22Z</time>
      </trkpt>
      <trkpt lat="48.87063" lon="6.15924">
        <ele>223</ele>
        <time>2013-06-05T13:26:38Z</time>
      </trkpt>
      <trkpt lat="48.8705" lon="6.15916">
        <ele>223</ele>
        <time>2013-06-05T13:26:39Z</time>
      </trkpt>
      <trkpt lat="48.87041" lon="6.15909">
        <ele>224</ele>
        <time>2013-06-05T13:26:41Z</time>
      </trkpt>
      <trkpt lat="48.87031" lon="6.15904">
        <ele>227</ele>
        <time>2013-06-05T13:26:50Z</time>
      </trkpt>
      <trkpt lat="48.87021" lon="6.15897">
        <ele>225</ele>
        <time>2013-06-05T13:26:58Z</time>
      </trkpt>
      <trkpt lat="48.87015" lon="6.15891">
        <ele>225</ele>
        <time>2013-06-05T13:27:12Z</time>
      </trkpt>
      <trkpt lat="48.87008" lon="6.1588">
        <ele>225</ele>
        <time>2013-06-05T13:27:24Z</time>
      </trkpt>
      <trkpt lat="48.87" lon="6.15868">
        <ele>225</ele>
        <time>2013-06-05T13:27:33Z</time>
      </trkpt>
      <trkpt lat="48.86995" lon="6.15858">
        <ele>226</ele>
        <time>2013-06-05T13:27:39Z</time>
      </trkpt>
      <trkpt lat="48.86988" lon="6.1585">
        <ele>223</ele>
        <time>2013-06-05T13:27:53Z</time>
      </trkpt>
      <trkpt lat="48.86979" lon="6.15833">
        <ele>227</ele>
        <time>2013-06-05T13:28:02Z</time>
      </trkpt>
      <trkpt lat="48.86974" lon="6.15827">
        <ele>228</ele>
        <time>2013-06-05T13:28:04Z</time>
      </trkpt>
      <trkpt lat="48.86969" lon="6.15822">
        <ele>228</ele>
        <time>2013-06-05T13:28:07Z</time>
      </trkpt>
      <trkpt lat="48.86967" lon="6.1582">
        <ele>228</ele>
        <time>2013-06-05T13:28:14Z</time>
      </trkpt>
      <trkpt lat="48.86958" lon="6.15812">
        <ele>228</ele>
        <time>2013-06-05T13:28:24Z</time>
      </trkpt>
      <trkpt lat="48.8695" lon="6.15804">
        <ele>228</ele>
        <time>2013-06-05T13:28:30Z</time>
      </trkpt>
      <trkpt lat="48.86944" lon="6.15799">
        <ele>230</ele>
        <time>2013-06-05T13:28:41Z</time>
      </trkpt>
      <trkpt lat="48.86939" lon="6.15795">
        <ele>231</ele>
        <time>2013-06-05T13:28:46Z</time>
      </trkpt>
      <trkpt lat="48.86923" lon="6.15778">
        <ele>220</ele>
        <time>2013-06-05T13:29:06Z</time>
      </trkpt>
      <trkpt lat="48.86916" lon="6.15769">
        <ele>219</ele>
        <time>2013-06-05T13:29:13Z</time>
      </trkpt>
      <trkpt lat="48.86909" lon="6.1576">
        <ele>219</ele>
        <time>2013-06-05T13:29:25Z</time>
      </trkpt>
      <trkpt lat="48.86902" lon="6.15751">
        <ele>219</ele>
        <time>2013-06-05T13:29:28Z</time>
      </trkpt>
      <trkpt lat="48.86893" lon="6.15732">
        <ele>221</ele>
        <time>2013-06-05T13:29:39Z</time>
      </trkpt>
      <trkpt lat="48.86885" lon="6.15719">
        <ele>224</ele>
        <time>2013-06-05T13:29:50Z</time>
      </trkpt>
      <trkpt lat="48.86879" lon="6.15701">
        <ele>230</ele>
        <time>2013-06-05T13:30:07Z</time>
      </trkpt>
      <trkpt lat="48.86871" lon="6.15693">
        <ele>231</ele>
        <time>2013-06-05T13:30:13Z</time>
      </trkpt>
      <trkpt lat="48.86867" lon="6.1568">
        <ele>231</ele>
        <time>2013-06-05T13:30:26Z</time>
      </trkpt>
      <trkpt lat="48.86861" lon="6.15669">
        <ele>230</ele>
        <time>2013-06-05T13:30:36Z</time>
      </trkpt>
      <trkpt lat="48.86856" lon="6.15661">
        <ele>230</ele>
        <time>2013-06-05T13:30:41Z</time>
      </trkpt>
      <trkpt lat="48.86852" lon="6.15654">
        <ele>230</ele>
        <time>2013-06-05T13:30:53Z</time>
      </trkpt>
      <trkpt lat="48.86846" lon="6.15646">
        <ele>232</ele>
        <time>2013-06-05T13:31:05Z</time>
      </trkpt>
      <trkpt lat="48.86843" lon="6.1564">
        <ele>231</ele>
        <time>2013-06-05T13:31:08Z</time>
      </trkpt>
      <trkpt lat="48.86839" lon="6.15633">
        <ele>230</ele>
        <time>2013-06-05T13:31:15Z</time>
      </trkpt>
      <trkpt lat="48.86827" lon="6.15627">
        <ele>231</ele>
        <time>2013-06-05T13:31:35Z</time>
      </trkpt>
      <trkpt lat="48.86822" lon="6.15625">
        <ele>231</ele>
        <time>2013-06-05T13:31:40Z</time>
      </trkpt>
      <trkpt lat="48.86808" lon="6.1562">
        <ele>237</ele>
        <time>2013-06-05T13:32:03Z</time>
      </trkpt>
      <trkpt lat="48.86799" lon="6.15616">
        <ele>237</ele>
        <time>2013-06-05T13:32:10Z</time>
      </trkpt>
      <trkpt lat="48.86789" lon="6.1561">
        <ele>237</ele>
        <time>2013-06-05T13:32:20Z</time>
      </trkpt>
      <trkpt lat="48.86775" lon="6.15598">
        <ele>233</ele>
        <time>2013-06-05T13:32:44Z</time>
      </trkpt>
      <trkpt lat="48.86771" lon="6.15594">
        <ele>231</ele>
        <time>2013-06-05T13:32:51Z</time>
      </trkpt>
      <trkpt lat="48.86765" lon="6.15583">
        <ele>231</ele>
        <time>2013-06-05T13:33:01Z</time>
      </trkpt>
      <trkpt lat="48.86758" lon="6.15573">
        <ele>231</ele>
        <time>2013-06-05T13:33:06Z</time>
      </trkpt>
      <trkpt lat="48.86751" lon="6.15564">
        <ele>231</ele>
        <time>2013-06-05T13:33:12Z</time>
      </trkpt>
      <trkpt lat="48.8674" lon="6.1555">
        <ele>230</ele>
        <time>2013-06-05T13:33:26Z</time>
      </trkpt>
      <trkpt lat="48.86737" lon="6.1554">
        <ele>226</ele>
        <time>2013-06-05T13:33:38Z</time>
      </trkpt>
      <trkpt lat="48.86734" lon="6.15532">
        <ele>228</ele>
        <time>2013-06-05T13:33:54Z</time>
      </trkpt>
      <trkpt lat="48.86729" lon="6.15549">
        <ele>230</ele>
        <time>2013-06-05T13:34:24Z</time>
      </trkpt>
      <trkpt lat="48.86724" lon="6.1554">
        <ele>229</ele>
        <time>2013-06-05T13:34:47Z</time>
      </trkpt>
      <trkpt lat="48.86721" lon="6.1554">
        <ele>228</ele>
        <time>2013-06-05T13:35:41Z</time>
      </trkpt>
      <trkpt lat="48.86731" lon="6.15528">
        <ele>225</ele>
        <time>2013-06-05T13:36:18Z</time>
      </trkpt>
      <trkpt lat="48.86739" lon="6.15522">
        <ele>228</ele>
        <time>2013-06-05T13:36:26Z</time>
      </trkpt>
      <trkpt lat="48.86737" lon="6.15525">
        <ele>231</ele>
        <time>2013-06-05T13:37:11Z</time>
      </trkpt>
      <trkpt lat="48.86743" lon="6.15524">
        <ele>232</ele>
        <time>2013-06-05T13:37:46Z</time>
      </trkpt>
      <trkpt lat="48.86732" lon="6.15533">
        <ele>240</ele>
        <time>2013-06-05T13:39:45Z</time>
      </trkpt>
      <trkpt lat="48.86729" lon="6.15539">
        <ele>232</ele>
        <time>2013-06-05T13:40:19Z</time>
      </trkpt>
      <trkpt lat="48.86729" lon="6.15539">
        <ele>231</ele>
        <time>2013-06-05T13:40:25Z</time>
      </trkpt>
      <trkpt lat="48.86734" lon="6.15529">
        <ele>227</ele>
        <time>2013-06-05T13:41:00Z</time>
      </trkpt>
      <trkpt lat="48.86739" lon="6.15507">
        <ele>230</ele>
        <time>2013-06-05T13:41:58Z</time>
      </trkpt>
      <trkpt lat="48.86754" lon="6.15464">
        <ele>216.7</ele>
        <time>2013-06-05T13:42:36Z</time>
      </trkpt>
      <trkpt lat="48.86774" lon="6.15404">
        <ele>229</ele>
        <time>2013-06-05T13:42:39Z</time>
      </trkpt>
      <trkpt lat="48.86774" lon="6.1538">
        <ele>222</ele>
        <time>2013-06-05T13:42:53Z</time>
      </trkpt>
      <trkpt lat="48.86771" lon="6.15366">
        <ele>215</ele>
        <time>2013-06-05T13:43:00Z</time>
      </trkpt>
      <trkpt lat="48.86776" lon="6.15353">
        <ele>212</ele>
        <time>2013-06-05T13:43:07Z</time>
      </trkpt>
      <trkpt lat="48.86784" lon="6.1534">
        <ele>211</ele>
        <time>2013-06-05T13:43:16Z</time>
      </trkpt>
      <trkpt lat="48.86794" lon="6.15337">
        <ele>208</ele>
        <time>2013-06-05T13:43:31Z</time>
      </trkpt>
      <trkpt lat="48.86805" lon="6.15322">
        <ele>209</ele>
        <time>2013-06-05T13:43:39Z</time>
      </trkpt>
      <trkpt lat="48.86811" lon="6.15302">
        <ele>214</ele>
        <time>2013-06-05T13:43:50Z</time>
      </trkpt>
      <trkpt lat="48.86816" lon="6.15289">
        <ele>216</ele>
        <time>2013-06-05T13:43:55Z</time>
      </trkpt>
      <trkpt lat="48.86826" lon="6.15285">
        <ele>217</ele>
        <time>2013-06-05T13:43:59Z</time>
      </trkpt>
      <trkpt lat="48.86836" lon="6.15285">
        <ele>218</ele>
        <time>2013-06-05T13:44:03Z</time>
      </trkpt>
      <trkpt lat="48.86847" lon="6.15279">
        <ele>216</ele>
        <time>2013-06-05T13:44:13Z</time>
      </trkpt>
      <trkpt lat="48.86854" lon="6.15269">
        <ele>215</ele>
        <time>2013-06-05T13:44:22Z</time>
      </trkpt>
      <trkpt lat="48.86857" lon="6.15255">
        <ele>217</ele>
        <time>2013-06-05T13:44:30Z</time>
      </trkpt>
      <trkpt lat="48.86863" lon="6.15245">
        <ele>218</ele>
        <time>2013-06-05T13:44:39Z</time>
      </trkpt>
      <trkpt lat="48.86868" lon="6.15227">
        <ele>216</ele>
        <time>2013-06-05T13:44:49Z</time>
      </trkpt>
      <trkpt lat="48.86871" lon="6.15213">
        <ele>215</ele>
        <time>2013-06-05T13:44:57Z</time>
      </trkpt>
      <trkpt lat="48.86877" lon="6.15196">
        <ele>212</ele>
        <time>2013-06-05T13:45:07Z</time>
      </trkpt>
      <trkpt lat="48.86885" lon="6.15186">
        <ele>211</ele>
        <time>2013-06-05T13:45:15Z</time>
      </trkpt>
      <trkpt lat="48.86892" lon="6.15177">
        <ele>209</ele>
        <time>2013-06-05T13:45:23Z</time>
      </trkpt>
      <trkpt lat="48.86901" lon="6.15169">
        <ele>203</ele>
        <time>2013-06-05T13:45:30Z</time>
      </trkpt>
      <trkpt lat="48.86909" lon="6.15157">
        <ele>199</ele>
        <time>2013-06-05T13:45:38Z</time>
      </trkpt>
      <trkpt lat="48.86917" lon="6.15144">
        <ele>195</ele>
        <time>2013-06-05T13:45:47Z</time>
      </trkpt>
      <trkpt lat="48.86918" lon="6.15131">
        <ele>187</ele>
        <time>2013-06-05T13:46:00Z</time>
      </trkpt>
      <trkpt lat="48.86921" lon="6.15114">
        <ele>186</ele>
        <time>2013-06-05T13:46:11Z</time>
      </trkpt>
      <trkpt lat="48.86926" lon="6.15098">
        <ele>187</ele>
        <time>2013-06-05T13:46:17Z</time>
      </trkpt>
      <trkpt lat="48.86931" lon="6.15085">
        <ele>188</ele>
        <time>2013-06-05T13:46:21Z</time>
      </trkpt>
      <trkpt lat="48.86939" lon="6.15076">
        <ele>191</ele>
        <time>2013-06-05T13:46:28Z</time>
      </trkpt>
      <trkpt lat="48.86946" lon="6.15067">
        <ele>193</ele>
        <time>2013-06-05T13:46:34Z</time>
      </trkpt>
      <trkpt lat="48.86952" lon="6.15055">
        <ele>195</ele>
        <time>2013-06-05T13:46:40Z</time>
      </trkpt>
      <trkpt lat="48.86957" lon="6.15041">
        <ele>197</ele>
        <time>2013-06-05T13:46:47Z</time>
      </trkpt>
      <trkpt lat="48.8696" lon="6.15026">
        <ele>198</ele>
        <time>2013-06-05T13:46:55Z</time>
      </trkpt>
      <trkpt lat="48.86966" lon="6.15013">
        <ele>198</ele>
        <time>2013-06-05T13:47:00Z</time>
      </trkpt>
      <trkpt lat="48.86971" lon="6.15002">
        <ele>197</ele>
        <time>2013-06-05T13:47:07Z</time>
      </trkpt>
      <trkpt lat="48.86978" lon="6.14992">
        <ele>198</ele>
        <time>2013-06-05T13:47:12Z</time>
      </trkpt>
      <trkpt lat="48.86985" lon="6.14982">
        <ele>201</ele>
        <time>2013-06-05T13:47:19Z</time>
      </trkpt>
      <trkpt lat="48.86993" lon="6.14973">
        <ele>206</ele>
        <time>2013-06-05T13:47:27Z</time>
      </trkpt>
      <trkpt lat="48.87003" lon="6.14963">
        <ele>208</ele>
        <time>2013-06-05T13:47:37Z</time>
      </trkpt>
      <trkpt lat="48.87011" lon="6.1494">
        <ele>206</ele>
        <time>2013-06-05T13:47:51Z</time>
      </trkpt>
      <trkpt lat="48.87017" lon="6.14929">
        <ele>206</ele>
        <time>2013-06-05T13:47:59Z</time>
      </trkpt>
      <trkpt lat="48.87019" lon="6.14912">
        <ele>204</ele>
        <time>2013-06-05T13:48:07Z</time>
      </trkpt>
      <trkpt lat="48.87019" lon="6.14891">
        <ele>203</ele>
        <time>2013-06-05T13:48:17Z</time>
      </trkpt>
      <trkpt lat="48.87024" lon="6.14879">
        <ele>204</ele>
        <time>2013-06-05T13:48:25Z</time>
      </trkpt>
      <trkpt lat="48.87032" lon="6.14869">
        <ele>205</ele>
        <time>2013-06-05T13:48:34Z</time>
      </trkpt>
      <trkpt lat="48.87039" lon="6.14861">
        <ele>202</ele>
        <time>2013-06-05T13:48:55Z</time>
      </trkpt>
      <trkpt lat="48.87044" lon="6.14858">
        <ele>201</ele>
        <time>2013-06-05T13:49:09Z</time>
      </trkpt>
      <trkpt lat="48.87055" lon="6.14869">
        <ele>200</ele>
        <time>2013-06-05T13:49:32Z</time>
      </trkpt>
      <trkpt lat="48.87068" lon="6.1487">
        <ele>202</ele>
        <time>2013-06-05T13:49:35Z</time>
      </trkpt>
      <trkpt lat="48.87079" lon="6.1487">
        <ele>203</ele>
        <time>2013-06-05T13:49:38Z</time>
      </trkpt>
      <trkpt lat="48.8709" lon="6.14871">
        <ele>204</ele>
        <time>2013-06-05T13:49:41Z</time>
      </trkpt>
      <trkpt lat="48.87101" lon="6.14874">
        <ele>204</ele>
        <time>2013-06-05T13:49:45Z</time>
      </trkpt>
      <trkpt lat="48.87112" lon="6.14876">
        <ele>204</ele>
        <time>2013-06-05T13:49:49Z</time>
      </trkpt>
      <trkpt lat="48.87121" lon="6.14877">
        <ele>204</ele>
        <time>2013-06-05T13:49:53Z</time>
      </trkpt>
      <trkpt lat="48.87131" lon="6.14876">
        <ele>205</ele>
        <time>2013-06-05T13:49:58Z</time>
      </trkpt>
      <trkpt lat="48.87142" lon="6.14868">
        <ele>205</ele>
        <time>2013-06-05T13:50:05Z</time>
      </trkpt>
      <trkpt lat="48.8715" lon="6.14863">
        <ele>206</ele>
        <time>2013-06-05T13:50:09Z</time>
      </trkpt>
      <trkpt lat="48.87161" lon="6.14853">
        <ele>209</ele>
        <time>2013-06-05T13:50:19Z</time>
      </trkpt>
      <trkpt lat="48.87171" lon="6.14851">
        <ele>209</ele>
        <time>2013-06-05T13:50:25Z</time>
      </trkpt>
      <trkpt lat="48.87181" lon="6.14848">
        <ele>208</ele>
        <time>2013-06-05T13:50:31Z</time>
      </trkpt>
      <trkpt lat="48.87188" lon="6.14838">
        <ele>208</ele>
        <time>2013-06-05T13:50:38Z</time>
      </trkpt>
      <trkpt lat="48.87191" lon="6.14825">
        <ele>211</ele>
        <time>2013-06-05T13:50:44Z</time>
      </trkpt>
      <trkpt lat="48.87199" lon="6.14819">
        <ele>215</ele>
        <time>2013-06-05T13:50:50Z</time>
      </trkpt>
      <trkpt lat="48.87208" lon="6.14816">
        <ele>217</ele>
        <time>2013-06-05T13:50:54Z</time>
      </trkpt>
      <trkpt lat="48.87217" lon="6.14811">
        <ele>220</ele>
        <time>2013-06-05T13:51:00Z</time>
      </trkpt>
      <trkpt lat="48.87226" lon="6.14806">
        <ele>221</ele>
        <time>2013-06-05T13:51:09Z</time>
      </trkpt>
      <trkpt lat="48.87234" lon="6.14797">
        <ele>219</ele>
        <time>2013-06-05T13:51:20Z</time>
      </trkpt>
      <trkpt lat="48.87242" lon="6.14788">
        <ele>219</ele>
        <time>2013-06-05T13:51:26Z</time>
      </trkpt>
      <trkpt lat="48.87245" lon="6.14783">
        <ele>222</ele>
        <time>2013-06-05T13:51:38Z</time>
      </trkpt>
      <trkpt lat="48.87255" lon="6.1478">
        <ele>222</ele>
        <time>2013-06-05T13:51:40Z</time>
      </trkpt>
      <trkpt lat="48.87263" lon="6.1477">
        <ele>218</ele>
        <time>2013-06-05T13:51:50Z</time>
      </trkpt>
      <trkpt lat="48.87269" lon="6.14758">
        <ele>215</ele>
        <time>2013-06-05T13:51:57Z</time>
      </trkpt>
      <trkpt lat="48.87273" lon="6.14745">
        <ele>215</ele>
        <time>2013-06-05T13:52:05Z</time>
      </trkpt>
      <trkpt lat="48.87274" lon="6.14737">
        <ele>216</ele>
        <time>2013-06-05T13:52:09Z</time>
      </trkpt>
      <trkpt lat="48.87276" lon="6.14729">
        <ele>216</ele>
        <time>2013-06-05T13:52:13Z</time>
      </trkpt>
      <trkpt lat="48.8728" lon="6.14723">
        <ele>215</ele>
        <time>2013-06-05T13:52:31Z</time>
      </trkpt>
      <trkpt lat="48.87281" lon="6.14715">
        <ele>216</ele>
        <time>2013-06-05T13:52:37Z</time>
      </trkpt>
      <trkpt lat="48.87285" lon="6.147">
        <ele>215</ele>
        <time>2013-06-05T13:52:47Z</time>
      </trkpt>
      <trkpt lat="48.87289" lon="6.14686">
        <ele>211</ele>
        <time>2013-06-05T13:52:56Z</time>
      </trkpt>
      <trkpt lat="48.87294" lon="6.14674">
        <ele>211</ele>
        <time>2013-06-05T13:53:04Z</time>
      </trkpt>
      <trkpt lat="48.87301" lon="6.14665">
        <ele>211</ele>
        <time>2013-06-05T13:53:14Z</time>
      </trkpt>
      <trkpt lat="48.87308" lon="6.14654">
        <ele>210</ele>
        <time>2013-06-05T13:53:22Z</time>
      </trkpt>
      <trkpt lat="48.87312" lon="6.14641">
        <ele>210</ele>
        <time>2013-06-05T13:53:30Z</time>
      </trkpt>
      <trkpt lat="48.87318" lon="6.14628">
        <ele>209</ele>
        <time>2013-06-05T13:53:38Z</time>
      </trkpt>
      <trkpt lat="48.87324" lon="6.14618">
        <ele>207</ele>
        <time>2013-06-05T13:53:45Z</time>
      </trkpt>
      <trkpt lat="48.8733" lon="6.14606">
        <ele>208</ele>
        <time>2013-06-05T13:53:53Z</time>
      </trkpt>
      <trkpt lat="48.87334" lon="6.14599">
        <ele>209</ele>
        <time>2013-06-05T13:53:58Z</time>
      </trkpt>
      <trkpt lat="48.87338" lon="6.14593">
        <ele>209</ele>
        <time>2013-06-05T13:54:02Z</time>
      </trkpt>
      <trkpt lat="48.87341" lon="6.14588">
        <ele>210</ele>
        <time>2013-06-05T13:54:05Z</time>
      </trkpt>
      <trkpt lat="48.87344" lon="6.14581">
        <ele>210</ele>
        <time>2013-06-05T13:54:08Z</time>
      </trkpt>
      <trkpt lat="48.8735" lon="6.1457">
        <ele>210</ele>
        <time>2013-06-05T13:54:15Z</time>
      </trkpt>
      <trkpt lat="48.87355" lon="6.14557">
        <ele>211</ele>
        <time>2013-06-05T13:54:23Z</time>
      </trkpt>
      <trkpt lat="48.87363" lon="6.14546">
        <ele>209</ele>
        <time>2013-06-05T13:54:31Z</time>
      </trkpt>
      <trkpt lat="48.8737" lon="6.14536">
        <ele>211</ele>
        <time>2013-06-05T13:54:37Z</time>
      </trkpt>
      <trkpt lat="48.87376" lon="6.14525">
        <ele>210</ele>
        <time>2013-06-05T13:54:44Z</time>
      </trkpt>
      <trkpt lat="48.87384" lon="6.14516">
        <ele>211</ele>
        <time>2013-06-05T13:54:50Z</time>
      </trkpt>
      <trkpt lat="48.87388" lon="6.1451">
        <ele>212</ele>
        <time>2013-06-05T13:54:54Z</time>
      </trkpt>
      <trkpt lat="48.87392" lon="6.14501">
        <ele>214</ele>
        <time>2013-06-05T13:54:59Z</time>
      </trkpt>
      <trkpt lat="48.87399" lon="6.14492">
        <ele>214</ele>
        <time>2013-06-05T13:55:06Z</time>
      </trkpt>
      <trkpt lat="48.87404" lon="6.14479">
        <ele>214</ele>
        <time>2013-06-05T13:55:15Z</time>
      </trkpt>
      <trkpt lat="48.8741" lon="6.14468">
        <ele>213</ele>
        <time>2013-06-05T13:55:22Z</time>
      </trkpt>
      <trkpt lat="48.87415" lon="6.14456">
        <ele>214</ele>
        <time>2013-06-05T13:55:29Z</time>
      </trkpt>
      <trkpt lat="48.87421" lon="6.14444">
        <ele>214</ele>
        <time>2013-06-05T13:55:37Z</time>
      </trkpt>
      <trkpt lat="48.87426" lon="6.14431">
        <ele>214</ele>
        <time>2013-06-05T13:55:45Z</time>
      </trkpt>
      <trkpt lat="48.87426" lon="6.14423">
        <ele>215</ele>
        <time>2013-06-05T13:55:49Z</time>
      </trkpt>
      <trkpt lat="48.87425" lon="6.14415">
        <ele>216</ele>
        <time>2013-06-05T13:55:54Z</time>
      </trkpt>
      <trkpt lat="48.87422" lon="6.14407">
        <ele>218</ele>
        <time>2013-06-05T13:56:02Z</time>
      </trkpt>
      <trkpt lat="48.8742" lon="6.144">
        <ele>220</ele>
        <time>2013-06-05T13:56:06Z</time>
      </trkpt>
      <trkpt lat="48.87417" lon="6.14394">
        <ele>220</ele>
        <time>2013-06-05T13:56:10Z</time>
      </trkpt>
      <trkpt lat="48.87414" lon="6.14388">
        <ele>220</ele>
        <time>2013-06-05T13:56:15Z</time>
      </trkpt>
      <trkpt lat="48.87411" lon="6.14382">
        <ele>220</ele>
        <time>2013-06-05T13:56:19Z</time>
      </trkpt>
      <trkpt lat="48.87408" lon="6.14375">
        <ele>219</ele>
        <time>2013-06-05T13:56:23Z</time>
      </trkpt>
      <trkpt lat="48.87404" lon="6.14368">
        <ele>219</ele>
        <time>2013-06-05T13:56:26Z</time>
      </trkpt>
      <trkpt lat="48.87401" lon="6.14361">
        <ele>220</ele>
        <time>2013-06-05T13:56:30Z</time>
      </trkpt>
      <trkpt lat="48.87398" lon="6.14353">
        <ele>220</ele>
        <time>2013-06-05T13:56:34Z</time>
      </trkpt>
      <trkpt lat="48.87396" lon="6.14346">
        <ele>221</ele>
        <time>2013-06-05T13:56:38Z</time>
      </trkpt>
      <trkpt lat="48.87394" lon="6.1434">
        <ele>222</ele>
        <time>2013-06-05T13:56:41Z</time>
      </trkpt>
      <trkpt lat="48.87391" lon="6.14333">
        <ele>222</ele>
        <time>2013-06-05T13:56:44Z</time>
      </trkpt>
      <trkpt lat="48.87389" lon="6.14326">
        <ele>222</ele>
        <time>2013-06-05T13:56:48Z</time>
      </trkpt>
      <trkpt lat="48.87388" lon="6.14318">
        <ele>222</ele>
        <time>2013-06-05T13:56:52Z</time>
      </trkpt>
      <trkpt lat="48.87387" lon="6.14311">
        <ele>221</ele>
        <time>2013-06-05T13:56:56Z</time>
      </trkpt>
      <trkpt lat="48.87387" lon="6.14303">
        <ele>220</ele>
        <time>2013-06-05T13:57:00Z</time>
      </trkpt>
      <trkpt lat="48.87386" lon="6.14295">
        <ele>219</ele>
        <time>2013-06-05T13:57:05Z</time>
      </trkpt>
      <trkpt lat="48.87385" lon="6.14287">
        <ele>219</ele>
        <time>2013-06-05T13:57:09Z</time>
      </trkpt>
      <trkpt lat="48.87384" lon="6.14278">
        <ele>219</ele>
        <time>2013-06-05T13:57:13Z</time>
      </trkpt>
      <trkpt lat="48.87382" lon="6.1427">
        <ele>220</ele>
        <time>2013-06-05T13:57:17Z</time>
      </trkpt>
      <trkpt lat="48.87383" lon="6.14262">
        <ele>221</ele>
        <time>2013-06-05T13:57:20Z</time>
      </trkpt>
      <trkpt lat="48.87382" lon="6.14255">
        <ele>221</ele>
        <time>2013-06-05T13:57:23Z</time>
      </trkpt>
      <trkpt lat="48.87383" lon="6.14247">
        <ele>221</ele>
        <time>2013-06-05T13:57:27Z</time>
      </trkpt>
      <trkpt lat="48.87384" lon="6.14236">
        <ele>220</ele>
        <time>2013-06-05T13:57:32Z</time>
      </trkpt>
      <trkpt lat="48.87385" lon="6.14228">
        <ele>219</ele>
        <time>2013-06-05T13:57:36Z</time>
      </trkpt>
      <trkpt lat="48.87387" lon="6.14221">
        <ele>219</ele>
        <time>2013-06-05T13:57:40Z</time>
      </trkpt>
      <trkpt lat="48.87389" lon="6.14206">
        <ele>220</ele>
        <time>2013-06-05T13:57:48Z</time>
      </trkpt>
      <trkpt lat="48.8739" lon="6.14198">
        <ele>222</ele>
        <time>2013-06-05T13:57:52Z</time>
      </trkpt>
      <trkpt lat="48.87392" lon="6.14192">
        <ele>223</ele>
        <time>2013-06-05T13:57:55Z</time>
      </trkpt>
      <trkpt lat="48.87394" lon="6.14183">
        <ele>224</ele>
        <time>2013-06-05T13:57:59Z</time>
      </trkpt>
      <trkpt lat="48.87395" lon="6.14175">
        <ele>224</ele>
        <time>2013-06-05T13:58:04Z</time>
      </trkpt>
      <trkpt lat="48.87398" lon="6.1416">
        <ele>223</ele>
        <time>2013-06-05T13:58:11Z</time>
      </trkpt>
      <trkpt lat="48.874" lon="6.14155">
        <ele>223</ele>
        <time>2013-06-05T13:58:15Z</time>
      </trkpt>
      <trkpt lat="48.87404" lon="6.14145">
        <ele>222</ele>
        <time>2013-06-05T13:58:20Z</time>
      </trkpt>
      <trkpt lat="48.87406" lon="6.14135">
        <ele>222</ele>
        <time>2013-06-05T13:58:25Z</time>
      </trkpt>
      <trkpt lat="48.87408" lon="6.14127">
        <ele>222</ele>
        <time>2013-06-05T13:58:29Z</time>
      </trkpt>
      <trkpt lat="48.8741" lon="6.1412">
        <ele>223</ele>
        <time>2013-06-05T13:58:32Z</time>
      </trkpt>
      <trkpt lat="48.8741" lon="6.14112">
        <ele>223</ele>
        <time>2013-06-05T13:58:36Z</time>
      </trkpt>
      <trkpt lat="48.87412" lon="6.14103">
        <ele>223</ele>
        <time>2013-06-05T13:58:40Z</time>
      </trkpt>
      <trkpt lat="48.87416" lon="6.1409">
        <ele>223</ele>
        <time>2013-06-05T13:58:46Z</time>
      </trkpt>
      <trkpt lat="48.8742" lon="6.14078">
        <ele>222</ele>
        <time>2013-06-05T13:58:52Z</time>
      </trkpt>
      <trkpt lat="48.87425" lon="6.14065">
        <ele>222</ele>
        <time>2013-06-05T13:58:59Z</time>
      </trkpt>
      <trkpt lat="48.87429" lon="6.14053">
        <ele>223</ele>
        <time>2013-06-05T13:59:10Z</time>
      </trkpt>
      <trkpt lat="48.87432" lon="6.14038">
        <ele>223</ele>
        <time>2013-06-05T13:59:16Z</time>
      </trkpt>
      <trkpt lat="48.87433" lon="6.14023">
        <ele>223</ele>
        <time>2013-06-05T13:59:25Z</time>
      </trkpt>
      <trkpt lat="48.87436" lon="6.1401">
        <ele>222</ele>
        <time>2013-06-05T13:59:35Z</time>
      </trkpt>
      <trkpt lat="48.87438" lon="6.13994">
        <ele>223</ele>
        <time>2013-06-05T13:59:41Z</time>
      </trkpt>
      <trkpt lat="48.8744" lon="6.13981">
        <ele>225</ele>
        <time>2013-06-05T13:59:49Z</time>
      </trkpt>
      <trkpt lat="48.87446" lon="6.13966">
        <ele>224</ele>
        <time>2013-06-05T14:00:01Z</time>
      </trkpt>
      <trkpt lat="48.87449" lon="6.13958">
        <ele>223</ele>
        <time>2013-06-05T14:00:05Z</time>
      </trkpt>
      <trkpt lat="48.87451" lon="6.13952">
        <ele>222</ele>
        <time>2013-06-05T14:00:09Z</time>
      </trkpt>
      <trkpt lat="48.87453" lon="6.13944">
        <ele>222</ele>
        <time>2013-06-05T14:00:14Z</time>
      </trkpt>
      <trkpt lat="48.87455" lon="6.13936">
        <ele>223</ele>
        <time>2013-06-05T14:00:19Z</time>
      </trkpt>
      <trkpt lat="48.87457" lon="6.13929">
        <ele>223</ele>
        <time>2013-06-05T14:00:22Z</time>
      </trkpt>
      <trkpt lat="48.8746" lon="6.13921">
        <ele>223</ele>
        <time>2013-06-05T14:00:25Z</time>
      </trkpt>
      <trkpt lat="48.87461" lon="6.13914">
        <ele>223</ele>
        <time>2013-06-05T14:00:29Z</time>
      </trkpt>
      <trkpt lat="48.87461" lon="6.13907">
        <ele>223</ele>
        <time>2013-06-05T14:00:35Z</time>
      </trkpt>
      <trkpt lat="48.87462" lon="6.139">
        <ele>222</ele>
        <time>2013-06-05T14:00:38Z</time>
      </trkpt>
      <trkpt lat="48.87464" lon="6.13893">
        <ele>222</ele>
        <time>2013-06-05T14:00:42Z</time>
      </trkpt>
      <trkpt lat="48.87467" lon="6.13886">
        <ele>222</ele>
        <time>2013-06-05T14:00:46Z</time>
      </trkpt>
      <trkpt lat="48.87469" lon="6.1388">
        <ele>223</ele>
        <time>2013-06-05T14:00:50Z</time>
      </trkpt>
      <trkpt lat="48.8747" lon="6.13875">
        <ele>224</ele>
        <time>2013-06-05T14:01:02Z</time>
      </trkpt>
      <trkpt lat="48.87472" lon="6.13868">
        <ele>225</ele>
        <time>2013-06-05T14:01:07Z</time>
      </trkpt>
      <trkpt lat="48.87475" lon="6.13861">
        <ele>224</ele>
        <time>2013-06-05T14:01:11Z</time>
      </trkpt>
      <trkpt lat="48.87476" lon="6.13853">
        <ele>223</ele>
        <time>2013-06-05T14:01:15Z</time>
      </trkpt>
      <trkpt lat="48.87478" lon="6.13845">
        <ele>224</ele>
        <time>2013-06-05T14:01:19Z</time>
      </trkpt>
      <trkpt lat="48.87479" lon="6.13838">
        <ele>223</ele>
        <time>2013-06-05T14:01:24Z</time>
      </trkpt>
      <trkpt lat="48.87481" lon="6.13828">
        <ele>223</ele>
        <time>2013-06-05T14:01:28Z</time>
      </trkpt>
      <trkpt lat="48.87482" lon="6.13822">
        <ele>224</ele>
        <time>2013-06-05T14:01:31Z</time>
      </trkpt>
      <trkpt lat="48.87484" lon="6.13815">
        <ele>224</ele>
        <time>2013-06-05T14:01:35Z</time>
      </trkpt>
      <trkpt lat="48.87485" lon="6.13808">
        <ele>225</ele>
        <time>2013-06-05T14:01:39Z</time>
      </trkpt>
      <trkpt lat="48.87487" lon="6.13802">
        <ele>225</ele>
        <time>2013-06-05T14:01:42Z</time>
      </trkpt>
      <trkpt lat="48.87488" lon="6.13794">
        <ele>225</ele>
        <time>2013-06-05T14:01:46Z</time>
      </trkpt>
      <trkpt lat="48.87489" lon="6.13787">
        <ele>224</ele>
        <time>2013-06-05T14:01:50Z</time>
      </trkpt>
      <trkpt lat="48.87491" lon="6.13779">
        <ele>224</ele>
        <time>2013-06-05T14:01:54Z</time>
      </trkpt>
      <trkpt lat="48.87493" lon="6.13772">
        <ele>224</ele>
        <time>2013-06-05T14:01:58Z</time>
      </trkpt>
      <trkpt lat="48.87494" lon="6.13763">
        <ele>224</ele>
        <time>2013-06-05T14:02:02Z</time>
      </trkpt>
      <trkpt lat="48.87495" lon="6.13757">
        <ele>225</ele>
        <time>2013-06-05T14:02:05Z</time>
      </trkpt>
      <trkpt lat="48.87495" lon="6.13749">
        <ele>225</ele>
        <time>2013-06-05T14:02:09Z</time>
      </trkpt>
      <trkpt lat="48.87493" lon="6.13734">
        <ele>224</ele>
        <time>2013-06-05T14:02:15Z</time>
      </trkpt>
      <trkpt lat="48.87489" lon="6.13719">
        <ele>223</ele>
        <time>2013-06-05T14:02:22Z</time>
      </trkpt>
      <trkpt lat="48.87488" lon="6.13704">
        <ele>223</ele>
        <time>2013-06-05T14:02:29Z</time>
      </trkpt>
      <trkpt lat="48.87489" lon="6.13697">
        <ele>223</ele>
        <time>2013-06-05T14:02:32Z</time>
      </trkpt>
      <trkpt lat="48.8749" lon="6.1369">
        <ele>224</ele>
        <time>2013-06-05T14:02:36Z</time>
      </trkpt>
      <trkpt lat="48.87489" lon="6.13676">
        <ele>225</ele>
        <time>2013-06-05T14:02:45Z</time>
      </trkpt>
      <trkpt lat="48.87488" lon="6.13665">
        <ele>226</ele>
        <time>2013-06-05T14:02:50Z</time>
      </trkpt>
      <trkpt lat="48.87488" lon="6.13658">
        <ele>226</ele>
        <time>2013-06-05T14:02:54Z</time>
      </trkpt>
      <trkpt lat="48.87485" lon="6.13644">
        <ele>227</ele>
        <time>2013-06-05T14:03:02Z</time>
      </trkpt>
      <trkpt lat="48.87484" lon="6.13637">
        <ele>228</ele>
        <time>2013-06-05T14:03:05Z</time>
      </trkpt>
      <trkpt lat="48.87483" lon="6.13619">
        <ele>228</ele>
        <time>2013-06-05T14:03:12Z</time>
      </trkpt>
      <trkpt lat="48.87481" lon="6.13605">
        <ele>228</ele>
        <time>2013-06-05T14:03:23Z</time>
      </trkpt>
      <trkpt lat="48.8748" lon="6.1359">
        <ele>229</ele>
        <time>2013-06-05T14:03:31Z</time>
      </trkpt>
      <trkpt lat="48.87481" lon="6.13573">
        <ele>229</ele>
        <time>2013-06-05T14:03:38Z</time>
      </trkpt>
      <trkpt lat="48.87481" lon="6.13558">
        <ele>229</ele>
        <time>2013-06-05T14:03:44Z</time>
      </trkpt>
      <trkpt lat="48.87484" lon="6.13544">
        <ele>229</ele>
        <time>2013-06-05T14:03:52Z</time>
      </trkpt>
      <trkpt lat="48.87484" lon="6.13533">
        <ele>229</ele>
        <time>2013-06-05T14:03:58Z</time>
      </trkpt>
      <trkpt lat="48.87483" lon="6.13526">
        <ele>229</ele>
        <time>2013-06-05T14:04:01Z</time>
      </trkpt>
      <trkpt lat="48.87482" lon="6.13519">
        <ele>230</ele>
        <time>2013-06-05T14:04:05Z</time>
      </trkpt>
      <trkpt lat="48.87482" lon="6.13511">
        <ele>230</ele>
        <time>2013-06-05T14:04:10Z</time>
      </trkpt>
      <trkpt lat="48.8748" lon="6.13503">
        <ele>230</ele>
        <time>2013-06-05T14:04:14Z</time>
      </trkpt>
      <trkpt lat="48.87479" lon="6.13496">
        <ele>230</ele>
        <time>2013-06-05T14:04:17Z</time>
      </trkpt>
      <trkpt lat="48.87478" lon="6.13489">
        <ele>230</ele>
        <time>2013-06-05T14:04:21Z</time>
      </trkpt>
      <trkpt lat="48.87478" lon="6.13474">
        <ele>231</ele>
        <time>2013-06-05T14:04:29Z</time>
      </trkpt>
      <trkpt lat="48.87477" lon="6.13465">
        <ele>232</ele>
        <time>2013-06-05T14:04:34Z</time>
      </trkpt>
      <trkpt lat="48.87475" lon="6.13459">
        <ele>233</ele>
        <time>2013-06-05T14:04:38Z</time>
      </trkpt>
      <trkpt lat="48.87472" lon="6.13452">
        <ele>233</ele>
        <time>2013-06-05T14:04:42Z</time>
      </trkpt>
      <trkpt lat="48.87467" lon="6.13449">
        <ele>232</ele>
        <time>2013-06-05T14:04:48Z</time>
      </trkpt>
      <trkpt lat="48.87463" lon="6.13451">
        <ele>233</ele>
        <time>2013-06-05T14:04:51Z</time>
      </trkpt>
      <trkpt lat="48.87455" lon="6.13454">
        <ele>234</ele>
        <time>2013-06-05T14:04:57Z</time>
      </trkpt>
      <trkpt lat="48.87451" lon="6.13455">
        <ele>235</ele>
        <time>2013-06-05T14:05:11Z</time>
      </trkpt>
      <trkpt lat="48.87447" lon="6.13459">
        <ele>234</ele>
        <time>2013-06-05T14:05:18Z</time>
      </trkpt>
      <trkpt lat="48.87442" lon="6.13465">
        <ele>234</ele>
        <time>2013-06-05T14:05:22Z</time>
      </trkpt>
      <trkpt lat="48.87438" lon="6.13467">
        <ele>235</ele>
        <time>2013-06-05T14:05:26Z</time>
      </trkpt>
      <trkpt lat="48.87432" lon="6.13469">
        <ele>235</ele>
        <time>2013-06-05T14:05:31Z</time>
      </trkpt>
      <trkpt lat="48.87427" lon="6.13471">
        <ele>235</ele>
        <time>2013-06-05T14:05:36Z</time>
      </trkpt>
      <trkpt lat="48.87422" lon="6.13475">
        <ele>235</ele>
        <time>2013-06-05T14:05:41Z</time>
      </trkpt>
      <trkpt lat="48.87416" lon="6.13479">
        <ele>235</ele>
        <time>2013-06-05T14:05:45Z</time>
      </trkpt>
      <trkpt lat="48.87412" lon="6.13483">
        <ele>234</ele>
        <time>2013-06-05T14:05:48Z</time>
      </trkpt>
      <trkpt lat="48.87406" lon="6.13487">
        <ele>234</ele>
        <time>2013-06-05T14:05:52Z</time>
      </trkpt>
      <trkpt lat="48.87401" lon="6.1349">
        <ele>234</ele>
        <time>2013-06-05T14:05:56Z</time>
      </trkpt>
      <trkpt lat="48.87396" lon="6.13492">
        <ele>234</ele>
        <time>2013-06-05T14:06:00Z</time>
      </trkpt>
      <trkpt lat="48.87391" lon="6.13493">
        <ele>233</ele>
        <time>2013-06-05T14:06:04Z</time>
      </trkpt>
      <trkpt lat="48.87386" lon="6.13494">
        <ele>232</ele>
        <time>2013-06-05T14:06:09Z</time>
      </trkpt>
      <trkpt lat="48.87377" lon="6.13498">
        <ele>232</ele>
        <time>2013-06-05T14:06:16Z</time>
      </trkpt>
      <trkpt lat="48.87367" lon="6.13501">
        <ele>231</ele>
        <time>2013-06-05T14:06:24Z</time>
      </trkpt>
      <trkpt lat="48.87358" lon="6.13506">
        <ele>230</ele>
        <time>2013-06-05T14:06:32Z</time>
      </trkpt>
      <trkpt lat="48.87353" lon="6.13508">
        <ele>230</ele>
        <time>2013-06-05T14:06:35Z</time>
      </trkpt>
      <trkpt lat="48.87343" lon="6.13512">
        <ele>231</ele>
        <time>2013-06-05T14:06:42Z</time>
      </trkpt>
      <trkpt lat="48.87335" lon="6.13518">
        <ele>230</ele>
        <time>2013-06-05T14:06:48Z</time>
      </trkpt>
      <trkpt lat="48.8733" lon="6.13521">
        <ele>231</ele>
        <time>2013-06-05T14:06:52Z</time>
      </trkpt>
      <trkpt lat="48.87326" lon="6.13523">
        <ele>231</ele>
        <time>2013-06-05T14:06:56Z</time>
      </trkpt>
      <trkpt lat="48.87321" lon="6.13526">
        <ele>232</ele>
        <time>2013-06-05T14:07:01Z</time>
      </trkpt>
      <trkpt lat="48.87311" lon="6.13534">
        <ele>231</ele>
        <time>2013-06-05T14:07:14Z</time>
      </trkpt>
      <trkpt lat="48.87307" lon="6.13539">
        <ele>230</ele>
        <time>2013-06-05T14:07:18Z</time>
      </trkpt>
      <trkpt lat="48.87303" lon="6.13543">
        <ele>230</ele>
        <time>2013-06-05T14:07:22Z</time>
      </trkpt>
      <trkpt lat="48.87298" lon="6.13546">
        <ele>231</ele>
        <time>2013-06-05T14:07:27Z</time>
      </trkpt>
      <trkpt lat="48.87293" lon="6.1355">
        <ele>231</ele>
        <time>2013-06-05T14:07:31Z</time>
      </trkpt>
      <trkpt lat="48.87289" lon="6.13556">
        <ele>232</ele>
        <time>2013-06-05T14:07:35Z</time>
      </trkpt>
      <trkpt lat="48.87285" lon="6.1356">
        <ele>232</ele>
        <time>2013-06-05T14:07:38Z</time>
      </trkpt>
      <trkpt lat="48.87281" lon="6.13565">
        <ele>230</ele>
        <time>2013-06-05T14:07:42Z</time>
      </trkpt>
      <trkpt lat="48.87277" lon="6.13569">
        <ele>230</ele>
        <time>2013-06-05T14:07:46Z</time>
      </trkpt>
      <trkpt lat="48.87272" lon="6.13575">
        <ele>230</ele>
        <time>2013-06-05T14:07:50Z</time>
      </trkpt>
      <trkpt lat="48.87268" lon="6.1358">
        <ele>229</ele>
        <time>2013-06-05T14:07:54Z</time>
      </trkpt>
      <trkpt lat="48.87263" lon="6.13586">
        <ele>229</ele>
        <time>2013-06-05T14:07:59Z</time>
      </trkpt>
      <trkpt lat="48.87257" lon="6.13591">
        <ele>228</ele>
        <time>2013-06-05T14:08:07Z</time>
      </trkpt>
      <trkpt lat="48.87251" lon="6.13594">
        <ele>229</ele>
        <time>2013-06-05T14:08:13Z</time>
      </trkpt>
      <trkpt lat="48.87246" lon="6.13599">
        <ele>229</ele>
        <time>2013-06-05T14:08:18Z</time>
      </trkpt>
      <trkpt lat="48.87244" lon="6.13606">
        <ele>230</ele>
        <time>2013-06-05T14:08:23Z</time>
      </trkpt>
      <trkpt lat="48.8724" lon="6.13619">
        <ele>228</ele>
        <time>2013-06-05T14:08:29Z</time>
      </trkpt>
      <trkpt lat="48.87239" lon="6.13626">
        <ele>227</ele>
        <time>2013-06-05T14:08:32Z</time>
      </trkpt>
      <trkpt lat="48.87236" lon="6.13633">
        <ele>227</ele>
        <time>2013-06-05T14:08:37Z</time>
      </trkpt>
      <trkpt lat="48.87232" lon="6.13639">
        <ele>225</ele>
        <time>2013-06-05T14:08:40Z</time>
      </trkpt>
      <trkpt lat="48.87229" lon="6.13644">
        <ele>225</ele>
        <time>2013-06-05T14:08:43Z</time>
      </trkpt>
      <trkpt lat="48.87225" lon="6.13649">
        <ele>225</ele>
        <time>2013-06-05T14:08:46Z</time>
      </trkpt>
      <trkpt lat="48.87221" lon="6.13654">
        <ele>226</ele>
        <time>2013-06-05T14:08:49Z</time>
      </trkpt>
      <trkpt lat="48.87217" lon="6.13657">
        <ele>227</ele>
        <time>2013-06-05T14:08:53Z</time>
      </trkpt>
      <trkpt lat="48.87212" lon="6.1366">
        <ele>226</ele>
        <time>2013-06-05T14:08:57Z</time>
      </trkpt>
      <trkpt lat="48.87207" lon="6.13662">
        <ele>226</ele>
        <time>2013-06-05T14:09:00Z</time>
      </trkpt>
      <trkpt lat="48.87202" lon="6.13664">
        <ele>225</ele>
        <time>2013-06-05T14:09:04Z</time>
      </trkpt>
      <trkpt lat="48.87192" lon="6.13667">
        <ele>226</ele>
        <time>2013-06-05T14:09:21Z</time>
      </trkpt>
      <trkpt lat="48.87187" lon="6.13671">
        <ele>226</ele>
        <time>2013-06-05T14:09:25Z</time>
      </trkpt>
      <trkpt lat="48.87182" lon="6.13676">
        <ele>225</ele>
        <time>2013-06-05T14:09:29Z</time>
      </trkpt>
      <trkpt lat="48.87174" lon="6.13684">
        <ele>226</ele>
        <time>2013-06-05T14:09:35Z</time>
      </trkpt>
      <trkpt lat="48.87167" lon="6.13692">
        <ele>226</ele>
        <time>2013-06-05T14:09:40Z</time>
      </trkpt>
      <trkpt lat="48.87161" lon="6.137">
        <ele>224</ele>
        <time>2013-06-05T14:09:46Z</time>
      </trkpt>
      <trkpt lat="48.87155" lon="6.13707">
        <ele>223</ele>
        <time>2013-06-05T14:09:51Z</time>
      </trkpt>
      <trkpt lat="48.8715" lon="6.13711">
        <ele>222</ele>
        <time>2013-06-05T14:09:55Z</time>
      </trkpt>
      <trkpt lat="48.87146" lon="6.13715">
        <ele>222</ele>
        <time>2013-06-05T14:09:58Z</time>
      </trkpt>
      <trkpt lat="48.87142" lon="6.13718">
        <ele>222</ele>
        <time>2013-06-05T14:10:01Z</time>
      </trkpt>
      <trkpt lat="48.87137" lon="6.13723">
        <ele>223</ele>
        <time>2013-06-05T14:10:05Z</time>
      </trkpt>
      <trkpt lat="48.87133" lon="6.13729">
        <ele>224</ele>
        <time>2013-06-05T14:10:09Z</time>
      </trkpt>
      <trkpt lat="48.87128" lon="6.13732">
        <ele>225</ele>
        <time>2013-06-05T14:10:13Z</time>
      </trkpt>
      <trkpt lat="48.87124" lon="6.13735">
        <ele>226</ele>
        <time>2013-06-05T14:10:17Z</time>
      </trkpt>
      <trkpt lat="48.87119" lon="6.13738">
        <ele>225</ele>
        <time>2013-06-05T14:10:21Z</time>
      </trkpt>
      <trkpt lat="48.87114" lon="6.13739">
        <ele>226</ele>
        <time>2013-06-05T14:10:25Z</time>
      </trkpt>
      <trkpt lat="48.8711" lon="6.1374">
        <ele>225</ele>
        <time>2013-06-05T14:10:29Z</time>
      </trkpt>
      <trkpt lat="48.87105" lon="6.13741">
        <ele>224</ele>
        <time>2013-06-05T14:10:32Z</time>
      </trkpt>
      <trkpt lat="48.871" lon="6.13742">
        <ele>224</ele>
        <time>2013-06-05T14:10:36Z</time>
      </trkpt>
      <trkpt lat="48.87092" lon="6.13742">
        <ele>225</ele>
        <time>2013-06-05T14:10:42Z</time>
      </trkpt>
      <trkpt lat="48.87083" lon="6.13739">
        <ele>223</ele>
        <time>2013-06-05T14:10:48Z</time>
      </trkpt>
      <trkpt lat="48.87078" lon="6.13738">
        <ele>222</ele>
        <time>2013-06-05T14:10:53Z</time>
      </trkpt>
      <trkpt lat="48.87071" lon="6.13739">
        <ele>223</ele>
        <time>2013-06-05T14:10:59Z</time>
      </trkpt>
      <trkpt lat="48.87063" lon="6.13741">
        <ele>224</ele>
        <time>2013-06-05T14:11:05Z</time>
      </trkpt>
      <trkpt lat="48.87053" lon="6.1374">
        <ele>223</ele>
        <time>2013-06-05T14:11:13Z</time>
      </trkpt>
      <trkpt lat="48.87048" lon="6.13739">
        <ele>224</ele>
        <time>2013-06-05T14:11:16Z</time>
      </trkpt>
      <trkpt lat="48.87043" lon="6.1374">
        <ele>223</ele>
        <time>2013-06-05T14:11:20Z</time>
      </trkpt>
      <trkpt lat="48.87038" lon="6.13741">
        <ele>223</ele>
        <time>2013-06-05T14:11:23Z</time>
      </trkpt>
      <trkpt lat="48.87033" lon="6.13741">
        <ele>223</ele>
        <time>2013-06-05T14:11:27Z</time>
      </trkpt>
      <trkpt lat="48.87026" lon="6.1374">
        <ele>221</ele>
        <time>2013-06-05T14:11:49Z</time>
      </trkpt>
      <trkpt lat="48.87023" lon="6.13743">
        <ele>222</ele>
        <time>2013-06-05T14:11:54Z</time>
      </trkpt>
      <trkpt lat="48.87018" lon="6.13747">
        <ele>222</ele>
        <time>2013-06-05T14:11:58Z</time>
      </trkpt>
      <trkpt lat="48.87014" lon="6.1375">
        <ele>223</ele>
        <time>2013-06-05T14:12:01Z</time>
      </trkpt>
      <trkpt lat="48.8701" lon="6.13754">
        <ele>223</ele>
        <time>2013-06-05T14:12:07Z</time>
      </trkpt>
      <trkpt lat="48.87005" lon="6.13758">
        <ele>224</ele>
        <time>2013-06-05T14:12:11Z</time>
      </trkpt>
      <trkpt lat="48.87001" lon="6.13763">
        <ele>223</ele>
        <time>2013-06-05T14:12:15Z</time>
      </trkpt>
      <trkpt lat="48.86996" lon="6.13767">
        <ele>223</ele>
        <time>2013-06-05T14:12:19Z</time>
      </trkpt>
      <trkpt lat="48.86992" lon="6.13771">
        <ele>223</ele>
        <time>2013-06-05T14:12:23Z</time>
      </trkpt>
      <trkpt lat="48.86989" lon="6.13776">
        <ele>224</ele>
        <time>2013-06-05T14:12:27Z</time>
      </trkpt>
      <trkpt lat="48.86985" lon="6.13782">
        <ele>223</ele>
        <time>2013-06-05T14:12:31Z</time>
      </trkpt>
      <trkpt lat="48.86981" lon="6.13787">
        <ele>223</ele>
        <time>2013-06-05T14:12:35Z</time>
      </trkpt>
      <trkpt lat="48.86977" lon="6.13791">
        <ele>224</ele>
        <time>2013-06-05T14:12:38Z</time>
      </trkpt>
      <trkpt lat="48.86973" lon="6.13797">
        <ele>225</ele>
        <time>2013-06-05T14:12:42Z</time>
      </trkpt>
      <trkpt lat="48.8697" lon="6.13802">
        <ele>225</ele>
        <time>2013-06-05T14:12:46Z</time>
      </trkpt>
      <trkpt lat="48.86963" lon="6.13809">
        <ele>224</ele>
        <time>2013-06-05T14:12:51Z</time>
      </trkpt>
      <trkpt lat="48.8696" lon="6.13814">
        <ele>224</ele>
        <time>2013-06-05T14:12:55Z</time>
      </trkpt>
      <trkpt lat="48.86956" lon="6.1382">
        <ele>225</ele>
        <time>2013-06-05T14:12:59Z</time>
      </trkpt>
      <trkpt lat="48.86953" lon="6.13824">
        <ele>225</ele>
        <time>2013-06-05T14:13:03Z</time>
      </trkpt>
      <trkpt lat="48.86949" lon="6.1383">
        <ele>225</ele>
        <time>2013-06-05T14:13:07Z</time>
      </trkpt>
      <trkpt lat="48.86946" lon="6.13837">
        <ele>225</ele>
        <time>2013-06-05T14:13:10Z</time>
      </trkpt>
      <trkpt lat="48.86942" lon="6.13843">
        <ele>225</ele>
        <time>2013-06-05T14:13:14Z</time>
      </trkpt>
      <trkpt lat="48.86938" lon="6.13849">
        <ele>224</ele>
        <time>2013-06-05T14:13:17Z</time>
      </trkpt>
      <trkpt lat="48.86934" lon="6.13854">
        <ele>224</ele>
        <time>2013-06-05T14:13:20Z</time>
      </trkpt>
      <trkpt lat="48.86931" lon="6.13861">
        <ele>224</ele>
        <time>2013-06-05T14:13:24Z</time>
      </trkpt>
      <trkpt lat="48.86927" lon="6.13866">
        <ele>225</ele>
        <time>2013-06-05T14:13:27Z</time>
      </trkpt>
      <trkpt lat="48.86924" lon="6.13871">
        <ele>225</ele>
        <time>2013-06-05T14:13:31Z</time>
      </trkpt>
      <trkpt lat="48.8692" lon="6.13877">
        <ele>224</ele>
        <time>2013-06-05T14:13:35Z</time>
      </trkpt>
      <trkpt lat="48.86916" lon="6.13883">
        <ele>224</ele>
        <time>2013-06-05T14:13:38Z</time>
      </trkpt>
      <trkpt lat="48.86913" lon="6.13888">
        <ele>224</ele>
        <time>2013-06-05T14:13:41Z</time>
      </trkpt>
      <trkpt lat="48.8691" lon="6.13894">
        <ele>223</ele>
        <time>2013-06-05T14:13:45Z</time>
      </trkpt>
      <trkpt lat="48.86907" lon="6.139">
        <ele>223</ele>
        <time>2013-06-05T14:13:49Z</time>
      </trkpt>
      <trkpt lat="48.86903" lon="6.13905">
        <ele>224</ele>
        <time>2013-06-05T14:13:53Z</time>
      </trkpt>
      <trkpt lat="48.86895" lon="6.139">
        <ele>224</ele>
        <time>2013-06-05T14:14:00Z</time>
      </trkpt>
      <trkpt lat="48.86896" lon="6.13891">
        <ele>224</ele>
        <time>2013-06-05T14:14:04Z</time>
      </trkpt>
      <trkpt lat="48.86898" lon="6.13883">
        <ele>225</ele>
        <time>2013-06-05T14:14:08Z</time>
      </trkpt>
      <trkpt lat="48.869" lon="6.13875">
        <ele>226</ele>
        <time>2013-06-05T14:14:12Z</time>
      </trkpt>
      <trkpt lat="48.86903" lon="6.13867">
        <ele>223</ele>
        <time>2013-06-05T14:14:31Z</time>
      </trkpt>
      <trkpt lat="48.86905" lon="6.13856">
        <ele>221</ele>
        <time>2013-06-05T14:14:37Z</time>
      </trkpt>
      <trkpt lat="48.86905" lon="6.13847">
        <ele>221</ele>
        <time>2013-06-05T14:14:41Z</time>
      </trkpt>
      <trkpt lat="48.86906" lon="6.13839">
        <ele>222</ele>
        <time>2013-06-05T14:14:46Z</time>
      </trkpt>
      <trkpt lat="48.86909" lon="6.13823">
        <ele>222</ele>
        <time>2013-06-05T14:15:00Z</time>
      </trkpt>
      <trkpt lat="48.86911" lon="6.13816">
        <ele>222</ele>
        <time>2013-06-05T14:15:03Z</time>
      </trkpt>
      <trkpt lat="48.86912" lon="6.13809">
        <ele>223</ele>
        <time>2013-06-05T14:15:07Z</time>
      </trkpt>
      <trkpt lat="48.86913" lon="6.13801">
        <ele>225</ele>
        <time>2013-06-05T14:15:12Z</time>
      </trkpt>
      <trkpt lat="48.86913" lon="6.13794">
        <ele>226</ele>
        <time>2013-06-05T14:15:15Z</time>
      </trkpt>
      <trkpt lat="48.86915" lon="6.1378">
        <ele>227</ele>
        <time>2013-06-05T14:15:22Z</time>
      </trkpt>
      <trkpt lat="48.86916" lon="6.13772">
        <ele>228</ele>
        <time>2013-06-05T14:15:26Z</time>
      </trkpt>
      <trkpt lat="48.86917" lon="6.13764">
        <ele>228</ele>
        <time>2013-06-05T14:15:30Z</time>
      </trkpt>
      <trkpt lat="48.86918" lon="6.13755">
        <ele>228</ele>
        <time>2013-06-05T14:15:35Z</time>
      </trkpt>
      <trkpt lat="48.8692" lon="6.13747">
        <ele>228</ele>
        <time>2013-06-05T14:15:39Z</time>
      </trkpt>
      <trkpt lat="48.86921" lon="6.1374">
        <ele>229</ele>
        <time>2013-06-05T14:15:42Z</time>
      </trkpt>
      <trkpt lat="48.86922" lon="6.13731">
        <ele>229</ele>
        <time>2013-06-05T14:15:46Z</time>
      </trkpt>
      <trkpt lat="48.86924" lon="6.13722">
        <ele>228</ele>
        <time>2013-06-05T14:15:50Z</time>
      </trkpt>
      <trkpt lat="48.86925" lon="6.13715">
        <ele>227</ele>
        <time>2013-06-05T14:15:54Z</time>
      </trkpt>
      <trkpt lat="48.86926" lon="6.13708">
        <ele>227</ele>
        <time>2013-06-05T14:15:58Z</time>
      </trkpt>
      <trkpt lat="48.86927" lon="6.137">
        <ele>228</ele>
        <time>2013-06-05T14:16:02Z</time>
      </trkpt>
      <trkpt lat="48.86928" lon="6.13692">
        <ele>229</ele>
        <time>2013-06-05T14:16:06Z</time>
      </trkpt>
      <trkpt lat="48.86929" lon="6.13684">
        <ele>229</ele>
        <time>2013-06-05T14:16:10Z</time>
      </trkpt>
      <trkpt lat="48.8693" lon="6.13676">
        <ele>229</ele>
        <time>2013-06-05T14:16:14Z</time>
      </trkpt>
      <trkpt lat="48.86931" lon="6.13666">
        <ele>229</ele>
        <time>2013-06-05T14:16:18Z</time>
      </trkpt>
      <trkpt lat="48.86932" lon="6.13658">
        <ele>230</ele>
        <time>2013-06-05T14:16:22Z</time>
      </trkpt>
      <trkpt lat="48.86933" lon="6.13652">
        <ele>232</ele>
        <time>2013-06-05T14:16:26Z</time>
      </trkpt>
      <trkpt lat="48.86935" lon="6.13645">
        <ele>232</ele>
        <time>2013-06-05T14:16:29Z</time>
      </trkpt>
      <trkpt lat="48.86937" lon="6.13636">
        <ele>232</ele>
        <time>2013-06-05T14:16:33Z</time>
      </trkpt>
      <trkpt lat="48.86937" lon="6.1363">
        <ele>231</ele>
        <time>2013-06-05T14:16:37Z</time>
      </trkpt>
      <trkpt lat="48.86939" lon="6.13622">
        <ele>231</ele>
        <time>2013-06-05T14:16:42Z</time>
      </trkpt>
      <trkpt lat="48.86942" lon="6.13615">
        <ele>231</ele>
        <time>2013-06-05T14:16:46Z</time>
      </trkpt>
      <trkpt lat="48.86944" lon="6.13608">
        <ele>231</ele>
        <time>2013-06-05T14:16:51Z</time>
      </trkpt>
      <trkpt lat="48.86946" lon="6.136">
        <ele>231</ele>
        <time>2013-06-05T14:16:58Z</time>
      </trkpt>
      <trkpt lat="48.86947" lon="6.13593">
        <ele>232</ele>
        <time>2013-06-05T14:17:02Z</time>
      </trkpt>
      <trkpt lat="48.86947" lon="6.13585">
        <ele>232</ele>
        <time>2013-06-05T14:17:06Z</time>
      </trkpt>
      <trkpt lat="48.86948" lon="6.13577">
        <ele>233</ele>
        <time>2013-06-05T14:17:10Z</time>
      </trkpt>
      <trkpt lat="48.86948" lon="6.13569">
        <ele>233</ele>
        <time>2013-06-05T14:17:14Z</time>
      </trkpt>
      <trkpt lat="48.86947" lon="6.13561">
        <ele>234</ele>
        <time>2013-06-05T14:17:18Z</time>
      </trkpt>
      <trkpt lat="48.86945" lon="6.13553">
        <ele>235</ele>
        <time>2013-06-05T14:17:22Z</time>
      </trkpt>
      <trkpt lat="48.86944" lon="6.13545">
        <ele>236</ele>
        <time>2013-06-05T14:17:26Z</time>
      </trkpt>
      <trkpt lat="48.86942" lon="6.13537">
        <ele>236</ele>
        <time>2013-06-05T14:17:30Z</time>
      </trkpt>
      <trkpt lat="48.86941" lon="6.1353">
        <ele>236</ele>
        <time>2013-06-05T14:17:34Z</time>
      </trkpt>
      <trkpt lat="48.86939" lon="6.13523">
        <ele>236</ele>
        <time>2013-06-05T14:17:38Z</time>
      </trkpt>
      <trkpt lat="48.86937" lon="6.13516">
        <ele>236</ele>
        <time>2013-06-05T14:17:42Z</time>
      </trkpt>
      <trkpt lat="48.86935" lon="6.1351">
        <ele>235</ele>
        <time>2013-06-05T14:17:45Z</time>
      </trkpt>
      <trkpt lat="48.86933" lon="6.13504">
        <ele>236</ele>
        <time>2013-06-05T14:17:49Z</time>
      </trkpt>
      <trkpt lat="48.86931" lon="6.13497">
        <ele>235</ele>
        <time>2013-06-05T14:17:53Z</time>
      </trkpt>
      <trkpt lat="48.86929" lon="6.13491">
        <ele>235</ele>
        <time>2013-06-05T14:17:56Z</time>
      </trkpt>
      <trkpt lat="48.86926" lon="6.13483">
        <ele>234</ele>
        <time>2013-06-05T14:18:00Z</time>
      </trkpt>
      <trkpt lat="48.86924" lon="6.13476">
        <ele>234</ele>
        <time>2013-06-05T14:18:04Z</time>
      </trkpt>
      <trkpt lat="48.86922" lon="6.1347">
        <ele>235</ele>
        <time>2013-06-05T14:18:08Z</time>
      </trkpt>
      <trkpt lat="48.8692" lon="6.13463">
        <ele>235</ele>
        <time>2013-06-05T14:18:12Z</time>
      </trkpt>
      <trkpt lat="48.86919" lon="6.13456">
        <ele>236</ele>
        <time>2013-06-05T14:18:14Z</time>
      </trkpt>
      <trkpt lat="48.86917" lon="6.1345">
        <ele>237</ele>
        <time>2013-06-05T14:18:17Z</time>
      </trkpt>
      <trkpt lat="48.86916" lon="6.13441">
        <ele>237</ele>
        <time>2013-06-05T14:18:21Z</time>
      </trkpt>
      <trkpt lat="48.86912" lon="6.13428">
        <ele>235</ele>
        <time>2013-06-05T14:18:28Z</time>
      </trkpt>
      <trkpt lat="48.86909" lon="6.1342">
        <ele>236</ele>
        <time>2013-06-05T14:18:33Z</time>
      </trkpt>
      <trkpt lat="48.86908" lon="6.13412">
        <ele>236</ele>
        <time>2013-06-05T14:18:37Z</time>
      </trkpt>
      <trkpt lat="48.86908" lon="6.13405">
        <ele>236</ele>
        <time>2013-06-05T14:18:40Z</time>
      </trkpt>
      <trkpt lat="48.86907" lon="6.13398">
        <ele>236</ele>
        <time>2013-06-05T14:18:43Z</time>
      </trkpt>
      <trkpt lat="48.86907" lon="6.1339">
        <ele>237</ele>
        <time>2013-06-05T14:18:46Z</time>
      </trkpt>
      <trkpt lat="48.86905" lon="6.13382">
        <ele>236</ele>
        <time>2013-06-05T14:18:51Z</time>
      </trkpt>
      <trkpt lat="48.86903" lon="6.13374">
        <ele>236</ele>
        <time>2013-06-05T14:18:55Z</time>
      </trkpt>
      <trkpt lat="48.86902" lon="6.13366">
        <ele>236</ele>
        <time>2013-06-05T14:18:58Z</time>
      </trkpt>
      <trkpt lat="48.86901" lon="6.13359">
        <ele>236</ele>
        <time>2013-06-05T14:19:01Z</time>
      </trkpt>
      <trkpt lat="48.86899" lon="6.13346">
        <ele>237</ele>
        <time>2013-06-05T14:19:08Z</time>
      </trkpt>
      <trkpt lat="48.86898" lon="6.13338">
        <ele>238</ele>
        <time>2013-06-05T14:19:11Z</time>
      </trkpt>
      <trkpt lat="48.86895" lon="6.13329">
        <ele>237</ele>
        <time>2013-06-05T14:19:16Z</time>
      </trkpt>
      <trkpt lat="48.86893" lon="6.1332">
        <ele>237</ele>
        <time>2013-06-05T14:19:20Z</time>
      </trkpt>
      <trkpt lat="48.86893" lon="6.13311">
        <ele>238</ele>
        <time>2013-06-05T14:19:24Z</time>
      </trkpt>
      <trkpt lat="48.86893" lon="6.13304">
        <ele>238</ele>
        <time>2013-06-05T14:19:28Z</time>
      </trkpt>
      <trkpt lat="48.86891" lon="6.13296">
        <ele>238</ele>
        <time>2013-06-05T14:19:33Z</time>
      </trkpt>
      <trkpt lat="48.86891" lon="6.13281">
        <ele>237</ele>
        <time>2013-06-05T14:19:41Z</time>
      </trkpt>
      <trkpt lat="48.86888" lon="6.13267">
        <ele>233</ele>
        <time>2013-06-05T14:19:49Z</time>
      </trkpt>
      <trkpt lat="48.86886" lon="6.13253">
        <ele>230</ele>
        <time>2013-06-05T14:19:58Z</time>
      </trkpt>
      <trkpt lat="48.86883" lon="6.13239">
        <ele>230</ele>
        <time>2013-06-05T14:20:07Z</time>
      </trkpt>
      <trkpt lat="48.86877" lon="6.13225">
        <ele>228</ele>
        <time>2013-06-05T14:20:17Z</time>
      </trkpt>
      <trkpt lat="48.86877" lon="6.13214">
        <ele>225</ele>
        <time>2013-06-05T14:20:34Z</time>
      </trkpt>
      <trkpt lat="48.86872" lon="6.13219">
        <ele>229</ele>
        <time>2013-06-05T14:21:51Z</time>
      </trkpt>
      <trkpt lat="48.86871" lon="6.13213">
        <ele>236</ele>
        <time>2013-06-05T14:23:39Z</time>
      </trkpt>
      <trkpt lat="48.86867" lon="6.13195">
        <ele>234</ele>
        <time>2013-06-05T14:24:02Z</time>
      </trkpt>
      <trkpt lat="48.86865" lon="6.13181">
        <ele>238</ele>
        <time>2013-06-05T14:24:14Z</time>
      </trkpt>
      <trkpt lat="48.86851" lon="6.1315">
        <ele>250</ele>
        <time>2013-06-05T14:24:36Z</time>
      </trkpt>
      <trkpt lat="48.86849" lon="6.13144">
        <ele>250</ele>
        <time>2013-06-05T14:24:38Z</time>
      </trkpt>
      <trkpt lat="48.86846" lon="6.13138">
        <ele>250</ele>
        <time>2013-06-05T14:24:42Z</time>
      </trkpt>
      <trkpt lat="48.86845" lon="6.13131">
        <ele>251</ele>
        <time>2013-06-05T14:24:46Z</time>
      </trkpt>
      <trkpt lat="48.86843" lon="6.13123">
        <ele>252</ele>
        <time>2013-06-05T14:24:51Z</time>
      </trkpt>
      <trkpt lat="48.86845" lon="6.13115">
        <ele>252</ele>
        <time>2013-06-05T14:24:57Z</time>
      </trkpt>
      <trkpt lat="48.86846" lon="6.13107">
        <ele>251</ele>
        <time>2013-06-05T14:25:00Z</time>
      </trkpt>
      <trkpt lat="48.86846" lon="6.131">
        <ele>250</ele>
        <time>2013-06-05T14:25:04Z</time>
      </trkpt>
      <trkpt lat="48.86845" lon="6.13091">
        <ele>250</ele>
        <time>2013-06-05T14:25:08Z</time>
      </trkpt>
      <trkpt lat="48.86843" lon="6.13083">
        <ele>249</ele>
        <time>2013-06-05T14:25:13Z</time>
      </trkpt>
      <trkpt lat="48.86841" lon="6.13076">
        <ele>248</ele>
        <time>2013-06-05T14:25:18Z</time>
      </trkpt>
      <trkpt lat="48.8684" lon="6.13068">
        <ele>248</ele>
        <time>2013-06-05T14:25:24Z</time>
      </trkpt>
      <trkpt lat="48.8684" lon="6.1306">
        <ele>249</ele>
        <time>2013-06-05T14:25:29Z</time>
      </trkpt>
      <trkpt lat="48.8684" lon="6.13052">
        <ele>250</ele>
        <time>2013-06-05T14:25:34Z</time>
      </trkpt>
      <trkpt lat="48.8684" lon="6.13044">
        <ele>250</ele>
        <time>2013-06-05T14:25:39Z</time>
      </trkpt>
      <trkpt lat="48.86839" lon="6.13036">
        <ele>250</ele>
        <time>2013-06-05T14:25:43Z</time>
      </trkpt>
      <trkpt lat="48.86839" lon="6.13029">
        <ele>250</ele>
        <time>2013-06-05T14:25:47Z</time>
      </trkpt>
      <trkpt lat="48.86839" lon="6.13021">
        <ele>250</ele>
        <time>2013-06-05T14:25:52Z</time>
      </trkpt>
      <trkpt lat="48.8684" lon="6.13013">
        <ele>250</ele>
        <time>2013-06-05T14:25:56Z</time>
      </trkpt>
      <trkpt lat="48.86841" lon="6.13007">
        <ele>251</ele>
        <time>2013-06-05T14:26:00Z</time>
      </trkpt>
      <trkpt lat="48.86843" lon="6.12999">
        <ele>251</ele>
        <time>2013-06-05T14:26:04Z</time>
      </trkpt>
      <trkpt lat="48.86844" lon="6.12992">
        <ele>251</ele>
        <time>2013-06-05T14:26:08Z</time>
      </trkpt>
      <trkpt lat="48.86845" lon="6.12985">
        <ele>251</ele>
        <time>2013-06-05T14:26:12Z</time>
      </trkpt>
      <trkpt lat="48.86845" lon="6.12977">
        <ele>251</ele>
        <time>2013-06-05T14:26:17Z</time>
      </trkpt>
      <trkpt lat="48.86846" lon="6.12969">
        <ele>251</ele>
        <time>2013-06-05T14:26:21Z</time>
      </trkpt>
      <trkpt lat="48.86846" lon="6.12961">
        <ele>251</ele>
        <time>2013-06-05T14:26:25Z</time>
      </trkpt>
      <trkpt lat="48.86847" lon="6.12954">
        <ele>252</ele>
        <time>2013-06-05T14:26:29Z</time>
      </trkpt>
      <trkpt lat="48.86847" lon="6.12946">
        <ele>253</ele>
        <time>2013-06-05T14:26:34Z</time>
      </trkpt>
      <trkpt lat="48.86847" lon="6.12938">
        <ele>254</ele>
        <time>2013-06-05T14:26:39Z</time>
      </trkpt>
      <trkpt lat="48.86848" lon="6.12929">
        <ele>255</ele>
        <time>2013-06-05T14:26:43Z</time>
      </trkpt>
      <trkpt lat="48.86849" lon="6.12922">
        <ele>255</ele>
        <time>2013-06-05T14:26:48Z</time>
      </trkpt>
      <trkpt lat="48.86849" lon="6.12915">
        <ele>256</ele>
        <time>2013-06-05T14:26:52Z</time>
      </trkpt>
      <trkpt lat="48.86849" lon="6.12908">
        <ele>256</ele>
        <time>2013-06-05T14:26:56Z</time>
      </trkpt>
      <trkpt lat="48.8685" lon="6.12901">
        <ele>257</ele>
        <time>2013-06-05T14:27:00Z</time>
      </trkpt>
      <trkpt lat="48.8685" lon="6.12894">
        <ele>257</ele>
        <time>2013-06-05T14:27:04Z</time>
      </trkpt>
      <trkpt lat="48.86852" lon="6.12886">
        <ele>258</ele>
        <time>2013-06-05T14:27:10Z</time>
      </trkpt>
      <trkpt lat="48.86853" lon="6.12879">
        <ele>259</ele>
        <time>2013-06-05T14:27:14Z</time>
      </trkpt>
      <trkpt lat="48.86853" lon="6.1287">
        <ele>259</ele>
        <time>2013-06-05T14:27:19Z</time>
      </trkpt>
      <trkpt lat="48.86853" lon="6.12863">
        <ele>259</ele>
        <time>2013-06-05T14:27:24Z</time>
      </trkpt>
      <trkpt lat="48.86854" lon="6.12856">
        <ele>260</ele>
        <time>2013-06-05T14:27:29Z</time>
      </trkpt>
      <trkpt lat="48.86854" lon="6.12849">
        <ele>260</ele>
        <time>2013-06-05T14:27:34Z</time>
      </trkpt>
      <trkpt lat="48.86854" lon="6.1284">
        <ele>261</ele>
        <time>2013-06-05T14:27:40Z</time>
      </trkpt>
      <trkpt lat="48.86855" lon="6.12834">
        <ele>262</ele>
        <time>2013-06-05T14:27:46Z</time>
      </trkpt>
      <trkpt lat="48.86858" lon="6.12827">
        <ele>262</ele>
        <time>2013-06-05T14:27:51Z</time>
      </trkpt>
      <trkpt lat="48.8686" lon="6.1282">
        <ele>262</ele>
        <time>2013-06-05T14:27:56Z</time>
      </trkpt>
      <trkpt lat="48.86859" lon="6.12812">
        <ele>263</ele>
        <time>2013-06-05T14:28:02Z</time>
      </trkpt>
      <trkpt lat="48.86859" lon="6.12804">
        <ele>264</ele>
        <time>2013-06-05T14:28:08Z</time>
      </trkpt>
      <trkpt lat="48.86859" lon="6.12797">
        <ele>265</ele>
        <time>2013-06-05T14:28:14Z</time>
      </trkpt>
      <trkpt lat="48.86859" lon="6.1279">
        <ele>266</ele>
        <time>2013-06-05T14:28:19Z</time>
      </trkpt>
      <trkpt lat="48.86859" lon="6.12783">
        <ele>267</ele>
        <time>2013-06-05T14:28:24Z</time>
      </trkpt>
      <trkpt lat="48.8686" lon="6.12775">
        <ele>267</ele>
        <time>2013-06-05T14:28:30Z</time>
      </trkpt>
      <trkpt lat="48.8686" lon="6.12768">
        <ele>268</ele>
        <time>2013-06-05T14:28:35Z</time>
      </trkpt>
      <trkpt lat="48.8686" lon="6.1276">
        <ele>268</ele>
        <time>2013-06-05T14:28:41Z</time>
      </trkpt>
      <trkpt lat="48.8686" lon="6.12753">
        <ele>269</ele>
        <time>2013-06-05T14:28:46Z</time>
      </trkpt>
      <trkpt lat="48.8686" lon="6.12746">
        <ele>270</ele>
        <time>2013-06-05T14:28:52Z</time>
      </trkpt>
      <trkpt lat="48.8686" lon="6.12739">
        <ele>271</ele>
        <time>2013-06-05T14:28:56Z</time>
      </trkpt>
      <trkpt lat="48.8686" lon="6.12732">
        <ele>271</ele>
        <time>2013-06-05T14:29:01Z</time>
      </trkpt>
      <trkpt lat="48.8686" lon="6.12724">
        <ele>273</ele>
        <time>2013-06-05T14:29:07Z</time>
      </trkpt>
      <trkpt lat="48.86861" lon="6.12716">
        <ele>274</ele>
        <time>2013-06-05T14:29:12Z</time>
      </trkpt>
      <trkpt lat="48.86861" lon="6.12709">
        <ele>276</ele>
        <time>2013-06-05T14:29:17Z</time>
      </trkpt>
      <trkpt lat="48.86861" lon="6.12701">
        <ele>277</ele>
        <time>2013-06-05T14:29:22Z</time>
      </trkpt>
      <trkpt lat="48.8686" lon="6.12694">
        <ele>278</ele>
        <time>2013-06-05T14:29:27Z</time>
      </trkpt>
      <trkpt lat="48.8686" lon="6.12685">
        <ele>279</ele>
        <time>2013-06-05T14:29:32Z</time>
      </trkpt>
      <trkpt lat="48.8686" lon="6.12678">
        <ele>279</ele>
        <time>2013-06-05T14:29:36Z</time>
      </trkpt>
      <trkpt lat="48.8686" lon="6.1267">
        <ele>280</ele>
        <time>2013-06-05T14:29:41Z</time>
      </trkpt>
      <trkpt lat="48.86859" lon="6.12663">
        <ele>282</ele>
        <time>2013-06-05T14:29:46Z</time>
      </trkpt>
      <trkpt lat="48.86858" lon="6.12656">
        <ele>283</ele>
        <time>2013-06-05T14:29:51Z</time>
      </trkpt>
      <trkpt lat="48.86858" lon="6.12652">
        <ele>283</ele>
        <time>2013-06-05T14:29:57Z</time>
      </trkpt>
      <trkpt lat="48.86858" lon="6.12649">
        <ele>285</ele>
        <time>2013-06-05T14:30:03Z</time>
      </trkpt>
      <trkpt lat="48.86857" lon="6.12638">
        <ele>287</ele>
        <time>2013-06-05T14:32:49Z</time>
      </trkpt>
      <trkpt lat="48.86858" lon="6.1263">
        <ele>287</ele>
        <time>2013-06-05T14:32:54Z</time>
      </trkpt>
      <trkpt lat="48.86859" lon="6.12622">
        <ele>287</ele>
        <time>2013-06-05T14:32:59Z</time>
      </trkpt>
      <trkpt lat="48.8686" lon="6.12615">
        <ele>287</ele>
        <time>2013-06-05T14:33:04Z</time>
      </trkpt>
      <trkpt lat="48.86859" lon="6.12608">
        <ele>288</ele>
        <time>2013-06-05T14:33:14Z</time>
      </trkpt>
      <trkpt lat="48.86859" lon="6.126">
        <ele>289</ele>
        <time>2013-06-05T14:34:12Z</time>
      </trkpt>
      <trkpt lat="48.8686" lon="6.12592">
        <ele>290</ele>
        <time>2013-06-05T14:34:16Z</time>
      </trkpt>
      <trkpt lat="48.8686" lon="6.12583">
        <ele>290</ele>
        <time>2013-06-05T14:34:20Z</time>
      </trkpt>
      <trkpt lat="48.86861" lon="6.12575">
        <ele>290</ele>
        <time>2013-06-05T14:34:24Z</time>
      </trkpt>
      <trkpt lat="48.86862" lon="6.12567">
        <ele>291</ele>
        <time>2013-06-05T14:34:28Z</time>
      </trkpt>
      <trkpt lat="48.86863" lon="6.1256">
        <ele>291</ele>
        <time>2013-06-05T14:34:32Z</time>
      </trkpt>
      <trkpt lat="48.86864" lon="6.12553">
        <ele>292</ele>
        <time>2013-06-05T14:34:36Z</time>
      </trkpt>
      <trkpt lat="48.86865" lon="6.12546">
        <ele>292</ele>
        <time>2013-06-05T14:34:40Z</time>
      </trkpt>
      <trkpt lat="48.86865" lon="6.12539">
        <ele>293</ele>
        <time>2013-06-05T14:34:44Z</time>
      </trkpt>
      <trkpt lat="48.86865" lon="6.12532">
        <ele>293</ele>
        <time>2013-06-05T14:34:48Z</time>
      </trkpt>
      <trkpt lat="48.86866" lon="6.12525">
        <ele>294</ele>
        <time>2013-06-05T14:34:52Z</time>
      </trkpt>
      <trkpt lat="48.86867" lon="6.12517">
        <ele>295</ele>
        <time>2013-06-05T14:34:56Z</time>
      </trkpt>
      <trkpt lat="48.86865" lon="6.1251">
        <ele>296</ele>
        <time>2013-06-05T14:35:00Z</time>
      </trkpt>
      <trkpt lat="48.86865" lon="6.12503">
        <ele>297</ele>
        <time>2013-06-05T14:35:04Z</time>
      </trkpt>
      <trkpt lat="48.86866" lon="6.12495">
        <ele>298</ele>
        <time>2013-06-05T14:35:08Z</time>
      </trkpt>
      <trkpt lat="48.86867" lon="6.12486">
        <ele>298</ele>
        <time>2013-06-05T14:35:13Z</time>
      </trkpt>
      <trkpt lat="48.86869" lon="6.12478">
        <ele>299</ele>
        <time>2013-06-05T14:35:17Z</time>
      </trkpt>
      <trkpt lat="48.86871" lon="6.1247">
        <ele>299</ele>
        <time>2013-06-05T14:35:21Z</time>
      </trkpt>
      <trkpt lat="48.86872" lon="6.12463">
        <ele>300</ele>
        <time>2013-06-05T14:35:24Z</time>
      </trkpt>
      <trkpt lat="48.86872" lon="6.12454">
        <ele>301</ele>
        <time>2013-06-05T14:35:28Z</time>
      </trkpt>
      <trkpt lat="48.86873" lon="6.12446">
        <ele>301</ele>
        <time>2013-06-05T14:35:32Z</time>
      </trkpt>
      <trkpt lat="48.86874" lon="6.12437">
        <ele>302</ele>
        <time>2013-06-05T14:35:36Z</time>
      </trkpt>
      <trkpt lat="48.86875" lon="6.12429">
        <ele>303</ele>
        <time>2013-06-05T14:35:40Z</time>
      </trkpt>
      <trkpt lat="48.86876" lon="6.12421">
        <ele>303</ele>
        <time>2013-06-05T14:35:44Z</time>
      </trkpt>
      <trkpt lat="48.86877" lon="6.12414">
        <ele>304</ele>
        <time>2013-06-05T14:35:48Z</time>
      </trkpt>
      <trkpt lat="48.86878" lon="6.12406">
        <ele>304</ele>
        <time>2013-06-05T14:35:52Z</time>
      </trkpt>
      <trkpt lat="48.86878" lon="6.12398">
        <ele>305</ele>
        <time>2013-06-05T14:35:56Z</time>
      </trkpt>
      <trkpt lat="48.86879" lon="6.12389">
        <ele>305</ele>
        <time>2013-06-05T14:36:00Z</time>
      </trkpt>
      <trkpt lat="48.8688" lon="6.12382">
        <ele>306</ele>
        <time>2013-06-05T14:36:04Z</time>
      </trkpt>
      <trkpt lat="48.86881" lon="6.12375">
        <ele>306</ele>
        <time>2013-06-05T14:36:08Z</time>
      </trkpt>
      <trkpt lat="48.86882" lon="6.12368">
        <ele>307</ele>
        <time>2013-06-05T14:36:12Z</time>
      </trkpt>
      <trkpt lat="48.86884" lon="6.1236">
        <ele>308</ele>
        <time>2013-06-05T14:36:17Z</time>
      </trkpt>
      <trkpt lat="48.86884" lon="6.12352">
        <ele>309</ele>
        <time>2013-06-05T14:36:21Z</time>
      </trkpt>
      <trkpt lat="48.86885" lon="6.12345">
        <ele>309</ele>
        <time>2013-06-05T14:36:24Z</time>
      </trkpt>
      <trkpt lat="48.86886" lon="6.12337">
        <ele>310</ele>
        <time>2013-06-05T14:36:28Z</time>
      </trkpt>
      <trkpt lat="48.86888" lon="6.1233">
        <ele>310</ele>
        <time>2013-06-05T14:36:31Z</time>
      </trkpt>
      <trkpt lat="48.86889" lon="6.12322">
        <ele>311</ele>
        <time>2013-06-05T14:36:35Z</time>
      </trkpt>
      <trkpt lat="48.8689" lon="6.12314">
        <ele>311</ele>
        <time>2013-06-05T14:36:38Z</time>
      </trkpt>
      <trkpt lat="48.8689" lon="6.12307">
        <ele>312</ele>
        <time>2013-06-05T14:36:42Z</time>
      </trkpt>
      <trkpt lat="48.86892" lon="6.123">
        <ele>312</ele>
        <time>2013-06-05T14:36:45Z</time>
      </trkpt>
      <trkpt lat="48.86892" lon="6.12298">
        <ele>313</ele>
        <time>2013-06-05T14:37:01Z</time>
      </trkpt>
      <trkpt lat="48.86894" lon="6.12292">
        <ele>314</ele>
        <time>2013-06-05T14:37:23Z</time>
      </trkpt>
      <trkpt lat="48.86898" lon="6.12285">
        <ele>314</ele>
        <time>2013-06-05T14:37:27Z</time>
      </trkpt>
      <trkpt lat="48.86901" lon="6.12279">
        <ele>315</ele>
        <time>2013-06-05T14:37:31Z</time>
      </trkpt>
      <trkpt lat="48.86904" lon="6.12272">
        <ele>315</ele>
        <time>2013-06-05T14:37:35Z</time>
      </trkpt>
      <trkpt lat="48.86906" lon="6.12266">
        <ele>315</ele>
        <time>2013-06-05T14:37:39Z</time>
      </trkpt>
      <trkpt lat="48.86909" lon="6.1226">
        <ele>316</ele>
        <time>2013-06-05T14:37:43Z</time>
      </trkpt>
      <trkpt lat="48.86912" lon="6.12253">
        <ele>317</ele>
        <time>2013-06-05T14:37:48Z</time>
      </trkpt>
      <trkpt lat="48.86916" lon="6.12247">
        <ele>317</ele>
        <time>2013-06-05T14:37:53Z</time>
      </trkpt>
      <trkpt lat="48.86919" lon="6.1224">
        <ele>317</ele>
        <time>2013-06-05T14:37:56Z</time>
      </trkpt>
      <trkpt lat="48.86922" lon="6.12234">
        <ele>317</ele>
        <time>2013-06-05T14:38:00Z</time>
      </trkpt>
      <trkpt lat="48.86926" lon="6.12228">
        <ele>317</ele>
        <time>2013-06-05T14:38:04Z</time>
      </trkpt>
      <trkpt lat="48.86929" lon="6.12222">
        <ele>316</ele>
        <time>2013-06-05T14:38:08Z</time>
      </trkpt>
      <trkpt lat="48.86932" lon="6.12215">
        <ele>317</ele>
        <time>2013-06-05T14:38:12Z</time>
      </trkpt>
      <trkpt lat="48.86935" lon="6.1221">
        <ele>316</ele>
        <time>2013-06-05T14:38:16Z</time>
      </trkpt>
      <trkpt lat="48.86939" lon="6.12205">
        <ele>316</ele>
        <time>2013-06-05T14:38:20Z</time>
      </trkpt>
      <trkpt lat="48.86942" lon="6.12199">
        <ele>316</ele>
        <time>2013-06-05T14:38:24Z</time>
      </trkpt>
      <trkpt lat="48.86945" lon="6.12192">
        <ele>317</ele>
        <time>2013-06-05T14:38:28Z</time>
      </trkpt>
      <trkpt lat="48.86948" lon="6.12186">
        <ele>317</ele>
        <time>2013-06-05T14:38:31Z</time>
      </trkpt>
      <trkpt lat="48.86951" lon="6.12179">
        <ele>318</ele>
        <time>2013-06-05T14:38:35Z</time>
      </trkpt>
      <trkpt lat="48.86955" lon="6.12173">
        <ele>318</ele>
        <time>2013-06-05T14:38:39Z</time>
      </trkpt>
      <trkpt lat="48.86959" lon="6.12166">
        <ele>320</ele>
        <time>2013-06-05T14:38:43Z</time>
      </trkpt>
      <trkpt lat="48.86962" lon="6.12159">
        <ele>320</ele>
        <time>2013-06-05T14:38:47Z</time>
      </trkpt>
      <trkpt lat="48.86965" lon="6.12151">
        <ele>320</ele>
        <time>2013-06-05T14:38:50Z</time>
      </trkpt>
      <trkpt lat="48.86967" lon="6.12144">
        <ele>320</ele>
        <time>2013-06-05T14:38:54Z</time>
      </trkpt>
      <trkpt lat="48.86969" lon="6.12137">
        <ele>321</ele>
        <time>2013-06-05T14:38:58Z</time>
      </trkpt>
      <trkpt lat="48.86972" lon="6.1213">
        <ele>323</ele>
        <time>2013-06-05T14:39:03Z</time>
      </trkpt>
      <trkpt lat="48.86973" lon="6.12121">
        <ele>324</ele>
        <time>2013-06-05T14:39:07Z</time>
      </trkpt>
      <trkpt lat="48.86974" lon="6.12113">
        <ele>324</ele>
        <time>2013-06-05T14:39:10Z</time>
      </trkpt>
      <trkpt lat="48.86973" lon="6.12106">
        <ele>323</ele>
        <time>2013-06-05T14:39:14Z</time>
      </trkpt>
      <trkpt lat="48.86972" lon="6.12099">
        <ele>322</ele>
        <time>2013-06-05T14:39:18Z</time>
      </trkpt>
      <trkpt lat="48.86973" lon="6.12092">
        <ele>322</ele>
        <time>2013-06-05T14:39:21Z</time>
      </trkpt>
      <trkpt lat="48.86973" lon="6.12083">
        <ele>322</ele>
        <time>2013-06-05T14:39:26Z</time>
      </trkpt>
      <trkpt lat="48.86972" lon="6.12074">
        <ele>322</ele>
        <time>2013-06-05T14:39:30Z</time>
      </trkpt>
      <trkpt lat="48.86973" lon="6.12066">
        <ele>322</ele>
        <time>2013-06-05T14:39:34Z</time>
      </trkpt>
      <trkpt lat="48.86974" lon="6.12059">
        <ele>322</ele>
        <time>2013-06-05T14:39:38Z</time>
      </trkpt>
      <trkpt lat="48.86975" lon="6.1205">
        <ele>322</ele>
        <time>2013-06-05T14:39:43Z</time>
      </trkpt>
      <trkpt lat="48.86974" lon="6.12042">
        <ele>323</ele>
        <time>2013-06-05T14:39:49Z</time>
      </trkpt>
      <trkpt lat="48.86974" lon="6.12034">
        <ele>324</ele>
        <time>2013-06-05T14:39:54Z</time>
      </trkpt>
      <trkpt lat="48.86976" lon="6.12026">
        <ele>324</ele>
        <time>2013-06-05T14:39:58Z</time>
      </trkpt>
      <trkpt lat="48.86979" lon="6.12018">
        <ele>324</ele>
        <time>2013-06-05T14:40:02Z</time>
      </trkpt>
      <trkpt lat="48.86981" lon="6.12011">
        <ele>324</ele>
        <time>2013-06-05T14:40:07Z</time>
      </trkpt>
      <trkpt lat="48.86984" lon="6.12005">
        <ele>325</ele>
        <time>2013-06-05T14:40:11Z</time>
      </trkpt>
      <trkpt lat="48.86983" lon="6.11999">
        <ele>327</ele>
        <time>2013-06-05T14:40:20Z</time>
      </trkpt>
    </trkseg>
  </trk>
</gpx>